<?xml version="1.0" encoding="UTF-8" standalone="no" ?>
<gpx xmlns="http://www.topografix.com/GPX/1/1" xmlns:xsi="http://www.w3.org/2001/XMLSchema-instance" xsi:schemaLocation="http://www.topografix.com/GPX/1/1 http://www.topografix.com/GPX/1/1/gpx.xsd" version="1.1" creator="VisuGPX - https://www.visugpx.com">
  <metadata>
    <name>Rando Villamblard 2022</name>
  </metadata>
  <trk>
    <name><![CDATA[Rando Villamblard 2022_1]]></name>
    <trkseg>
      <trkpt lat="45.02095" lon="0.53829">
        <ele>131</ele>
        <time>2022-05-08T06:37:16Z</time>
      </trkpt>
      <trkpt lat="45.02107" lon="0.53848">
        <ele>131.8</ele>
        <time>2022-05-08T06:37:22Z</time>
      </trkpt>
      <trkpt lat="45.02125" lon="0.53876">
        <ele>133.2</ele>
        <time>2022-05-08T06:37:32Z</time>
      </trkpt>
      <trkpt lat="45.02135" lon="0.53891">
        <ele>134</ele>
        <time>2022-05-08T06:37:38Z</time>
      </trkpt>
      <trkpt lat="45.02145" lon="0.53908">
        <ele>134.8</ele>
        <time>2022-05-08T06:37:44Z</time>
      </trkpt>
      <trkpt lat="45.02158" lon="0.53929">
        <ele>135.8</ele>
        <time>2022-05-08T06:37:51Z</time>
      </trkpt>
      <trkpt lat="45.02176" lon="0.53958">
        <ele>137.1</ele>
        <time>2022-05-08T06:38:00Z</time>
      </trkpt>
      <trkpt lat="45.02194" lon="0.53985">
        <ele>137.7</ele>
        <time>2022-05-08T06:38:09Z</time>
      </trkpt>
      <trkpt lat="45.02206" lon="0.54003">
        <ele>137.8</ele>
        <time>2022-05-08T06:38:16Z</time>
      </trkpt>
      <trkpt lat="45.02219" lon="0.5402">
        <ele>137.6</ele>
        <time>2022-05-08T06:38:23Z</time>
      </trkpt>
      <trkpt lat="45.02232" lon="0.54033">
        <ele>137.4</ele>
        <time>2022-05-08T06:38:29Z</time>
      </trkpt>
      <trkpt lat="45.02246" lon="0.5404">
        <ele>137.9</ele>
        <time>2022-05-08T06:38:34Z</time>
      </trkpt>
      <trkpt lat="45.02263" lon="0.54041">
        <ele>138.7</ele>
        <time>2022-05-08T06:38:41Z</time>
      </trkpt>
      <trkpt lat="45.02269" lon="0.54045">
        <ele>138.9</ele>
        <time>2022-05-08T06:38:42Z</time>
      </trkpt>
      <trkpt lat="45.02275" lon="0.54055">
        <ele>139</ele>
        <time>2022-05-08T06:38:45Z</time>
      </trkpt>
      <trkpt lat="45.02293" lon="0.54065">
        <ele>138.8</ele>
        <time>2022-05-08T06:38:51Z</time>
      </trkpt>
      <trkpt lat="45.02314" lon="0.54076">
        <ele>138.6</ele>
        <time>2022-05-08T06:38:57Z</time>
      </trkpt>
      <trkpt lat="45.02342" lon="0.5409">
        <ele>138.8</ele>
        <time>2022-05-08T06:39:05Z</time>
      </trkpt>
      <trkpt lat="45.02362" lon="0.54101">
        <ele>139.8</ele>
        <time>2022-05-08T06:39:11Z</time>
      </trkpt>
      <trkpt lat="45.0238" lon="0.5411">
        <ele>141.3</ele>
        <time>2022-05-08T06:39:17Z</time>
      </trkpt>
      <trkpt lat="45.024" lon="0.54121">
        <ele>143.4</ele>
        <time>2022-05-08T06:39:25Z</time>
      </trkpt>
      <trkpt lat="45.02415" lon="0.54128">
        <ele>144.9</ele>
        <time>2022-05-08T06:39:31Z</time>
      </trkpt>
      <trkpt lat="45.02432" lon="0.54134">
        <ele>146.5</ele>
        <time>2022-05-08T06:39:37Z</time>
      </trkpt>
      <trkpt lat="45.02457" lon="0.54143">
        <ele>149</ele>
        <time>2022-05-08T06:39:46Z</time>
      </trkpt>
      <trkpt lat="45.02477" lon="0.54151">
        <ele>151.3</ele>
        <time>2022-05-08T06:39:55Z</time>
      </trkpt>
      <trkpt lat="45.02498" lon="0.54155">
        <ele>154</ele>
        <time>2022-05-08T06:40:06Z</time>
      </trkpt>
      <trkpt lat="45.02512" lon="0.54154">
        <ele>155.7</ele>
        <time>2022-05-08T06:40:13Z</time>
      </trkpt>
      <trkpt lat="45.02524" lon="0.54152">
        <ele>157.2</ele>
        <time>2022-05-08T06:40:20Z</time>
      </trkpt>
      <trkpt lat="45.02538" lon="0.5415">
        <ele>158.9</ele>
        <time>2022-05-08T06:40:27Z</time>
      </trkpt>
      <trkpt lat="45.02553" lon="0.54148">
        <ele>160.6</ele>
        <time>2022-05-08T06:40:35Z</time>
      </trkpt>
      <trkpt lat="45.02565" lon="0.54146">
        <ele>161.7</ele>
        <time>2022-05-08T06:40:41Z</time>
      </trkpt>
      <trkpt lat="45.02581" lon="0.54144">
        <ele>162.5</ele>
        <time>2022-05-08T06:40:48Z</time>
      </trkpt>
      <trkpt lat="45.02595" lon="0.54142">
        <ele>163.3</ele>
        <time>2022-05-08T06:40:55Z</time>
      </trkpt>
      <trkpt lat="45.0261" lon="0.5414">
        <ele>164</ele>
        <time>2022-05-08T06:41:01Z</time>
      </trkpt>
      <trkpt lat="45.02631" lon="0.54137">
        <ele>165</ele>
        <time>2022-05-08T06:41:08Z</time>
      </trkpt>
      <trkpt lat="45.02648" lon="0.54134">
        <ele>166.1</ele>
        <time>2022-05-08T06:41:14Z</time>
      </trkpt>
      <trkpt lat="45.02668" lon="0.54127">
        <ele>167.2</ele>
        <time>2022-05-08T06:41:21Z</time>
      </trkpt>
      <trkpt lat="45.02687" lon="0.54123">
        <ele>168.4</ele>
        <time>2022-05-08T06:41:27Z</time>
      </trkpt>
      <trkpt lat="45.02702" lon="0.54126">
        <ele>169.3</ele>
        <time>2022-05-08T06:41:32Z</time>
      </trkpt>
      <trkpt lat="45.02712" lon="0.54128">
        <ele>170.2</ele>
        <time>2022-05-08T06:41:36Z</time>
      </trkpt>
      <trkpt lat="45.02721" lon="0.5413">
        <ele>171</ele>
        <time>2022-05-08T06:41:41Z</time>
      </trkpt>
      <trkpt lat="45.02727" lon="0.54132">
        <ele>171.6</ele>
        <time>2022-05-08T06:41:45Z</time>
      </trkpt>
      <trkpt lat="45.02731" lon="0.54132">
        <ele>172.1</ele>
        <time>2022-05-08T06:41:48Z</time>
      </trkpt>
      <trkpt lat="45.02736" lon="0.54133">
        <ele>172.7</ele>
        <time>2022-05-08T06:41:50Z</time>
      </trkpt>
      <trkpt lat="45.0274" lon="0.54134">
        <ele>173.2</ele>
        <time>2022-05-08T06:41:52Z</time>
      </trkpt>
      <trkpt lat="45.02749" lon="0.54136">
        <ele>174.1</ele>
        <time>2022-05-08T06:41:56Z</time>
      </trkpt>
      <trkpt lat="45.02758" lon="0.54137">
        <ele>174.9</ele>
        <time>2022-05-08T06:42:00Z</time>
      </trkpt>
      <trkpt lat="45.02767" lon="0.54136">
        <ele>175.7</ele>
        <time>2022-05-08T06:42:04Z</time>
      </trkpt>
      <trkpt lat="45.02777" lon="0.54133">
        <ele>176.4</ele>
        <time>2022-05-08T06:42:09Z</time>
      </trkpt>
      <trkpt lat="45.02784" lon="0.54129">
        <ele>176.9</ele>
        <time>2022-05-08T06:42:13Z</time>
      </trkpt>
      <trkpt lat="45.02797" lon="0.54123">
        <ele>177.5</ele>
        <time>2022-05-08T06:42:19Z</time>
      </trkpt>
      <trkpt lat="45.02807" lon="0.5412">
        <ele>177.9</ele>
        <time>2022-05-08T06:42:23Z</time>
      </trkpt>
      <trkpt lat="45.02816" lon="0.54118">
        <ele>178.4</ele>
        <time>2022-05-08T06:42:27Z</time>
      </trkpt>
      <trkpt lat="45.02831" lon="0.54117">
        <ele>179.3</ele>
        <time>2022-05-08T06:42:33Z</time>
      </trkpt>
      <trkpt lat="45.02845" lon="0.54121">
        <ele>180.4</ele>
        <time>2022-05-08T06:42:39Z</time>
      </trkpt>
      <trkpt lat="45.02855" lon="0.54124">
        <ele>181.4</ele>
        <time>2022-05-08T06:42:44Z</time>
      </trkpt>
      <trkpt lat="45.02863" lon="0.54128">
        <ele>182.3</ele>
        <time>2022-05-08T06:42:48Z</time>
      </trkpt>
      <trkpt lat="45.02878" lon="0.54133">
        <ele>183.9</ele>
        <time>2022-05-08T06:42:54Z</time>
      </trkpt>
      <trkpt lat="45.0288" lon="0.54134">
        <ele>184.2</ele>
        <time>2022-05-08T06:42:55Z</time>
      </trkpt>
      <trkpt lat="45.02888" lon="0.54137">
        <ele>185.1</ele>
        <time>2022-05-08T06:42:58Z</time>
      </trkpt>
      <trkpt lat="45.02898" lon="0.54141">
        <ele>186.4</ele>
        <time>2022-05-08T06:43:03Z</time>
      </trkpt>
      <trkpt lat="45.02912" lon="0.54144">
        <ele>188</ele>
        <time>2022-05-08T06:43:09Z</time>
      </trkpt>
      <trkpt lat="45.02925" lon="0.54146">
        <ele>189.2</ele>
        <time>2022-05-08T06:43:15Z</time>
      </trkpt>
      <trkpt lat="45.02939" lon="0.54149">
        <ele>190</ele>
        <time>2022-05-08T06:43:21Z</time>
      </trkpt>
      <trkpt lat="45.0295" lon="0.5415">
        <ele>190.2</ele>
        <time>2022-05-08T06:43:25Z</time>
      </trkpt>
      <trkpt lat="45.02971" lon="0.54154">
        <ele>190.2</ele>
        <time>2022-05-08T06:43:31Z</time>
      </trkpt>
      <trkpt lat="45.02991" lon="0.54153">
        <ele>190.2</ele>
        <time>2022-05-08T06:43:37Z</time>
      </trkpt>
      <trkpt lat="45.02996" lon="0.54166">
        <ele>190.6</ele>
        <time>2022-05-08T06:43:40Z</time>
      </trkpt>
      <trkpt lat="45.03001" lon="0.54174">
        <ele>190.9</ele>
        <time>2022-05-08T06:43:43Z</time>
      </trkpt>
      <trkpt lat="45.03002" lon="0.54176">
        <ele>191</ele>
        <time>2022-05-08T06:43:44Z</time>
      </trkpt>
      <trkpt lat="45.03019" lon="0.54187">
        <ele>192</ele>
        <time>2022-05-08T06:43:49Z</time>
      </trkpt>
      <trkpt lat="45.03042" lon="0.542">
        <ele>193.1</ele>
        <time>2022-05-08T06:43:54Z</time>
      </trkpt>
      <trkpt lat="45.03063" lon="0.54204">
        <ele>193.5</ele>
        <time>2022-05-08T06:43:59Z</time>
      </trkpt>
      <trkpt lat="45.03075" lon="0.54204">
        <ele>193.5</ele>
        <time>2022-05-08T06:44:01Z</time>
      </trkpt>
      <trkpt lat="45.03088" lon="0.54201">
        <ele>193.3</ele>
        <time>2022-05-08T06:44:03Z</time>
      </trkpt>
      <trkpt lat="45.03115" lon="0.5419">
        <ele>192.2</ele>
        <time>2022-05-08T06:44:07Z</time>
      </trkpt>
      <trkpt lat="45.03149" lon="0.54176">
        <ele>190.4</ele>
        <time>2022-05-08T06:44:11Z</time>
      </trkpt>
      <trkpt lat="45.03157" lon="0.54173">
        <ele>190.1</ele>
        <time>2022-05-08T06:44:12Z</time>
      </trkpt>
      <trkpt lat="45.03185" lon="0.5417">
        <ele>189.6</ele>
        <time>2022-05-08T06:44:15Z</time>
      </trkpt>
      <trkpt lat="45.03201" lon="0.54172">
        <ele>190.1</ele>
        <time>2022-05-08T06:44:17Z</time>
      </trkpt>
      <trkpt lat="45.03215" lon="0.54175">
        <ele>190.7</ele>
        <time>2022-05-08T06:44:19Z</time>
      </trkpt>
      <trkpt lat="45.03238" lon="0.54187">
        <ele>192.3</ele>
        <time>2022-05-08T06:44:24Z</time>
      </trkpt>
      <trkpt lat="45.03243" lon="0.54191">
        <ele>192.9</ele>
        <time>2022-05-08T06:44:26Z</time>
      </trkpt>
      <trkpt lat="45.03248" lon="0.54194">
        <ele>193.3</ele>
        <time>2022-05-08T06:44:28Z</time>
      </trkpt>
      <trkpt lat="45.03261" lon="0.54207">
        <ele>195</ele>
        <time>2022-05-08T06:44:33Z</time>
      </trkpt>
      <trkpt lat="45.03276" lon="0.54223">
        <ele>196.6</ele>
        <time>2022-05-08T06:44:40Z</time>
      </trkpt>
      <trkpt lat="45.0329" lon="0.54235">
        <ele>198.1</ele>
        <time>2022-05-08T06:44:47Z</time>
      </trkpt>
      <trkpt lat="45.033" lon="0.54244">
        <ele>199.4</ele>
        <time>2022-05-08T06:44:53Z</time>
      </trkpt>
      <trkpt lat="45.03304" lon="0.54247">
        <ele>199.8</ele>
        <time>2022-05-08T06:44:57Z</time>
      </trkpt>
      <trkpt lat="45.03319" lon="0.54255">
        <ele>200.9</ele>
        <time>2022-05-08T06:45:04Z</time>
      </trkpt>
      <trkpt lat="45.03332" lon="0.54262">
        <ele>201.8</ele>
        <time>2022-05-08T06:45:10Z</time>
      </trkpt>
      <trkpt lat="45.03342" lon="0.54263">
        <ele>202.5</ele>
        <time>2022-05-08T06:45:15Z</time>
      </trkpt>
      <trkpt lat="45.0335" lon="0.54264">
        <ele>203.3</ele>
        <time>2022-05-08T06:45:20Z</time>
      </trkpt>
      <trkpt lat="45.03358" lon="0.54268">
        <ele>204</ele>
        <time>2022-05-08T06:45:25Z</time>
      </trkpt>
      <trkpt lat="45.03361" lon="0.54269">
        <ele>204.2</ele>
        <time>2022-05-08T06:45:27Z</time>
      </trkpt>
      <trkpt lat="45.03364" lon="0.5427">
        <ele>204.4</ele>
        <time>2022-05-08T06:45:29Z</time>
      </trkpt>
      <trkpt lat="45.03371" lon="0.54274">
        <ele>205</ele>
        <time>2022-05-08T06:45:33Z</time>
      </trkpt>
      <trkpt lat="45.03378" lon="0.54276">
        <ele>205.8</ele>
        <time>2022-05-08T06:45:38Z</time>
      </trkpt>
      <trkpt lat="45.03386" lon="0.54279">
        <ele>206.6</ele>
        <time>2022-05-08T06:45:43Z</time>
      </trkpt>
      <trkpt lat="45.03394" lon="0.54283">
        <ele>207.3</ele>
        <time>2022-05-08T06:45:49Z</time>
      </trkpt>
      <trkpt lat="45.03395" lon="0.54284">
        <ele>207.4</ele>
        <time>2022-05-08T06:45:50Z</time>
      </trkpt>
      <trkpt lat="45.03397" lon="0.54285">
        <ele>207.6</ele>
        <time>2022-05-08T06:45:52Z</time>
      </trkpt>
      <trkpt lat="45.03398" lon="0.54285">
        <ele>207.7</ele>
        <time>2022-05-08T06:45:53Z</time>
      </trkpt>
      <trkpt lat="45.03407" lon="0.54289">
        <ele>208.3</ele>
        <time>2022-05-08T06:45:58Z</time>
      </trkpt>
      <trkpt lat="45.0342" lon="0.54292">
        <ele>209</ele>
        <time>2022-05-08T06:46:04Z</time>
      </trkpt>
      <trkpt lat="45.03434" lon="0.54293">
        <ele>209.2</ele>
        <time>2022-05-08T06:46:10Z</time>
      </trkpt>
      <trkpt lat="45.03447" lon="0.54293">
        <ele>209</ele>
        <time>2022-05-08T06:46:14Z</time>
      </trkpt>
      <trkpt lat="45.03454" lon="0.54294">
        <ele>208.6</ele>
        <time>2022-05-08T06:46:17Z</time>
      </trkpt>
      <trkpt lat="45.0347" lon="0.54294">
        <ele>207</ele>
        <time>2022-05-08T06:46:21Z</time>
      </trkpt>
      <trkpt lat="45.03483" lon="0.54297">
        <ele>205.3</ele>
        <time>2022-05-08T06:46:24Z</time>
      </trkpt>
      <trkpt lat="45.03483" lon="0.54325">
        <ele>202</ele>
        <time>2022-05-08T06:46:28Z</time>
      </trkpt>
      <trkpt lat="45.0348" lon="0.5433">
        <ele>201.7</ele>
        <time>2022-05-08T06:46:29Z</time>
      </trkpt>
      <trkpt lat="45.03471" lon="0.5435">
        <ele>200.5</ele>
        <time>2022-05-08T06:46:33Z</time>
      </trkpt>
      <trkpt lat="45.03465" lon="0.54369">
        <ele>199.4</ele>
        <time>2022-05-08T06:46:38Z</time>
      </trkpt>
      <trkpt lat="45.03461" lon="0.544">
        <ele>197.6</ele>
        <time>2022-05-08T06:46:42Z</time>
      </trkpt>
      <trkpt lat="45.03455" lon="0.54412">
        <ele>196.8</ele>
        <time>2022-05-08T06:46:44Z</time>
      </trkpt>
      <trkpt lat="45.03446" lon="0.54422">
        <ele>195.7</ele>
        <time>2022-05-08T06:46:46Z</time>
      </trkpt>
      <trkpt lat="45.03427" lon="0.54446">
        <ele>192.9</ele>
        <time>2022-05-08T06:46:50Z</time>
      </trkpt>
      <trkpt lat="45.03424" lon="0.54453">
        <ele>192.2</ele>
        <time>2022-05-08T06:46:51Z</time>
      </trkpt>
      <trkpt lat="45.03415" lon="0.54474">
        <ele>190.5</ele>
        <time>2022-05-08T06:46:54Z</time>
      </trkpt>
      <trkpt lat="45.03411" lon="0.5449">
        <ele>189.6</ele>
        <time>2022-05-08T06:46:57Z</time>
      </trkpt>
      <trkpt lat="45.0341" lon="0.54496">
        <ele>189.4</ele>
        <time>2022-05-08T06:46:59Z</time>
      </trkpt>
      <trkpt lat="45.03416" lon="0.54507">
        <ele>189.1</ele>
        <time>2022-05-08T06:47:01Z</time>
      </trkpt>
      <trkpt lat="45.03418" lon="0.54507">
        <ele>189.1</ele>
        <time>2022-05-08T06:47:03Z</time>
      </trkpt>
      <trkpt lat="45.03423" lon="0.54507">
        <ele>189.1</ele>
        <time>2022-05-08T06:47:05Z</time>
      </trkpt>
      <trkpt lat="45.03433" lon="0.54505">
        <ele>189.1</ele>
        <time>2022-05-08T06:47:07Z</time>
      </trkpt>
      <trkpt lat="45.03444" lon="0.54502">
        <ele>189</ele>
        <time>2022-05-08T06:47:09Z</time>
      </trkpt>
      <trkpt lat="45.03453" lon="0.54499">
        <ele>188.8</ele>
        <time>2022-05-08T06:47:11Z</time>
      </trkpt>
      <trkpt lat="45.03462" lon="0.54495">
        <ele>188.6</ele>
        <time>2022-05-08T06:47:13Z</time>
      </trkpt>
      <trkpt lat="45.03465" lon="0.54493">
        <ele>188.6</ele>
        <time>2022-05-08T06:47:14Z</time>
      </trkpt>
      <trkpt lat="45.03474" lon="0.54489">
        <ele>188.3</ele>
        <time>2022-05-08T06:47:16Z</time>
      </trkpt>
      <trkpt lat="45.03479" lon="0.54487">
        <ele>188.2</ele>
        <time>2022-05-08T06:47:17Z</time>
      </trkpt>
      <trkpt lat="45.03489" lon="0.54481">
        <ele>187.8</ele>
        <time>2022-05-08T06:47:19Z</time>
      </trkpt>
      <trkpt lat="45.03498" lon="0.54474">
        <ele>187.5</ele>
        <time>2022-05-08T06:47:21Z</time>
      </trkpt>
      <trkpt lat="45.03504" lon="0.5447">
        <ele>187.3</ele>
        <time>2022-05-08T06:47:22Z</time>
      </trkpt>
      <trkpt lat="45.0351" lon="0.54468">
        <ele>187.1</ele>
        <time>2022-05-08T06:47:23Z</time>
      </trkpt>
      <trkpt lat="45.03518" lon="0.54481">
        <ele>186.1</ele>
        <time>2022-05-08T06:47:25Z</time>
      </trkpt>
      <trkpt lat="45.03519" lon="0.54487">
        <ele>186.1</ele>
        <time>2022-05-08T06:47:26Z</time>
      </trkpt>
      <trkpt lat="45.03519" lon="0.54499">
        <ele>186.1</ele>
        <time>2022-05-08T06:47:28Z</time>
      </trkpt>
      <trkpt lat="45.03517" lon="0.5451">
        <ele>183.9</ele>
        <time>2022-05-08T06:47:30Z</time>
      </trkpt>
      <trkpt lat="45.03515" lon="0.54514">
        <ele>183.7</ele>
        <time>2022-05-08T06:47:31Z</time>
      </trkpt>
      <trkpt lat="45.03514" lon="0.54538">
        <ele>182.7</ele>
        <time>2022-05-08T06:47:35Z</time>
      </trkpt>
      <trkpt lat="45.03512" lon="0.54544">
        <ele>182.4</ele>
        <time>2022-05-08T06:47:36Z</time>
      </trkpt>
      <trkpt lat="45.03507" lon="0.54556">
        <ele>181.8</ele>
        <time>2022-05-08T06:47:38Z</time>
      </trkpt>
      <trkpt lat="45.03502" lon="0.54569">
        <ele>181.2</ele>
        <time>2022-05-08T06:47:40Z</time>
      </trkpt>
      <trkpt lat="45.035" lon="0.54576">
        <ele>180.9</ele>
        <time>2022-05-08T06:47:41Z</time>
      </trkpt>
      <trkpt lat="45.03495" lon="0.5459">
        <ele>180.4</ele>
        <time>2022-05-08T06:47:43Z</time>
      </trkpt>
      <trkpt lat="45.03492" lon="0.54613">
        <ele>179.6</ele>
        <time>2022-05-08T06:47:46Z</time>
      </trkpt>
      <trkpt lat="45.03488" lon="0.54664">
        <ele>178</ele>
        <time>2022-05-08T06:47:51Z</time>
      </trkpt>
      <trkpt lat="45.03487" lon="0.54675">
        <ele>177.7</ele>
        <time>2022-05-08T06:47:52Z</time>
      </trkpt>
      <trkpt lat="45.03485" lon="0.54696">
        <ele>177.2</ele>
        <time>2022-05-08T06:47:54Z</time>
      </trkpt>
      <trkpt lat="45.03483" lon="0.54717">
        <ele>176.6</ele>
        <time>2022-05-08T06:47:56Z</time>
      </trkpt>
      <trkpt lat="45.03479" lon="0.5474">
        <ele>175.9</ele>
        <time>2022-05-08T06:47:58Z</time>
      </trkpt>
      <trkpt lat="45.03473" lon="0.54773">
        <ele>175</ele>
        <time>2022-05-08T06:48:01Z</time>
      </trkpt>
      <trkpt lat="45.03468" lon="0.54794">
        <ele>174.5</ele>
        <time>2022-05-08T06:48:03Z</time>
      </trkpt>
      <trkpt lat="45.03454" lon="0.5485">
        <ele>172.5</ele>
        <time>2022-05-08T06:48:08Z</time>
      </trkpt>
      <trkpt lat="45.03451" lon="0.54862">
        <ele>172</ele>
        <time>2022-05-08T06:48:09Z</time>
      </trkpt>
      <trkpt lat="45.03439" lon="0.54898">
        <ele>170.2</ele>
        <time>2022-05-08T06:48:12Z</time>
      </trkpt>
      <trkpt lat="45.03417" lon="0.54944">
        <ele>167.8</ele>
        <time>2022-05-08T06:48:16Z</time>
      </trkpt>
      <trkpt lat="45.03397" lon="0.54973">
        <ele>167.1</ele>
        <time>2022-05-08T06:48:19Z</time>
      </trkpt>
      <trkpt lat="45.03368" lon="0.55011">
        <ele>163.8</ele>
        <time>2022-05-08T06:48:23Z</time>
      </trkpt>
      <trkpt lat="45.03363" lon="0.55023">
        <ele>162.8</ele>
        <time>2022-05-08T06:48:24Z</time>
      </trkpt>
      <trkpt lat="45.03352" lon="0.55047">
        <ele>160.6</ele>
        <time>2022-05-08T06:48:26Z</time>
      </trkpt>
      <trkpt lat="45.03317" lon="0.55123">
        <ele>153.5</ele>
        <time>2022-05-08T06:48:32Z</time>
      </trkpt>
      <trkpt lat="45.03291" lon="0.55187">
        <ele>148.7</ele>
        <time>2022-05-08T06:48:37Z</time>
      </trkpt>
      <trkpt lat="45.03284" lon="0.55205">
        <ele>147.6</ele>
        <time>2022-05-08T06:48:39Z</time>
      </trkpt>
      <trkpt lat="45.03281" lon="0.55211">
        <ele>147.2</ele>
        <time>2022-05-08T06:48:40Z</time>
      </trkpt>
      <trkpt lat="45.03278" lon="0.55217">
        <ele>146.8</ele>
        <time>2022-05-08T06:48:41Z</time>
      </trkpt>
      <trkpt lat="45.03282" lon="0.55229">
        <ele>146.6</ele>
        <time>2022-05-08T06:48:42Z</time>
      </trkpt>
      <trkpt lat="45.0329" lon="0.55235">
        <ele>146.9</ele>
        <time>2022-05-08T06:48:44Z</time>
      </trkpt>
      <trkpt lat="45.03295" lon="0.55239">
        <ele>147</ele>
        <time>2022-05-08T06:48:45Z</time>
      </trkpt>
      <trkpt lat="45.03314" lon="0.55253">
        <ele>147.6</ele>
        <time>2022-05-08T06:48:49Z</time>
      </trkpt>
      <trkpt lat="45.03325" lon="0.55261">
        <ele>148.1</ele>
        <time>2022-05-08T06:48:51Z</time>
      </trkpt>
      <trkpt lat="45.0333" lon="0.55265">
        <ele>148.4</ele>
        <time>2022-05-08T06:48:52Z</time>
      </trkpt>
      <trkpt lat="45.03346" lon="0.55277">
        <ele>149.2</ele>
        <time>2022-05-08T06:48:55Z</time>
      </trkpt>
      <trkpt lat="45.0335" lon="0.5528">
        <ele>149.5</ele>
        <time>2022-05-08T06:48:56Z</time>
      </trkpt>
      <trkpt lat="45.0336" lon="0.55288">
        <ele>150.1</ele>
        <time>2022-05-08T06:48:59Z</time>
      </trkpt>
      <trkpt lat="45.03368" lon="0.55294">
        <ele>150.5</ele>
        <time>2022-05-08T06:49:02Z</time>
      </trkpt>
      <trkpt lat="45.03383" lon="0.55305">
        <ele>151.4</ele>
        <time>2022-05-08T06:49:07Z</time>
      </trkpt>
      <trkpt lat="45.03399" lon="0.55316">
        <ele>152.4</ele>
        <time>2022-05-08T06:49:12Z</time>
      </trkpt>
      <trkpt lat="45.03419" lon="0.55331">
        <ele>153.5</ele>
        <time>2022-05-08T06:49:18Z</time>
      </trkpt>
      <trkpt lat="45.03422" lon="0.55335">
        <ele>153.6</ele>
        <time>2022-05-08T06:49:19Z</time>
      </trkpt>
      <trkpt lat="45.03428" lon="0.55342">
        <ele>153.8</ele>
        <time>2022-05-08T06:49:21Z</time>
      </trkpt>
      <trkpt lat="45.03432" lon="0.55347">
        <ele>153.8</ele>
        <time>2022-05-08T06:49:22Z</time>
      </trkpt>
      <trkpt lat="45.03447" lon="0.55369">
        <ele>153.7</ele>
        <time>2022-05-08T06:49:26Z</time>
      </trkpt>
      <trkpt lat="45.03451" lon="0.55384">
        <ele>153.8</ele>
        <time>2022-05-08T06:49:28Z</time>
      </trkpt>
      <trkpt lat="45.03454" lon="0.55392">
        <ele>153.8</ele>
        <time>2022-05-08T06:49:29Z</time>
      </trkpt>
      <trkpt lat="45.03465" lon="0.5542">
        <ele>154.3</ele>
        <time>2022-05-08T06:49:33Z</time>
      </trkpt>
      <trkpt lat="45.03475" lon="0.55438">
        <ele>154.8</ele>
        <time>2022-05-08T06:49:36Z</time>
      </trkpt>
      <trkpt lat="45.03485" lon="0.55455">
        <ele>155.4</ele>
        <time>2022-05-08T06:49:39Z</time>
      </trkpt>
      <trkpt lat="45.03508" lon="0.55484">
        <ele>157</ele>
        <time>2022-05-08T06:49:45Z</time>
      </trkpt>
      <trkpt lat="45.03536" lon="0.55521">
        <ele>159.4</ele>
        <time>2022-05-08T06:49:53Z</time>
      </trkpt>
      <trkpt lat="45.0354" lon="0.5553">
        <ele>159.9</ele>
        <time>2022-05-08T06:49:55Z</time>
      </trkpt>
      <trkpt lat="45.03544" lon="0.55539">
        <ele>160.3</ele>
        <time>2022-05-08T06:49:57Z</time>
      </trkpt>
      <trkpt lat="45.03557" lon="0.55564">
        <ele>161.7</ele>
        <time>2022-05-08T06:50:03Z</time>
      </trkpt>
      <trkpt lat="45.03572" lon="0.55591">
        <ele>163.5</ele>
        <time>2022-05-08T06:50:10Z</time>
      </trkpt>
      <trkpt lat="45.03581" lon="0.55608">
        <ele>164.5</ele>
        <time>2022-05-08T06:50:15Z</time>
      </trkpt>
      <trkpt lat="45.03586" lon="0.55616">
        <ele>164.9</ele>
        <time>2022-05-08T06:50:19Z</time>
      </trkpt>
      <trkpt lat="45.03588" lon="0.55619">
        <ele>165.1</ele>
        <time>2022-05-08T06:50:21Z</time>
      </trkpt>
      <trkpt lat="45.03589" lon="0.55621">
        <ele>165.2</ele>
        <time>2022-05-08T06:50:23Z</time>
      </trkpt>
      <trkpt lat="45.03591" lon="0.55624">
        <ele>165.3</ele>
        <time>2022-05-08T06:50:24Z</time>
      </trkpt>
      <trkpt lat="45.03595" lon="0.5563">
        <ele>165.6</ele>
        <time>2022-05-08T06:50:26Z</time>
      </trkpt>
      <trkpt lat="45.03598" lon="0.55636">
        <ele>165.9</ele>
        <time>2022-05-08T06:50:27Z</time>
      </trkpt>
      <trkpt lat="45.03599" lon="0.55639">
        <ele>166</ele>
        <time>2022-05-08T06:50:29Z</time>
      </trkpt>
      <trkpt lat="45.036" lon="0.55643">
        <ele>166.1</ele>
        <time>2022-05-08T06:50:30Z</time>
      </trkpt>
      <trkpt lat="45.03601" lon="0.55647">
        <ele>166.3</ele>
        <time>2022-05-08T06:50:31Z</time>
      </trkpt>
      <trkpt lat="45.03598" lon="0.55662">
        <ele>166.7</ele>
        <time>2022-05-08T06:50:33Z</time>
      </trkpt>
      <trkpt lat="45.03611" lon="0.5568">
        <ele>167.4</ele>
        <time>2022-05-08T06:50:38Z</time>
      </trkpt>
      <trkpt lat="45.0362" lon="0.55673">
        <ele>167.8</ele>
        <time>2022-05-08T06:50:39Z</time>
      </trkpt>
      <trkpt lat="45.03627" lon="0.55686">
        <ele>168.3</ele>
        <time>2022-05-08T06:50:42Z</time>
      </trkpt>
      <trkpt lat="45.03631" lon="0.55694">
        <ele>168.6</ele>
        <time>2022-05-08T06:50:43Z</time>
      </trkpt>
      <trkpt lat="45.03638" lon="0.55709">
        <ele>169.3</ele>
        <time>2022-05-08T06:50:46Z</time>
      </trkpt>
      <trkpt lat="45.03636" lon="0.55742">
        <ele>171.6</ele>
        <time>2022-05-08T06:50:50Z</time>
      </trkpt>
      <trkpt lat="45.03631" lon="0.55747">
        <ele>172.2</ele>
        <time>2022-05-08T06:50:53Z</time>
      </trkpt>
      <trkpt lat="45.03628" lon="0.55751">
        <ele>172.7</ele>
        <time>2022-05-08T06:50:56Z</time>
      </trkpt>
      <trkpt lat="45.03623" lon="0.55756">
        <ele>173.4</ele>
        <time>2022-05-08T06:51:00Z</time>
      </trkpt>
      <trkpt lat="45.03619" lon="0.5576">
        <ele>174.1</ele>
        <time>2022-05-08T06:51:04Z</time>
      </trkpt>
      <trkpt lat="45.03614" lon="0.55765">
        <ele>175</ele>
        <time>2022-05-08T06:51:07Z</time>
      </trkpt>
      <trkpt lat="45.0361" lon="0.5577">
        <ele>175.7</ele>
        <time>2022-05-08T06:51:12Z</time>
      </trkpt>
      <trkpt lat="45.03605" lon="0.55775">
        <ele>176.6</ele>
        <time>2022-05-08T06:51:16Z</time>
      </trkpt>
      <trkpt lat="45.036" lon="0.5578">
        <ele>177.6</ele>
        <time>2022-05-08T06:51:20Z</time>
      </trkpt>
      <trkpt lat="45.03598" lon="0.55782">
        <ele>177.8</ele>
        <time>2022-05-08T06:51:21Z</time>
      </trkpt>
      <trkpt lat="45.03595" lon="0.55785">
        <ele>178.3</ele>
        <time>2022-05-08T06:51:24Z</time>
      </trkpt>
      <trkpt lat="45.03593" lon="0.55786">
        <ele>178.6</ele>
        <time>2022-05-08T06:51:25Z</time>
      </trkpt>
      <trkpt lat="45.03584" lon="0.55792">
        <ele>179.8</ele>
        <time>2022-05-08T06:51:32Z</time>
      </trkpt>
      <trkpt lat="45.0358" lon="0.55796">
        <ele>180.3</ele>
        <time>2022-05-08T06:51:35Z</time>
      </trkpt>
      <trkpt lat="45.03574" lon="0.55802">
        <ele>180.9</ele>
        <time>2022-05-08T06:51:39Z</time>
      </trkpt>
      <trkpt lat="45.0357" lon="0.55807">
        <ele>181.3</ele>
        <time>2022-05-08T06:51:41Z</time>
      </trkpt>
      <trkpt lat="45.03565" lon="0.55813">
        <ele>181.7</ele>
        <time>2022-05-08T06:51:44Z</time>
      </trkpt>
      <trkpt lat="45.0356" lon="0.55818">
        <ele>182</ele>
        <time>2022-05-08T06:51:47Z</time>
      </trkpt>
      <trkpt lat="45.03556" lon="0.55823">
        <ele>182.1</ele>
        <time>2022-05-08T06:51:49Z</time>
      </trkpt>
      <trkpt lat="45.03547" lon="0.55832">
        <ele>182.2</ele>
        <time>2022-05-08T06:51:53Z</time>
      </trkpt>
      <trkpt lat="45.03544" lon="0.55833">
        <ele>182.1</ele>
        <time>2022-05-08T06:51:54Z</time>
      </trkpt>
      <trkpt lat="45.03533" lon="0.55839">
        <ele>181.5</ele>
        <time>2022-05-08T06:51:57Z</time>
      </trkpt>
      <trkpt lat="45.03529" lon="0.55841">
        <ele>181.2</ele>
        <time>2022-05-08T06:51:58Z</time>
      </trkpt>
      <trkpt lat="45.0352" lon="0.55841">
        <ele>180.4</ele>
        <time>2022-05-08T06:52:01Z</time>
      </trkpt>
      <trkpt lat="45.03524" lon="0.55857">
        <ele>180.4</ele>
        <time>2022-05-08T06:52:04Z</time>
      </trkpt>
      <trkpt lat="45.03533" lon="0.55875">
        <ele>180.8</ele>
        <time>2022-05-08T06:52:09Z</time>
      </trkpt>
      <trkpt lat="45.03544" lon="0.55889">
        <ele>181.3</ele>
        <time>2022-05-08T06:52:14Z</time>
      </trkpt>
      <trkpt lat="45.03552" lon="0.55899">
        <ele>182</ele>
        <time>2022-05-08T06:52:19Z</time>
      </trkpt>
      <trkpt lat="45.03562" lon="0.55911">
        <ele>182.8</ele>
        <time>2022-05-08T06:52:24Z</time>
      </trkpt>
      <trkpt lat="45.03571" lon="0.55925">
        <ele>183.5</ele>
        <time>2022-05-08T06:52:29Z</time>
      </trkpt>
      <trkpt lat="45.03574" lon="0.55929">
        <ele>183.7</ele>
        <time>2022-05-08T06:52:30Z</time>
      </trkpt>
      <trkpt lat="45.03578" lon="0.55936">
        <ele>184.1</ele>
        <time>2022-05-08T06:52:32Z</time>
      </trkpt>
      <trkpt lat="45.03578" lon="0.55936">
        <ele>184.1</ele>
        <time>2022-05-08T06:52:33Z</time>
      </trkpt>
      <trkpt lat="45.03578" lon="0.55936">
        <ele>184.1</ele>
        <time>2022-05-08T06:52:34Z</time>
      </trkpt>
      <trkpt lat="45.03587" lon="0.55954">
        <ele>184.8</ele>
        <time>2022-05-08T06:52:38Z</time>
      </trkpt>
      <trkpt lat="45.03592" lon="0.55962">
        <ele>185</ele>
        <time>2022-05-08T06:52:40Z</time>
      </trkpt>
      <trkpt lat="45.03605" lon="0.55981">
        <ele>185.4</ele>
        <time>2022-05-08T06:52:45Z</time>
      </trkpt>
      <trkpt lat="45.03616" lon="0.55992">
        <ele>185.7</ele>
        <time>2022-05-08T06:52:48Z</time>
      </trkpt>
      <trkpt lat="45.03616" lon="0.55993">
        <ele>185.7</ele>
        <time>2022-05-08T06:52:49Z</time>
      </trkpt>
      <trkpt lat="45.03618" lon="0.55996">
        <ele>185.8</ele>
        <time>2022-05-08T06:52:50Z</time>
      </trkpt>
      <trkpt lat="45.03623" lon="0.56007">
        <ele>186.1</ele>
        <time>2022-05-08T06:52:53Z</time>
      </trkpt>
      <trkpt lat="45.0363" lon="0.56017">
        <ele>186.5</ele>
        <time>2022-05-08T06:52:56Z</time>
      </trkpt>
      <trkpt lat="45.03633" lon="0.56019">
        <ele>186.7</ele>
        <time>2022-05-08T06:52:57Z</time>
      </trkpt>
      <trkpt lat="45.03641" lon="0.56028">
        <ele>187.1</ele>
        <time>2022-05-08T06:53:00Z</time>
      </trkpt>
      <trkpt lat="45.0365" lon="0.56037">
        <ele>187.5</ele>
        <time>2022-05-08T06:53:04Z</time>
      </trkpt>
      <trkpt lat="45.03659" lon="0.56047">
        <ele>188</ele>
        <time>2022-05-08T06:53:08Z</time>
      </trkpt>
      <trkpt lat="45.03661" lon="0.56049">
        <ele>188.1</ele>
        <time>2022-05-08T06:53:09Z</time>
      </trkpt>
      <trkpt lat="45.03663" lon="0.56054">
        <ele>188.3</ele>
        <time>2022-05-08T06:53:11Z</time>
      </trkpt>
      <trkpt lat="45.03665" lon="0.56057">
        <ele>188.4</ele>
        <time>2022-05-08T06:53:12Z</time>
      </trkpt>
      <trkpt lat="45.03668" lon="0.56064">
        <ele>188.7</ele>
        <time>2022-05-08T06:53:17Z</time>
      </trkpt>
      <trkpt lat="45.03685" lon="0.5609">
        <ele>190</ele>
        <time>2022-05-08T06:53:21Z</time>
      </trkpt>
      <trkpt lat="45.0369" lon="0.561">
        <ele>190.5</ele>
        <time>2022-05-08T06:53:23Z</time>
      </trkpt>
      <trkpt lat="45.03699" lon="0.56122">
        <ele>191.5</ele>
        <time>2022-05-08T06:53:28Z</time>
      </trkpt>
      <trkpt lat="45.0371" lon="0.5614">
        <ele>192.1</ele>
        <time>2022-05-08T06:53:33Z</time>
      </trkpt>
      <trkpt lat="45.0372" lon="0.56154">
        <ele>192.6</ele>
        <time>2022-05-08T06:53:37Z</time>
      </trkpt>
      <trkpt lat="45.03722" lon="0.56156">
        <ele>192.7</ele>
        <time>2022-05-08T06:53:38Z</time>
      </trkpt>
      <trkpt lat="45.03727" lon="0.56162">
        <ele>192.9</ele>
        <time>2022-05-08T06:53:40Z</time>
      </trkpt>
      <trkpt lat="45.03731" lon="0.56167">
        <ele>193.1</ele>
        <time>2022-05-08T06:53:42Z</time>
      </trkpt>
      <trkpt lat="45.03744" lon="0.56183">
        <ele>194.1</ele>
        <time>2022-05-08T06:53:47Z</time>
      </trkpt>
      <trkpt lat="45.03754" lon="0.56199">
        <ele>195.1</ele>
        <time>2022-05-08T06:53:52Z</time>
      </trkpt>
      <trkpt lat="45.03765" lon="0.5622">
        <ele>196.2</ele>
        <time>2022-05-08T06:53:58Z</time>
      </trkpt>
      <trkpt lat="45.0378" lon="0.5625">
        <ele>197.5</ele>
        <time>2022-05-08T06:54:07Z</time>
      </trkpt>
      <trkpt lat="45.03793" lon="0.56277">
        <ele>198.8</ele>
        <time>2022-05-08T06:54:16Z</time>
      </trkpt>
      <trkpt lat="45.038" lon="0.56292">
        <ele>199.4</ele>
        <time>2022-05-08T06:54:21Z</time>
      </trkpt>
      <trkpt lat="45.03805" lon="0.56301">
        <ele>199.7</ele>
        <time>2022-05-08T06:54:25Z</time>
      </trkpt>
      <trkpt lat="45.03811" lon="0.56314">
        <ele>199.9</ele>
        <time>2022-05-08T06:54:29Z</time>
      </trkpt>
      <trkpt lat="45.03816" lon="0.56327">
        <ele>200</ele>
        <time>2022-05-08T06:54:33Z</time>
      </trkpt>
      <trkpt lat="45.03832" lon="0.56343">
        <ele>199.6</ele>
        <time>2022-05-08T06:54:37Z</time>
      </trkpt>
      <trkpt lat="45.0385" lon="0.5636">
        <ele>199.1</ele>
        <time>2022-05-08T06:54:42Z</time>
      </trkpt>
      <trkpt lat="45.03874" lon="0.56378">
        <ele>198.7</ele>
        <time>2022-05-08T06:54:47Z</time>
      </trkpt>
      <trkpt lat="45.03885" lon="0.56382">
        <ele>198.7</ele>
        <time>2022-05-08T06:54:49Z</time>
      </trkpt>
      <trkpt lat="45.03891" lon="0.56383">
        <ele>198.7</ele>
        <time>2022-05-08T06:54:50Z</time>
      </trkpt>
      <trkpt lat="45.03909" lon="0.56388">
        <ele>198.9</ele>
        <time>2022-05-08T06:54:54Z</time>
      </trkpt>
      <trkpt lat="45.03913" lon="0.56389">
        <ele>199</ele>
        <time>2022-05-08T06:54:55Z</time>
      </trkpt>
      <trkpt lat="45.03926" lon="0.56397">
        <ele>199.5</ele>
        <time>2022-05-08T06:54:58Z</time>
      </trkpt>
      <trkpt lat="45.03935" lon="0.56404">
        <ele>199.9</ele>
        <time>2022-05-08T06:55:01Z</time>
      </trkpt>
      <trkpt lat="45.03945" lon="0.56415">
        <ele>200.2</ele>
        <time>2022-05-08T06:55:05Z</time>
      </trkpt>
      <trkpt lat="45.03947" lon="0.56418">
        <ele>200.2</ele>
        <time>2022-05-08T06:55:06Z</time>
      </trkpt>
      <trkpt lat="45.03953" lon="0.56425">
        <ele>200.3</ele>
        <time>2022-05-08T06:55:09Z</time>
      </trkpt>
      <trkpt lat="45.03965" lon="0.5644">
        <ele>200.4</ele>
        <time>2022-05-08T06:55:13Z</time>
      </trkpt>
      <trkpt lat="45.03978" lon="0.56457">
        <ele>200.6</ele>
        <time>2022-05-08T06:55:18Z</time>
      </trkpt>
      <trkpt lat="45.03983" lon="0.56464">
        <ele>200.7</ele>
        <time>2022-05-08T06:55:20Z</time>
      </trkpt>
      <trkpt lat="45.03989" lon="0.56472">
        <ele>200.8</ele>
        <time>2022-05-08T06:55:22Z</time>
      </trkpt>
      <trkpt lat="45.03998" lon="0.56484">
        <ele>200.9</ele>
        <time>2022-05-08T06:55:25Z</time>
      </trkpt>
      <trkpt lat="45.04002" lon="0.56488">
        <ele>201</ele>
        <time>2022-05-08T06:55:26Z</time>
      </trkpt>
      <trkpt lat="45.04016" lon="0.56503">
        <ele>201.2</ele>
        <time>2022-05-08T06:55:30Z</time>
      </trkpt>
      <trkpt lat="45.04031" lon="0.56519">
        <ele>201.6</ele>
        <time>2022-05-08T06:55:34Z</time>
      </trkpt>
      <trkpt lat="45.04048" lon="0.56537">
        <ele>201.9</ele>
        <time>2022-05-08T06:55:39Z</time>
      </trkpt>
      <trkpt lat="45.04059" lon="0.56552">
        <ele>202.2</ele>
        <time>2022-05-08T06:55:43Z</time>
      </trkpt>
      <trkpt lat="45.04077" lon="0.56583">
        <ele>202.7</ele>
        <time>2022-05-08T06:55:49Z</time>
      </trkpt>
      <trkpt lat="45.04091" lon="0.56605">
        <ele>203.6</ele>
        <time>2022-05-08T06:55:54Z</time>
      </trkpt>
      <trkpt lat="45.04114" lon="0.5664">
        <ele>204.6</ele>
        <time>2022-05-08T06:56:02Z</time>
      </trkpt>
      <trkpt lat="45.04123" lon="0.56657">
        <ele>204.6</ele>
        <time>2022-05-08T06:56:06Z</time>
      </trkpt>
      <trkpt lat="45.04134" lon="0.56674">
        <ele>203.6</ele>
        <time>2022-05-08T06:56:09Z</time>
      </trkpt>
      <trkpt lat="45.04139" lon="0.5668">
        <ele>203.1</ele>
        <time>2022-05-08T06:56:10Z</time>
      </trkpt>
      <trkpt lat="45.04156" lon="0.56696">
        <ele>202</ele>
        <time>2022-05-08T06:56:13Z</time>
      </trkpt>
      <trkpt lat="45.04167" lon="0.56706">
        <ele>201.7</ele>
        <time>2022-05-08T06:56:15Z</time>
      </trkpt>
      <trkpt lat="45.0418" lon="0.56722">
        <ele>201.6</ele>
        <time>2022-05-08T06:56:18Z</time>
      </trkpt>
      <trkpt lat="45.04188" lon="0.56732">
        <ele>201.7</ele>
        <time>2022-05-08T06:56:20Z</time>
      </trkpt>
      <trkpt lat="45.04214" lon="0.56771">
        <ele>203</ele>
        <time>2022-05-08T06:56:28Z</time>
      </trkpt>
      <trkpt lat="45.04233" lon="0.56802">
        <ele>204.7</ele>
        <time>2022-05-08T06:56:35Z</time>
      </trkpt>
      <trkpt lat="45.04251" lon="0.56835">
        <ele>206.2</ele>
        <time>2022-05-08T06:56:43Z</time>
      </trkpt>
      <trkpt lat="45.04266" lon="0.56863">
        <ele>207.7</ele>
        <time>2022-05-08T06:56:50Z</time>
      </trkpt>
      <trkpt lat="45.04281" lon="0.56889">
        <ele>209.5</ele>
        <time>2022-05-08T06:56:57Z</time>
      </trkpt>
      <trkpt lat="45.04288" lon="0.56907">
        <ele>210.5</ele>
        <time>2022-05-08T06:57:03Z</time>
      </trkpt>
      <trkpt lat="45.04296" lon="0.56932">
        <ele>211.9</ele>
        <time>2022-05-08T06:57:11Z</time>
      </trkpt>
      <trkpt lat="45.04303" lon="0.56951">
        <ele>213.3</ele>
        <time>2022-05-08T06:57:18Z</time>
      </trkpt>
      <trkpt lat="45.04303" lon="0.56954">
        <ele>213.5</ele>
        <time>2022-05-08T06:57:19Z</time>
      </trkpt>
      <trkpt lat="45.04309" lon="0.56971">
        <ele>214.7</ele>
        <time>2022-05-08T06:57:25Z</time>
      </trkpt>
      <trkpt lat="45.04317" lon="0.56992">
        <ele>216</ele>
        <time>2022-05-08T06:57:32Z</time>
      </trkpt>
      <trkpt lat="45.04327" lon="0.57019">
        <ele>217.2</ele>
        <time>2022-05-08T06:57:42Z</time>
      </trkpt>
      <trkpt lat="45.04334" lon="0.57042">
        <ele>218.2</ele>
        <time>2022-05-08T06:57:50Z</time>
      </trkpt>
      <trkpt lat="45.0434" lon="0.57061">
        <ele>218.7</ele>
        <time>2022-05-08T06:57:56Z</time>
      </trkpt>
      <trkpt lat="45.04347" lon="0.5708">
        <ele>218.9</ele>
        <time>2022-05-08T06:58:02Z</time>
      </trkpt>
      <trkpt lat="45.04354" lon="0.57103">
        <ele>219</ele>
        <time>2022-05-08T06:58:08Z</time>
      </trkpt>
      <trkpt lat="45.04361" lon="0.57125">
        <ele>219.2</ele>
        <time>2022-05-08T06:58:13Z</time>
      </trkpt>
      <trkpt lat="45.04374" lon="0.57164">
        <ele>219.5</ele>
        <time>2022-05-08T06:58:22Z</time>
      </trkpt>
      <trkpt lat="45.04383" lon="0.57189">
        <ele>219.8</ele>
        <time>2022-05-08T06:58:28Z</time>
      </trkpt>
      <trkpt lat="45.04392" lon="0.57217">
        <ele>219.6</ele>
        <time>2022-05-08T06:58:34Z</time>
      </trkpt>
      <trkpt lat="45.04399" lon="0.57237">
        <ele>219.3</ele>
        <time>2022-05-08T06:58:38Z</time>
      </trkpt>
      <trkpt lat="45.04407" lon="0.57263">
        <ele>218.7</ele>
        <time>2022-05-08T06:58:43Z</time>
      </trkpt>
      <trkpt lat="45.04408" lon="0.57268">
        <ele>218.6</ele>
        <time>2022-05-08T06:58:44Z</time>
      </trkpt>
      <trkpt lat="45.04417" lon="0.57302">
        <ele>217.9</ele>
        <time>2022-05-08T06:58:50Z</time>
      </trkpt>
      <trkpt lat="45.04419" lon="0.57308">
        <ele>217.7</ele>
        <time>2022-05-08T06:58:51Z</time>
      </trkpt>
      <trkpt lat="45.04425" lon="0.57325">
        <ele>217.3</ele>
        <time>2022-05-08T06:58:54Z</time>
      </trkpt>
      <trkpt lat="45.04432" lon="0.57344">
        <ele>217</ele>
        <time>2022-05-08T06:58:57Z</time>
      </trkpt>
      <trkpt lat="45.04436" lon="0.57357">
        <ele>216.9</ele>
        <time>2022-05-08T06:58:59Z</time>
      </trkpt>
      <trkpt lat="45.04439" lon="0.57364">
        <ele>217</ele>
        <time>2022-05-08T06:59:00Z</time>
      </trkpt>
      <trkpt lat="45.04449" lon="0.57394">
        <ele>217.1</ele>
        <time>2022-05-08T06:59:05Z</time>
      </trkpt>
      <trkpt lat="45.04466" lon="0.57441">
        <ele>217.8</ele>
        <time>2022-05-08T06:59:13Z</time>
      </trkpt>
      <trkpt lat="45.04471" lon="0.57458">
        <ele>218.3</ele>
        <time>2022-05-08T06:59:16Z</time>
      </trkpt>
      <trkpt lat="45.04475" lon="0.57468">
        <ele>218.7</ele>
        <time>2022-05-08T06:59:18Z</time>
      </trkpt>
      <trkpt lat="45.04485" lon="0.575">
        <ele>219.8</ele>
        <time>2022-05-08T06:59:24Z</time>
      </trkpt>
      <trkpt lat="45.04498" lon="0.57539">
        <ele>220.5</ele>
        <time>2022-05-08T06:59:31Z</time>
      </trkpt>
      <trkpt lat="45.045" lon="0.57545">
        <ele>220.6</ele>
        <time>2022-05-08T06:59:32Z</time>
      </trkpt>
      <trkpt lat="45.04509" lon="0.57571">
        <ele>220.5</ele>
        <time>2022-05-08T06:59:37Z</time>
      </trkpt>
      <trkpt lat="45.04515" lon="0.57605">
        <ele>220.1</ele>
        <time>2022-05-08T06:59:42Z</time>
      </trkpt>
      <trkpt lat="45.04516" lon="0.57612">
        <ele>219.9</ele>
        <time>2022-05-08T06:59:43Z</time>
      </trkpt>
      <trkpt lat="45.04521" lon="0.57662">
        <ele>218.8</ele>
        <time>2022-05-08T06:59:49Z</time>
      </trkpt>
      <trkpt lat="45.04526" lon="0.57717">
        <ele>217.5</ele>
        <time>2022-05-08T06:59:55Z</time>
      </trkpt>
      <trkpt lat="45.04541" lon="0.57776">
        <ele>217</ele>
        <time>2022-05-08T07:00:02Z</time>
      </trkpt>
      <trkpt lat="45.04552" lon="0.57833">
        <ele>216.3</ele>
        <time>2022-05-08T07:00:09Z</time>
      </trkpt>
      <trkpt lat="45.04561" lon="0.57901">
        <ele>214.9</ele>
        <time>2022-05-08T07:00:17Z</time>
      </trkpt>
      <trkpt lat="45.0457" lon="0.57972">
        <ele>214.9</ele>
        <time>2022-05-08T07:00:25Z</time>
      </trkpt>
      <trkpt lat="45.04579" lon="0.58038">
        <ele>216.9</ele>
        <time>2022-05-08T07:00:33Z</time>
      </trkpt>
      <trkpt lat="45.04587" lon="0.58101">
        <ele>219.5</ele>
        <time>2022-05-08T07:00:42Z</time>
      </trkpt>
      <trkpt lat="45.04597" lon="0.58174">
        <ele>221.5</ele>
        <time>2022-05-08T07:00:53Z</time>
      </trkpt>
      <trkpt lat="45.046" lon="0.58209">
        <ele>221.8</ele>
        <time>2022-05-08T07:00:58Z</time>
      </trkpt>
      <trkpt lat="45.04601" lon="0.58223">
        <ele>221.9</ele>
        <time>2022-05-08T07:01:00Z</time>
      </trkpt>
      <trkpt lat="45.04602" lon="0.58236">
        <ele>221.9</ele>
        <time>2022-05-08T07:01:02Z</time>
      </trkpt>
      <trkpt lat="45.04604" lon="0.58265">
        <ele>222</ele>
        <time>2022-05-08T07:01:06Z</time>
      </trkpt>
      <trkpt lat="45.0461" lon="0.58279">
        <ele>222</ele>
        <time>2022-05-08T07:01:08Z</time>
      </trkpt>
      <trkpt lat="45.04615" lon="0.58279">
        <ele>221.3</ele>
        <time>2022-05-08T07:01:09Z</time>
      </trkpt>
      <trkpt lat="45.04649" lon="0.58303">
        <ele>219.9</ele>
        <time>2022-05-08T07:01:14Z</time>
      </trkpt>
      <trkpt lat="45.04687" lon="0.58332">
        <ele>219.5</ele>
        <time>2022-05-08T07:01:20Z</time>
      </trkpt>
      <trkpt lat="45.0473" lon="0.58369">
        <ele>220.5</ele>
        <time>2022-05-08T07:01:28Z</time>
      </trkpt>
      <trkpt lat="45.04763" lon="0.58398">
        <ele>220.9</ele>
        <time>2022-05-08T07:01:35Z</time>
      </trkpt>
      <trkpt lat="45.04771" lon="0.58405">
        <ele>220.8</ele>
        <time>2022-05-08T07:01:37Z</time>
      </trkpt>
      <trkpt lat="45.04781" lon="0.58414">
        <ele>220.8</ele>
        <time>2022-05-08T07:01:39Z</time>
      </trkpt>
      <trkpt lat="45.04796" lon="0.58428">
        <ele>220.8</ele>
        <time>2022-05-08T07:01:42Z</time>
      </trkpt>
      <trkpt lat="45.04806" lon="0.58437">
        <ele>220.6</ele>
        <time>2022-05-08T07:01:44Z</time>
      </trkpt>
      <trkpt lat="45.04817" lon="0.58447">
        <ele>220.1</ele>
        <time>2022-05-08T07:01:46Z</time>
      </trkpt>
      <trkpt lat="45.04828" lon="0.58457">
        <ele>219.8</ele>
        <time>2022-05-08T07:01:48Z</time>
      </trkpt>
      <trkpt lat="45.04846" lon="0.58472">
        <ele>219.5</ele>
        <time>2022-05-08T07:01:51Z</time>
      </trkpt>
      <trkpt lat="45.04852" lon="0.58477">
        <ele>219.2</ele>
        <time>2022-05-08T07:01:52Z</time>
      </trkpt>
      <trkpt lat="45.04859" lon="0.58482">
        <ele>218.8</ele>
        <time>2022-05-08T07:01:53Z</time>
      </trkpt>
      <trkpt lat="45.04877" lon="0.58502">
        <ele>217.6</ele>
        <time>2022-05-08T07:01:56Z</time>
      </trkpt>
      <trkpt lat="45.04889" lon="0.58514">
        <ele>216.5</ele>
        <time>2022-05-08T07:01:58Z</time>
      </trkpt>
      <trkpt lat="45.04904" lon="0.58525">
        <ele>215.2</ele>
        <time>2022-05-08T07:02:00Z</time>
      </trkpt>
      <trkpt lat="45.04932" lon="0.58544">
        <ele>212.2</ele>
        <time>2022-05-08T07:02:04Z</time>
      </trkpt>
      <trkpt lat="45.04936" lon="0.58549">
        <ele>211.8</ele>
        <time>2022-05-08T07:02:05Z</time>
      </trkpt>
      <trkpt lat="45.04941" lon="0.58554">
        <ele>211.3</ele>
        <time>2022-05-08T07:02:09Z</time>
      </trkpt>
      <trkpt lat="45.04946" lon="0.58556">
        <ele>211.1</ele>
        <time>2022-05-08T07:02:13Z</time>
      </trkpt>
      <trkpt lat="45.04948" lon="0.58559">
        <ele>211</ele>
        <time>2022-05-08T07:02:20Z</time>
      </trkpt>
      <trkpt lat="45.04955" lon="0.58567">
        <ele>210.7</ele>
        <time>2022-05-08T07:02:23Z</time>
      </trkpt>
      <trkpt lat="45.04959" lon="0.58571">
        <ele>210.5</ele>
        <time>2022-05-08T07:02:24Z</time>
      </trkpt>
      <trkpt lat="45.04985" lon="0.58585">
        <ele>209.3</ele>
        <time>2022-05-08T07:02:30Z</time>
      </trkpt>
      <trkpt lat="45.04998" lon="0.58593">
        <ele>208.6</ele>
        <time>2022-05-08T07:02:33Z</time>
      </trkpt>
      <trkpt lat="45.05012" lon="0.58602">
        <ele>207.7</ele>
        <time>2022-05-08T07:02:36Z</time>
      </trkpt>
      <trkpt lat="45.05052" lon="0.5863">
        <ele>205.2</ele>
        <time>2022-05-08T07:02:44Z</time>
      </trkpt>
      <trkpt lat="45.05094" lon="0.58657">
        <ele>202.4</ele>
        <time>2022-05-08T07:02:51Z</time>
      </trkpt>
      <trkpt lat="45.05124" lon="0.58675">
        <ele>200.5</ele>
        <time>2022-05-08T07:02:56Z</time>
      </trkpt>
      <trkpt lat="45.05167" lon="0.58695">
        <ele>197.9</ele>
        <time>2022-05-08T07:03:03Z</time>
      </trkpt>
      <trkpt lat="45.05192" lon="0.58711">
        <ele>196.3</ele>
        <time>2022-05-08T07:03:07Z</time>
      </trkpt>
      <trkpt lat="45.05197" lon="0.58715">
        <ele>195.9</ele>
        <time>2022-05-08T07:03:08Z</time>
      </trkpt>
      <trkpt lat="45.05226" lon="0.58742">
        <ele>194</ele>
        <time>2022-05-08T07:03:13Z</time>
      </trkpt>
      <trkpt lat="45.05232" lon="0.58747">
        <ele>193.6</ele>
        <time>2022-05-08T07:03:14Z</time>
      </trkpt>
      <trkpt lat="45.05267" lon="0.58768">
        <ele>191.3</ele>
        <time>2022-05-08T07:03:20Z</time>
      </trkpt>
      <trkpt lat="45.053" lon="0.58781">
        <ele>189.3</ele>
        <time>2022-05-08T07:03:25Z</time>
      </trkpt>
      <trkpt lat="45.0535" lon="0.58798">
        <ele>186.3</ele>
        <time>2022-05-08T07:03:32Z</time>
      </trkpt>
      <trkpt lat="45.05358" lon="0.58799">
        <ele>185.9</ele>
        <time>2022-05-08T07:03:33Z</time>
      </trkpt>
      <trkpt lat="45.05383" lon="0.58801">
        <ele>184.4</ele>
        <time>2022-05-08T07:03:36Z</time>
      </trkpt>
      <trkpt lat="45.0543" lon="0.58805">
        <ele>181.7</ele>
        <time>2022-05-08T07:03:41Z</time>
      </trkpt>
      <trkpt lat="45.05494" lon="0.58812">
        <ele>177.9</ele>
        <time>2022-05-08T07:03:47Z</time>
      </trkpt>
      <trkpt lat="45.05548" lon="0.58827">
        <ele>174.7</ele>
        <time>2022-05-08T07:03:52Z</time>
      </trkpt>
      <trkpt lat="45.05603" lon="0.58832">
        <ele>171.5</ele>
        <time>2022-05-08T07:03:57Z</time>
      </trkpt>
      <trkpt lat="45.05659" lon="0.58836">
        <ele>168.2</ele>
        <time>2022-05-08T07:04:02Z</time>
      </trkpt>
      <trkpt lat="45.05682" lon="0.58837">
        <ele>166.9</ele>
        <time>2022-05-08T07:04:04Z</time>
      </trkpt>
      <trkpt lat="45.05738" lon="0.58841">
        <ele>163.6</ele>
        <time>2022-05-08T07:04:09Z</time>
      </trkpt>
      <trkpt lat="45.05771" lon="0.58853">
        <ele>161.6</ele>
        <time>2022-05-08T07:04:12Z</time>
      </trkpt>
      <trkpt lat="45.05812" lon="0.58884">
        <ele>158.8</ele>
        <time>2022-05-08T07:04:16Z</time>
      </trkpt>
      <trkpt lat="45.05855" lon="0.58906">
        <ele>156.7</ele>
        <time>2022-05-08T07:04:20Z</time>
      </trkpt>
      <trkpt lat="45.05865" lon="0.58912">
        <ele>156.3</ele>
        <time>2022-05-08T07:04:21Z</time>
      </trkpt>
      <trkpt lat="45.05889" lon="0.58924">
        <ele>155.8</ele>
        <time>2022-05-08T07:04:24Z</time>
      </trkpt>
      <trkpt lat="45.059" lon="0.58931">
        <ele>155.9</ele>
        <time>2022-05-08T07:04:27Z</time>
      </trkpt>
      <trkpt lat="45.05894" lon="0.58939">
        <ele>156.3</ele>
        <time>2022-05-08T07:04:30Z</time>
      </trkpt>
      <trkpt lat="45.05887" lon="0.5895">
        <ele>156.7</ele>
        <time>2022-05-08T07:04:35Z</time>
      </trkpt>
      <trkpt lat="45.05876" lon="0.58958">
        <ele>157.2</ele>
        <time>2022-05-08T07:04:38Z</time>
      </trkpt>
      <trkpt lat="45.05872" lon="0.58961">
        <ele>157.4</ele>
        <time>2022-05-08T07:04:39Z</time>
      </trkpt>
      <trkpt lat="45.05867" lon="0.58961">
        <ele>157.6</ele>
        <time>2022-05-08T07:04:40Z</time>
      </trkpt>
      <trkpt lat="45.05855" lon="0.58959">
        <ele>158.1</ele>
        <time>2022-05-08T07:04:42Z</time>
      </trkpt>
      <trkpt lat="45.05843" lon="0.58955">
        <ele>158.6</ele>
        <time>2022-05-08T07:04:44Z</time>
      </trkpt>
      <trkpt lat="45.05827" lon="0.58948">
        <ele>159.3</ele>
        <time>2022-05-08T07:04:48Z</time>
      </trkpt>
      <trkpt lat="45.05802" lon="0.58946">
        <ele>160.3</ele>
        <time>2022-05-08T07:04:51Z</time>
      </trkpt>
      <trkpt lat="45.05786" lon="0.5895">
        <ele>161</ele>
        <time>2022-05-08T07:04:53Z</time>
      </trkpt>
      <trkpt lat="45.0577" lon="0.58957">
        <ele>161.7</ele>
        <time>2022-05-08T07:04:56Z</time>
      </trkpt>
      <trkpt lat="45.05766" lon="0.58959">
        <ele>161.9</ele>
        <time>2022-05-08T07:04:58Z</time>
      </trkpt>
      <trkpt lat="45.05766" lon="0.58959">
        <ele>161.9</ele>
        <time>2022-05-08T07:04:59Z</time>
      </trkpt>
      <trkpt lat="45.05766" lon="0.58963">
        <ele>162</ele>
        <time>2022-05-08T07:05:00Z</time>
      </trkpt>
      <trkpt lat="45.05769" lon="0.58977">
        <ele>162.4</ele>
        <time>2022-05-08T07:05:02Z</time>
      </trkpt>
      <trkpt lat="45.05779" lon="0.58991">
        <ele>163</ele>
        <time>2022-05-08T07:05:04Z</time>
      </trkpt>
      <trkpt lat="45.05783" lon="0.58996">
        <ele>163.2</ele>
        <time>2022-05-08T07:05:05Z</time>
      </trkpt>
      <trkpt lat="45.05787" lon="0.59001">
        <ele>163.4</ele>
        <time>2022-05-08T07:05:06Z</time>
      </trkpt>
      <trkpt lat="45.05797" lon="0.59023">
        <ele>164.2</ele>
        <time>2022-05-08T07:05:09Z</time>
      </trkpt>
      <trkpt lat="45.058" lon="0.59041">
        <ele>164.7</ele>
        <time>2022-05-08T07:05:11Z</time>
      </trkpt>
      <trkpt lat="45.05803" lon="0.59058">
        <ele>165.2</ele>
        <time>2022-05-08T07:05:13Z</time>
      </trkpt>
      <trkpt lat="45.05804" lon="0.59065">
        <ele>165.4</ele>
        <time>2022-05-08T07:05:14Z</time>
      </trkpt>
      <trkpt lat="45.05806" lon="0.59091">
        <ele>166.2</ele>
        <time>2022-05-08T07:05:18Z</time>
      </trkpt>
      <trkpt lat="45.05805" lon="0.59113">
        <ele>166.8</ele>
        <time>2022-05-08T07:05:22Z</time>
      </trkpt>
      <trkpt lat="45.05804" lon="0.5913">
        <ele>167.3</ele>
        <time>2022-05-08T07:05:25Z</time>
      </trkpt>
      <trkpt lat="45.05803" lon="0.59134">
        <ele>167.4</ele>
        <time>2022-05-08T07:05:26Z</time>
      </trkpt>
      <trkpt lat="45.05799" lon="0.59152">
        <ele>168</ele>
        <time>2022-05-08T07:05:30Z</time>
      </trkpt>
      <trkpt lat="45.05795" lon="0.5917">
        <ele>168.5</ele>
        <time>2022-05-08T07:05:34Z</time>
      </trkpt>
      <trkpt lat="45.0579" lon="0.59178">
        <ele>168.8</ele>
        <time>2022-05-08T07:05:37Z</time>
      </trkpt>
      <trkpt lat="45.05785" lon="0.59185">
        <ele>169.1</ele>
        <time>2022-05-08T07:05:40Z</time>
      </trkpt>
      <trkpt lat="45.0578" lon="0.59193">
        <ele>169.4</ele>
        <time>2022-05-08T07:05:44Z</time>
      </trkpt>
      <trkpt lat="45.05772" lon="0.59204">
        <ele>169.9</ele>
        <time>2022-05-08T07:05:48Z</time>
      </trkpt>
      <trkpt lat="45.05771" lon="0.59206">
        <ele>170</ele>
        <time>2022-05-08T07:05:49Z</time>
      </trkpt>
      <trkpt lat="45.05769" lon="0.59209">
        <ele>170.1</ele>
        <time>2022-05-08T07:05:51Z</time>
      </trkpt>
      <trkpt lat="45.05769" lon="0.59209">
        <ele>170.1</ele>
        <time>2022-05-08T07:05:53Z</time>
      </trkpt>
      <trkpt lat="45.05759" lon="0.59224">
        <ele>170.7</ele>
        <time>2022-05-08T07:06:01Z</time>
      </trkpt>
      <trkpt lat="45.05758" lon="0.59226">
        <ele>170.8</ele>
        <time>2022-05-08T07:06:03Z</time>
      </trkpt>
      <trkpt lat="45.05753" lon="0.59231">
        <ele>171</ele>
        <time>2022-05-08T07:06:06Z</time>
      </trkpt>
      <trkpt lat="45.0575" lon="0.59234">
        <ele>171.1</ele>
        <time>2022-05-08T07:06:08Z</time>
      </trkpt>
      <trkpt lat="45.05747" lon="0.59237">
        <ele>171.3</ele>
        <time>2022-05-08T07:06:10Z</time>
      </trkpt>
      <trkpt lat="45.05742" lon="0.59241">
        <ele>171.5</ele>
        <time>2022-05-08T07:06:12Z</time>
      </trkpt>
      <trkpt lat="45.05733" lon="0.59249">
        <ele>172</ele>
        <time>2022-05-08T07:06:16Z</time>
      </trkpt>
      <trkpt lat="45.05724" lon="0.59256">
        <ele>172.4</ele>
        <time>2022-05-08T07:06:20Z</time>
      </trkpt>
      <trkpt lat="45.0571" lon="0.59263">
        <ele>172.7</ele>
        <time>2022-05-08T07:06:26Z</time>
      </trkpt>
      <trkpt lat="45.05705" lon="0.59266">
        <ele>173</ele>
        <time>2022-05-08T07:06:31Z</time>
      </trkpt>
      <trkpt lat="45.05697" lon="0.59271">
        <ele>173.7</ele>
        <time>2022-05-08T07:06:35Z</time>
      </trkpt>
      <trkpt lat="45.05695" lon="0.59272">
        <ele>174</ele>
        <time>2022-05-08T07:06:37Z</time>
      </trkpt>
      <trkpt lat="45.05692" lon="0.59273">
        <ele>174.4</ele>
        <time>2022-05-08T07:06:40Z</time>
      </trkpt>
      <trkpt lat="45.05686" lon="0.59277">
        <ele>175.3</ele>
        <time>2022-05-08T07:06:44Z</time>
      </trkpt>
      <trkpt lat="45.05684" lon="0.59278">
        <ele>175.6</ele>
        <time>2022-05-08T07:06:46Z</time>
      </trkpt>
      <trkpt lat="45.0567" lon="0.59286">
        <ele>176.6</ele>
        <time>2022-05-08T07:06:53Z</time>
      </trkpt>
      <trkpt lat="45.05666" lon="0.59289">
        <ele>176.9</ele>
        <time>2022-05-08T07:06:55Z</time>
      </trkpt>
      <trkpt lat="45.0566" lon="0.59293">
        <ele>177.1</ele>
        <time>2022-05-08T07:06:58Z</time>
      </trkpt>
      <trkpt lat="45.05649" lon="0.59299">
        <ele>177.7</ele>
        <time>2022-05-08T07:07:03Z</time>
      </trkpt>
      <trkpt lat="45.05636" lon="0.59306">
        <ele>178.3</ele>
        <time>2022-05-08T07:07:09Z</time>
      </trkpt>
      <trkpt lat="45.05628" lon="0.59311">
        <ele>178.5</ele>
        <time>2022-05-08T07:07:14Z</time>
      </trkpt>
      <trkpt lat="45.05621" lon="0.59316">
        <ele>178.7</ele>
        <time>2022-05-08T07:07:19Z</time>
      </trkpt>
      <trkpt lat="45.05616" lon="0.5932">
        <ele>178.9</ele>
        <time>2022-05-08T07:07:23Z</time>
      </trkpt>
      <trkpt lat="45.05606" lon="0.59329">
        <ele>179.4</ele>
        <time>2022-05-08T07:07:29Z</time>
      </trkpt>
      <trkpt lat="45.05604" lon="0.59331">
        <ele>179.4</ele>
        <time>2022-05-08T07:07:30Z</time>
      </trkpt>
      <trkpt lat="45.05599" lon="0.59336">
        <ele>179.4</ele>
        <time>2022-05-08T07:07:33Z</time>
      </trkpt>
      <trkpt lat="45.05598" lon="0.59338">
        <ele>179.4</ele>
        <time>2022-05-08T07:07:34Z</time>
      </trkpt>
      <trkpt lat="45.05599" lon="0.59349">
        <ele>179</ele>
        <time>2022-05-08T07:07:38Z</time>
      </trkpt>
      <trkpt lat="45.05601" lon="0.59357">
        <ele>178.4</ele>
        <time>2022-05-08T07:07:40Z</time>
      </trkpt>
      <trkpt lat="45.05602" lon="0.59364">
        <ele>178.3</ele>
        <time>2022-05-08T07:07:41Z</time>
      </trkpt>
      <trkpt lat="45.05593" lon="0.5937">
        <ele>178</ele>
        <time>2022-05-08T07:07:44Z</time>
      </trkpt>
      <trkpt lat="45.05589" lon="0.59372">
        <ele>177.8</ele>
        <time>2022-05-08T07:07:45Z</time>
      </trkpt>
      <trkpt lat="45.0558" lon="0.59381">
        <ele>177.3</ele>
        <time>2022-05-08T07:07:47Z</time>
      </trkpt>
      <trkpt lat="45.05575" lon="0.59386">
        <ele>177.1</ele>
        <time>2022-05-08T07:07:48Z</time>
      </trkpt>
      <trkpt lat="45.0555" lon="0.59412">
        <ele>175.8</ele>
        <time>2022-05-08T07:07:52Z</time>
      </trkpt>
      <trkpt lat="45.05543" lon="0.59419">
        <ele>175.6</ele>
        <time>2022-05-08T07:07:53Z</time>
      </trkpt>
      <trkpt lat="45.05523" lon="0.5944">
        <ele>175</ele>
        <time>2022-05-08T07:07:56Z</time>
      </trkpt>
      <trkpt lat="45.0551" lon="0.59453">
        <ele>174.4</ele>
        <time>2022-05-08T07:07:58Z</time>
      </trkpt>
      <trkpt lat="45.05498" lon="0.59464">
        <ele>173.7</ele>
        <time>2022-05-08T07:08:00Z</time>
      </trkpt>
      <trkpt lat="45.05483" lon="0.59493">
        <ele>171.8</ele>
        <time>2022-05-08T07:08:04Z</time>
      </trkpt>
      <trkpt lat="45.05478" lon="0.59511">
        <ele>170.9</ele>
        <time>2022-05-08T07:08:06Z</time>
      </trkpt>
      <trkpt lat="45.05476" lon="0.59519">
        <ele>170.5</ele>
        <time>2022-05-08T07:08:07Z</time>
      </trkpt>
      <trkpt lat="45.05468" lon="0.59538">
        <ele>169.3</ele>
        <time>2022-05-08T07:08:10Z</time>
      </trkpt>
      <trkpt lat="45.05466" lon="0.5954">
        <ele>169.1</ele>
        <time>2022-05-08T07:08:13Z</time>
      </trkpt>
      <trkpt lat="45.0547" lon="0.59537">
        <ele>168.8</ele>
        <time>2022-05-08T07:08:17Z</time>
      </trkpt>
      <trkpt lat="45.05472" lon="0.59532">
        <ele>168.5</ele>
        <time>2022-05-08T07:08:21Z</time>
      </trkpt>
      <trkpt lat="45.05474" lon="0.59526">
        <ele>168</ele>
        <time>2022-05-08T07:08:26Z</time>
      </trkpt>
      <trkpt lat="45.05474" lon="0.59528">
        <ele>167.6</ele>
        <time>2022-05-08T07:08:27Z</time>
      </trkpt>
      <trkpt lat="45.05474" lon="0.59528">
        <ele>167.1</ele>
        <time>2022-05-08T07:08:30Z</time>
      </trkpt>
      <trkpt lat="45.05481" lon="0.59532">
        <ele>166.6</ele>
        <time>2022-05-08T07:08:35Z</time>
      </trkpt>
      <trkpt lat="45.05486" lon="0.59541">
        <ele>164.7</ele>
        <time>2022-05-08T07:08:37Z</time>
      </trkpt>
      <trkpt lat="45.05485" lon="0.59545">
        <ele>163.5</ele>
        <time>2022-05-08T07:08:38Z</time>
      </trkpt>
      <trkpt lat="45.05485" lon="0.59552">
        <ele>161.1</ele>
        <time>2022-05-08T07:08:39Z</time>
      </trkpt>
      <trkpt lat="45.05484" lon="0.59558">
        <ele>160.6</ele>
        <time>2022-05-08T07:08:40Z</time>
      </trkpt>
      <trkpt lat="45.05479" lon="0.59568">
        <ele>158.4</ele>
        <time>2022-05-08T07:08:42Z</time>
      </trkpt>
      <trkpt lat="45.05476" lon="0.59571">
        <ele>157.9</ele>
        <time>2022-05-08T07:08:43Z</time>
      </trkpt>
      <trkpt lat="45.05478" lon="0.59579">
        <ele>156.9</ele>
        <time>2022-05-08T07:08:45Z</time>
      </trkpt>
      <trkpt lat="45.05482" lon="0.59584">
        <ele>156.1</ele>
        <time>2022-05-08T07:08:46Z</time>
      </trkpt>
      <trkpt lat="45.05482" lon="0.59603">
        <ele>154.3</ele>
        <time>2022-05-08T07:08:49Z</time>
      </trkpt>
      <trkpt lat="45.05485" lon="0.59604">
        <ele>154</ele>
        <time>2022-05-08T07:08:50Z</time>
      </trkpt>
      <trkpt lat="45.05499" lon="0.59609">
        <ele>152.6</ele>
        <time>2022-05-08T07:08:52Z</time>
      </trkpt>
      <trkpt lat="45.05513" lon="0.59611">
        <ele>151.5</ele>
        <time>2022-05-08T07:08:54Z</time>
      </trkpt>
      <trkpt lat="45.05525" lon="0.59622">
        <ele>150.5</ele>
        <time>2022-05-08T07:08:56Z</time>
      </trkpt>
      <trkpt lat="45.05543" lon="0.59641">
        <ele>149.3</ele>
        <time>2022-05-08T07:08:59Z</time>
      </trkpt>
      <trkpt lat="45.05548" lon="0.59646">
        <ele>148.9</ele>
        <time>2022-05-08T07:09:00Z</time>
      </trkpt>
      <trkpt lat="45.0557" lon="0.59669">
        <ele>147.3</ele>
        <time>2022-05-08T07:09:04Z</time>
      </trkpt>
      <trkpt lat="45.05602" lon="0.59694">
        <ele>145.3</ele>
        <time>2022-05-08T07:09:09Z</time>
      </trkpt>
      <trkpt lat="45.05623" lon="0.59707">
        <ele>144</ele>
        <time>2022-05-08T07:09:12Z</time>
      </trkpt>
      <trkpt lat="45.05629" lon="0.5971">
        <ele>143.7</ele>
        <time>2022-05-08T07:09:13Z</time>
      </trkpt>
      <trkpt lat="45.05659" lon="0.5973">
        <ele>142.7</ele>
        <time>2022-05-08T07:09:18Z</time>
      </trkpt>
      <trkpt lat="45.0567" lon="0.59738">
        <ele>142.1</ele>
        <time>2022-05-08T07:09:20Z</time>
      </trkpt>
      <trkpt lat="45.05675" lon="0.59741">
        <ele>141.8</ele>
        <time>2022-05-08T07:09:21Z</time>
      </trkpt>
      <trkpt lat="45.05679" lon="0.59744">
        <ele>141.5</ele>
        <time>2022-05-08T07:09:22Z</time>
      </trkpt>
      <trkpt lat="45.05692" lon="0.59753">
        <ele>140.4</ele>
        <time>2022-05-08T07:09:24Z</time>
      </trkpt>
      <trkpt lat="45.05709" lon="0.59765">
        <ele>139</ele>
        <time>2022-05-08T07:09:27Z</time>
      </trkpt>
      <trkpt lat="45.05715" lon="0.59769">
        <ele>138.8</ele>
        <time>2022-05-08T07:09:28Z</time>
      </trkpt>
      <trkpt lat="45.0573" lon="0.59778">
        <ele>138.5</ele>
        <time>2022-05-08T07:09:31Z</time>
      </trkpt>
      <trkpt lat="45.05736" lon="0.59782">
        <ele>138.4</ele>
        <time>2022-05-08T07:09:32Z</time>
      </trkpt>
      <trkpt lat="45.05741" lon="0.59785">
        <ele>138.3</ele>
        <time>2022-05-08T07:09:33Z</time>
      </trkpt>
      <trkpt lat="45.05753" lon="0.5979">
        <ele>138.1</ele>
        <time>2022-05-08T07:09:35Z</time>
      </trkpt>
      <trkpt lat="45.05759" lon="0.59792">
        <ele>137.9</ele>
        <time>2022-05-08T07:09:36Z</time>
      </trkpt>
      <trkpt lat="45.05764" lon="0.59792">
        <ele>137.8</ele>
        <time>2022-05-08T07:09:37Z</time>
      </trkpt>
      <trkpt lat="45.05777" lon="0.59787">
        <ele>136.9</ele>
        <time>2022-05-08T07:09:39Z</time>
      </trkpt>
      <trkpt lat="45.05784" lon="0.5978">
        <ele>136.1</ele>
        <time>2022-05-08T07:09:40Z</time>
      </trkpt>
      <trkpt lat="45.05794" lon="0.5977">
        <ele>134.8</ele>
        <time>2022-05-08T07:09:42Z</time>
      </trkpt>
      <trkpt lat="45.05809" lon="0.59763">
        <ele>133.2</ele>
        <time>2022-05-08T07:09:44Z</time>
      </trkpt>
      <trkpt lat="45.05818" lon="0.59764">
        <ele>132.6</ele>
        <time>2022-05-08T07:09:45Z</time>
      </trkpt>
      <trkpt lat="45.05833" lon="0.59769">
        <ele>131.7</ele>
        <time>2022-05-08T07:09:47Z</time>
      </trkpt>
      <trkpt lat="45.05847" lon="0.59778">
        <ele>131.1</ele>
        <time>2022-05-08T07:09:49Z</time>
      </trkpt>
      <trkpt lat="45.05862" lon="0.59792">
        <ele>130.9</ele>
        <time>2022-05-08T07:09:52Z</time>
      </trkpt>
      <trkpt lat="45.05882" lon="0.59801">
        <ele>130.5</ele>
        <time>2022-05-08T07:09:56Z</time>
      </trkpt>
      <trkpt lat="45.05896" lon="0.59805">
        <ele>130</ele>
        <time>2022-05-08T07:09:59Z</time>
      </trkpt>
      <trkpt lat="45.05913" lon="0.5981">
        <ele>129.1</ele>
        <time>2022-05-08T07:10:02Z</time>
      </trkpt>
      <trkpt lat="45.05926" lon="0.59811">
        <ele>128.3</ele>
        <time>2022-05-08T07:10:04Z</time>
      </trkpt>
      <trkpt lat="45.05933" lon="0.59813">
        <ele>127.7</ele>
        <time>2022-05-08T07:10:05Z</time>
      </trkpt>
      <trkpt lat="45.05957" lon="0.59816">
        <ele>126.1</ele>
        <time>2022-05-08T07:10:08Z</time>
      </trkpt>
      <trkpt lat="45.05976" lon="0.59821">
        <ele>125.4</ele>
        <time>2022-05-08T07:10:10Z</time>
      </trkpt>
      <trkpt lat="45.06003" lon="0.59835">
        <ele>125</ele>
        <time>2022-05-08T07:10:13Z</time>
      </trkpt>
      <trkpt lat="45.06032" lon="0.59858">
        <ele>124.3</ele>
        <time>2022-05-08T07:10:17Z</time>
      </trkpt>
      <trkpt lat="45.06039" lon="0.59863">
        <ele>124.2</ele>
        <time>2022-05-08T07:10:18Z</time>
      </trkpt>
      <trkpt lat="45.06063" lon="0.59878">
        <ele>124.1</ele>
        <time>2022-05-08T07:10:21Z</time>
      </trkpt>
      <trkpt lat="45.06081" lon="0.5989">
        <ele>124.1</ele>
        <time>2022-05-08T07:10:23Z</time>
      </trkpt>
      <trkpt lat="45.06101" lon="0.59894">
        <ele>124.2</ele>
        <time>2022-05-08T07:10:25Z</time>
      </trkpt>
      <trkpt lat="45.06109" lon="0.59895">
        <ele>124.3</ele>
        <time>2022-05-08T07:10:26Z</time>
      </trkpt>
      <trkpt lat="45.06131" lon="0.59897">
        <ele>124.6</ele>
        <time>2022-05-08T07:10:29Z</time>
      </trkpt>
      <trkpt lat="45.06168" lon="0.59895">
        <ele>125</ele>
        <time>2022-05-08T07:10:35Z</time>
      </trkpt>
      <trkpt lat="45.062" lon="0.59893">
        <ele>125.4</ele>
        <time>2022-05-08T07:10:41Z</time>
      </trkpt>
      <trkpt lat="45.06215" lon="0.59891">
        <ele>125.4</ele>
        <time>2022-05-08T07:10:45Z</time>
      </trkpt>
      <trkpt lat="45.06217" lon="0.59892">
        <ele>125.4</ele>
        <time>2022-05-08T07:10:46Z</time>
      </trkpt>
      <trkpt lat="45.06224" lon="0.59898">
        <ele>125.2</ele>
        <time>2022-05-08T07:10:49Z</time>
      </trkpt>
      <trkpt lat="45.06243" lon="0.59917">
        <ele>124.5</ele>
        <time>2022-05-08T07:10:55Z</time>
      </trkpt>
      <trkpt lat="45.06264" lon="0.59941">
        <ele>123.5</ele>
        <time>2022-05-08T07:11:01Z</time>
      </trkpt>
      <trkpt lat="45.06284" lon="0.59964">
        <ele>122.4</ele>
        <time>2022-05-08T07:11:07Z</time>
      </trkpt>
      <trkpt lat="45.06309" lon="0.59991">
        <ele>121.1</ele>
        <time>2022-05-08T07:11:13Z</time>
      </trkpt>
      <trkpt lat="45.06343" lon="0.60027">
        <ele>119.4</ele>
        <time>2022-05-08T07:11:21Z</time>
      </trkpt>
      <trkpt lat="45.0638" lon="0.60061">
        <ele>118.3</ele>
        <time>2022-05-08T07:11:29Z</time>
      </trkpt>
      <trkpt lat="45.06393" lon="0.60072">
        <ele>117.9</ele>
        <time>2022-05-08T07:11:32Z</time>
      </trkpt>
      <trkpt lat="45.06402" lon="0.6008">
        <ele>117.7</ele>
        <time>2022-05-08T07:11:34Z</time>
      </trkpt>
      <trkpt lat="45.06411" lon="0.60085">
        <ele>117.3</ele>
        <time>2022-05-08T07:11:37Z</time>
      </trkpt>
      <trkpt lat="45.06408" lon="0.60092">
        <ele>117.2</ele>
        <time>2022-05-08T07:11:39Z</time>
      </trkpt>
      <trkpt lat="45.06406" lon="0.60096">
        <ele>117.1</ele>
        <time>2022-05-08T07:11:40Z</time>
      </trkpt>
      <trkpt lat="45.0639" lon="0.60124">
        <ele>116.6</ele>
        <time>2022-05-08T07:11:46Z</time>
      </trkpt>
      <trkpt lat="45.06377" lon="0.60153">
        <ele>116.5</ele>
        <time>2022-05-08T07:11:51Z</time>
      </trkpt>
      <trkpt lat="45.06375" lon="0.60159">
        <ele>116.5</ele>
        <time>2022-05-08T07:11:52Z</time>
      </trkpt>
      <trkpt lat="45.06366" lon="0.60183">
        <ele>116.1</ele>
        <time>2022-05-08T07:11:56Z</time>
      </trkpt>
      <trkpt lat="45.06363" lon="0.6019">
        <ele>116</ele>
        <time>2022-05-08T07:11:57Z</time>
      </trkpt>
      <trkpt lat="45.06361" lon="0.60196">
        <ele>115.9</ele>
        <time>2022-05-08T07:11:58Z</time>
      </trkpt>
      <trkpt lat="45.06345" lon="0.60223">
        <ele>115.6</ele>
        <time>2022-05-08T07:12:02Z</time>
      </trkpt>
      <trkpt lat="45.06313" lon="0.60272">
        <ele>115.6</ele>
        <time>2022-05-08T07:12:10Z</time>
      </trkpt>
      <trkpt lat="45.0628" lon="0.6032">
        <ele>116</ele>
        <time>2022-05-08T07:12:18Z</time>
      </trkpt>
      <trkpt lat="45.06249" lon="0.60366">
        <ele>116.7</ele>
        <time>2022-05-08T07:12:26Z</time>
      </trkpt>
      <trkpt lat="45.06227" lon="0.60409">
        <ele>117.4</ele>
        <time>2022-05-08T07:12:33Z</time>
      </trkpt>
      <trkpt lat="45.06207" lon="0.6047">
        <ele>118.3</ele>
        <time>2022-05-08T07:12:42Z</time>
      </trkpt>
      <trkpt lat="45.06199" lon="0.60494">
        <ele>118.8</ele>
        <time>2022-05-08T07:12:46Z</time>
      </trkpt>
      <trkpt lat="45.06197" lon="0.605">
        <ele>118.9</ele>
        <time>2022-05-08T07:12:47Z</time>
      </trkpt>
      <trkpt lat="45.06188" lon="0.60528">
        <ele>119.2</ele>
        <time>2022-05-08T07:12:51Z</time>
      </trkpt>
      <trkpt lat="45.06184" lon="0.6054">
        <ele>119.2</ele>
        <time>2022-05-08T07:12:53Z</time>
      </trkpt>
      <trkpt lat="45.06179" lon="0.60554">
        <ele>119.3</ele>
        <time>2022-05-08T07:12:55Z</time>
      </trkpt>
      <trkpt lat="45.0617" lon="0.60583">
        <ele>119.3</ele>
        <time>2022-05-08T07:12:59Z</time>
      </trkpt>
      <trkpt lat="45.06168" lon="0.6059">
        <ele>119.4</ele>
        <time>2022-05-08T07:13:00Z</time>
      </trkpt>
      <trkpt lat="45.06162" lon="0.6061">
        <ele>119.6</ele>
        <time>2022-05-08T07:13:03Z</time>
      </trkpt>
      <trkpt lat="45.06158" lon="0.60622">
        <ele>119.7</ele>
        <time>2022-05-08T07:13:05Z</time>
      </trkpt>
      <trkpt lat="45.06148" lon="0.60655">
        <ele>120.1</ele>
        <time>2022-05-08T07:13:10Z</time>
      </trkpt>
      <trkpt lat="45.06143" lon="0.60669">
        <ele>120.2</ele>
        <time>2022-05-08T07:13:12Z</time>
      </trkpt>
      <trkpt lat="45.06139" lon="0.60684">
        <ele>120.2</ele>
        <time>2022-05-08T07:13:14Z</time>
      </trkpt>
      <trkpt lat="45.06131" lon="0.60722">
        <ele>120.3</ele>
        <time>2022-05-08T07:13:19Z</time>
      </trkpt>
      <trkpt lat="45.06126" lon="0.60736">
        <ele>120.4</ele>
        <time>2022-05-08T07:13:21Z</time>
      </trkpt>
      <trkpt lat="45.06121" lon="0.60748">
        <ele>120.5</ele>
        <time>2022-05-08T07:13:23Z</time>
      </trkpt>
      <trkpt lat="45.06108" lon="0.60783">
        <ele>121.2</ele>
        <time>2022-05-08T07:13:28Z</time>
      </trkpt>
      <trkpt lat="45.06096" lon="0.60824">
        <ele>122.5</ele>
        <time>2022-05-08T07:13:34Z</time>
      </trkpt>
      <trkpt lat="45.06087" lon="0.60874">
        <ele>124.2</ele>
        <time>2022-05-08T07:13:42Z</time>
      </trkpt>
      <trkpt lat="45.0608" lon="0.60914">
        <ele>125.5</ele>
        <time>2022-05-08T07:13:49Z</time>
      </trkpt>
      <trkpt lat="45.0608" lon="0.6092">
        <ele>125.8</ele>
        <time>2022-05-08T07:13:50Z</time>
      </trkpt>
      <trkpt lat="45.06075" lon="0.60949">
        <ele>126.8</ele>
        <time>2022-05-08T07:13:55Z</time>
      </trkpt>
      <trkpt lat="45.06065" lon="0.60992">
        <ele>128.3</ele>
        <time>2022-05-08T07:14:03Z</time>
      </trkpt>
      <trkpt lat="45.0606" lon="0.61017">
        <ele>129.3</ele>
        <time>2022-05-08T07:14:09Z</time>
      </trkpt>
      <trkpt lat="45.06056" lon="0.61032">
        <ele>130.2</ele>
        <time>2022-05-08T07:14:14Z</time>
      </trkpt>
      <trkpt lat="45.06055" lon="0.61035">
        <ele>130.3</ele>
        <time>2022-05-08T07:14:15Z</time>
      </trkpt>
      <trkpt lat="45.06053" lon="0.61043">
        <ele>130.9</ele>
        <time>2022-05-08T07:14:18Z</time>
      </trkpt>
      <trkpt lat="45.06049" lon="0.61056">
        <ele>132.1</ele>
        <time>2022-05-08T07:14:22Z</time>
      </trkpt>
      <trkpt lat="45.06048" lon="0.6106">
        <ele>132.3</ele>
        <time>2022-05-08T07:14:23Z</time>
      </trkpt>
      <trkpt lat="45.06044" lon="0.61075">
        <ele>133.5</ele>
        <time>2022-05-08T07:14:28Z</time>
      </trkpt>
      <trkpt lat="45.06042" lon="0.61081">
        <ele>133.8</ele>
        <time>2022-05-08T07:14:30Z</time>
      </trkpt>
      <trkpt lat="45.0604" lon="0.61089">
        <ele>134.2</ele>
        <time>2022-05-08T07:14:32Z</time>
      </trkpt>
      <trkpt lat="45.06035" lon="0.61103">
        <ele>134.8</ele>
        <time>2022-05-08T07:14:36Z</time>
      </trkpt>
      <trkpt lat="45.06033" lon="0.61106">
        <ele>134.9</ele>
        <time>2022-05-08T07:14:37Z</time>
      </trkpt>
      <trkpt lat="45.06022" lon="0.61122">
        <ele>135.7</ele>
        <time>2022-05-08T07:14:43Z</time>
      </trkpt>
      <trkpt lat="45.06012" lon="0.61145">
        <ele>136.3</ele>
        <time>2022-05-08T07:14:50Z</time>
      </trkpt>
      <trkpt lat="45.06002" lon="0.61162">
        <ele>136.3</ele>
        <time>2022-05-08T07:14:55Z</time>
      </trkpt>
      <trkpt lat="45.05989" lon="0.61185">
        <ele>135.2</ele>
        <time>2022-05-08T07:14:59Z</time>
      </trkpt>
      <trkpt lat="45.05983" lon="0.61199">
        <ele>134.6</ele>
        <time>2022-05-08T07:15:01Z</time>
      </trkpt>
      <trkpt lat="45.05981" lon="0.61208">
        <ele>134.3</ele>
        <time>2022-05-08T07:15:02Z</time>
      </trkpt>
      <trkpt lat="45.0598" lon="0.61217">
        <ele>134.2</ele>
        <time>2022-05-08T07:15:03Z</time>
      </trkpt>
      <trkpt lat="45.05983" lon="0.61234">
        <ele>134.1</ele>
        <time>2022-05-08T07:15:05Z</time>
      </trkpt>
      <trkpt lat="45.0599" lon="0.61265">
        <ele>135</ele>
        <time>2022-05-08T07:15:10Z</time>
      </trkpt>
      <trkpt lat="45.05991" lon="0.61268">
        <ele>135.2</ele>
        <time>2022-05-08T07:15:11Z</time>
      </trkpt>
      <trkpt lat="45.05989" lon="0.61274">
        <ele>136</ele>
        <time>2022-05-08T07:15:12Z</time>
      </trkpt>
      <trkpt lat="45.05979" lon="0.61272">
        <ele>137.1</ele>
        <time>2022-05-08T07:15:17Z</time>
      </trkpt>
      <trkpt lat="45.05972" lon="0.61269">
        <ele>137.9</ele>
        <time>2022-05-08T07:15:22Z</time>
      </trkpt>
      <trkpt lat="45.05966" lon="0.61267">
        <ele>138.7</ele>
        <time>2022-05-08T07:15:27Z</time>
      </trkpt>
      <trkpt lat="45.05957" lon="0.61264">
        <ele>139.9</ele>
        <time>2022-05-08T07:15:32Z</time>
      </trkpt>
      <trkpt lat="45.05949" lon="0.61261">
        <ele>140.9</ele>
        <time>2022-05-08T07:15:36Z</time>
      </trkpt>
      <trkpt lat="45.05945" lon="0.61259">
        <ele>141.3</ele>
        <time>2022-05-08T07:15:38Z</time>
      </trkpt>
      <trkpt lat="45.05935" lon="0.61253">
        <ele>142.4</ele>
        <time>2022-05-08T07:15:43Z</time>
      </trkpt>
      <trkpt lat="45.05927" lon="0.61247">
        <ele>143.3</ele>
        <time>2022-05-08T07:15:48Z</time>
      </trkpt>
      <trkpt lat="45.05916" lon="0.61246">
        <ele>144.1</ele>
        <time>2022-05-08T07:15:53Z</time>
      </trkpt>
      <trkpt lat="45.05908" lon="0.61245">
        <ele>144.9</ele>
        <time>2022-05-08T07:15:58Z</time>
      </trkpt>
      <trkpt lat="45.05904" lon="0.61244">
        <ele>145.2</ele>
        <time>2022-05-08T07:16:00Z</time>
      </trkpt>
      <trkpt lat="45.05898" lon="0.61253">
        <ele>148.5</ele>
        <time>2022-05-08T07:16:02Z</time>
      </trkpt>
      <trkpt lat="45.05899" lon="0.61253">
        <ele>148.6</ele>
        <time>2022-05-08T07:16:04Z</time>
      </trkpt>
      <trkpt lat="45.059" lon="0.61255">
        <ele>148.8</ele>
        <time>2022-05-08T07:16:07Z</time>
      </trkpt>
      <trkpt lat="45.05901" lon="0.61255">
        <ele>148.9</ele>
        <time>2022-05-08T07:16:08Z</time>
      </trkpt>
      <trkpt lat="45.05902" lon="0.61257">
        <ele>149.1</ele>
        <time>2022-05-08T07:16:10Z</time>
      </trkpt>
      <trkpt lat="45.05903" lon="0.61258">
        <ele>149.3</ele>
        <time>2022-05-08T07:16:11Z</time>
      </trkpt>
      <trkpt lat="45.05909" lon="0.61265">
        <ele>150.1</ele>
        <time>2022-05-08T07:16:16Z</time>
      </trkpt>
      <trkpt lat="45.05914" lon="0.61277">
        <ele>151.2</ele>
        <time>2022-05-08T07:16:22Z</time>
      </trkpt>
      <trkpt lat="45.05914" lon="0.61279">
        <ele>151.3</ele>
        <time>2022-05-08T07:16:23Z</time>
      </trkpt>
      <trkpt lat="45.05918" lon="0.61295">
        <ele>153</ele>
        <time>2022-05-08T07:16:30Z</time>
      </trkpt>
      <trkpt lat="45.05918" lon="0.61297">
        <ele>153.2</ele>
        <time>2022-05-08T07:16:31Z</time>
      </trkpt>
      <trkpt lat="45.05918" lon="0.61305">
        <ele>154.1</ele>
        <time>2022-05-08T07:16:35Z</time>
      </trkpt>
      <trkpt lat="45.05917" lon="0.61307">
        <ele>154.5</ele>
        <time>2022-05-08T07:16:37Z</time>
      </trkpt>
      <trkpt lat="45.05915" lon="0.6131">
        <ele>155</ele>
        <time>2022-05-08T07:16:39Z</time>
      </trkpt>
      <trkpt lat="45.0591" lon="0.61319">
        <ele>156.3</ele>
        <time>2022-05-08T07:16:44Z</time>
      </trkpt>
      <trkpt lat="45.05909" lon="0.61322">
        <ele>156.6</ele>
        <time>2022-05-08T07:16:45Z</time>
      </trkpt>
      <trkpt lat="45.05901" lon="0.61333">
        <ele>158.3</ele>
        <time>2022-05-08T07:16:52Z</time>
      </trkpt>
      <trkpt lat="45.05895" lon="0.61341">
        <ele>159.5</ele>
        <time>2022-05-08T07:16:58Z</time>
      </trkpt>
      <trkpt lat="45.05893" lon="0.61342">
        <ele>159.7</ele>
        <time>2022-05-08T07:16:59Z</time>
      </trkpt>
      <trkpt lat="45.05883" lon="0.61348">
        <ele>161.2</ele>
        <time>2022-05-08T07:17:06Z</time>
      </trkpt>
      <trkpt lat="45.05878" lon="0.61353">
        <ele>162</ele>
        <time>2022-05-08T07:17:10Z</time>
      </trkpt>
      <trkpt lat="45.05868" lon="0.61358">
        <ele>163.2</ele>
        <time>2022-05-08T07:17:16Z</time>
      </trkpt>
      <trkpt lat="45.05864" lon="0.61359">
        <ele>163.7</ele>
        <time>2022-05-08T07:17:19Z</time>
      </trkpt>
      <trkpt lat="45.05862" lon="0.6136">
        <ele>163.9</ele>
        <time>2022-05-08T07:17:20Z</time>
      </trkpt>
      <trkpt lat="45.05853" lon="0.61363">
        <ele>165.2</ele>
        <time>2022-05-08T07:17:26Z</time>
      </trkpt>
      <trkpt lat="45.05844" lon="0.61364">
        <ele>166.4</ele>
        <time>2022-05-08T07:17:31Z</time>
      </trkpt>
      <trkpt lat="45.05835" lon="0.61366">
        <ele>167.5</ele>
        <time>2022-05-08T07:17:37Z</time>
      </trkpt>
      <trkpt lat="45.05828" lon="0.61371">
        <ele>168.4</ele>
        <time>2022-05-08T07:17:42Z</time>
      </trkpt>
      <trkpt lat="45.05825" lon="0.61372">
        <ele>168.7</ele>
        <time>2022-05-08T07:17:44Z</time>
      </trkpt>
      <trkpt lat="45.05823" lon="0.61373">
        <ele>168.9</ele>
        <time>2022-05-08T07:17:45Z</time>
      </trkpt>
      <trkpt lat="45.05812" lon="0.61378">
        <ele>170</ele>
        <time>2022-05-08T07:17:52Z</time>
      </trkpt>
      <trkpt lat="45.05805" lon="0.61379">
        <ele>170.8</ele>
        <time>2022-05-08T07:17:57Z</time>
      </trkpt>
      <trkpt lat="45.05798" lon="0.6138">
        <ele>171.4</ele>
        <time>2022-05-08T07:18:01Z</time>
      </trkpt>
      <trkpt lat="45.05795" lon="0.61381">
        <ele>171.7</ele>
        <time>2022-05-08T07:18:03Z</time>
      </trkpt>
      <trkpt lat="45.05791" lon="0.61381">
        <ele>172.1</ele>
        <time>2022-05-08T07:18:06Z</time>
      </trkpt>
      <trkpt lat="45.05787" lon="0.61382">
        <ele>172.5</ele>
        <time>2022-05-08T07:18:09Z</time>
      </trkpt>
      <trkpt lat="45.05787" lon="0.61382">
        <ele>172.5</ele>
        <time>2022-05-08T07:18:10Z</time>
      </trkpt>
      <trkpt lat="45.05779" lon="0.61386">
        <ele>173.2</ele>
        <time>2022-05-08T07:18:13Z</time>
      </trkpt>
      <trkpt lat="45.05778" lon="0.61384">
        <ele>173.4</ele>
        <time>2022-05-08T07:18:14Z</time>
      </trkpt>
      <trkpt lat="45.05772" lon="0.61387">
        <ele>174</ele>
        <time>2022-05-08T07:18:18Z</time>
      </trkpt>
      <trkpt lat="45.05771" lon="0.61388">
        <ele>174.1</ele>
        <time>2022-05-08T07:18:19Z</time>
      </trkpt>
      <trkpt lat="45.05765" lon="0.61391">
        <ele>174.6</ele>
        <time>2022-05-08T07:18:23Z</time>
      </trkpt>
      <trkpt lat="45.0576" lon="0.61395">
        <ele>175.1</ele>
        <time>2022-05-08T07:18:26Z</time>
      </trkpt>
      <trkpt lat="45.05758" lon="0.61396">
        <ele>175.2</ele>
        <time>2022-05-08T07:18:27Z</time>
      </trkpt>
      <trkpt lat="45.05749" lon="0.61402">
        <ele>176</ele>
        <time>2022-05-08T07:18:33Z</time>
      </trkpt>
      <trkpt lat="45.05743" lon="0.61405">
        <ele>176.5</ele>
        <time>2022-05-08T07:18:36Z</time>
      </trkpt>
      <trkpt lat="45.05741" lon="0.61407">
        <ele>176.7</ele>
        <time>2022-05-08T07:18:37Z</time>
      </trkpt>
      <trkpt lat="45.05733" lon="0.61412">
        <ele>177.3</ele>
        <time>2022-05-08T07:18:41Z</time>
      </trkpt>
      <trkpt lat="45.05725" lon="0.61416">
        <ele>177.8</ele>
        <time>2022-05-08T07:18:45Z</time>
      </trkpt>
      <trkpt lat="45.05715" lon="0.61423">
        <ele>178.5</ele>
        <time>2022-05-08T07:18:49Z</time>
      </trkpt>
      <trkpt lat="45.05712" lon="0.61425">
        <ele>178.7</ele>
        <time>2022-05-08T07:18:51Z</time>
      </trkpt>
      <trkpt lat="45.05708" lon="0.61428">
        <ele>178.9</ele>
        <time>2022-05-08T07:18:53Z</time>
      </trkpt>
      <trkpt lat="45.05698" lon="0.61435">
        <ele>179.4</ele>
        <time>2022-05-08T07:18:57Z</time>
      </trkpt>
      <trkpt lat="45.05694" lon="0.61437">
        <ele>179.6</ele>
        <time>2022-05-08T07:18:59Z</time>
      </trkpt>
      <trkpt lat="45.0569" lon="0.61439">
        <ele>179.8</ele>
        <time>2022-05-08T07:19:01Z</time>
      </trkpt>
      <trkpt lat="45.05682" lon="0.61443">
        <ele>180.1</ele>
        <time>2022-05-08T07:19:05Z</time>
      </trkpt>
      <trkpt lat="45.0568" lon="0.61444">
        <ele>180.2</ele>
        <time>2022-05-08T07:19:06Z</time>
      </trkpt>
      <trkpt lat="45.05669" lon="0.61449">
        <ele>180.6</ele>
        <time>2022-05-08T07:19:10Z</time>
      </trkpt>
      <trkpt lat="45.05658" lon="0.61454">
        <ele>180.9</ele>
        <time>2022-05-08T07:19:14Z</time>
      </trkpt>
      <trkpt lat="45.05648" lon="0.61459">
        <ele>181.2</ele>
        <time>2022-05-08T07:19:18Z</time>
      </trkpt>
      <trkpt lat="45.05645" lon="0.61461">
        <ele>181.2</ele>
        <time>2022-05-08T07:19:19Z</time>
      </trkpt>
      <trkpt lat="45.0564" lon="0.61465">
        <ele>181.4</ele>
        <time>2022-05-08T07:19:22Z</time>
      </trkpt>
      <trkpt lat="45.05637" lon="0.61467">
        <ele>181.4</ele>
        <time>2022-05-08T07:19:23Z</time>
      </trkpt>
      <trkpt lat="45.0563" lon="0.61473">
        <ele>181.6</ele>
        <time>2022-05-08T07:19:26Z</time>
      </trkpt>
      <trkpt lat="45.0562" lon="0.61482">
        <ele>181.9</ele>
        <time>2022-05-08T07:19:30Z</time>
      </trkpt>
      <trkpt lat="45.05609" lon="0.61489">
        <ele>182.3</ele>
        <time>2022-05-08T07:19:34Z</time>
      </trkpt>
      <trkpt lat="45.05601" lon="0.61493">
        <ele>182.5</ele>
        <time>2022-05-08T07:19:37Z</time>
      </trkpt>
      <trkpt lat="45.05599" lon="0.61494">
        <ele>182.6</ele>
        <time>2022-05-08T07:19:38Z</time>
      </trkpt>
      <trkpt lat="45.05586" lon="0.61495">
        <ele>183.3</ele>
        <time>2022-05-08T07:19:43Z</time>
      </trkpt>
      <trkpt lat="45.05571" lon="0.61499">
        <ele>184.1</ele>
        <time>2022-05-08T07:19:48Z</time>
      </trkpt>
      <trkpt lat="45.05555" lon="0.61504">
        <ele>184.9</ele>
        <time>2022-05-08T07:19:53Z</time>
      </trkpt>
      <trkpt lat="45.05544" lon="0.61508">
        <ele>185.3</ele>
        <time>2022-05-08T07:19:57Z</time>
      </trkpt>
      <trkpt lat="45.05531" lon="0.61513">
        <ele>185.9</ele>
        <time>2022-05-08T07:20:01Z</time>
      </trkpt>
      <trkpt lat="45.05529" lon="0.61514">
        <ele>186</ele>
        <time>2022-05-08T07:20:02Z</time>
      </trkpt>
      <trkpt lat="45.05518" lon="0.61518">
        <ele>186.6</ele>
        <time>2022-05-08T07:20:06Z</time>
      </trkpt>
      <trkpt lat="45.05503" lon="0.61525">
        <ele>187.4</ele>
        <time>2022-05-08T07:20:12Z</time>
      </trkpt>
      <trkpt lat="45.05491" lon="0.61529">
        <ele>188.2</ele>
        <time>2022-05-08T07:20:17Z</time>
      </trkpt>
      <trkpt lat="45.0548" lon="0.61534">
        <ele>188.7</ele>
        <time>2022-05-08T07:20:22Z</time>
      </trkpt>
      <trkpt lat="45.05468" lon="0.61533">
        <ele>189.3</ele>
        <time>2022-05-08T07:20:26Z</time>
      </trkpt>
      <trkpt lat="45.0545" lon="0.61532">
        <ele>189.8</ele>
        <time>2022-05-08T07:20:33Z</time>
      </trkpt>
      <trkpt lat="45.05437" lon="0.6153">
        <ele>190.2</ele>
        <time>2022-05-08T07:20:38Z</time>
      </trkpt>
      <trkpt lat="45.05419" lon="0.61523">
        <ele>190.3</ele>
        <time>2022-05-08T07:20:44Z</time>
      </trkpt>
      <trkpt lat="45.05404" lon="0.61517">
        <ele>190.1</ele>
        <time>2022-05-08T07:20:48Z</time>
      </trkpt>
      <trkpt lat="45.054" lon="0.61515">
        <ele>190</ele>
        <time>2022-05-08T07:20:49Z</time>
      </trkpt>
      <trkpt lat="45.05396" lon="0.61513">
        <ele>189.9</ele>
        <time>2022-05-08T07:20:50Z</time>
      </trkpt>
      <trkpt lat="45.05382" lon="0.61507">
        <ele>189.5</ele>
        <time>2022-05-08T07:20:53Z</time>
      </trkpt>
      <trkpt lat="45.05378" lon="0.61505">
        <ele>189.4</ele>
        <time>2022-05-08T07:20:54Z</time>
      </trkpt>
      <trkpt lat="45.05368" lon="0.615">
        <ele>189.1</ele>
        <time>2022-05-08T07:20:56Z</time>
      </trkpt>
      <trkpt lat="45.05359" lon="0.61496">
        <ele>188.9</ele>
        <time>2022-05-08T07:20:58Z</time>
      </trkpt>
      <trkpt lat="45.05342" lon="0.61498">
        <ele>188.8</ele>
        <time>2022-05-08T07:21:01Z</time>
      </trkpt>
      <trkpt lat="45.05319" lon="0.61502">
        <ele>188.9</ele>
        <time>2022-05-08T07:21:06Z</time>
      </trkpt>
      <trkpt lat="45.05293" lon="0.61514">
        <ele>189</ele>
        <time>2022-05-08T07:21:12Z</time>
      </trkpt>
      <trkpt lat="45.05278" lon="0.6152">
        <ele>189.2</ele>
        <time>2022-05-08T07:21:16Z</time>
      </trkpt>
      <trkpt lat="45.05278" lon="0.6152">
        <ele>189.2</ele>
        <time>2022-05-08T07:21:18Z</time>
      </trkpt>
      <trkpt lat="45.05268" lon="0.61523">
        <ele>189.3</ele>
        <time>2022-05-08T07:21:26Z</time>
      </trkpt>
      <trkpt lat="45.05267" lon="0.61523">
        <ele>189.4</ele>
        <time>2022-05-08T07:21:27Z</time>
      </trkpt>
      <trkpt lat="45.05253" lon="0.61517">
        <ele>189.5</ele>
        <time>2022-05-08T07:21:33Z</time>
      </trkpt>
      <trkpt lat="45.05238" lon="0.61511">
        <ele>189.6</ele>
        <time>2022-05-08T07:21:39Z</time>
      </trkpt>
      <trkpt lat="45.05235" lon="0.6151">
        <ele>189.6</ele>
        <time>2022-05-08T07:21:40Z</time>
      </trkpt>
      <trkpt lat="45.05215" lon="0.61497">
        <ele>189.6</ele>
        <time>2022-05-08T07:21:48Z</time>
      </trkpt>
      <trkpt lat="45.05197" lon="0.61476">
        <ele>189</ele>
        <time>2022-05-08T07:21:56Z</time>
      </trkpt>
      <trkpt lat="45.05185" lon="0.61456">
        <ele>188</ele>
        <time>2022-05-08T07:22:01Z</time>
      </trkpt>
      <trkpt lat="45.05177" lon="0.61441">
        <ele>187.3</ele>
        <time>2022-05-08T07:22:04Z</time>
      </trkpt>
      <trkpt lat="45.05172" lon="0.61433">
        <ele>186.1</ele>
        <time>2022-05-08T07:22:06Z</time>
      </trkpt>
      <trkpt lat="45.05184" lon="0.61408">
        <ele>183</ele>
        <time>2022-05-08T07:22:09Z</time>
      </trkpt>
      <trkpt lat="45.05194" lon="0.614">
        <ele>179.3</ele>
        <time>2022-05-08T07:22:12Z</time>
      </trkpt>
      <trkpt lat="45.05199" lon="0.61399">
        <ele>179.3</ele>
        <time>2022-05-08T07:22:13Z</time>
      </trkpt>
      <trkpt lat="45.05204" lon="0.61399">
        <ele>179.3</ele>
        <time>2022-05-08T07:22:14Z</time>
      </trkpt>
      <trkpt lat="45.05215" lon="0.61401">
        <ele>177.2</ele>
        <time>2022-05-08T07:22:17Z</time>
      </trkpt>
      <trkpt lat="45.05237" lon="0.61406">
        <ele>175.9</ele>
        <time>2022-05-08T07:22:23Z</time>
      </trkpt>
      <trkpt lat="45.05257" lon="0.61411">
        <ele>174.6</ele>
        <time>2022-05-08T07:22:29Z</time>
      </trkpt>
      <trkpt lat="45.05278" lon="0.61413">
        <ele>175</ele>
        <time>2022-05-08T07:22:36Z</time>
      </trkpt>
      <trkpt lat="45.05301" lon="0.61409">
        <ele>176.8</ele>
        <time>2022-05-08T07:22:43Z</time>
      </trkpt>
      <trkpt lat="45.05328" lon="0.61402">
        <ele>176.7</ele>
        <time>2022-05-08T07:22:51Z</time>
      </trkpt>
      <trkpt lat="45.05355" lon="0.61395">
        <ele>178.5</ele>
        <time>2022-05-08T07:22:59Z</time>
      </trkpt>
      <trkpt lat="45.0538" lon="0.61388">
        <ele>181.7</ele>
        <time>2022-05-08T07:23:06Z</time>
      </trkpt>
      <trkpt lat="45.05388" lon="0.61388">
        <ele>183.1</ele>
        <time>2022-05-08T07:23:08Z</time>
      </trkpt>
      <trkpt lat="45.05401" lon="0.61388">
        <ele>184.1</ele>
        <time>2022-05-08T07:23:11Z</time>
      </trkpt>
      <trkpt lat="45.05416" lon="0.61393">
        <ele>184.5</ele>
        <time>2022-05-08T07:23:15Z</time>
      </trkpt>
      <trkpt lat="45.05419" lon="0.61397">
        <ele>184.5</ele>
        <time>2022-05-08T07:23:16Z</time>
      </trkpt>
      <trkpt lat="45.05426" lon="0.61413">
        <ele>185.6</ele>
        <time>2022-05-08T07:23:20Z</time>
      </trkpt>
      <trkpt lat="45.05434" lon="0.6143">
        <ele>186.9</ele>
        <time>2022-05-08T07:23:25Z</time>
      </trkpt>
      <trkpt lat="45.05436" lon="0.61453">
        <ele>188.2</ele>
        <time>2022-05-08T07:23:31Z</time>
      </trkpt>
      <trkpt lat="45.05434" lon="0.61484">
        <ele>190</ele>
        <time>2022-05-08T07:23:39Z</time>
      </trkpt>
      <trkpt lat="45.05427" lon="0.61514">
        <ele>190.2</ele>
        <time>2022-05-08T07:23:47Z</time>
      </trkpt>
      <trkpt lat="45.05417" lon="0.61523">
        <ele>190.3</ele>
        <time>2022-05-08T07:23:50Z</time>
      </trkpt>
      <trkpt lat="45.05399" lon="0.61515">
        <ele>190</ele>
        <time>2022-05-08T07:23:56Z</time>
      </trkpt>
      <trkpt lat="45.05374" lon="0.61503">
        <ele>189.3</ele>
        <time>2022-05-08T07:24:04Z</time>
      </trkpt>
      <trkpt lat="45.05351" lon="0.61496">
        <ele>188.8</ele>
        <time>2022-05-08T07:24:10Z</time>
      </trkpt>
      <trkpt lat="45.05333" lon="0.61499">
        <ele>188.8</ele>
        <time>2022-05-08T07:24:15Z</time>
      </trkpt>
      <trkpt lat="45.05315" lon="0.61505">
        <ele>188.9</ele>
        <time>2022-05-08T07:24:20Z</time>
      </trkpt>
      <trkpt lat="45.05285" lon="0.61518">
        <ele>189.1</ele>
        <time>2022-05-08T07:24:28Z</time>
      </trkpt>
      <trkpt lat="45.05275" lon="0.61521">
        <ele>189.2</ele>
        <time>2022-05-08T07:24:31Z</time>
      </trkpt>
      <trkpt lat="45.05273" lon="0.61522">
        <ele>189.3</ele>
        <time>2022-05-08T07:24:32Z</time>
      </trkpt>
      <trkpt lat="45.05268" lon="0.61523">
        <ele>189.3</ele>
        <time>2022-05-08T07:24:34Z</time>
      </trkpt>
      <trkpt lat="45.05265" lon="0.61522">
        <ele>189.4</ele>
        <time>2022-05-08T07:24:36Z</time>
      </trkpt>
      <trkpt lat="45.05247" lon="0.61514">
        <ele>189.5</ele>
        <time>2022-05-08T07:24:42Z</time>
      </trkpt>
      <trkpt lat="45.0522" lon="0.61501">
        <ele>189.6</ele>
        <time>2022-05-08T07:24:50Z</time>
      </trkpt>
      <trkpt lat="45.05196" lon="0.61476">
        <ele>188.9</ele>
        <time>2022-05-08T07:24:57Z</time>
      </trkpt>
      <trkpt lat="45.05177" lon="0.61442">
        <ele>187.3</ele>
        <time>2022-05-08T07:25:02Z</time>
      </trkpt>
      <trkpt lat="45.05168" lon="0.61427">
        <ele>186.6</ele>
        <time>2022-05-08T07:25:04Z</time>
      </trkpt>
      <trkpt lat="45.05157" lon="0.61416">
        <ele>186.3</ele>
        <time>2022-05-08T07:25:06Z</time>
      </trkpt>
      <trkpt lat="45.05132" lon="0.61397">
        <ele>186.2</ele>
        <time>2022-05-08T07:25:10Z</time>
      </trkpt>
      <trkpt lat="45.05125" lon="0.61392">
        <ele>186.2</ele>
        <time>2022-05-08T07:25:11Z</time>
      </trkpt>
      <trkpt lat="45.05119" lon="0.61387">
        <ele>186.2</ele>
        <time>2022-05-08T07:25:12Z</time>
      </trkpt>
      <trkpt lat="45.05092" lon="0.61367">
        <ele>185.8</ele>
        <time>2022-05-08T07:25:16Z</time>
      </trkpt>
      <trkpt lat="45.05072" lon="0.6135">
        <ele>184.7</ele>
        <time>2022-05-08T07:25:19Z</time>
      </trkpt>
      <trkpt lat="45.05065" lon="0.61344">
        <ele>184.1</ele>
        <time>2022-05-08T07:25:20Z</time>
      </trkpt>
      <trkpt lat="45.05057" lon="0.61338">
        <ele>183.3</ele>
        <time>2022-05-08T07:25:21Z</time>
      </trkpt>
      <trkpt lat="45.0504" lon="0.61333">
        <ele>181.4</ele>
        <time>2022-05-08T07:25:23Z</time>
      </trkpt>
      <trkpt lat="45.05018" lon="0.61326">
        <ele>179.5</ele>
        <time>2022-05-08T07:25:26Z</time>
      </trkpt>
      <trkpt lat="45.05011" lon="0.61321">
        <ele>179.3</ele>
        <time>2022-05-08T07:25:27Z</time>
      </trkpt>
      <trkpt lat="45.05" lon="0.61307">
        <ele>179</ele>
        <time>2022-05-08T07:25:29Z</time>
      </trkpt>
      <trkpt lat="45.04995" lon="0.61299">
        <ele>179</ele>
        <time>2022-05-08T07:25:30Z</time>
      </trkpt>
      <trkpt lat="45.04978" lon="0.61265">
        <ele>179.6</ele>
        <time>2022-05-08T07:25:34Z</time>
      </trkpt>
      <trkpt lat="45.04964" lon="0.61231">
        <ele>180.7</ele>
        <time>2022-05-08T07:25:39Z</time>
      </trkpt>
      <trkpt lat="45.0496" lon="0.61219">
        <ele>181</ele>
        <time>2022-05-08T07:25:41Z</time>
      </trkpt>
      <trkpt lat="45.04951" lon="0.61213">
        <ele>181.4</ele>
        <time>2022-05-08T07:25:43Z</time>
      </trkpt>
      <trkpt lat="45.04942" lon="0.61217">
        <ele>181.8</ele>
        <time>2022-05-08T07:25:45Z</time>
      </trkpt>
      <trkpt lat="45.04934" lon="0.61221">
        <ele>182.3</ele>
        <time>2022-05-08T07:25:47Z</time>
      </trkpt>
      <trkpt lat="45.04929" lon="0.61223">
        <ele>182.5</ele>
        <time>2022-05-08T07:25:48Z</time>
      </trkpt>
      <trkpt lat="45.04903" lon="0.61234">
        <ele>183.6</ele>
        <time>2022-05-08T07:25:54Z</time>
      </trkpt>
      <trkpt lat="45.04856" lon="0.61254">
        <ele>185.4</ele>
        <time>2022-05-08T07:26:05Z</time>
      </trkpt>
      <trkpt lat="45.04816" lon="0.6127">
        <ele>186.9</ele>
        <time>2022-05-08T07:26:14Z</time>
      </trkpt>
      <trkpt lat="45.04766" lon="0.61295">
        <ele>189.2</ele>
        <time>2022-05-08T07:26:25Z</time>
      </trkpt>
      <trkpt lat="45.04732" lon="0.61318">
        <ele>191.1</ele>
        <time>2022-05-08T07:26:33Z</time>
      </trkpt>
      <trkpt lat="45.04694" lon="0.61345">
        <ele>192.7</ele>
        <time>2022-05-08T07:26:42Z</time>
      </trkpt>
      <trkpt lat="45.04669" lon="0.61362">
        <ele>193.7</ele>
        <time>2022-05-08T07:26:48Z</time>
      </trkpt>
      <trkpt lat="45.04662" lon="0.61368">
        <ele>194</ele>
        <time>2022-05-08T07:26:50Z</time>
      </trkpt>
      <trkpt lat="45.04633" lon="0.61399">
        <ele>194.8</ele>
        <time>2022-05-08T07:26:58Z</time>
      </trkpt>
      <trkpt lat="45.04612" lon="0.61423">
        <ele>195.4</ele>
        <time>2022-05-08T07:27:04Z</time>
      </trkpt>
      <trkpt lat="45.04599" lon="0.61438">
        <ele>195.7</ele>
        <time>2022-05-08T07:27:08Z</time>
      </trkpt>
      <trkpt lat="45.04592" lon="0.61446">
        <ele>195.8</ele>
        <time>2022-05-08T07:27:10Z</time>
      </trkpt>
      <trkpt lat="45.04579" lon="0.61461">
        <ele>196.2</ele>
        <time>2022-05-08T07:27:14Z</time>
      </trkpt>
      <trkpt lat="45.04572" lon="0.61469">
        <ele>196.4</ele>
        <time>2022-05-08T07:27:16Z</time>
      </trkpt>
      <trkpt lat="45.04565" lon="0.61477">
        <ele>196.6</ele>
        <time>2022-05-08T07:27:18Z</time>
      </trkpt>
      <trkpt lat="45.04552" lon="0.61492">
        <ele>197</ele>
        <time>2022-05-08T07:27:22Z</time>
      </trkpt>
      <trkpt lat="45.04548" lon="0.61496">
        <ele>197.1</ele>
        <time>2022-05-08T07:27:23Z</time>
      </trkpt>
      <trkpt lat="45.04539" lon="0.61506">
        <ele>197.3</ele>
        <time>2022-05-08T07:27:26Z</time>
      </trkpt>
      <trkpt lat="45.04536" lon="0.6151">
        <ele>197.4</ele>
        <time>2022-05-08T07:27:27Z</time>
      </trkpt>
      <trkpt lat="45.04516" lon="0.61533">
        <ele>198.3</ele>
        <time>2022-05-08T07:27:33Z</time>
      </trkpt>
      <trkpt lat="45.04503" lon="0.61547">
        <ele>199.1</ele>
        <time>2022-05-08T07:27:37Z</time>
      </trkpt>
      <trkpt lat="45.04499" lon="0.61551">
        <ele>199.3</ele>
        <time>2022-05-08T07:27:38Z</time>
      </trkpt>
      <trkpt lat="45.04489" lon="0.61562">
        <ele>199.8</ele>
        <time>2022-05-08T07:27:41Z</time>
      </trkpt>
      <trkpt lat="45.04483" lon="0.61568">
        <ele>200.1</ele>
        <time>2022-05-08T07:27:43Z</time>
      </trkpt>
      <trkpt lat="45.04466" lon="0.61585">
        <ele>201.3</ele>
        <time>2022-05-08T07:27:48Z</time>
      </trkpt>
      <trkpt lat="45.04445" lon="0.61604">
        <ele>202.7</ele>
        <time>2022-05-08T07:27:54Z</time>
      </trkpt>
      <trkpt lat="45.04437" lon="0.6161">
        <ele>203.2</ele>
        <time>2022-05-08T07:27:56Z</time>
      </trkpt>
      <trkpt lat="45.04426" lon="0.61619">
        <ele>203.8</ele>
        <time>2022-05-08T07:27:59Z</time>
      </trkpt>
      <trkpt lat="45.04418" lon="0.61626">
        <ele>204</ele>
        <time>2022-05-08T07:28:01Z</time>
      </trkpt>
      <trkpt lat="45.04407" lon="0.61635">
        <ele>204.1</ele>
        <time>2022-05-08T07:28:04Z</time>
      </trkpt>
      <trkpt lat="45.04403" lon="0.61638">
        <ele>204.2</ele>
        <time>2022-05-08T07:28:05Z</time>
      </trkpt>
      <trkpt lat="45.04399" lon="0.61642">
        <ele>204.3</ele>
        <time>2022-05-08T07:28:06Z</time>
      </trkpt>
      <trkpt lat="45.04388" lon="0.61651">
        <ele>204.5</ele>
        <time>2022-05-08T07:28:09Z</time>
      </trkpt>
      <trkpt lat="45.04369" lon="0.61667">
        <ele>204.5</ele>
        <time>2022-05-08T07:28:14Z</time>
      </trkpt>
      <trkpt lat="45.04362" lon="0.61674">
        <ele>204.6</ele>
        <time>2022-05-08T07:28:16Z</time>
      </trkpt>
      <trkpt lat="45.04359" lon="0.61678">
        <ele>204.6</ele>
        <time>2022-05-08T07:28:17Z</time>
      </trkpt>
      <trkpt lat="45.04351" lon="0.61686">
        <ele>204.6</ele>
        <time>2022-05-08T07:28:19Z</time>
      </trkpt>
      <trkpt lat="45.04348" lon="0.6169">
        <ele>204.6</ele>
        <time>2022-05-08T07:28:20Z</time>
      </trkpt>
      <trkpt lat="45.04333" lon="0.61705">
        <ele>204.6</ele>
        <time>2022-05-08T07:28:24Z</time>
      </trkpt>
      <trkpt lat="45.0433" lon="0.61709">
        <ele>204.6</ele>
        <time>2022-05-08T07:28:25Z</time>
      </trkpt>
      <trkpt lat="45.04323" lon="0.61717">
        <ele>204.6</ele>
        <time>2022-05-08T07:28:27Z</time>
      </trkpt>
      <trkpt lat="45.04316" lon="0.61724">
        <ele>204.5</ele>
        <time>2022-05-08T07:28:29Z</time>
      </trkpt>
      <trkpt lat="45.04303" lon="0.61728">
        <ele>204</ele>
        <time>2022-05-08T07:28:31Z</time>
      </trkpt>
      <trkpt lat="45.04298" lon="0.61725">
        <ele>203.6</ele>
        <time>2022-05-08T07:28:32Z</time>
      </trkpt>
      <trkpt lat="45.04294" lon="0.61723">
        <ele>203.3</ele>
        <time>2022-05-08T07:28:33Z</time>
      </trkpt>
      <trkpt lat="45.04284" lon="0.61716">
        <ele>202.4</ele>
        <time>2022-05-08T07:28:35Z</time>
      </trkpt>
      <trkpt lat="45.04251" lon="0.61696">
        <ele>199.7</ele>
        <time>2022-05-08T07:28:40Z</time>
      </trkpt>
      <trkpt lat="45.0424" lon="0.61687">
        <ele>198.7</ele>
        <time>2022-05-08T07:28:42Z</time>
      </trkpt>
      <trkpt lat="45.04235" lon="0.61684">
        <ele>198.3</ele>
        <time>2022-05-08T07:28:43Z</time>
      </trkpt>
      <trkpt lat="45.0423" lon="0.61672">
        <ele>197.6</ele>
        <time>2022-05-08T07:28:46Z</time>
      </trkpt>
      <trkpt lat="45.04229" lon="0.61668">
        <ele>197.4</ele>
        <time>2022-05-08T07:28:47Z</time>
      </trkpt>
      <trkpt lat="45.04228" lon="0.61658">
        <ele>196.8</ele>
        <time>2022-05-08T07:28:49Z</time>
      </trkpt>
      <trkpt lat="45.04231" lon="0.61644">
        <ele>196</ele>
        <time>2022-05-08T07:28:51Z</time>
      </trkpt>
      <trkpt lat="45.04234" lon="0.61635">
        <ele>195.5</ele>
        <time>2022-05-08T07:28:52Z</time>
      </trkpt>
      <trkpt lat="45.04239" lon="0.6162">
        <ele>194.6</ele>
        <time>2022-05-08T07:28:54Z</time>
      </trkpt>
      <trkpt lat="45.04242" lon="0.6161">
        <ele>194</ele>
        <time>2022-05-08T07:28:55Z</time>
      </trkpt>
      <trkpt lat="45.04245" lon="0.61601">
        <ele>193.5</ele>
        <time>2022-05-08T07:28:56Z</time>
      </trkpt>
      <trkpt lat="45.04248" lon="0.61592">
        <ele>192.9</ele>
        <time>2022-05-08T07:28:57Z</time>
      </trkpt>
      <trkpt lat="45.04253" lon="0.61576">
        <ele>192</ele>
        <time>2022-05-08T07:28:59Z</time>
      </trkpt>
      <trkpt lat="45.04256" lon="0.61568">
        <ele>191.5</ele>
        <time>2022-05-08T07:29:00Z</time>
      </trkpt>
      <trkpt lat="45.04264" lon="0.61545">
        <ele>190.2</ele>
        <time>2022-05-08T07:29:03Z</time>
      </trkpt>
      <trkpt lat="45.0427" lon="0.61525">
        <ele>188.9</ele>
        <time>2022-05-08T07:29:05Z</time>
      </trkpt>
      <trkpt lat="45.04274" lon="0.61512">
        <ele>188.3</ele>
        <time>2022-05-08T07:29:06Z</time>
      </trkpt>
      <trkpt lat="45.04276" lon="0.61491">
        <ele>187.1</ele>
        <time>2022-05-08T07:29:08Z</time>
      </trkpt>
      <trkpt lat="45.04275" lon="0.61479">
        <ele>186.4</ele>
        <time>2022-05-08T07:29:09Z</time>
      </trkpt>
      <trkpt lat="45.04265" lon="0.61442">
        <ele>184.3</ele>
        <time>2022-05-08T07:29:11Z</time>
      </trkpt>
      <trkpt lat="45.04249" lon="0.61406">
        <ele>182</ele>
        <time>2022-05-08T07:29:15Z</time>
      </trkpt>
      <trkpt lat="45.04238" lon="0.61408">
        <ele>181.2</ele>
        <time>2022-05-08T07:29:17Z</time>
      </trkpt>
      <trkpt lat="45.04238" lon="0.61404">
        <ele>181</ele>
        <time>2022-05-08T07:29:18Z</time>
      </trkpt>
      <trkpt lat="45.04247" lon="0.614">
        <ele>180.3</ele>
        <time>2022-05-08T07:29:20Z</time>
      </trkpt>
      <trkpt lat="45.04248" lon="0.61391">
        <ele>179.8</ele>
        <time>2022-05-08T07:29:23Z</time>
      </trkpt>
      <trkpt lat="45.04248" lon="0.61391">
        <ele>179.8</ele>
        <time>2022-05-08T07:29:25Z</time>
      </trkpt>
      <trkpt lat="45.04256" lon="0.61363">
        <ele>178.2</ele>
        <time>2022-05-08T07:29:30Z</time>
      </trkpt>
      <trkpt lat="45.04263" lon="0.61354">
        <ele>177.8</ele>
        <time>2022-05-08T07:29:34Z</time>
      </trkpt>
      <trkpt lat="45.04274" lon="0.61341">
        <ele>177.1</ele>
        <time>2022-05-08T07:29:36Z</time>
      </trkpt>
      <trkpt lat="45.04274" lon="0.61341">
        <ele>177.1</ele>
        <time>2022-05-08T07:29:37Z</time>
      </trkpt>
      <trkpt lat="45.04273" lon="0.61338">
        <ele>177.4</ele>
        <time>2022-05-08T07:29:40Z</time>
      </trkpt>
      <trkpt lat="45.04269" lon="0.61324">
        <ele>178.8</ele>
        <time>2022-05-08T07:29:45Z</time>
      </trkpt>
      <trkpt lat="45.04268" lon="0.6132">
        <ele>179.2</ele>
        <time>2022-05-08T07:29:47Z</time>
      </trkpt>
      <trkpt lat="45.04266" lon="0.61315">
        <ele>179.6</ele>
        <time>2022-05-08T07:29:49Z</time>
      </trkpt>
      <trkpt lat="45.04265" lon="0.61311">
        <ele>179.9</ele>
        <time>2022-05-08T07:29:51Z</time>
      </trkpt>
      <trkpt lat="45.04264" lon="0.61309">
        <ele>180.1</ele>
        <time>2022-05-08T07:29:53Z</time>
      </trkpt>
      <trkpt lat="45.04263" lon="0.61305">
        <ele>180.5</ele>
        <time>2022-05-08T07:29:55Z</time>
      </trkpt>
      <trkpt lat="45.04261" lon="0.61295">
        <ele>181.2</ele>
        <time>2022-05-08T07:29:58Z</time>
      </trkpt>
      <trkpt lat="45.0426" lon="0.61291">
        <ele>181.4</ele>
        <time>2022-05-08T07:30:00Z</time>
      </trkpt>
      <trkpt lat="45.04259" lon="0.61286">
        <ele>181.8</ele>
        <time>2022-05-08T07:30:02Z</time>
      </trkpt>
      <trkpt lat="45.04258" lon="0.61276">
        <ele>182.5</ele>
        <time>2022-05-08T07:30:06Z</time>
      </trkpt>
      <trkpt lat="45.04257" lon="0.61273">
        <ele>182.6</ele>
        <time>2022-05-08T07:30:07Z</time>
      </trkpt>
      <trkpt lat="45.04255" lon="0.61262">
        <ele>183.2</ele>
        <time>2022-05-08T07:30:12Z</time>
      </trkpt>
      <trkpt lat="45.04255" lon="0.61259">
        <ele>183.3</ele>
        <time>2022-05-08T07:30:13Z</time>
      </trkpt>
      <trkpt lat="45.04254" lon="0.61254">
        <ele>183.6</ele>
        <time>2022-05-08T07:30:16Z</time>
      </trkpt>
      <trkpt lat="45.04253" lon="0.61251">
        <ele>183.8</ele>
        <time>2022-05-08T07:30:17Z</time>
      </trkpt>
      <trkpt lat="45.04252" lon="0.61241">
        <ele>184.3</ele>
        <time>2022-05-08T07:30:19Z</time>
      </trkpt>
      <trkpt lat="45.04251" lon="0.61237">
        <ele>184.5</ele>
        <time>2022-05-08T07:30:20Z</time>
      </trkpt>
      <trkpt lat="45.04249" lon="0.61225">
        <ele>185.1</ele>
        <time>2022-05-08T07:30:24Z</time>
      </trkpt>
      <trkpt lat="45.04247" lon="0.61216">
        <ele>185.5</ele>
        <time>2022-05-08T07:30:27Z</time>
      </trkpt>
      <trkpt lat="45.04246" lon="0.61211">
        <ele>185.7</ele>
        <time>2022-05-08T07:30:29Z</time>
      </trkpt>
      <trkpt lat="45.04245" lon="0.61204">
        <ele>185.9</ele>
        <time>2022-05-08T07:30:32Z</time>
      </trkpt>
      <trkpt lat="45.04243" lon="0.61193">
        <ele>186.3</ele>
        <time>2022-05-08T07:30:36Z</time>
      </trkpt>
      <trkpt lat="45.04242" lon="0.61189">
        <ele>186.5</ele>
        <time>2022-05-08T07:30:37Z</time>
      </trkpt>
      <trkpt lat="45.04241" lon="0.61178">
        <ele>186.9</ele>
        <time>2022-05-08T07:30:40Z</time>
      </trkpt>
      <trkpt lat="45.04239" lon="0.61158">
        <ele>187.9</ele>
        <time>2022-05-08T07:30:45Z</time>
      </trkpt>
      <trkpt lat="45.04239" lon="0.61155">
        <ele>188.1</ele>
        <time>2022-05-08T07:30:46Z</time>
      </trkpt>
      <trkpt lat="45.04238" lon="0.6115">
        <ele>188.5</ele>
        <time>2022-05-08T07:30:48Z</time>
      </trkpt>
      <trkpt lat="45.04238" lon="0.61147">
        <ele>188.7</ele>
        <time>2022-05-08T07:30:49Z</time>
      </trkpt>
      <trkpt lat="45.04238" lon="0.61143">
        <ele>189</ele>
        <time>2022-05-08T07:30:51Z</time>
      </trkpt>
      <trkpt lat="45.04237" lon="0.61137">
        <ele>189.5</ele>
        <time>2022-05-08T07:30:54Z</time>
      </trkpt>
      <trkpt lat="45.04236" lon="0.61127">
        <ele>190.4</ele>
        <time>2022-05-08T07:30:59Z</time>
      </trkpt>
      <trkpt lat="45.04235" lon="0.61114">
        <ele>191.5</ele>
        <time>2022-05-08T07:31:05Z</time>
      </trkpt>
      <trkpt lat="45.04234" lon="0.61101">
        <ele>192.6</ele>
        <time>2022-05-08T07:31:11Z</time>
      </trkpt>
      <trkpt lat="45.04232" lon="0.61087">
        <ele>193.7</ele>
        <time>2022-05-08T07:31:17Z</time>
      </trkpt>
      <trkpt lat="45.04232" lon="0.61085">
        <ele>193.9</ele>
        <time>2022-05-08T07:31:18Z</time>
      </trkpt>
      <trkpt lat="45.04232" lon="0.6108">
        <ele>194.2</ele>
        <time>2022-05-08T07:31:20Z</time>
      </trkpt>
      <trkpt lat="45.04231" lon="0.61076">
        <ele>194.5</ele>
        <time>2022-05-08T07:31:22Z</time>
      </trkpt>
      <trkpt lat="45.04231" lon="0.61074">
        <ele>194.6</ele>
        <time>2022-05-08T07:31:23Z</time>
      </trkpt>
      <trkpt lat="45.0423" lon="0.61065">
        <ele>195.2</ele>
        <time>2022-05-08T07:31:27Z</time>
      </trkpt>
      <trkpt lat="45.0423" lon="0.61052">
        <ele>195.9</ele>
        <time>2022-05-08T07:31:32Z</time>
      </trkpt>
      <trkpt lat="45.04229" lon="0.61048">
        <ele>196.2</ele>
        <time>2022-05-08T07:31:34Z</time>
      </trkpt>
      <trkpt lat="45.04229" lon="0.61037">
        <ele>196.8</ele>
        <time>2022-05-08T07:31:40Z</time>
      </trkpt>
      <trkpt lat="45.04228" lon="0.61034">
        <ele>197.1</ele>
        <time>2022-05-08T07:31:42Z</time>
      </trkpt>
      <trkpt lat="45.04228" lon="0.61029">
        <ele>197.4</ele>
        <time>2022-05-08T07:31:44Z</time>
      </trkpt>
      <trkpt lat="45.04228" lon="0.61024">
        <ele>197.7</ele>
        <time>2022-05-08T07:31:46Z</time>
      </trkpt>
      <trkpt lat="45.04227" lon="0.6101">
        <ele>198.6</ele>
        <time>2022-05-08T07:31:52Z</time>
      </trkpt>
      <trkpt lat="45.04225" lon="0.6099">
        <ele>200.1</ele>
        <time>2022-05-08T07:32:01Z</time>
      </trkpt>
      <trkpt lat="45.04225" lon="0.60975">
        <ele>201.4</ele>
        <time>2022-05-08T07:32:08Z</time>
      </trkpt>
      <trkpt lat="45.04226" lon="0.60959">
        <ele>202.6</ele>
        <time>2022-05-08T07:32:16Z</time>
      </trkpt>
      <trkpt lat="45.04226" lon="0.60946">
        <ele>203.5</ele>
        <time>2022-05-08T07:32:22Z</time>
      </trkpt>
      <trkpt lat="45.04227" lon="0.60929">
        <ele>204.7</ele>
        <time>2022-05-08T07:32:30Z</time>
      </trkpt>
      <trkpt lat="45.04226" lon="0.60911">
        <ele>205.7</ele>
        <time>2022-05-08T07:32:38Z</time>
      </trkpt>
      <trkpt lat="45.04224" lon="0.60893">
        <ele>206.4</ele>
        <time>2022-05-08T07:32:46Z</time>
      </trkpt>
      <trkpt lat="45.04221" lon="0.6087">
        <ele>206.7</ele>
        <time>2022-05-08T07:32:54Z</time>
      </trkpt>
      <trkpt lat="45.0422" lon="0.60854">
        <ele>206.3</ele>
        <time>2022-05-08T07:33:00Z</time>
      </trkpt>
      <trkpt lat="45.0422" lon="0.60853">
        <ele>206.2</ele>
        <time>2022-05-08T07:33:01Z</time>
      </trkpt>
      <trkpt lat="45.0422" lon="0.60853">
        <ele>206.2</ele>
        <time>2022-05-08T07:33:03Z</time>
      </trkpt>
      <trkpt lat="45.04218" lon="0.60844">
        <ele>205.7</ele>
        <time>2022-05-08T07:33:08Z</time>
      </trkpt>
      <trkpt lat="45.04218" lon="0.60839">
        <ele>205.4</ele>
        <time>2022-05-08T07:33:09Z</time>
      </trkpt>
      <trkpt lat="45.04205" lon="0.60825">
        <ele>204.1</ele>
        <time>2022-05-08T07:33:12Z</time>
      </trkpt>
      <trkpt lat="45.04201" lon="0.6082">
        <ele>203.8</ele>
        <time>2022-05-08T07:33:13Z</time>
      </trkpt>
      <trkpt lat="45.0419" lon="0.60793">
        <ele>203.6</ele>
        <time>2022-05-08T07:33:18Z</time>
      </trkpt>
      <trkpt lat="45.0418" lon="0.60783">
        <ele>204</ele>
        <time>2022-05-08T07:33:22Z</time>
      </trkpt>
      <trkpt lat="45.04157" lon="0.60777">
        <ele>204.8</ele>
        <time>2022-05-08T07:33:29Z</time>
      </trkpt>
      <trkpt lat="45.04128" lon="0.60769">
        <ele>204.7</ele>
        <time>2022-05-08T07:33:38Z</time>
      </trkpt>
      <trkpt lat="45.04112" lon="0.60756">
        <ele>203.7</ele>
        <time>2022-05-08T07:33:43Z</time>
      </trkpt>
      <trkpt lat="45.04108" lon="0.60745">
        <ele>202.9</ele>
        <time>2022-05-08T07:33:45Z</time>
      </trkpt>
      <trkpt lat="45.04107" lon="0.60739">
        <ele>202.5</ele>
        <time>2022-05-08T07:33:46Z</time>
      </trkpt>
      <trkpt lat="45.04105" lon="0.60733">
        <ele>202</ele>
        <time>2022-05-08T07:33:47Z</time>
      </trkpt>
      <trkpt lat="45.04102" lon="0.60719">
        <ele>201</ele>
        <time>2022-05-08T07:33:49Z</time>
      </trkpt>
      <trkpt lat="45.04101" lon="0.60712">
        <ele>200.6</ele>
        <time>2022-05-08T07:33:50Z</time>
      </trkpt>
      <trkpt lat="45.04104" lon="0.60701">
        <ele>200.5</ele>
        <time>2022-05-08T07:33:51Z</time>
      </trkpt>
      <trkpt lat="45.04108" lon="0.60665">
        <ele>200.2</ele>
        <time>2022-05-08T07:33:55Z</time>
      </trkpt>
      <trkpt lat="45.04116" lon="0.60601">
        <ele>200.3</ele>
        <time>2022-05-08T07:34:02Z</time>
      </trkpt>
      <trkpt lat="45.04114" lon="0.60563">
        <ele>198.6</ele>
        <time>2022-05-08T07:34:06Z</time>
      </trkpt>
      <trkpt lat="45.04113" lon="0.60553">
        <ele>198</ele>
        <time>2022-05-08T07:34:07Z</time>
      </trkpt>
      <trkpt lat="45.04112" lon="0.60512">
        <ele>195.9</ele>
        <time>2022-05-08T07:34:11Z</time>
      </trkpt>
      <trkpt lat="45.04109" lon="0.60502">
        <ele>195.2</ele>
        <time>2022-05-08T07:34:12Z</time>
      </trkpt>
      <trkpt lat="45.04103" lon="0.60494">
        <ele>194.3</ele>
        <time>2022-05-08T07:34:13Z</time>
      </trkpt>
      <trkpt lat="45.04088" lon="0.60482">
        <ele>192</ele>
        <time>2022-05-08T07:34:15Z</time>
      </trkpt>
      <trkpt lat="45.04046" lon="0.6045">
        <ele>185.5</ele>
        <time>2022-05-08T07:34:20Z</time>
      </trkpt>
      <trkpt lat="45.04037" lon="0.6043">
        <ele>183.7</ele>
        <time>2022-05-08T07:34:22Z</time>
      </trkpt>
      <trkpt lat="45.04034" lon="0.60418">
        <ele>182.9</ele>
        <time>2022-05-08T07:34:23Z</time>
      </trkpt>
      <trkpt lat="45.04032" lon="0.60366">
        <ele>179.6</ele>
        <time>2022-05-08T07:34:27Z</time>
      </trkpt>
      <trkpt lat="45.04033" lon="0.60354">
        <ele>179</ele>
        <time>2022-05-08T07:34:28Z</time>
      </trkpt>
      <trkpt lat="45.04035" lon="0.60344">
        <ele>178.5</ele>
        <time>2022-05-08T07:34:29Z</time>
      </trkpt>
      <trkpt lat="45.04046" lon="0.60325">
        <ele>177.8</ele>
        <time>2022-05-08T07:34:31Z</time>
      </trkpt>
      <trkpt lat="45.04071" lon="0.60283">
        <ele>176.7</ele>
        <time>2022-05-08T07:34:36Z</time>
      </trkpt>
      <trkpt lat="45.04078" lon="0.60265">
        <ele>176.2</ele>
        <time>2022-05-08T07:34:38Z</time>
      </trkpt>
      <trkpt lat="45.04083" lon="0.60246">
        <ele>175.4</ele>
        <time>2022-05-08T07:34:40Z</time>
      </trkpt>
      <trkpt lat="45.04085" lon="0.60235">
        <ele>174.9</ele>
        <time>2022-05-08T07:34:41Z</time>
      </trkpt>
      <trkpt lat="45.04088" lon="0.60187">
        <ele>172.9</ele>
        <time>2022-05-08T07:34:45Z</time>
      </trkpt>
      <trkpt lat="45.0409" lon="0.60176">
        <ele>172.9</ele>
        <time>2022-05-08T07:34:46Z</time>
      </trkpt>
      <trkpt lat="45.04094" lon="0.60148">
        <ele>173.9</ele>
        <time>2022-05-08T07:34:49Z</time>
      </trkpt>
      <trkpt lat="45.04096" lon="0.60124">
        <ele>175.8</ele>
        <time>2022-05-08T07:34:53Z</time>
      </trkpt>
      <trkpt lat="45.04097" lon="0.60112">
        <ele>177</ele>
        <time>2022-05-08T07:34:57Z</time>
      </trkpt>
      <trkpt lat="45.04098" lon="0.60098">
        <ele>178.3</ele>
        <time>2022-05-08T07:35:03Z</time>
      </trkpt>
      <trkpt lat="45.04099" lon="0.60089">
        <ele>179.2</ele>
        <time>2022-05-08T07:35:08Z</time>
      </trkpt>
      <trkpt lat="45.041" lon="0.60073">
        <ele>180.8</ele>
        <time>2022-05-08T07:35:14Z</time>
      </trkpt>
      <trkpt lat="45.04102" lon="0.60051">
        <ele>182.8</ele>
        <time>2022-05-08T07:35:22Z</time>
      </trkpt>
      <trkpt lat="45.04103" lon="0.60038">
        <ele>183.9</ele>
        <time>2022-05-08T07:35:27Z</time>
      </trkpt>
      <trkpt lat="45.04104" lon="0.60031">
        <ele>184.6</ele>
        <time>2022-05-08T07:35:30Z</time>
      </trkpt>
      <trkpt lat="45.04104" lon="0.60028">
        <ele>184.8</ele>
        <time>2022-05-08T07:35:31Z</time>
      </trkpt>
      <trkpt lat="45.04106" lon="0.60016">
        <ele>185.8</ele>
        <time>2022-05-08T07:35:36Z</time>
      </trkpt>
      <trkpt lat="45.04106" lon="0.60014">
        <ele>186</ele>
        <time>2022-05-08T07:35:37Z</time>
      </trkpt>
      <trkpt lat="45.0411" lon="0.6">
        <ele>187.2</ele>
        <time>2022-05-08T07:35:43Z</time>
      </trkpt>
      <trkpt lat="45.04113" lon="0.59986">
        <ele>188.3</ele>
        <time>2022-05-08T07:35:49Z</time>
      </trkpt>
      <trkpt lat="45.04118" lon="0.5997">
        <ele>189.6</ele>
        <time>2022-05-08T07:35:56Z</time>
      </trkpt>
      <trkpt lat="45.04123" lon="0.59955">
        <ele>190.9</ele>
        <time>2022-05-08T07:36:03Z</time>
      </trkpt>
      <trkpt lat="45.04125" lon="0.5995">
        <ele>191.3</ele>
        <time>2022-05-08T07:36:05Z</time>
      </trkpt>
      <trkpt lat="45.04127" lon="0.59944">
        <ele>191.7</ele>
        <time>2022-05-08T07:36:08Z</time>
      </trkpt>
      <trkpt lat="45.04132" lon="0.5993">
        <ele>192.7</ele>
        <time>2022-05-08T07:36:14Z</time>
      </trkpt>
      <trkpt lat="45.04132" lon="0.59928">
        <ele>192.9</ele>
        <time>2022-05-08T07:36:15Z</time>
      </trkpt>
      <trkpt lat="45.04135" lon="0.59921">
        <ele>193.2</ele>
        <time>2022-05-08T07:36:18Z</time>
      </trkpt>
      <trkpt lat="45.04136" lon="0.59918">
        <ele>193.4</ele>
        <time>2022-05-08T07:36:19Z</time>
      </trkpt>
      <trkpt lat="45.04139" lon="0.59908">
        <ele>193.9</ele>
        <time>2022-05-08T07:36:22Z</time>
      </trkpt>
      <trkpt lat="45.04149" lon="0.5989">
        <ele>194.8</ele>
        <time>2022-05-08T07:36:29Z</time>
      </trkpt>
      <trkpt lat="45.04158" lon="0.59875">
        <ele>195.8</ele>
        <time>2022-05-08T07:36:35Z</time>
      </trkpt>
      <trkpt lat="45.04167" lon="0.59862">
        <ele>196.6</ele>
        <time>2022-05-08T07:36:41Z</time>
      </trkpt>
      <trkpt lat="45.04177" lon="0.59847">
        <ele>197.5</ele>
        <time>2022-05-08T07:36:47Z</time>
      </trkpt>
      <trkpt lat="45.04187" lon="0.59833">
        <ele>198.7</ele>
        <time>2022-05-08T07:36:53Z</time>
      </trkpt>
      <trkpt lat="45.04194" lon="0.59824">
        <ele>199.6</ele>
        <time>2022-05-08T07:36:58Z</time>
      </trkpt>
      <trkpt lat="45.04208" lon="0.59807">
        <ele>201.3</ele>
        <time>2022-05-08T07:37:06Z</time>
      </trkpt>
      <trkpt lat="45.04211" lon="0.59803">
        <ele>201.8</ele>
        <time>2022-05-08T07:37:08Z</time>
      </trkpt>
      <trkpt lat="45.04215" lon="0.59798">
        <ele>202.3</ele>
        <time>2022-05-08T07:37:11Z</time>
      </trkpt>
      <trkpt lat="45.04218" lon="0.59794">
        <ele>202.8</ele>
        <time>2022-05-08T07:37:13Z</time>
      </trkpt>
      <trkpt lat="45.04222" lon="0.59789">
        <ele>203.3</ele>
        <time>2022-05-08T07:37:16Z</time>
      </trkpt>
      <trkpt lat="45.04226" lon="0.59785">
        <ele>203.8</ele>
        <time>2022-05-08T07:37:19Z</time>
      </trkpt>
      <trkpt lat="45.04229" lon="0.59781">
        <ele>204.3</ele>
        <time>2022-05-08T07:37:21Z</time>
      </trkpt>
      <trkpt lat="45.04234" lon="0.59775">
        <ele>205</ele>
        <time>2022-05-08T07:37:25Z</time>
      </trkpt>
      <trkpt lat="45.04237" lon="0.59772">
        <ele>205.4</ele>
        <time>2022-05-08T07:37:27Z</time>
      </trkpt>
      <trkpt lat="45.04239" lon="0.5977">
        <ele>205.7</ele>
        <time>2022-05-08T07:37:29Z</time>
      </trkpt>
      <trkpt lat="45.04247" lon="0.59764">
        <ele>206.6</ele>
        <time>2022-05-08T07:37:33Z</time>
      </trkpt>
      <trkpt lat="45.04247" lon="0.59763">
        <ele>206.6</ele>
        <time>2022-05-08T07:37:35Z</time>
      </trkpt>
      <trkpt lat="45.04258" lon="0.5975">
        <ele>207.3</ele>
        <time>2022-05-08T07:37:42Z</time>
      </trkpt>
      <trkpt lat="45.04271" lon="0.59739">
        <ele>208</ele>
        <time>2022-05-08T07:37:50Z</time>
      </trkpt>
      <trkpt lat="45.04272" lon="0.59738">
        <ele>208.1</ele>
        <time>2022-05-08T07:37:51Z</time>
      </trkpt>
      <trkpt lat="45.04277" lon="0.59733">
        <ele>208.4</ele>
        <time>2022-05-08T07:37:55Z</time>
      </trkpt>
      <trkpt lat="45.04288" lon="0.59735">
        <ele>209</ele>
        <time>2022-05-08T07:38:01Z</time>
      </trkpt>
      <trkpt lat="45.04302" lon="0.59744">
        <ele>209.7</ele>
        <time>2022-05-08T07:38:10Z</time>
      </trkpt>
      <trkpt lat="45.04316" lon="0.59753">
        <ele>210</ele>
        <time>2022-05-08T07:38:18Z</time>
      </trkpt>
      <trkpt lat="45.04331" lon="0.59763">
        <ele>209.6</ele>
        <time>2022-05-08T07:38:24Z</time>
      </trkpt>
      <trkpt lat="45.04348" lon="0.59776">
        <ele>208.6</ele>
        <time>2022-05-08T07:38:30Z</time>
      </trkpt>
      <trkpt lat="45.04364" lon="0.59788">
        <ele>207.7</ele>
        <time>2022-05-08T07:38:34Z</time>
      </trkpt>
      <trkpt lat="45.0438" lon="0.59795">
        <ele>206.9</ele>
        <time>2022-05-08T07:38:37Z</time>
      </trkpt>
      <trkpt lat="45.04393" lon="0.59797">
        <ele>206.5</ele>
        <time>2022-05-08T07:38:39Z</time>
      </trkpt>
      <trkpt lat="45.04431" lon="0.59803">
        <ele>205.6</ele>
        <time>2022-05-08T07:38:46Z</time>
      </trkpt>
      <trkpt lat="45.04457" lon="0.59808">
        <ele>205.6</ele>
        <time>2022-05-08T07:38:52Z</time>
      </trkpt>
      <trkpt lat="45.04479" lon="0.59805">
        <ele>205.8</ele>
        <time>2022-05-08T07:38:58Z</time>
      </trkpt>
      <trkpt lat="45.04489" lon="0.59802">
        <ele>205.9</ele>
        <time>2022-05-08T07:39:01Z</time>
      </trkpt>
      <trkpt lat="45.04491" lon="0.59797">
        <ele>205.8</ele>
        <time>2022-05-08T07:39:02Z</time>
      </trkpt>
      <trkpt lat="45.04491" lon="0.59791">
        <ele>205.7</ele>
        <time>2022-05-08T07:39:03Z</time>
      </trkpt>
      <trkpt lat="45.04487" lon="0.59782">
        <ele>205.6</ele>
        <time>2022-05-08T07:39:05Z</time>
      </trkpt>
      <trkpt lat="45.04483" lon="0.59757">
        <ele>205.1</ele>
        <time>2022-05-08T07:39:10Z</time>
      </trkpt>
      <trkpt lat="45.04484" lon="0.59741">
        <ele>204.8</ele>
        <time>2022-05-08T07:39:13Z</time>
      </trkpt>
      <trkpt lat="45.04485" lon="0.59733">
        <ele>204.6</ele>
        <time>2022-05-08T07:39:15Z</time>
      </trkpt>
      <trkpt lat="45.04474" lon="0.59729">
        <ele>203.7</ele>
        <time>2022-05-08T07:39:17Z</time>
      </trkpt>
      <trkpt lat="45.04472" lon="0.59727">
        <ele>203.5</ele>
        <time>2022-05-08T07:39:18Z</time>
      </trkpt>
      <trkpt lat="45.0447" lon="0.5972">
        <ele>203.1</ele>
        <time>2022-05-08T07:39:20Z</time>
      </trkpt>
      <trkpt lat="45.0447" lon="0.59717">
        <ele>202.9</ele>
        <time>2022-05-08T07:39:21Z</time>
      </trkpt>
      <trkpt lat="45.0447" lon="0.59714">
        <ele>202.8</ele>
        <time>2022-05-08T07:39:22Z</time>
      </trkpt>
      <trkpt lat="45.0447" lon="0.59702">
        <ele>202.1</ele>
        <time>2022-05-08T07:39:24Z</time>
      </trkpt>
      <trkpt lat="45.04471" lon="0.59686">
        <ele>200.9</ele>
        <time>2022-05-08T07:39:26Z</time>
      </trkpt>
      <trkpt lat="45.04472" lon="0.59677">
        <ele>200.2</ele>
        <time>2022-05-08T07:39:27Z</time>
      </trkpt>
      <trkpt lat="45.04472" lon="0.59668">
        <ele>199.4</ele>
        <time>2022-05-08T07:39:28Z</time>
      </trkpt>
      <trkpt lat="45.04473" lon="0.59645">
        <ele>197.2</ele>
        <time>2022-05-08T07:39:30Z</time>
      </trkpt>
      <trkpt lat="45.04473" lon="0.59634">
        <ele>196.2</ele>
        <time>2022-05-08T07:39:31Z</time>
      </trkpt>
      <trkpt lat="45.04469" lon="0.59608">
        <ele>193.9</ele>
        <time>2022-05-08T07:39:33Z</time>
      </trkpt>
      <trkpt lat="45.04452" lon="0.59546">
        <ele>189</ele>
        <time>2022-05-08T07:39:38Z</time>
      </trkpt>
      <trkpt lat="45.04448" lon="0.59526">
        <ele>187.4</ele>
        <time>2022-05-08T07:39:40Z</time>
      </trkpt>
      <trkpt lat="45.04448" lon="0.59517">
        <ele>186.7</ele>
        <time>2022-05-08T07:39:41Z</time>
      </trkpt>
      <trkpt lat="45.0445" lon="0.59507">
        <ele>185.8</ele>
        <time>2022-05-08T07:39:42Z</time>
      </trkpt>
      <trkpt lat="45.04457" lon="0.59487">
        <ele>183.8</ele>
        <time>2022-05-08T07:39:44Z</time>
      </trkpt>
      <trkpt lat="45.04479" lon="0.59439">
        <ele>178.6</ele>
        <time>2022-05-08T07:39:48Z</time>
      </trkpt>
      <trkpt lat="45.04501" lon="0.59393">
        <ele>174.9</ele>
        <time>2022-05-08T07:39:52Z</time>
      </trkpt>
      <trkpt lat="45.04515" lon="0.59363">
        <ele>174</ele>
        <time>2022-05-08T07:39:55Z</time>
      </trkpt>
      <trkpt lat="45.04522" lon="0.59344">
        <ele>173.8</ele>
        <time>2022-05-08T07:39:57Z</time>
      </trkpt>
      <trkpt lat="45.04539" lon="0.59305">
        <ele>174.2</ele>
        <time>2022-05-08T07:40:02Z</time>
      </trkpt>
      <trkpt lat="45.04546" lon="0.593">
        <ele>174.5</ele>
        <time>2022-05-08T07:40:04Z</time>
      </trkpt>
      <trkpt lat="45.0455" lon="0.593">
        <ele>174.6</ele>
        <time>2022-05-08T07:40:05Z</time>
      </trkpt>
      <trkpt lat="45.04564" lon="0.59301">
        <ele>175.6</ele>
        <time>2022-05-08T07:40:09Z</time>
      </trkpt>
      <trkpt lat="45.04573" lon="0.59298">
        <ele>176.8</ele>
        <time>2022-05-08T07:40:13Z</time>
      </trkpt>
      <trkpt lat="45.04581" lon="0.59293">
        <ele>177.9</ele>
        <time>2022-05-08T07:40:17Z</time>
      </trkpt>
      <trkpt lat="45.04586" lon="0.5929">
        <ele>178.9</ele>
        <time>2022-05-08T07:40:21Z</time>
      </trkpt>
      <trkpt lat="45.04596" lon="0.59285">
        <ele>180.5</ele>
        <time>2022-05-08T07:40:27Z</time>
      </trkpt>
      <trkpt lat="45.04597" lon="0.59284">
        <ele>180.7</ele>
        <time>2022-05-08T07:40:28Z</time>
      </trkpt>
      <trkpt lat="45.04605" lon="0.59279">
        <ele>182.1</ele>
        <time>2022-05-08T07:40:33Z</time>
      </trkpt>
      <trkpt lat="45.04615" lon="0.59275">
        <ele>183.8</ele>
        <time>2022-05-08T07:40:39Z</time>
      </trkpt>
      <trkpt lat="45.04623" lon="0.59273">
        <ele>185</ele>
        <time>2022-05-08T07:40:44Z</time>
      </trkpt>
      <trkpt lat="45.04627" lon="0.59272">
        <ele>185.7</ele>
        <time>2022-05-08T07:40:47Z</time>
      </trkpt>
      <trkpt lat="45.04629" lon="0.59271">
        <ele>186.2</ele>
        <time>2022-05-08T07:40:49Z</time>
      </trkpt>
      <trkpt lat="45.04639" lon="0.59268">
        <ele>187.6</ele>
        <time>2022-05-08T07:40:56Z</time>
      </trkpt>
      <trkpt lat="45.04646" lon="0.59266">
        <ele>188.8</ele>
        <time>2022-05-08T07:41:01Z</time>
      </trkpt>
      <trkpt lat="45.04656" lon="0.59262">
        <ele>190.4</ele>
        <time>2022-05-08T07:41:07Z</time>
      </trkpt>
      <trkpt lat="45.04661" lon="0.59255">
        <ele>191.4</ele>
        <time>2022-05-08T07:41:10Z</time>
      </trkpt>
      <trkpt lat="45.04664" lon="0.59251">
        <ele>191.9</ele>
        <time>2022-05-08T07:41:13Z</time>
      </trkpt>
      <trkpt lat="45.04675" lon="0.59236">
        <ele>193.3</ele>
        <time>2022-05-08T07:41:19Z</time>
      </trkpt>
      <trkpt lat="45.04686" lon="0.59221">
        <ele>194</ele>
        <time>2022-05-08T07:41:26Z</time>
      </trkpt>
      <trkpt lat="45.04695" lon="0.59205">
        <ele>194.2</ele>
        <time>2022-05-08T07:41:32Z</time>
      </trkpt>
      <trkpt lat="45.04698" lon="0.59199">
        <ele>194.4</ele>
        <time>2022-05-08T07:41:34Z</time>
      </trkpt>
      <trkpt lat="45.047" lon="0.59193">
        <ele>194.5</ele>
        <time>2022-05-08T07:41:36Z</time>
      </trkpt>
      <trkpt lat="45.04709" lon="0.59175">
        <ele>194.9</ele>
        <time>2022-05-08T07:41:42Z</time>
      </trkpt>
      <trkpt lat="45.04716" lon="0.5916">
        <ele>195.6</ele>
        <time>2022-05-08T07:41:48Z</time>
      </trkpt>
      <trkpt lat="45.04729" lon="0.59146">
        <ele>197.1</ele>
        <time>2022-05-08T07:41:53Z</time>
      </trkpt>
      <trkpt lat="45.04726" lon="0.59143">
        <ele>197.4</ele>
        <time>2022-05-08T07:41:54Z</time>
      </trkpt>
      <trkpt lat="45.04724" lon="0.59142">
        <ele>197.5</ele>
        <time>2022-05-08T07:41:55Z</time>
      </trkpt>
      <trkpt lat="45.04717" lon="0.59137">
        <ele>198.1</ele>
        <time>2022-05-08T07:41:58Z</time>
      </trkpt>
      <trkpt lat="45.04698" lon="0.59123">
        <ele>199.4</ele>
        <time>2022-05-08T07:42:06Z</time>
      </trkpt>
      <trkpt lat="45.04681" lon="0.5911">
        <ele>200.5</ele>
        <time>2022-05-08T07:42:13Z</time>
      </trkpt>
      <trkpt lat="45.0466" lon="0.59097">
        <ele>201.5</ele>
        <time>2022-05-08T07:42:21Z</time>
      </trkpt>
      <trkpt lat="45.04645" lon="0.59085">
        <ele>202.3</ele>
        <time>2022-05-08T07:42:27Z</time>
      </trkpt>
      <trkpt lat="45.04643" lon="0.59082">
        <ele>202.4</ele>
        <time>2022-05-08T07:42:31Z</time>
      </trkpt>
      <trkpt lat="45.04642" lon="0.5908">
        <ele>202.4</ele>
        <time>2022-05-08T07:48:59Z</time>
      </trkpt>
      <trkpt lat="45.04639" lon="0.59075">
        <ele>202.6</ele>
        <time>2022-05-08T07:49:02Z</time>
      </trkpt>
      <trkpt lat="45.04632" lon="0.59059">
        <ele>203.2</ele>
        <time>2022-05-08T07:49:08Z</time>
      </trkpt>
      <trkpt lat="45.04626" lon="0.59046">
        <ele>203.3</ele>
        <time>2022-05-08T07:49:13Z</time>
      </trkpt>
      <trkpt lat="45.04623" lon="0.5904">
        <ele>203.3</ele>
        <time>2022-05-08T07:49:17Z</time>
      </trkpt>
      <trkpt lat="45.04618" lon="0.59028">
        <ele>203.4</ele>
        <time>2022-05-08T07:49:22Z</time>
      </trkpt>
      <trkpt lat="45.0461" lon="0.59011">
        <ele>203.6</ele>
        <time>2022-05-08T07:49:27Z</time>
      </trkpt>
      <trkpt lat="45.046" lon="0.58983">
        <ele>204.1</ele>
        <time>2022-05-08T07:49:34Z</time>
      </trkpt>
      <trkpt lat="45.04592" lon="0.58959">
        <ele>204.8</ele>
        <time>2022-05-08T07:49:40Z</time>
      </trkpt>
      <trkpt lat="45.04588" lon="0.5894">
        <ele>205.4</ele>
        <time>2022-05-08T07:49:44Z</time>
      </trkpt>
      <trkpt lat="45.04583" lon="0.58919">
        <ele>206.2</ele>
        <time>2022-05-08T07:49:49Z</time>
      </trkpt>
      <trkpt lat="45.04578" lon="0.58897">
        <ele>206.9</ele>
        <time>2022-05-08T07:49:54Z</time>
      </trkpt>
      <trkpt lat="45.0457" lon="0.58873">
        <ele>207.7</ele>
        <time>2022-05-08T07:49:59Z</time>
      </trkpt>
      <trkpt lat="45.0456" lon="0.58846">
        <ele>208.8</ele>
        <time>2022-05-08T07:50:05Z</time>
      </trkpt>
      <trkpt lat="45.04552" lon="0.58822">
        <ele>209.1</ele>
        <time>2022-05-08T07:50:10Z</time>
      </trkpt>
      <trkpt lat="45.04545" lon="0.58802">
        <ele>209</ele>
        <time>2022-05-08T07:50:14Z</time>
      </trkpt>
      <trkpt lat="45.04541" lon="0.58791">
        <ele>208.9</ele>
        <time>2022-05-08T07:50:16Z</time>
      </trkpt>
      <trkpt lat="45.04536" lon="0.58782">
        <ele>208.8</ele>
        <time>2022-05-08T07:50:18Z</time>
      </trkpt>
      <trkpt lat="45.04523" lon="0.58756">
        <ele>208.5</ele>
        <time>2022-05-08T07:50:24Z</time>
      </trkpt>
      <trkpt lat="45.04511" lon="0.58738">
        <ele>208.4</ele>
        <time>2022-05-08T07:50:28Z</time>
      </trkpt>
      <trkpt lat="45.04507" lon="0.58734">
        <ele>208.3</ele>
        <time>2022-05-08T07:50:29Z</time>
      </trkpt>
      <trkpt lat="45.04483" lon="0.58719">
        <ele>208</ele>
        <time>2022-05-08T07:50:35Z</time>
      </trkpt>
      <trkpt lat="45.04479" lon="0.58716">
        <ele>208</ele>
        <time>2022-05-08T07:50:36Z</time>
      </trkpt>
      <trkpt lat="45.04465" lon="0.58694">
        <ele>207.7</ele>
        <time>2022-05-08T07:50:40Z</time>
      </trkpt>
      <trkpt lat="45.04455" lon="0.58675">
        <ele>207.6</ele>
        <time>2022-05-08T07:50:44Z</time>
      </trkpt>
      <trkpt lat="45.04446" lon="0.58659">
        <ele>207.4</ele>
        <time>2022-05-08T07:50:47Z</time>
      </trkpt>
      <trkpt lat="45.04445" lon="0.58653">
        <ele>207.4</ele>
        <time>2022-05-08T07:50:48Z</time>
      </trkpt>
      <trkpt lat="45.04443" lon="0.58647">
        <ele>207.3</ele>
        <time>2022-05-08T07:50:49Z</time>
      </trkpt>
      <trkpt lat="45.04441" lon="0.58636">
        <ele>207.2</ele>
        <time>2022-05-08T07:50:51Z</time>
      </trkpt>
      <trkpt lat="45.0444" lon="0.58631">
        <ele>207.2</ele>
        <time>2022-05-08T07:50:52Z</time>
      </trkpt>
      <trkpt lat="45.04436" lon="0.58615">
        <ele>206.8</ele>
        <time>2022-05-08T07:50:55Z</time>
      </trkpt>
      <trkpt lat="45.04432" lon="0.58613">
        <ele>206.6</ele>
        <time>2022-05-08T07:50:56Z</time>
      </trkpt>
      <trkpt lat="45.04418" lon="0.58605">
        <ele>206</ele>
        <time>2022-05-08T07:50:59Z</time>
      </trkpt>
      <trkpt lat="45.04386" lon="0.58588">
        <ele>204.6</ele>
        <time>2022-05-08T07:51:05Z</time>
      </trkpt>
      <trkpt lat="45.04338" lon="0.58563">
        <ele>202.3</ele>
        <time>2022-05-08T07:51:13Z</time>
      </trkpt>
      <trkpt lat="45.04286" lon="0.58536">
        <ele>199.9</ele>
        <time>2022-05-08T07:51:21Z</time>
      </trkpt>
      <trkpt lat="45.04244" lon="0.58514">
        <ele>198</ele>
        <time>2022-05-08T07:51:27Z</time>
      </trkpt>
      <trkpt lat="45.0419" lon="0.58486">
        <ele>195.5</ele>
        <time>2022-05-08T07:51:34Z</time>
      </trkpt>
      <trkpt lat="45.04164" lon="0.58475">
        <ele>194.8</ele>
        <time>2022-05-08T07:51:38Z</time>
      </trkpt>
      <trkpt lat="45.04155" lon="0.58468">
        <ele>194.6</ele>
        <time>2022-05-08T07:51:39Z</time>
      </trkpt>
      <trkpt lat="45.04147" lon="0.58462">
        <ele>194.3</ele>
        <time>2022-05-08T07:51:41Z</time>
      </trkpt>
      <trkpt lat="45.04142" lon="0.58463">
        <ele>194.1</ele>
        <time>2022-05-08T07:51:42Z</time>
      </trkpt>
      <trkpt lat="45.04129" lon="0.58462">
        <ele>193.7</ele>
        <time>2022-05-08T07:51:44Z</time>
      </trkpt>
      <trkpt lat="45.04109" lon="0.58456">
        <ele>193.3</ele>
        <time>2022-05-08T07:51:47Z</time>
      </trkpt>
      <trkpt lat="45.04065" lon="0.58442">
        <ele>193.4</ele>
        <time>2022-05-08T07:51:53Z</time>
      </trkpt>
      <trkpt lat="45.0403" lon="0.58431">
        <ele>194.3</ele>
        <time>2022-05-08T07:51:59Z</time>
      </trkpt>
      <trkpt lat="45.04016" lon="0.58424">
        <ele>194.7</ele>
        <time>2022-05-08T07:52:02Z</time>
      </trkpt>
      <trkpt lat="45.04009" lon="0.58419">
        <ele>195.1</ele>
        <time>2022-05-08T07:52:04Z</time>
      </trkpt>
      <trkpt lat="45.0399" lon="0.58404">
        <ele>196.4</ele>
        <time>2022-05-08T07:52:09Z</time>
      </trkpt>
      <trkpt lat="45.03982" lon="0.58399">
        <ele>196.9</ele>
        <time>2022-05-08T07:52:11Z</time>
      </trkpt>
      <trkpt lat="45.03968" lon="0.58397">
        <ele>197.3</ele>
        <time>2022-05-08T07:52:14Z</time>
      </trkpt>
      <trkpt lat="45.03959" lon="0.58397">
        <ele>197.3</ele>
        <time>2022-05-08T07:52:16Z</time>
      </trkpt>
      <trkpt lat="45.03954" lon="0.58397">
        <ele>197.3</ele>
        <time>2022-05-08T07:52:17Z</time>
      </trkpt>
      <trkpt lat="45.03938" lon="0.58403">
        <ele>197.1</ele>
        <time>2022-05-08T07:52:20Z</time>
      </trkpt>
      <trkpt lat="45.03928" lon="0.58411">
        <ele>196.9</ele>
        <time>2022-05-08T07:52:22Z</time>
      </trkpt>
      <trkpt lat="45.0392" lon="0.58425">
        <ele>196.8</ele>
        <time>2022-05-08T07:52:24Z</time>
      </trkpt>
      <trkpt lat="45.03903" lon="0.58473">
        <ele>196.1</ele>
        <time>2022-05-08T07:52:30Z</time>
      </trkpt>
      <trkpt lat="45.03893" lon="0.58501">
        <ele>195.9</ele>
        <time>2022-05-08T07:52:34Z</time>
      </trkpt>
      <trkpt lat="45.0389" lon="0.58508">
        <ele>195.9</ele>
        <time>2022-05-08T07:52:35Z</time>
      </trkpt>
      <trkpt lat="45.03886" lon="0.58515">
        <ele>195.9</ele>
        <time>2022-05-08T07:52:36Z</time>
      </trkpt>
      <trkpt lat="45.03873" lon="0.58532">
        <ele>196</ele>
        <time>2022-05-08T07:52:39Z</time>
      </trkpt>
      <trkpt lat="45.03848" lon="0.58552">
        <ele>196.5</ele>
        <time>2022-05-08T07:52:44Z</time>
      </trkpt>
      <trkpt lat="45.03815" lon="0.58568">
        <ele>197.6</ele>
        <time>2022-05-08T07:52:50Z</time>
      </trkpt>
      <trkpt lat="45.03804" lon="0.58571">
        <ele>198.2</ele>
        <time>2022-05-08T07:52:52Z</time>
      </trkpt>
      <trkpt lat="45.03784" lon="0.58571">
        <ele>199.5</ele>
        <time>2022-05-08T07:52:56Z</time>
      </trkpt>
      <trkpt lat="45.03761" lon="0.58571">
        <ele>201.8</ele>
        <time>2022-05-08T07:53:02Z</time>
      </trkpt>
      <trkpt lat="45.03752" lon="0.58573">
        <ele>202.8</ele>
        <time>2022-05-08T07:53:04Z</time>
      </trkpt>
      <trkpt lat="45.03732" lon="0.58578">
        <ele>204.6</ele>
        <time>2022-05-08T07:53:09Z</time>
      </trkpt>
      <trkpt lat="45.0371" lon="0.58581">
        <ele>205.9</ele>
        <time>2022-05-08T07:53:15Z</time>
      </trkpt>
      <trkpt lat="45.03696" lon="0.58571">
        <ele>206.4</ele>
        <time>2022-05-08T07:53:18Z</time>
      </trkpt>
      <trkpt lat="45.03689" lon="0.58562">
        <ele>206.5</ele>
        <time>2022-05-08T07:53:20Z</time>
      </trkpt>
      <trkpt lat="45.03664" lon="0.58523">
        <ele>207.1</ele>
        <time>2022-05-08T07:53:27Z</time>
      </trkpt>
      <trkpt lat="45.03644" lon="0.58499">
        <ele>207.3</ele>
        <time>2022-05-08T07:53:32Z</time>
      </trkpt>
      <trkpt lat="45.03638" lon="0.58495">
        <ele>207.3</ele>
        <time>2022-05-08T07:53:33Z</time>
      </trkpt>
      <trkpt lat="45.03626" lon="0.5849">
        <ele>207.3</ele>
        <time>2022-05-08T07:53:35Z</time>
      </trkpt>
      <trkpt lat="45.03614" lon="0.58489">
        <ele>207.1</ele>
        <time>2022-05-08T07:53:37Z</time>
      </trkpt>
      <trkpt lat="45.03607" lon="0.58489">
        <ele>207.1</ele>
        <time>2022-05-08T07:53:38Z</time>
      </trkpt>
      <trkpt lat="45.03567" lon="0.58488">
        <ele>206.4</ele>
        <time>2022-05-08T07:53:44Z</time>
      </trkpt>
      <trkpt lat="45.03521" lon="0.58485">
        <ele>205.4</ele>
        <time>2022-05-08T07:53:50Z</time>
      </trkpt>
      <trkpt lat="45.03513" lon="0.58482">
        <ele>205.3</ele>
        <time>2022-05-08T07:53:51Z</time>
      </trkpt>
      <trkpt lat="45.03499" lon="0.58474">
        <ele>205.4</ele>
        <time>2022-05-08T07:53:53Z</time>
      </trkpt>
      <trkpt lat="45.03492" lon="0.5847">
        <ele>205.4</ele>
        <time>2022-05-08T07:53:54Z</time>
      </trkpt>
      <trkpt lat="45.0346" lon="0.58453">
        <ele>204.3</ele>
        <time>2022-05-08T07:53:59Z</time>
      </trkpt>
      <trkpt lat="45.03428" lon="0.58436">
        <ele>202.5</ele>
        <time>2022-05-08T07:54:05Z</time>
      </trkpt>
      <trkpt lat="45.03414" lon="0.58429">
        <ele>202.1</ele>
        <time>2022-05-08T07:54:08Z</time>
      </trkpt>
      <trkpt lat="45.03403" lon="0.58426">
        <ele>201.8</ele>
        <time>2022-05-08T07:54:10Z</time>
      </trkpt>
      <trkpt lat="45.03392" lon="0.58426">
        <ele>201.7</ele>
        <time>2022-05-08T07:54:12Z</time>
      </trkpt>
      <trkpt lat="45.03381" lon="0.58423">
        <ele>201.6</ele>
        <time>2022-05-08T07:54:14Z</time>
      </trkpt>
      <trkpt lat="45.03366" lon="0.58404">
        <ele>201.5</ele>
        <time>2022-05-08T07:54:18Z</time>
      </trkpt>
      <trkpt lat="45.03359" lon="0.58365">
        <ele>201.5</ele>
        <time>2022-05-08T07:54:25Z</time>
      </trkpt>
      <trkpt lat="45.03353" lon="0.58336">
        <ele>201.5</ele>
        <time>2022-05-08T07:54:29Z</time>
      </trkpt>
      <trkpt lat="45.03352" lon="0.58328">
        <ele>201.6</ele>
        <time>2022-05-08T07:54:30Z</time>
      </trkpt>
      <trkpt lat="45.03349" lon="0.58322">
        <ele>201.6</ele>
        <time>2022-05-08T07:54:31Z</time>
      </trkpt>
      <trkpt lat="45.0334" lon="0.58314">
        <ele>201.6</ele>
        <time>2022-05-08T07:54:33Z</time>
      </trkpt>
      <trkpt lat="45.03336" lon="0.58312">
        <ele>201.6</ele>
        <time>2022-05-08T07:54:34Z</time>
      </trkpt>
      <trkpt lat="45.03327" lon="0.58307">
        <ele>201.6</ele>
        <time>2022-05-08T07:54:36Z</time>
      </trkpt>
      <trkpt lat="45.03319" lon="0.58301">
        <ele>201.6</ele>
        <time>2022-05-08T07:54:38Z</time>
      </trkpt>
      <trkpt lat="45.03301" lon="0.58268">
        <ele>201.6</ele>
        <time>2022-05-08T07:54:44Z</time>
      </trkpt>
      <trkpt lat="45.03298" lon="0.58261">
        <ele>201.6</ele>
        <time>2022-05-08T07:54:45Z</time>
      </trkpt>
      <trkpt lat="45.03296" lon="0.58254">
        <ele>201.6</ele>
        <time>2022-05-08T07:54:46Z</time>
      </trkpt>
      <trkpt lat="45.03292" lon="0.58223">
        <ele>201.7</ele>
        <time>2022-05-08T07:54:50Z</time>
      </trkpt>
      <trkpt lat="45.03283" lon="0.58176">
        <ele>201.7</ele>
        <time>2022-05-08T07:54:56Z</time>
      </trkpt>
      <trkpt lat="45.03259" lon="0.58106">
        <ele>201.8</ele>
        <time>2022-05-08T07:55:05Z</time>
      </trkpt>
      <trkpt lat="45.03236" lon="0.58051">
        <ele>201.8</ele>
        <time>2022-05-08T07:55:12Z</time>
      </trkpt>
      <trkpt lat="45.03232" lon="0.58044">
        <ele>201.8</ele>
        <time>2022-05-08T07:55:13Z</time>
      </trkpt>
      <trkpt lat="45.03229" lon="0.58027">
        <ele>201.8</ele>
        <time>2022-05-08T07:55:15Z</time>
      </trkpt>
      <trkpt lat="45.03226" lon="0.58">
        <ele>201.9</ele>
        <time>2022-05-08T07:55:18Z</time>
      </trkpt>
      <trkpt lat="45.03222" lon="0.57984">
        <ele>201.9</ele>
        <time>2022-05-08T07:55:20Z</time>
      </trkpt>
      <trkpt lat="45.03212" lon="0.57951">
        <ele>201.9</ele>
        <time>2022-05-08T07:55:25Z</time>
      </trkpt>
      <trkpt lat="45.03209" lon="0.57945">
        <ele>201.9</ele>
        <time>2022-05-08T07:55:26Z</time>
      </trkpt>
      <trkpt lat="45.03203" lon="0.57931">
        <ele>201.9</ele>
        <time>2022-05-08T07:55:29Z</time>
      </trkpt>
      <trkpt lat="45.03198" lon="0.57924">
        <ele>201.8</ele>
        <time>2022-05-08T07:55:31Z</time>
      </trkpt>
      <trkpt lat="45.03196" lon="0.57926">
        <ele>201.7</ele>
        <time>2022-05-08T07:55:32Z</time>
      </trkpt>
      <trkpt lat="45.03194" lon="0.57927">
        <ele>201.6</ele>
        <time>2022-05-08T07:55:33Z</time>
      </trkpt>
      <trkpt lat="45.03186" lon="0.57935">
        <ele>201</ele>
        <time>2022-05-08T07:55:36Z</time>
      </trkpt>
      <trkpt lat="45.03173" lon="0.57947">
        <ele>200</ele>
        <time>2022-05-08T07:55:40Z</time>
      </trkpt>
      <trkpt lat="45.03165" lon="0.57954">
        <ele>199.4</ele>
        <time>2022-05-08T07:55:42Z</time>
      </trkpt>
      <trkpt lat="45.03155" lon="0.57963">
        <ele>198.6</ele>
        <time>2022-05-08T07:55:44Z</time>
      </trkpt>
      <trkpt lat="45.03127" lon="0.57985">
        <ele>196.7</ele>
        <time>2022-05-08T07:55:48Z</time>
      </trkpt>
      <trkpt lat="45.03112" lon="0.57988">
        <ele>195.8</ele>
        <time>2022-05-08T07:55:50Z</time>
      </trkpt>
      <trkpt lat="45.03096" lon="0.57997">
        <ele>194.7</ele>
        <time>2022-05-08T07:55:52Z</time>
      </trkpt>
      <trkpt lat="45.03064" lon="0.58047">
        <ele>191.8</ele>
        <time>2022-05-08T07:55:58Z</time>
      </trkpt>
      <trkpt lat="45.03045" lon="0.58078">
        <ele>190</ele>
        <time>2022-05-08T07:56:02Z</time>
      </trkpt>
      <trkpt lat="45.03021" lon="0.58111">
        <ele>187.9</ele>
        <time>2022-05-08T07:56:06Z</time>
      </trkpt>
      <trkpt lat="45.0299" lon="0.58155">
        <ele>185.2</ele>
        <time>2022-05-08T07:56:11Z</time>
      </trkpt>
      <trkpt lat="45.02984" lon="0.58164">
        <ele>184.7</ele>
        <time>2022-05-08T07:56:12Z</time>
      </trkpt>
      <trkpt lat="45.02967" lon="0.58191">
        <ele>183.1</ele>
        <time>2022-05-08T07:56:15Z</time>
      </trkpt>
      <trkpt lat="45.02955" lon="0.58208">
        <ele>182.1</ele>
        <time>2022-05-08T07:56:17Z</time>
      </trkpt>
      <trkpt lat="45.02943" lon="0.58226">
        <ele>181</ele>
        <time>2022-05-08T07:56:19Z</time>
      </trkpt>
      <trkpt lat="45.02914" lon="0.58265">
        <ele>178.3</ele>
        <time>2022-05-08T07:56:23Z</time>
      </trkpt>
      <trkpt lat="45.0287" lon="0.58308">
        <ele>173.5</ele>
        <time>2022-05-08T07:56:28Z</time>
      </trkpt>
      <trkpt lat="45.02854" lon="0.58324">
        <ele>171.8</ele>
        <time>2022-05-08T07:56:31Z</time>
      </trkpt>
      <trkpt lat="45.02844" lon="0.58324">
        <ele>171.1</ele>
        <time>2022-05-08T07:56:33Z</time>
      </trkpt>
      <trkpt lat="45.02835" lon="0.58306">
        <ele>171.4</ele>
        <time>2022-05-08T07:56:36Z</time>
      </trkpt>
      <trkpt lat="45.02816" lon="0.58268">
        <ele>172.4</ele>
        <time>2022-05-08T07:56:42Z</time>
      </trkpt>
      <trkpt lat="45.02809" lon="0.58255">
        <ele>172.8</ele>
        <time>2022-05-08T07:56:44Z</time>
      </trkpt>
      <trkpt lat="45.02796" lon="0.5824">
        <ele>173.3</ele>
        <time>2022-05-08T07:56:47Z</time>
      </trkpt>
      <trkpt lat="45.02788" lon="0.58232">
        <ele>173.6</ele>
        <time>2022-05-08T07:56:49Z</time>
      </trkpt>
      <trkpt lat="45.02781" lon="0.58225">
        <ele>173.7</ele>
        <time>2022-05-08T07:56:51Z</time>
      </trkpt>
      <trkpt lat="45.02777" lon="0.58222">
        <ele>173.8</ele>
        <time>2022-05-08T07:56:52Z</time>
      </trkpt>
      <trkpt lat="45.02753" lon="0.58194">
        <ele>173.3</ele>
        <time>2022-05-08T07:56:59Z</time>
      </trkpt>
      <trkpt lat="45.02733" lon="0.58156">
        <ele>171.5</ele>
        <time>2022-05-08T07:57:05Z</time>
      </trkpt>
      <trkpt lat="45.02711" lon="0.58119">
        <ele>169.4</ele>
        <time>2022-05-08T07:57:10Z</time>
      </trkpt>
      <trkpt lat="45.02675" lon="0.58073">
        <ele>166.3</ele>
        <time>2022-05-08T07:57:16Z</time>
      </trkpt>
      <trkpt lat="45.02636" lon="0.58016">
        <ele>162.5</ele>
        <time>2022-05-08T07:57:22Z</time>
      </trkpt>
      <trkpt lat="45.02598" lon="0.57953">
        <ele>159.7</ele>
        <time>2022-05-08T07:57:28Z</time>
      </trkpt>
      <trkpt lat="45.02578" lon="0.57918">
        <ele>158.4</ele>
        <time>2022-05-08T07:57:32Z</time>
      </trkpt>
      <trkpt lat="45.02576" lon="0.57914">
        <ele>160.5</ele>
        <time>2022-05-08T07:57:33Z</time>
      </trkpt>
      <trkpt lat="45.02548" lon="0.57921">
        <ele>154.3</ele>
        <time>2022-05-08T07:57:36Z</time>
      </trkpt>
      <trkpt lat="45.02531" lon="0.5794">
        <ele>154</ele>
        <time>2022-05-08T07:57:39Z</time>
      </trkpt>
      <trkpt lat="45.02523" lon="0.57944">
        <ele>153.6</ele>
        <time>2022-05-08T07:57:40Z</time>
      </trkpt>
      <trkpt lat="45.02514" lon="0.57948">
        <ele>153.1</ele>
        <time>2022-05-08T07:57:41Z</time>
      </trkpt>
      <trkpt lat="45.025" lon="0.57963">
        <ele>152.4</ele>
        <time>2022-05-08T07:57:43Z</time>
      </trkpt>
      <trkpt lat="45.02486" lon="0.57998">
        <ele>151.4</ele>
        <time>2022-05-08T07:57:46Z</time>
      </trkpt>
      <trkpt lat="45.02482" lon="0.5801">
        <ele>151.5</ele>
        <time>2022-05-08T07:57:47Z</time>
      </trkpt>
      <trkpt lat="45.02469" lon="0.58026">
        <ele>151.5</ele>
        <time>2022-05-08T07:57:49Z</time>
      </trkpt>
      <trkpt lat="45.02458" lon="0.58036">
        <ele>151.7</ele>
        <time>2022-05-08T07:57:51Z</time>
      </trkpt>
      <trkpt lat="45.02451" lon="0.58034">
        <ele>152.1</ele>
        <time>2022-05-08T07:57:52Z</time>
      </trkpt>
      <trkpt lat="45.02451" lon="0.58032">
        <ele>152.2</ele>
        <time>2022-05-08T07:57:53Z</time>
      </trkpt>
      <trkpt lat="45.02448" lon="0.5802">
        <ele>152.6</ele>
        <time>2022-05-08T07:57:55Z</time>
      </trkpt>
      <trkpt lat="45.02445" lon="0.5801">
        <ele>152.9</ele>
        <time>2022-05-08T07:57:57Z</time>
      </trkpt>
      <trkpt lat="45.02442" lon="0.57998">
        <ele>153.3</ele>
        <time>2022-05-08T07:57:59Z</time>
      </trkpt>
      <trkpt lat="45.0244" lon="0.57993">
        <ele>153.4</ele>
        <time>2022-05-08T07:58:00Z</time>
      </trkpt>
      <trkpt lat="45.0243" lon="0.57984">
        <ele>153.9</ele>
        <time>2022-05-08T07:58:03Z</time>
      </trkpt>
      <trkpt lat="45.02426" lon="0.57983">
        <ele>154.1</ele>
        <time>2022-05-08T07:58:04Z</time>
      </trkpt>
      <trkpt lat="45.02419" lon="0.57985">
        <ele>154.4</ele>
        <time>2022-05-08T07:58:06Z</time>
      </trkpt>
      <trkpt lat="45.02407" lon="0.57988">
        <ele>154.9</ele>
        <time>2022-05-08T07:58:10Z</time>
      </trkpt>
      <trkpt lat="45.02388" lon="0.57993">
        <ele>155.8</ele>
        <time>2022-05-08T07:58:15Z</time>
      </trkpt>
      <trkpt lat="45.02352" lon="0.58006">
        <ele>157.4</ele>
        <time>2022-05-08T07:58:22Z</time>
      </trkpt>
      <trkpt lat="45.02317" lon="0.58016">
        <ele>158.9</ele>
        <time>2022-05-08T07:58:29Z</time>
      </trkpt>
      <trkpt lat="45.02291" lon="0.58016">
        <ele>160</ele>
        <time>2022-05-08T07:58:34Z</time>
      </trkpt>
      <trkpt lat="45.02255" lon="0.58016">
        <ele>161.6</ele>
        <time>2022-05-08T07:58:41Z</time>
      </trkpt>
      <trkpt lat="45.02247" lon="0.58008">
        <ele>162</ele>
        <time>2022-05-08T07:58:43Z</time>
      </trkpt>
      <trkpt lat="45.02244" lon="0.58002">
        <ele>162.2</ele>
        <time>2022-05-08T07:58:44Z</time>
      </trkpt>
      <trkpt lat="45.02236" lon="0.57987">
        <ele>162.8</ele>
        <time>2022-05-08T07:58:47Z</time>
      </trkpt>
      <trkpt lat="45.02228" lon="0.57979">
        <ele>163.2</ele>
        <time>2022-05-08T07:58:49Z</time>
      </trkpt>
      <trkpt lat="45.02219" lon="0.57979">
        <ele>163.6</ele>
        <time>2022-05-08T07:58:51Z</time>
      </trkpt>
      <trkpt lat="45.02216" lon="0.57982">
        <ele>163.8</ele>
        <time>2022-05-08T07:58:52Z</time>
      </trkpt>
      <trkpt lat="45.02212" lon="0.57986">
        <ele>163.9</ele>
        <time>2022-05-08T07:58:53Z</time>
      </trkpt>
      <trkpt lat="45.02203" lon="0.58">
        <ele>164.5</ele>
        <time>2022-05-08T07:58:56Z</time>
      </trkpt>
      <trkpt lat="45.02187" lon="0.58027">
        <ele>165.6</ele>
        <time>2022-05-08T07:59:02Z</time>
      </trkpt>
      <trkpt lat="45.02166" lon="0.58049">
        <ele>166.7</ele>
        <time>2022-05-08T07:59:10Z</time>
      </trkpt>
      <trkpt lat="45.02149" lon="0.58056">
        <ele>167.5</ele>
        <time>2022-05-08T07:59:17Z</time>
      </trkpt>
      <trkpt lat="45.02132" lon="0.58062">
        <ele>168.2</ele>
        <time>2022-05-08T07:59:25Z</time>
      </trkpt>
      <trkpt lat="45.02115" lon="0.58067">
        <ele>168.9</ele>
        <time>2022-05-08T07:59:34Z</time>
      </trkpt>
      <trkpt lat="45.02098" lon="0.58067">
        <ele>169.7</ele>
        <time>2022-05-08T07:59:43Z</time>
      </trkpt>
      <trkpt lat="45.02083" lon="0.58067">
        <ele>170.3</ele>
        <time>2022-05-08T07:59:51Z</time>
      </trkpt>
      <trkpt lat="45.02064" lon="0.58068">
        <ele>171.1</ele>
        <time>2022-05-08T08:00:00Z</time>
      </trkpt>
      <trkpt lat="45.0205" lon="0.58068">
        <ele>171.8</ele>
        <time>2022-05-08T08:00:06Z</time>
      </trkpt>
      <trkpt lat="45.02032" lon="0.58068">
        <ele>172.5</ele>
        <time>2022-05-08T08:00:14Z</time>
      </trkpt>
      <trkpt lat="45.02008" lon="0.58067">
        <ele>173.5</ele>
        <time>2022-05-08T08:00:23Z</time>
      </trkpt>
      <trkpt lat="45.02002" lon="0.58066">
        <ele>173.8</ele>
        <time>2022-05-08T08:00:25Z</time>
      </trkpt>
      <trkpt lat="45.01996" lon="0.58066">
        <ele>174.1</ele>
        <time>2022-05-08T08:00:27Z</time>
      </trkpt>
      <trkpt lat="45.0197" lon="0.58065">
        <ele>175.2</ele>
        <time>2022-05-08T08:00:35Z</time>
      </trkpt>
      <trkpt lat="45.01944" lon="0.58068">
        <ele>176.3</ele>
        <time>2022-05-08T08:00:43Z</time>
      </trkpt>
      <trkpt lat="45.01925" lon="0.58075">
        <ele>177.1</ele>
        <time>2022-05-08T08:00:49Z</time>
      </trkpt>
      <trkpt lat="45.01907" lon="0.58081">
        <ele>177.9</ele>
        <time>2022-05-08T08:00:55Z</time>
      </trkpt>
      <trkpt lat="45.01896" lon="0.58074">
        <ele>178.3</ele>
        <time>2022-05-08T08:00:59Z</time>
      </trkpt>
      <trkpt lat="45.0189" lon="0.58047">
        <ele>179.3</ele>
        <time>2022-05-08T08:01:05Z</time>
      </trkpt>
      <trkpt lat="45.01885" lon="0.58031">
        <ele>179.5</ele>
        <time>2022-05-08T08:01:08Z</time>
      </trkpt>
      <trkpt lat="45.01882" lon="0.58026">
        <ele>179.6</ele>
        <time>2022-05-08T08:01:09Z</time>
      </trkpt>
      <trkpt lat="45.01879" lon="0.58021">
        <ele>179.6</ele>
        <time>2022-05-08T08:01:10Z</time>
      </trkpt>
      <trkpt lat="45.01868" lon="0.58015">
        <ele>179.7</ele>
        <time>2022-05-08T08:01:12Z</time>
      </trkpt>
      <trkpt lat="45.01862" lon="0.58012">
        <ele>179.8</ele>
        <time>2022-05-08T08:01:13Z</time>
      </trkpt>
      <trkpt lat="45.0185" lon="0.58007">
        <ele>179.9</ele>
        <time>2022-05-08T08:01:15Z</time>
      </trkpt>
      <trkpt lat="45.01837" lon="0.58001">
        <ele>180.1</ele>
        <time>2022-05-08T08:01:17Z</time>
      </trkpt>
      <trkpt lat="45.01816" lon="0.57983">
        <ele>180.5</ele>
        <time>2022-05-08T08:01:21Z</time>
      </trkpt>
      <trkpt lat="45.01807" lon="0.5797">
        <ele>180.7</ele>
        <time>2022-05-08T08:01:23Z</time>
      </trkpt>
      <trkpt lat="45.01804" lon="0.57963">
        <ele>180.8</ele>
        <time>2022-05-08T08:01:24Z</time>
      </trkpt>
      <trkpt lat="45.018" lon="0.57938">
        <ele>181.1</ele>
        <time>2022-05-08T08:01:27Z</time>
      </trkpt>
      <trkpt lat="45.018" lon="0.57923">
        <ele>181.2</ele>
        <time>2022-05-08T08:01:29Z</time>
      </trkpt>
      <trkpt lat="45.018" lon="0.57901">
        <ele>181.5</ele>
        <time>2022-05-08T08:01:34Z</time>
      </trkpt>
      <trkpt lat="45.01799" lon="0.57896">
        <ele>181.5</ele>
        <time>2022-05-08T08:01:35Z</time>
      </trkpt>
      <trkpt lat="45.01798" lon="0.57882">
        <ele>181.7</ele>
        <time>2022-05-08T08:01:38Z</time>
      </trkpt>
      <trkpt lat="45.01797" lon="0.57874">
        <ele>181.8</ele>
        <time>2022-05-08T08:01:40Z</time>
      </trkpt>
      <trkpt lat="45.01796" lon="0.57864">
        <ele>181.9</ele>
        <time>2022-05-08T08:01:43Z</time>
      </trkpt>
      <trkpt lat="45.01793" lon="0.57842">
        <ele>182.1</ele>
        <time>2022-05-08T08:01:48Z</time>
      </trkpt>
      <trkpt lat="45.01781" lon="0.57809">
        <ele>182.5</ele>
        <time>2022-05-08T08:01:53Z</time>
      </trkpt>
      <trkpt lat="45.01765" lon="0.57777">
        <ele>183</ele>
        <time>2022-05-08T08:01:59Z</time>
      </trkpt>
      <trkpt lat="45.01752" lon="0.57756">
        <ele>183.3</ele>
        <time>2022-05-08T08:02:03Z</time>
      </trkpt>
      <trkpt lat="45.0175" lon="0.57751">
        <ele>183.3</ele>
        <time>2022-05-08T08:02:04Z</time>
      </trkpt>
      <trkpt lat="45.01747" lon="0.57746">
        <ele>183.4</ele>
        <time>2022-05-08T08:02:05Z</time>
      </trkpt>
      <trkpt lat="45.01744" lon="0.57734">
        <ele>183.5</ele>
        <time>2022-05-08T08:02:07Z</time>
      </trkpt>
      <trkpt lat="45.01744" lon="0.57728">
        <ele>183.6</ele>
        <time>2022-05-08T08:02:08Z</time>
      </trkpt>
      <trkpt lat="45.01744" lon="0.57723">
        <ele>183.7</ele>
        <time>2022-05-08T08:02:09Z</time>
      </trkpt>
      <trkpt lat="45.01744" lon="0.57718">
        <ele>183.7</ele>
        <time>2022-05-08T08:02:10Z</time>
      </trkpt>
      <trkpt lat="45.01742" lon="0.57695">
        <ele>184</ele>
        <time>2022-05-08T08:02:14Z</time>
      </trkpt>
      <trkpt lat="45.01742" lon="0.5769">
        <ele>184</ele>
        <time>2022-05-08T08:02:15Z</time>
      </trkpt>
      <trkpt lat="45.01737" lon="0.57667">
        <ele>184.3</ele>
        <time>2022-05-08T08:02:19Z</time>
      </trkpt>
      <trkpt lat="45.01728" lon="0.57637">
        <ele>184.6</ele>
        <time>2022-05-08T08:02:25Z</time>
      </trkpt>
      <trkpt lat="45.01725" lon="0.57626">
        <ele>184.8</ele>
        <time>2022-05-08T08:02:28Z</time>
      </trkpt>
      <trkpt lat="45.01723" lon="0.57614">
        <ele>184.9</ele>
        <time>2022-05-08T08:02:31Z</time>
      </trkpt>
      <trkpt lat="45.01725" lon="0.57595">
        <ele>185.1</ele>
        <time>2022-05-08T08:02:35Z</time>
      </trkpt>
      <trkpt lat="45.01729" lon="0.57569">
        <ele>185.4</ele>
        <time>2022-05-08T08:02:41Z</time>
      </trkpt>
      <trkpt lat="45.01733" lon="0.57543">
        <ele>185.7</ele>
        <time>2022-05-08T08:02:46Z</time>
      </trkpt>
      <trkpt lat="45.01738" lon="0.57513">
        <ele>186</ele>
        <time>2022-05-08T08:02:51Z</time>
      </trkpt>
      <trkpt lat="45.01741" lon="0.57487">
        <ele>186.3</ele>
        <time>2022-05-08T08:02:55Z</time>
      </trkpt>
      <trkpt lat="45.01742" lon="0.5748">
        <ele>186.4</ele>
        <time>2022-05-08T08:02:56Z</time>
      </trkpt>
      <trkpt lat="45.01747" lon="0.57447">
        <ele>186.8</ele>
        <time>2022-05-08T08:03:01Z</time>
      </trkpt>
      <trkpt lat="45.01748" lon="0.57441">
        <ele>186.8</ele>
        <time>2022-05-08T08:03:02Z</time>
      </trkpt>
      <trkpt lat="45.01745" lon="0.57428">
        <ele>187.6</ele>
        <time>2022-05-08T08:03:04Z</time>
      </trkpt>
      <trkpt lat="45.01737" lon="0.57432">
        <ele>188.1</ele>
        <time>2022-05-08T08:03:07Z</time>
      </trkpt>
      <trkpt lat="45.01722" lon="0.57435">
        <ele>188.9</ele>
        <time>2022-05-08T08:03:12Z</time>
      </trkpt>
      <trkpt lat="45.01706" lon="0.57436">
        <ele>189.9</ele>
        <time>2022-05-08T08:03:17Z</time>
      </trkpt>
      <trkpt lat="45.0169" lon="0.57443">
        <ele>191.2</ele>
        <time>2022-05-08T08:03:22Z</time>
      </trkpt>
      <trkpt lat="45.01669" lon="0.5746">
        <ele>192.4</ele>
        <time>2022-05-08T08:03:29Z</time>
      </trkpt>
      <trkpt lat="45.01649" lon="0.57476">
        <ele>193.5</ele>
        <time>2022-05-08T08:03:36Z</time>
      </trkpt>
      <trkpt lat="45.01638" lon="0.57486">
        <ele>194.5</ele>
        <time>2022-05-08T08:03:42Z</time>
      </trkpt>
      <trkpt lat="45.01626" lon="0.57497">
        <ele>195.9</ele>
        <time>2022-05-08T08:03:48Z</time>
      </trkpt>
      <trkpt lat="45.01616" lon="0.57509">
        <ele>197.3</ele>
        <time>2022-05-08T08:03:54Z</time>
      </trkpt>
      <trkpt lat="45.01609" lon="0.57516">
        <ele>198.2</ele>
        <time>2022-05-08T08:03:58Z</time>
      </trkpt>
      <trkpt lat="45.01606" lon="0.57521">
        <ele>198.6</ele>
        <time>2022-05-08T08:04:01Z</time>
      </trkpt>
      <trkpt lat="45.01602" lon="0.57525">
        <ele>198.9</ele>
        <time>2022-05-08T08:04:03Z</time>
      </trkpt>
      <trkpt lat="45.0159" lon="0.57533">
        <ele>199.9</ele>
        <time>2022-05-08T08:04:09Z</time>
      </trkpt>
      <trkpt lat="45.01581" lon="0.57539">
        <ele>200.5</ele>
        <time>2022-05-08T08:04:13Z</time>
      </trkpt>
      <trkpt lat="45.01571" lon="0.57548">
        <ele>201.1</ele>
        <time>2022-05-08T08:04:18Z</time>
      </trkpt>
      <trkpt lat="45.01559" lon="0.57561">
        <ele>201.9</ele>
        <time>2022-05-08T08:04:23Z</time>
      </trkpt>
      <trkpt lat="45.01539" lon="0.57576">
        <ele>202.6</ele>
        <time>2022-05-08T08:04:29Z</time>
      </trkpt>
      <trkpt lat="45.01522" lon="0.57588">
        <ele>202.7</ele>
        <time>2022-05-08T08:04:34Z</time>
      </trkpt>
      <trkpt lat="45.01508" lon="0.57596">
        <ele>202.8</ele>
        <time>2022-05-08T08:04:37Z</time>
      </trkpt>
      <trkpt lat="45.01495" lon="0.57601">
        <ele>203.1</ele>
        <time>2022-05-08T08:04:40Z</time>
      </trkpt>
      <trkpt lat="45.01487" lon="0.57604">
        <ele>203.3</ele>
        <time>2022-05-08T08:04:42Z</time>
      </trkpt>
      <trkpt lat="45.0148" lon="0.57606">
        <ele>203.5</ele>
        <time>2022-05-08T08:04:44Z</time>
      </trkpt>
      <trkpt lat="45.01466" lon="0.57612">
        <ele>203.9</ele>
        <time>2022-05-08T08:04:47Z</time>
      </trkpt>
      <trkpt lat="45.01449" lon="0.57621">
        <ele>204.3</ele>
        <time>2022-05-08T08:04:51Z</time>
      </trkpt>
      <trkpt lat="45.01431" lon="0.57628">
        <ele>204.7</ele>
        <time>2022-05-08T08:04:55Z</time>
      </trkpt>
      <trkpt lat="45.01421" lon="0.57629">
        <ele>205</ele>
        <time>2022-05-08T08:04:57Z</time>
      </trkpt>
      <trkpt lat="45.0141" lon="0.57629">
        <ele>205.1</ele>
        <time>2022-05-08T08:04:59Z</time>
      </trkpt>
      <trkpt lat="45.01404" lon="0.5763">
        <ele>205.1</ele>
        <time>2022-05-08T08:05:00Z</time>
      </trkpt>
      <trkpt lat="45.01399" lon="0.57631">
        <ele>205</ele>
        <time>2022-05-08T08:05:01Z</time>
      </trkpt>
      <trkpt lat="45.01389" lon="0.57636">
        <ele>204.8</ele>
        <time>2022-05-08T08:05:03Z</time>
      </trkpt>
      <trkpt lat="45.01384" lon="0.5764">
        <ele>204.6</ele>
        <time>2022-05-08T08:05:04Z</time>
      </trkpt>
      <trkpt lat="45.01379" lon="0.57645">
        <ele>204.4</ele>
        <time>2022-05-08T08:05:05Z</time>
      </trkpt>
      <trkpt lat="45.01369" lon="0.57655">
        <ele>204</ele>
        <time>2022-05-08T08:05:07Z</time>
      </trkpt>
      <trkpt lat="45.01334" lon="0.57678">
        <ele>202.8</ele>
        <time>2022-05-08T08:05:12Z</time>
      </trkpt>
      <trkpt lat="45.0132" lon="0.57684">
        <ele>202.5</ele>
        <time>2022-05-08T08:05:14Z</time>
      </trkpt>
      <trkpt lat="45.01307" lon="0.57689">
        <ele>202.4</ele>
        <time>2022-05-08T08:05:16Z</time>
      </trkpt>
      <trkpt lat="45.01295" lon="0.57689">
        <ele>202.4</ele>
        <time>2022-05-08T08:05:18Z</time>
      </trkpt>
      <trkpt lat="45.0129" lon="0.57689">
        <ele>202.5</ele>
        <time>2022-05-08T08:05:19Z</time>
      </trkpt>
      <trkpt lat="45.01265" lon="0.57673">
        <ele>203.8</ele>
        <time>2022-05-08T08:05:23Z</time>
      </trkpt>
      <trkpt lat="45.01262" lon="0.5767">
        <ele>204.1</ele>
        <time>2022-05-08T08:05:24Z</time>
      </trkpt>
      <trkpt lat="45.01238" lon="0.57662">
        <ele>206.3</ele>
        <time>2022-05-08T08:05:28Z</time>
      </trkpt>
      <trkpt lat="45.0123" lon="0.57638">
        <ele>206</ele>
        <time>2022-05-08T08:05:32Z</time>
      </trkpt>
      <trkpt lat="45.01225" lon="0.57623">
        <ele>205.8</ele>
        <time>2022-05-08T08:05:34Z</time>
      </trkpt>
      <trkpt lat="45.01216" lon="0.576">
        <ele>205.3</ele>
        <time>2022-05-08T08:05:37Z</time>
      </trkpt>
      <trkpt lat="45.0119" lon="0.57559">
        <ele>204.3</ele>
        <time>2022-05-08T08:05:43Z</time>
      </trkpt>
      <trkpt lat="45.01166" lon="0.57517">
        <ele>203.4</ele>
        <time>2022-05-08T08:05:49Z</time>
      </trkpt>
      <trkpt lat="45.01136" lon="0.5746">
        <ele>203</ele>
        <time>2022-05-08T08:05:57Z</time>
      </trkpt>
      <trkpt lat="45.01106" lon="0.57403">
        <ele>202.9</ele>
        <time>2022-05-08T08:06:05Z</time>
      </trkpt>
      <trkpt lat="45.01079" lon="0.57352">
        <ele>202.8</ele>
        <time>2022-05-08T08:06:12Z</time>
      </trkpt>
      <trkpt lat="45.01057" lon="0.5731">
        <ele>203</ele>
        <time>2022-05-08T08:06:18Z</time>
      </trkpt>
      <trkpt lat="45.01043" lon="0.57284">
        <ele>203.6</ele>
        <time>2022-05-08T08:06:22Z</time>
      </trkpt>
      <trkpt lat="45.01037" lon="0.57274">
        <ele>204.1</ele>
        <time>2022-05-08T08:06:24Z</time>
      </trkpt>
      <trkpt lat="45.01019" lon="0.57254">
        <ele>205.2</ele>
        <time>2022-05-08T08:06:29Z</time>
      </trkpt>
      <trkpt lat="45.01014" lon="0.57238">
        <ele>205.5</ele>
        <time>2022-05-08T08:06:31Z</time>
      </trkpt>
      <trkpt lat="45.01016" lon="0.57235">
        <ele>205.3</ele>
        <time>2022-05-08T08:06:32Z</time>
      </trkpt>
      <trkpt lat="45.01019" lon="0.57231">
        <ele>205.2</ele>
        <time>2022-05-08T08:06:33Z</time>
      </trkpt>
      <trkpt lat="45.01025" lon="0.5722">
        <ele>204.7</ele>
        <time>2022-05-08T08:06:35Z</time>
      </trkpt>
      <trkpt lat="45.01028" lon="0.57213">
        <ele>204.4</ele>
        <time>2022-05-08T08:06:36Z</time>
      </trkpt>
      <trkpt lat="45.01034" lon="0.57186">
        <ele>203.6</ele>
        <time>2022-05-08T08:06:39Z</time>
      </trkpt>
      <trkpt lat="45.01037" lon="0.57167">
        <ele>203.1</ele>
        <time>2022-05-08T08:06:41Z</time>
      </trkpt>
      <trkpt lat="45.01031" lon="0.57151">
        <ele>202.4</ele>
        <time>2022-05-08T08:06:42Z</time>
      </trkpt>
      <trkpt lat="45.01022" lon="0.57136">
        <ele>201.5</ele>
        <time>2022-05-08T08:06:44Z</time>
      </trkpt>
      <trkpt lat="45.01016" lon="0.57114">
        <ele>200.7</ele>
        <time>2022-05-08T08:06:46Z</time>
      </trkpt>
      <trkpt lat="45.0101" lon="0.57053">
        <ele>198.1</ele>
        <time>2022-05-08T08:06:51Z</time>
      </trkpt>
      <trkpt lat="45.01006" lon="0.56985">
        <ele>194.9</ele>
        <time>2022-05-08T08:06:56Z</time>
      </trkpt>
      <trkpt lat="45.01005" lon="0.56925">
        <ele>191.2</ele>
        <time>2022-05-08T08:07:00Z</time>
      </trkpt>
      <trkpt lat="45.01" lon="0.56895">
        <ele>189.5</ele>
        <time>2022-05-08T08:07:02Z</time>
      </trkpt>
      <trkpt lat="45.00994" lon="0.56881">
        <ele>188.3</ele>
        <time>2022-05-08T08:07:03Z</time>
      </trkpt>
      <trkpt lat="45.00979" lon="0.56858">
        <ele>186.2</ele>
        <time>2022-05-08T08:07:05Z</time>
      </trkpt>
      <trkpt lat="45.0097" lon="0.56848">
        <ele>185.1</ele>
        <time>2022-05-08T08:07:06Z</time>
      </trkpt>
      <trkpt lat="45.00929" lon="0.56797">
        <ele>180.7</ele>
        <time>2022-05-08T08:07:11Z</time>
      </trkpt>
      <trkpt lat="45.00922" lon="0.56785">
        <ele>180</ele>
        <time>2022-05-08T08:07:12Z</time>
      </trkpt>
      <trkpt lat="45.00916" lon="0.56772">
        <ele>179.6</ele>
        <time>2022-05-08T08:07:13Z</time>
      </trkpt>
      <trkpt lat="45.00904" lon="0.56747">
        <ele>178.8</ele>
        <time>2022-05-08T08:07:15Z</time>
      </trkpt>
      <trkpt lat="45.00892" lon="0.56689">
        <ele>176.6</ele>
        <time>2022-05-08T08:07:19Z</time>
      </trkpt>
      <trkpt lat="45.00885" lon="0.56661">
        <ele>175.7</ele>
        <time>2022-05-08T08:07:21Z</time>
      </trkpt>
      <trkpt lat="45.00875" lon="0.56636">
        <ele>175</ele>
        <time>2022-05-08T08:07:23Z</time>
      </trkpt>
      <trkpt lat="45.00845" lon="0.56594">
        <ele>174</ele>
        <time>2022-05-08T08:07:27Z</time>
      </trkpt>
      <trkpt lat="45.00804" lon="0.56556">
        <ele>172.9</ele>
        <time>2022-05-08T08:07:32Z</time>
      </trkpt>
      <trkpt lat="45.00752" lon="0.56518">
        <ele>171.3</ele>
        <time>2022-05-08T08:07:38Z</time>
      </trkpt>
      <trkpt lat="45.00726" lon="0.56494">
        <ele>170.4</ele>
        <time>2022-05-08T08:07:41Z</time>
      </trkpt>
      <trkpt lat="45.00717" lon="0.56488">
        <ele>170.2</ele>
        <time>2022-05-08T08:07:42Z</time>
      </trkpt>
      <trkpt lat="45.00707" lon="0.56485">
        <ele>169.8</ele>
        <time>2022-05-08T08:07:43Z</time>
      </trkpt>
      <trkpt lat="45.00688" lon="0.56481">
        <ele>168.6</ele>
        <time>2022-05-08T08:07:45Z</time>
      </trkpt>
      <trkpt lat="45.0067" lon="0.56477">
        <ele>168.1</ele>
        <time>2022-05-08T08:07:47Z</time>
      </trkpt>
      <trkpt lat="45.00663" lon="0.56474">
        <ele>168.3</ele>
        <time>2022-05-08T08:07:48Z</time>
      </trkpt>
      <trkpt lat="45.00658" lon="0.56467">
        <ele>168.5</ele>
        <time>2022-05-08T08:07:49Z</time>
      </trkpt>
      <trkpt lat="45.00657" lon="0.56458">
        <ele>168.8</ele>
        <time>2022-05-08T08:07:50Z</time>
      </trkpt>
      <trkpt lat="45.00657" lon="0.56449">
        <ele>169.2</ele>
        <time>2022-05-08T08:07:51Z</time>
      </trkpt>
      <trkpt lat="45.00658" lon="0.56435">
        <ele>169.9</ele>
        <time>2022-05-08T08:07:53Z</time>
      </trkpt>
      <trkpt lat="45.0066" lon="0.56412">
        <ele>171.8</ele>
        <time>2022-05-08T08:07:58Z</time>
      </trkpt>
      <trkpt lat="45.00663" lon="0.5639">
        <ele>173.7</ele>
        <time>2022-05-08T08:08:04Z</time>
      </trkpt>
      <trkpt lat="45.00665" lon="0.56371">
        <ele>175.5</ele>
        <time>2022-05-08T08:08:11Z</time>
      </trkpt>
      <trkpt lat="45.00666" lon="0.56354">
        <ele>177.2</ele>
        <time>2022-05-08T08:08:17Z</time>
      </trkpt>
      <trkpt lat="45.00668" lon="0.56334">
        <ele>179.2</ele>
        <time>2022-05-08T08:08:25Z</time>
      </trkpt>
      <trkpt lat="45.00669" lon="0.56317">
        <ele>180.6</ele>
        <time>2022-05-08T08:08:31Z</time>
      </trkpt>
      <trkpt lat="45.00671" lon="0.56294">
        <ele>182</ele>
        <time>2022-05-08T08:08:39Z</time>
      </trkpt>
      <trkpt lat="45.00673" lon="0.56278">
        <ele>183.4</ele>
        <time>2022-05-08T08:08:45Z</time>
      </trkpt>
      <trkpt lat="45.00674" lon="0.56265">
        <ele>184.6</ele>
        <time>2022-05-08T08:08:50Z</time>
      </trkpt>
      <trkpt lat="45.00675" lon="0.56255">
        <ele>185.3</ele>
        <time>2022-05-08T08:08:55Z</time>
      </trkpt>
      <trkpt lat="45.00675" lon="0.5625">
        <ele>185.6</ele>
        <time>2022-05-08T08:08:58Z</time>
      </trkpt>
      <trkpt lat="45.00675" lon="0.56245">
        <ele>185.9</ele>
        <time>2022-05-08T08:09:00Z</time>
      </trkpt>
      <trkpt lat="45.00676" lon="0.56243">
        <ele>186</ele>
        <time>2022-05-08T08:09:01Z</time>
      </trkpt>
      <trkpt lat="45.00676" lon="0.56235">
        <ele>186.5</ele>
        <time>2022-05-08T08:09:04Z</time>
      </trkpt>
      <trkpt lat="45.00676" lon="0.56233">
        <ele>186.6</ele>
        <time>2022-05-08T08:09:05Z</time>
      </trkpt>
      <trkpt lat="45.00676" lon="0.56229">
        <ele>186.9</ele>
        <time>2022-05-08T08:09:07Z</time>
      </trkpt>
      <trkpt lat="45.00675" lon="0.5622">
        <ele>187.4</ele>
        <time>2022-05-08T08:09:10Z</time>
      </trkpt>
      <trkpt lat="45.00675" lon="0.56212">
        <ele>187.9</ele>
        <time>2022-05-08T08:09:15Z</time>
      </trkpt>
      <trkpt lat="45.00674" lon="0.5619">
        <ele>189.1</ele>
        <time>2022-05-08T08:09:23Z</time>
      </trkpt>
      <trkpt lat="45.00674" lon="0.56181">
        <ele>189.5</ele>
        <time>2022-05-08T08:09:26Z</time>
      </trkpt>
      <trkpt lat="45.00675" lon="0.56173">
        <ele>189.8</ele>
        <time>2022-05-08T08:09:29Z</time>
      </trkpt>
      <trkpt lat="45.00676" lon="0.56168">
        <ele>190</ele>
        <time>2022-05-08T08:09:31Z</time>
      </trkpt>
      <trkpt lat="45.00676" lon="0.56164">
        <ele>190.2</ele>
        <time>2022-05-08T08:09:33Z</time>
      </trkpt>
      <trkpt lat="45.00677" lon="0.56159">
        <ele>190.3</ele>
        <time>2022-05-08T08:09:35Z</time>
      </trkpt>
      <trkpt lat="45.00679" lon="0.56147">
        <ele>190.7</ele>
        <time>2022-05-08T08:09:40Z</time>
      </trkpt>
      <trkpt lat="45.0068" lon="0.56144">
        <ele>190.8</ele>
        <time>2022-05-08T08:09:41Z</time>
      </trkpt>
      <trkpt lat="45.00683" lon="0.56133">
        <ele>191.1</ele>
        <time>2022-05-08T08:09:45Z</time>
      </trkpt>
      <trkpt lat="45.00687" lon="0.56116">
        <ele>191.6</ele>
        <time>2022-05-08T08:09:51Z</time>
      </trkpt>
      <trkpt lat="45.0069" lon="0.56108">
        <ele>191.9</ele>
        <time>2022-05-08T08:09:54Z</time>
      </trkpt>
      <trkpt lat="45.00691" lon="0.56101">
        <ele>192.1</ele>
        <time>2022-05-08T08:09:56Z</time>
      </trkpt>
      <trkpt lat="45.00694" lon="0.56091">
        <ele>192.3</ele>
        <time>2022-05-08T08:09:59Z</time>
      </trkpt>
      <trkpt lat="45.00696" lon="0.56085">
        <ele>192.4</ele>
        <time>2022-05-08T08:10:01Z</time>
      </trkpt>
      <trkpt lat="45.00702" lon="0.56062">
        <ele>192.9</ele>
        <time>2022-05-08T08:10:09Z</time>
      </trkpt>
      <trkpt lat="45.00706" lon="0.56045">
        <ele>193.5</ele>
        <time>2022-05-08T08:10:15Z</time>
      </trkpt>
      <trkpt lat="45.0071" lon="0.5603">
        <ele>194</ele>
        <time>2022-05-08T08:10:21Z</time>
      </trkpt>
      <trkpt lat="45.00714" lon="0.56015">
        <ele>194.5</ele>
        <time>2022-05-08T08:10:27Z</time>
      </trkpt>
      <trkpt lat="45.00719" lon="0.55999">
        <ele>194.6</ele>
        <time>2022-05-08T08:10:32Z</time>
      </trkpt>
      <trkpt lat="45.00723" lon="0.55983">
        <ele>194.7</ele>
        <time>2022-05-08T08:10:36Z</time>
      </trkpt>
      <trkpt lat="45.00728" lon="0.55965">
        <ele>194.6</ele>
        <time>2022-05-08T08:10:40Z</time>
      </trkpt>
      <trkpt lat="45.00734" lon="0.55942">
        <ele>194.5</ele>
        <time>2022-05-08T08:10:45Z</time>
      </trkpt>
      <trkpt lat="45.00739" lon="0.55923">
        <ele>194.6</ele>
        <time>2022-05-08T08:10:50Z</time>
      </trkpt>
      <trkpt lat="45.00747" lon="0.55902">
        <ele>195.2</ele>
        <time>2022-05-08T08:10:57Z</time>
      </trkpt>
      <trkpt lat="45.00761" lon="0.55889">
        <ele>196</ele>
        <time>2022-05-08T08:11:04Z</time>
      </trkpt>
      <trkpt lat="45.00777" lon="0.55878">
        <ele>196.9</ele>
        <time>2022-05-08T08:11:11Z</time>
      </trkpt>
      <trkpt lat="45.00798" lon="0.55865">
        <ele>197.6</ele>
        <time>2022-05-08T08:11:20Z</time>
      </trkpt>
      <trkpt lat="45.0081" lon="0.55848">
        <ele>197.4</ele>
        <time>2022-05-08T08:11:25Z</time>
      </trkpt>
      <trkpt lat="45.00805" lon="0.55839">
        <ele>197.1</ele>
        <time>2022-05-08T08:11:27Z</time>
      </trkpt>
      <trkpt lat="45.00802" lon="0.55834">
        <ele>197</ele>
        <time>2022-05-08T08:11:28Z</time>
      </trkpt>
      <trkpt lat="45.00789" lon="0.55799">
        <ele>195.9</ele>
        <time>2022-05-08T08:11:33Z</time>
      </trkpt>
      <trkpt lat="45.00785" lon="0.55782">
        <ele>195.7</ele>
        <time>2022-05-08T08:11:35Z</time>
      </trkpt>
      <trkpt lat="45.00784" lon="0.55765">
        <ele>195.5</ele>
        <time>2022-05-08T08:11:37Z</time>
      </trkpt>
      <trkpt lat="45.00784" lon="0.55756">
        <ele>195.4</ele>
        <time>2022-05-08T08:11:38Z</time>
      </trkpt>
      <trkpt lat="45.00788" lon="0.55707">
        <ele>195.1</ele>
        <time>2022-05-08T08:11:44Z</time>
      </trkpt>
      <trkpt lat="45.00795" lon="0.55641">
        <ele>194.9</ele>
        <time>2022-05-08T08:11:52Z</time>
      </trkpt>
      <trkpt lat="45.00801" lon="0.55592">
        <ele>194.7</ele>
        <time>2022-05-08T08:11:58Z</time>
      </trkpt>
      <trkpt lat="45.00806" lon="0.55524">
        <ele>194.4</ele>
        <time>2022-05-08T08:12:06Z</time>
      </trkpt>
      <trkpt lat="45.00812" lon="0.5548">
        <ele>195.3</ele>
        <time>2022-05-08T08:12:11Z</time>
      </trkpt>
      <trkpt lat="45.00817" lon="0.55464">
        <ele>195.2</ele>
        <time>2022-05-08T08:12:13Z</time>
      </trkpt>
      <trkpt lat="45.00833" lon="0.55415">
        <ele>195.5</ele>
        <time>2022-05-08T08:12:19Z</time>
      </trkpt>
      <trkpt lat="45.00851" lon="0.55359">
        <ele>197</ele>
        <time>2022-05-08T08:12:27Z</time>
      </trkpt>
      <trkpt lat="45.00864" lon="0.5532">
        <ele>197.9</ele>
        <time>2022-05-08T08:12:34Z</time>
      </trkpt>
      <trkpt lat="45.00869" lon="0.55304">
        <ele>197.9</ele>
        <time>2022-05-08T08:12:37Z</time>
      </trkpt>
      <trkpt lat="45.00873" lon="0.55293">
        <ele>197.8</ele>
        <time>2022-05-08T08:12:39Z</time>
      </trkpt>
      <trkpt lat="45.00869" lon="0.55275">
        <ele>197.6</ele>
        <time>2022-05-08T08:12:41Z</time>
      </trkpt>
      <trkpt lat="45.00865" lon="0.5527">
        <ele>197.5</ele>
        <time>2022-05-08T08:12:42Z</time>
      </trkpt>
      <trkpt lat="45.00861" lon="0.55265">
        <ele>197.4</ele>
        <time>2022-05-08T08:12:43Z</time>
      </trkpt>
      <trkpt lat="45.0085" lon="0.55248">
        <ele>197.1</ele>
        <time>2022-05-08T08:12:46Z</time>
      </trkpt>
      <trkpt lat="45.00843" lon="0.55236">
        <ele>197</ele>
        <time>2022-05-08T08:12:48Z</time>
      </trkpt>
      <trkpt lat="45.00817" lon="0.55199">
        <ele>196.3</ele>
        <time>2022-05-08T08:12:54Z</time>
      </trkpt>
      <trkpt lat="45.00789" lon="0.5517">
        <ele>195.3</ele>
        <time>2022-05-08T08:12:59Z</time>
      </trkpt>
      <trkpt lat="45.00752" lon="0.55135">
        <ele>193.4</ele>
        <time>2022-05-08T08:13:05Z</time>
      </trkpt>
      <trkpt lat="45.00739" lon="0.5512">
        <ele>192.6</ele>
        <time>2022-05-08T08:13:07Z</time>
      </trkpt>
      <trkpt lat="45.00727" lon="0.55101">
        <ele>191.8</ele>
        <time>2022-05-08T08:13:09Z</time>
      </trkpt>
      <trkpt lat="45.00695" lon="0.5504">
        <ele>189.5</ele>
        <time>2022-05-08T08:13:15Z</time>
      </trkpt>
      <trkpt lat="45.00663" lon="0.54975">
        <ele>188.6</ele>
        <time>2022-05-08T08:13:21Z</time>
      </trkpt>
      <trkpt lat="45.00634" lon="0.54929">
        <ele>188.8</ele>
        <time>2022-05-08T08:13:26Z</time>
      </trkpt>
      <trkpt lat="45.00602" lon="0.54883">
        <ele>189.1</ele>
        <time>2022-05-08T08:13:32Z</time>
      </trkpt>
      <trkpt lat="45.00598" lon="0.54876">
        <ele>189.2</ele>
        <time>2022-05-08T08:13:33Z</time>
      </trkpt>
      <trkpt lat="45.0059" lon="0.54862">
        <ele>189.3</ele>
        <time>2022-05-08T08:13:35Z</time>
      </trkpt>
      <trkpt lat="45.00567" lon="0.54816">
        <ele>189.9</ele>
        <time>2022-05-08T08:13:41Z</time>
      </trkpt>
      <trkpt lat="45.0056" lon="0.54801">
        <ele>189.8</ele>
        <time>2022-05-08T08:13:43Z</time>
      </trkpt>
      <trkpt lat="45.0055" lon="0.54776">
        <ele>189.3</ele>
        <time>2022-05-08T08:13:46Z</time>
      </trkpt>
      <trkpt lat="45.00531" lon="0.54732">
        <ele>187.7</ele>
        <time>2022-05-08T08:13:51Z</time>
      </trkpt>
      <trkpt lat="45.00503" lon="0.54667">
        <ele>186.4</ele>
        <time>2022-05-08T08:13:57Z</time>
      </trkpt>
      <trkpt lat="45.00479" lon="0.54601">
        <ele>186</ele>
        <time>2022-05-08T08:14:03Z</time>
      </trkpt>
      <trkpt lat="45.00461" lon="0.54525">
        <ele>186.2</ele>
        <time>2022-05-08T08:14:10Z</time>
      </trkpt>
      <trkpt lat="45.00448" lon="0.54473">
        <ele>186.6</ele>
        <time>2022-05-08T08:14:15Z</time>
      </trkpt>
      <trkpt lat="45.00446" lon="0.54465">
        <ele>186.6</ele>
        <time>2022-05-08T08:14:17Z</time>
      </trkpt>
      <trkpt lat="45.00436" lon="0.54472">
        <ele>186.6</ele>
        <time>2022-05-08T08:14:22Z</time>
      </trkpt>
      <trkpt lat="45.00436" lon="0.54484">
        <ele>186.7</ele>
        <time>2022-05-08T08:14:25Z</time>
      </trkpt>
      <trkpt lat="45.00438" lon="0.54488">
        <ele>186.7</ele>
        <time>2022-05-08T08:14:26Z</time>
      </trkpt>
      <trkpt lat="45.00445" lon="0.54497">
        <ele>186.9</ele>
        <time>2022-05-08T08:14:28Z</time>
      </trkpt>
      <trkpt lat="45.00439" lon="0.54508">
        <ele>186.8</ele>
        <time>2022-05-08T08:14:30Z</time>
      </trkpt>
      <trkpt lat="45.0044" lon="0.54522">
        <ele>186.7</ele>
        <time>2022-05-08T08:14:32Z</time>
      </trkpt>
      <trkpt lat="45.00439" lon="0.54531">
        <ele>186.9</ele>
        <time>2022-05-08T08:14:33Z</time>
      </trkpt>
      <trkpt lat="45.00438" lon="0.54547">
        <ele>186.2</ele>
        <time>2022-05-08T08:14:35Z</time>
      </trkpt>
      <trkpt lat="45.00432" lon="0.5458">
        <ele>184.5</ele>
        <time>2022-05-08T08:14:39Z</time>
      </trkpt>
      <trkpt lat="45.0043" lon="0.54587">
        <ele>184.7</ele>
        <time>2022-05-08T08:14:40Z</time>
      </trkpt>
      <trkpt lat="45.00424" lon="0.54603">
        <ele>183.2</ele>
        <time>2022-05-08T08:14:44Z</time>
      </trkpt>
      <trkpt lat="45.00425" lon="0.54613">
        <ele>182.9</ele>
        <time>2022-05-08T08:14:45Z</time>
      </trkpt>
      <trkpt lat="45.00421" lon="0.54614">
        <ele>183.1</ele>
        <time>2022-05-08T08:14:48Z</time>
      </trkpt>
      <trkpt lat="45.00414" lon="0.54615">
        <ele>183.3</ele>
        <time>2022-05-08T08:14:50Z</time>
      </trkpt>
      <trkpt lat="45.0041" lon="0.54615">
        <ele>182.5</ele>
        <time>2022-05-08T08:14:51Z</time>
      </trkpt>
      <trkpt lat="45.00404" lon="0.54616">
        <ele>182.6</ele>
        <time>2022-05-08T08:14:52Z</time>
      </trkpt>
      <trkpt lat="45.0039" lon="0.54579">
        <ele>182.2</ele>
        <time>2022-05-08T08:14:54Z</time>
      </trkpt>
      <trkpt lat="45.00383" lon="0.54571">
        <ele>181.4</ele>
        <time>2022-05-08T08:14:56Z</time>
      </trkpt>
      <trkpt lat="45.0037" lon="0.54565">
        <ele>180.2</ele>
        <time>2022-05-08T08:14:58Z</time>
      </trkpt>
      <trkpt lat="45.00355" lon="0.54554">
        <ele>179.1</ele>
        <time>2022-05-08T08:15:00Z</time>
      </trkpt>
      <trkpt lat="45.00348" lon="0.54549">
        <ele>178.9</ele>
        <time>2022-05-08T08:15:01Z</time>
      </trkpt>
      <trkpt lat="45.00314" lon="0.54528">
        <ele>176.3</ele>
        <time>2022-05-08T08:15:05Z</time>
      </trkpt>
      <trkpt lat="45.003" lon="0.54518">
        <ele>175.6</ele>
        <time>2022-05-08T08:15:07Z</time>
      </trkpt>
      <trkpt lat="45.00291" lon="0.54511">
        <ele>174.7</ele>
        <time>2022-05-08T08:15:08Z</time>
      </trkpt>
      <trkpt lat="45.00285" lon="0.54503">
        <ele>174.9</ele>
        <time>2022-05-08T08:15:09Z</time>
      </trkpt>
      <trkpt lat="45.0027" lon="0.54483">
        <ele>174.3</ele>
        <time>2022-05-08T08:15:11Z</time>
      </trkpt>
      <trkpt lat="45.00227" lon="0.54427">
        <ele>166</ele>
        <time>2022-05-08T08:15:17Z</time>
      </trkpt>
      <trkpt lat="45.00219" lon="0.54425">
        <ele>164.1</ele>
        <time>2022-05-08T08:15:18Z</time>
      </trkpt>
      <trkpt lat="45.00214" lon="0.54422">
        <ele>164.2</ele>
        <time>2022-05-08T08:15:19Z</time>
      </trkpt>
      <trkpt lat="45.00208" lon="0.54422">
        <ele>164.4</ele>
        <time>2022-05-08T08:15:20Z</time>
      </trkpt>
      <trkpt lat="45.00199" lon="0.54417">
        <ele>163.1</ele>
        <time>2022-05-08T08:15:22Z</time>
      </trkpt>
      <trkpt lat="45.00189" lon="0.54412">
        <ele>160.6</ele>
        <time>2022-05-08T08:15:24Z</time>
      </trkpt>
      <trkpt lat="45.00179" lon="0.54412">
        <ele>159.7</ele>
        <time>2022-05-08T08:15:26Z</time>
      </trkpt>
      <trkpt lat="45.00165" lon="0.54416">
        <ele>158.5</ele>
        <time>2022-05-08T08:15:30Z</time>
      </trkpt>
      <trkpt lat="45.00157" lon="0.54423">
        <ele>159</ele>
        <time>2022-05-08T08:15:34Z</time>
      </trkpt>
      <trkpt lat="45.0015" lon="0.54428">
        <ele>159.2</ele>
        <time>2022-05-08T08:15:38Z</time>
      </trkpt>
      <trkpt lat="45.00144" lon="0.54435">
        <ele>160</ele>
        <time>2022-05-08T08:15:42Z</time>
      </trkpt>
      <trkpt lat="45.0014" lon="0.54439">
        <ele>160.2</ele>
        <time>2022-05-08T08:15:44Z</time>
      </trkpt>
      <trkpt lat="45.00133" lon="0.54449">
        <ele>159.1</ele>
        <time>2022-05-08T08:15:49Z</time>
      </trkpt>
      <trkpt lat="45.00126" lon="0.54459">
        <ele>161.7</ele>
        <time>2022-05-08T08:15:55Z</time>
      </trkpt>
      <trkpt lat="45.00119" lon="0.54474">
        <ele>163.5</ele>
        <time>2022-05-08T08:16:02Z</time>
      </trkpt>
      <trkpt lat="45.00115" lon="0.54498">
        <ele>165.9</ele>
        <time>2022-05-08T08:16:09Z</time>
      </trkpt>
      <trkpt lat="45.00105" lon="0.54507">
        <ele>166.5</ele>
        <time>2022-05-08T08:16:14Z</time>
      </trkpt>
      <trkpt lat="45.00113" lon="0.545">
        <ele>167.1</ele>
        <time>2022-05-08T08:16:15Z</time>
      </trkpt>
      <trkpt lat="45.00112" lon="0.545">
        <ele>167.1</ele>
        <time>2022-05-08T08:16:16Z</time>
      </trkpt>
      <trkpt lat="45.00114" lon="0.54499">
        <ele>167.3</ele>
        <time>2022-05-08T08:16:19Z</time>
      </trkpt>
      <trkpt lat="45.00117" lon="0.54498">
        <ele>167.4</ele>
        <time>2022-05-08T08:16:21Z</time>
      </trkpt>
      <trkpt lat="45.0012" lon="0.54496">
        <ele>167.6</ele>
        <time>2022-05-08T08:16:24Z</time>
      </trkpt>
      <trkpt lat="45.00131" lon="0.54491">
        <ele>168.3</ele>
        <time>2022-05-08T08:16:30Z</time>
      </trkpt>
      <trkpt lat="45.00133" lon="0.54491">
        <ele>168.4</ele>
        <time>2022-05-08T08:16:31Z</time>
      </trkpt>
      <trkpt lat="45.00139" lon="0.5449">
        <ele>168.7</ele>
        <time>2022-05-08T08:16:34Z</time>
      </trkpt>
      <trkpt lat="45.00147" lon="0.5449">
        <ele>169.2</ele>
        <time>2022-05-08T08:16:38Z</time>
      </trkpt>
      <trkpt lat="45.00156" lon="0.54491">
        <ele>169.9</ele>
        <time>2022-05-08T08:16:43Z</time>
      </trkpt>
      <trkpt lat="45.00169" lon="0.54494">
        <ele>170.8</ele>
        <time>2022-05-08T08:16:49Z</time>
      </trkpt>
      <trkpt lat="45.00176" lon="0.54499">
        <ele>171.2</ele>
        <time>2022-05-08T08:16:53Z</time>
      </trkpt>
      <trkpt lat="45.00177" lon="0.545">
        <ele>171.3</ele>
        <time>2022-05-08T08:16:54Z</time>
      </trkpt>
      <trkpt lat="45.00183" lon="0.54504">
        <ele>171.6</ele>
        <time>2022-05-08T08:16:57Z</time>
      </trkpt>
      <trkpt lat="45.00188" lon="0.54507">
        <ele>171.8</ele>
        <time>2022-05-08T08:17:00Z</time>
      </trkpt>
      <trkpt lat="45.00187" lon="0.54516">
        <ele>172.2</ele>
        <time>2022-05-08T08:17:01Z</time>
      </trkpt>
      <trkpt lat="45.00191" lon="0.54509">
        <ele>172.5</ele>
        <time>2022-05-08T08:17:02Z</time>
      </trkpt>
      <trkpt lat="45.00194" lon="0.54511">
        <ele>172.7</ele>
        <time>2022-05-08T08:17:03Z</time>
      </trkpt>
      <trkpt lat="45.00198" lon="0.54515">
        <ele>173.1</ele>
        <time>2022-05-08T08:17:05Z</time>
      </trkpt>
      <trkpt lat="45.00202" lon="0.54519">
        <ele>173.4</ele>
        <time>2022-05-08T08:17:08Z</time>
      </trkpt>
      <trkpt lat="45.00204" lon="0.5452">
        <ele>173.5</ele>
        <time>2022-05-08T08:17:09Z</time>
      </trkpt>
      <trkpt lat="45.00208" lon="0.54526">
        <ele>173.9</ele>
        <time>2022-05-08T08:17:11Z</time>
      </trkpt>
      <trkpt lat="45.00209" lon="0.54527">
        <ele>173.9</ele>
        <time>2022-05-08T08:17:12Z</time>
      </trkpt>
      <trkpt lat="45.0021" lon="0.54528">
        <ele>174</ele>
        <time>2022-05-08T08:17:13Z</time>
      </trkpt>
      <trkpt lat="45.00217" lon="0.54536">
        <ele>174.3</ele>
        <time>2022-05-08T08:17:16Z</time>
      </trkpt>
      <trkpt lat="45.0022" lon="0.5454">
        <ele>174.5</ele>
        <time>2022-05-08T08:17:18Z</time>
      </trkpt>
      <trkpt lat="45.00224" lon="0.54545">
        <ele>174.7</ele>
        <time>2022-05-08T08:17:21Z</time>
      </trkpt>
      <trkpt lat="45.00227" lon="0.5455">
        <ele>175</ele>
        <time>2022-05-08T08:17:23Z</time>
      </trkpt>
      <trkpt lat="45.00231" lon="0.54554">
        <ele>175.3</ele>
        <time>2022-05-08T08:17:25Z</time>
      </trkpt>
      <trkpt lat="45.00232" lon="0.54555">
        <ele>175.4</ele>
        <time>2022-05-08T08:17:26Z</time>
      </trkpt>
      <trkpt lat="45.00237" lon="0.54562">
        <ele>175.9</ele>
        <time>2022-05-08T08:17:31Z</time>
      </trkpt>
      <trkpt lat="45.00241" lon="0.54567">
        <ele>176.2</ele>
        <time>2022-05-08T08:17:33Z</time>
      </trkpt>
      <trkpt lat="45.00245" lon="0.54571">
        <ele>176.5</ele>
        <time>2022-05-08T08:17:35Z</time>
      </trkpt>
      <trkpt lat="45.00247" lon="0.54574">
        <ele>176.6</ele>
        <time>2022-05-08T08:17:36Z</time>
      </trkpt>
      <trkpt lat="45.00253" lon="0.54582">
        <ele>177.1</ele>
        <time>2022-05-08T08:17:40Z</time>
      </trkpt>
      <trkpt lat="45.00258" lon="0.54587">
        <ele>177.6</ele>
        <time>2022-05-08T08:17:43Z</time>
      </trkpt>
      <trkpt lat="45.0026" lon="0.5459">
        <ele>177.8</ele>
        <time>2022-05-08T08:17:44Z</time>
      </trkpt>
      <trkpt lat="45.00265" lon="0.54596">
        <ele>178.3</ele>
        <time>2022-05-08T08:17:47Z</time>
      </trkpt>
      <trkpt lat="45.00267" lon="0.54598">
        <ele>178.5</ele>
        <time>2022-05-08T08:17:48Z</time>
      </trkpt>
      <trkpt lat="45.00273" lon="0.54604">
        <ele>178.9</ele>
        <time>2022-05-08T08:17:51Z</time>
      </trkpt>
      <trkpt lat="45.00275" lon="0.54606">
        <ele>179.1</ele>
        <time>2022-05-08T08:17:52Z</time>
      </trkpt>
      <trkpt lat="45.00286" lon="0.54615">
        <ele>179.7</ele>
        <time>2022-05-08T08:17:58Z</time>
      </trkpt>
      <trkpt lat="45.0029" lon="0.54618">
        <ele>179.9</ele>
        <time>2022-05-08T08:18:00Z</time>
      </trkpt>
      <trkpt lat="45.00295" lon="0.54621">
        <ele>180.1</ele>
        <time>2022-05-08T08:18:02Z</time>
      </trkpt>
      <trkpt lat="45.00306" lon="0.54624">
        <ele>180.4</ele>
        <time>2022-05-08T08:18:07Z</time>
      </trkpt>
      <trkpt lat="45.00308" lon="0.54625">
        <ele>180.5</ele>
        <time>2022-05-08T08:18:08Z</time>
      </trkpt>
      <trkpt lat="45.00316" lon="0.54627">
        <ele>180.5</ele>
        <time>2022-05-08T08:18:11Z</time>
      </trkpt>
      <trkpt lat="45.00329" lon="0.54627">
        <ele>180.5</ele>
        <time>2022-05-08T08:18:16Z</time>
      </trkpt>
      <trkpt lat="45.00346" lon="0.54625">
        <ele>180.4</ele>
        <time>2022-05-08T08:18:22Z</time>
      </trkpt>
      <trkpt lat="45.00359" lon="0.54623">
        <ele>180.4</ele>
        <time>2022-05-08T08:18:27Z</time>
      </trkpt>
      <trkpt lat="45.00372" lon="0.54621">
        <ele>180.7</ele>
        <time>2022-05-08T08:18:32Z</time>
      </trkpt>
      <trkpt lat="45.00394" lon="0.54618">
        <ele>181.5</ele>
        <time>2022-05-08T08:18:39Z</time>
      </trkpt>
      <trkpt lat="45.00408" lon="0.54616">
        <ele>182.1</ele>
        <time>2022-05-08T08:18:44Z</time>
      </trkpt>
      <trkpt lat="45.00417" lon="0.54614">
        <ele>182.6</ele>
        <time>2022-05-08T08:18:49Z</time>
      </trkpt>
      <trkpt lat="45.00417" lon="0.54628">
        <ele>182.7</ele>
        <time>2022-05-08T08:18:53Z</time>
      </trkpt>
      <trkpt lat="45.00414" lon="0.54631">
        <ele>182.8</ele>
        <time>2022-05-08T08:18:55Z</time>
      </trkpt>
      <trkpt lat="45.00412" lon="0.54634">
        <ele>181.8</ele>
        <time>2022-05-08T08:18:57Z</time>
      </trkpt>
      <trkpt lat="45.0041" lon="0.54637">
        <ele>181.8</ele>
        <time>2022-05-08T08:18:58Z</time>
      </trkpt>
      <trkpt lat="45.00402" lon="0.54652">
        <ele>182.3</ele>
        <time>2022-05-08T08:19:03Z</time>
      </trkpt>
      <trkpt lat="45.004" lon="0.54671">
        <ele>182.1</ele>
        <time>2022-05-08T08:19:09Z</time>
      </trkpt>
      <trkpt lat="45.00398" lon="0.54677">
        <ele>182.9</ele>
        <time>2022-05-08T08:19:11Z</time>
      </trkpt>
      <trkpt lat="45.00396" lon="0.54684">
        <ele>182.9</ele>
        <time>2022-05-08T08:19:13Z</time>
      </trkpt>
      <trkpt lat="45.00391" lon="0.54703">
        <ele>183.4</ele>
        <time>2022-05-08T08:19:18Z</time>
      </trkpt>
      <trkpt lat="45.00382" lon="0.54707">
        <ele>182.6</ele>
        <time>2022-05-08T08:19:20Z</time>
      </trkpt>
      <trkpt lat="45.00376" lon="0.54708">
        <ele>181.7</ele>
        <time>2022-05-08T08:19:21Z</time>
      </trkpt>
      <trkpt lat="45.00366" lon="0.54709">
        <ele>182</ele>
        <time>2022-05-08T08:19:23Z</time>
      </trkpt>
      <trkpt lat="45.00355" lon="0.5471">
        <ele>181.1</ele>
        <time>2022-05-08T08:19:25Z</time>
      </trkpt>
      <trkpt lat="45.00343" lon="0.54714">
        <ele>180.4</ele>
        <time>2022-05-08T08:19:27Z</time>
      </trkpt>
      <trkpt lat="45.00329" lon="0.54718">
        <ele>179.5</ele>
        <time>2022-05-08T08:19:29Z</time>
      </trkpt>
      <trkpt lat="45.00299" lon="0.54727">
        <ele>177</ele>
        <time>2022-05-08T08:19:34Z</time>
      </trkpt>
      <trkpt lat="45.00271" lon="0.54729">
        <ele>176.4</ele>
        <time>2022-05-08T08:19:38Z</time>
      </trkpt>
      <trkpt lat="45.00259" lon="0.54731">
        <ele>176.2</ele>
        <time>2022-05-08T08:19:40Z</time>
      </trkpt>
      <trkpt lat="45.00245" lon="0.54735">
        <ele>176.1</ele>
        <time>2022-05-08T08:19:42Z</time>
      </trkpt>
      <trkpt lat="45.00232" lon="0.54738">
        <ele>176.1</ele>
        <time>2022-05-08T08:19:44Z</time>
      </trkpt>
      <trkpt lat="45.00214" lon="0.54742">
        <ele>176.3</ele>
        <time>2022-05-08T08:19:47Z</time>
      </trkpt>
      <trkpt lat="45.00204" lon="0.54747">
        <ele>176</ele>
        <time>2022-05-08T08:19:49Z</time>
      </trkpt>
      <trkpt lat="45.00198" lon="0.54751">
        <ele>176.1</ele>
        <time>2022-05-08T08:19:50Z</time>
      </trkpt>
      <trkpt lat="45.00171" lon="0.54772">
        <ele>176.1</ele>
        <time>2022-05-08T08:19:55Z</time>
      </trkpt>
      <trkpt lat="45.00158" lon="0.54773">
        <ele>176.3</ele>
        <time>2022-05-08T08:19:58Z</time>
      </trkpt>
      <trkpt lat="45.00147" lon="0.54774">
        <ele>176.4</ele>
        <time>2022-05-08T08:20:00Z</time>
      </trkpt>
      <trkpt lat="45.00137" lon="0.54775">
        <ele>176.3</ele>
        <time>2022-05-08T08:20:02Z</time>
      </trkpt>
      <trkpt lat="45.00112" lon="0.54768">
        <ele>175.9</ele>
        <time>2022-05-08T08:20:07Z</time>
      </trkpt>
      <trkpt lat="45.00091" lon="0.5476">
        <ele>175.5</ele>
        <time>2022-05-08T08:20:11Z</time>
      </trkpt>
      <trkpt lat="45.00086" lon="0.54758">
        <ele>175.6</ele>
        <time>2022-05-08T08:20:12Z</time>
      </trkpt>
      <trkpt lat="45.00073" lon="0.54756">
        <ele>175.3</ele>
        <time>2022-05-08T08:20:14Z</time>
      </trkpt>
      <trkpt lat="45.00067" lon="0.54751">
        <ele>175.3</ele>
        <time>2022-05-08T08:20:16Z</time>
      </trkpt>
      <trkpt lat="45.0005" lon="0.54737">
        <ele>175.4</ele>
        <time>2022-05-08T08:20:19Z</time>
      </trkpt>
      <trkpt lat="45.00039" lon="0.54729">
        <ele>175.4</ele>
        <time>2022-05-08T08:20:21Z</time>
      </trkpt>
      <trkpt lat="45.00034" lon="0.54725">
        <ele>175.5</ele>
        <time>2022-05-08T08:20:22Z</time>
      </trkpt>
      <trkpt lat="45.00024" lon="0.54716">
        <ele>175.5</ele>
        <time>2022-05-08T08:20:24Z</time>
      </trkpt>
      <trkpt lat="45.00014" lon="0.54708">
        <ele>175.5</ele>
        <time>2022-05-08T08:20:26Z</time>
      </trkpt>
      <trkpt lat="44.99994" lon="0.54691">
        <ele>175.6</ele>
        <time>2022-05-08T08:20:30Z</time>
      </trkpt>
      <trkpt lat="44.9997" lon="0.54671">
        <ele>175.7</ele>
        <time>2022-05-08T08:20:34Z</time>
      </trkpt>
      <trkpt lat="44.99964" lon="0.54666">
        <ele>175.7</ele>
        <time>2022-05-08T08:20:35Z</time>
      </trkpt>
      <trkpt lat="44.99936" lon="0.54644">
        <ele>175.8</ele>
        <time>2022-05-08T08:20:39Z</time>
      </trkpt>
      <trkpt lat="44.99907" lon="0.54631">
        <ele>172.2</ele>
        <time>2022-05-08T08:20:43Z</time>
      </trkpt>
      <trkpt lat="44.99902" lon="0.54629">
        <ele>171.4</ele>
        <time>2022-05-08T08:20:44Z</time>
      </trkpt>
      <trkpt lat="44.99892" lon="0.54624">
        <ele>169.9</ele>
        <time>2022-05-08T08:20:46Z</time>
      </trkpt>
      <trkpt lat="44.99887" lon="0.54622">
        <ele>169.3</ele>
        <time>2022-05-08T08:20:47Z</time>
      </trkpt>
      <trkpt lat="44.9986" lon="0.54615">
        <ele>168.6</ele>
        <time>2022-05-08T08:20:52Z</time>
      </trkpt>
      <trkpt lat="44.99854" lon="0.54613">
        <ele>168.5</ele>
        <time>2022-05-08T08:20:53Z</time>
      </trkpt>
      <trkpt lat="44.99838" lon="0.54609">
        <ele>168.1</ele>
        <time>2022-05-08T08:20:56Z</time>
      </trkpt>
      <trkpt lat="44.99801" lon="0.54602">
        <ele>167.3</ele>
        <time>2022-05-08T08:21:02Z</time>
      </trkpt>
      <trkpt lat="44.99781" lon="0.54598">
        <ele>166.9</ele>
        <time>2022-05-08T08:21:05Z</time>
      </trkpt>
      <trkpt lat="44.99766" lon="0.54594">
        <ele>166.5</ele>
        <time>2022-05-08T08:21:07Z</time>
      </trkpt>
      <trkpt lat="44.99729" lon="0.54588">
        <ele>165.7</ele>
        <time>2022-05-08T08:21:12Z</time>
      </trkpt>
      <trkpt lat="44.99679" lon="0.54579">
        <ele>164.6</ele>
        <time>2022-05-08T08:21:19Z</time>
      </trkpt>
      <trkpt lat="44.99659" lon="0.54576">
        <ele>164.1</ele>
        <time>2022-05-08T08:21:22Z</time>
      </trkpt>
      <trkpt lat="44.99653" lon="0.54575">
        <ele>164</ele>
        <time>2022-05-08T08:21:23Z</time>
      </trkpt>
      <trkpt lat="44.99616" lon="0.54569">
        <ele>163.1</ele>
        <time>2022-05-08T08:21:28Z</time>
      </trkpt>
      <trkpt lat="44.99592" lon="0.54564">
        <ele>162.6</ele>
        <time>2022-05-08T08:21:32Z</time>
      </trkpt>
      <trkpt lat="44.99586" lon="0.54579">
        <ele>162.6</ele>
        <time>2022-05-08T08:21:35Z</time>
      </trkpt>
      <trkpt lat="44.99582" lon="0.54591">
        <ele>163</ele>
        <time>2022-05-08T08:21:37Z</time>
      </trkpt>
      <trkpt lat="44.99579" lon="0.54605">
        <ele>163.1</ele>
        <time>2022-05-08T08:21:39Z</time>
      </trkpt>
      <trkpt lat="44.99568" lon="0.5464">
        <ele>164</ele>
        <time>2022-05-08T08:21:44Z</time>
      </trkpt>
      <trkpt lat="44.99555" lon="0.54672">
        <ele>163.4</ele>
        <time>2022-05-08T08:21:48Z</time>
      </trkpt>
      <trkpt lat="44.99543" lon="0.54688">
        <ele>162.1</ele>
        <time>2022-05-08T08:21:50Z</time>
      </trkpt>
      <trkpt lat="44.99536" lon="0.54696">
        <ele>161.1</ele>
        <time>2022-05-08T08:21:51Z</time>
      </trkpt>
      <trkpt lat="44.99528" lon="0.5471">
        <ele>161.3</ele>
        <time>2022-05-08T08:21:53Z</time>
      </trkpt>
      <trkpt lat="44.99525" lon="0.54715">
        <ele>159.8</ele>
        <time>2022-05-08T08:21:54Z</time>
      </trkpt>
      <trkpt lat="44.99525" lon="0.54722">
        <ele>159.9</ele>
        <time>2022-05-08T08:21:57Z</time>
      </trkpt>
      <trkpt lat="44.99514" lon="0.54725">
        <ele>158.6</ele>
        <time>2022-05-08T08:22:01Z</time>
      </trkpt>
      <trkpt lat="44.99509" lon="0.54723">
        <ele>158.7</ele>
        <time>2022-05-08T08:22:02Z</time>
      </trkpt>
      <trkpt lat="44.99495" lon="0.5472">
        <ele>157.2</ele>
        <time>2022-05-08T08:22:04Z</time>
      </trkpt>
      <trkpt lat="44.99477" lon="0.54719">
        <ele>154</ele>
        <time>2022-05-08T08:22:07Z</time>
      </trkpt>
      <trkpt lat="44.99475" lon="0.54717">
        <ele>154.1</ele>
        <time>2022-05-08T08:22:08Z</time>
      </trkpt>
      <trkpt lat="44.99472" lon="0.54715">
        <ele>154.2</ele>
        <time>2022-05-08T08:22:10Z</time>
      </trkpt>
      <trkpt lat="44.99471" lon="0.54713">
        <ele>154.3</ele>
        <time>2022-05-08T08:22:11Z</time>
      </trkpt>
      <trkpt lat="44.9947" lon="0.54702">
        <ele>153.7</ele>
        <time>2022-05-08T08:22:14Z</time>
      </trkpt>
      <trkpt lat="44.9947" lon="0.54678">
        <ele>153</ele>
        <time>2022-05-08T08:22:19Z</time>
      </trkpt>
      <trkpt lat="44.99474" lon="0.54655">
        <ele>151.8</ele>
        <time>2022-05-08T08:22:25Z</time>
      </trkpt>
      <trkpt lat="44.99476" lon="0.54626">
        <ele>151.3</ele>
        <time>2022-05-08T08:22:33Z</time>
      </trkpt>
      <trkpt lat="44.99475" lon="0.546">
        <ele>150.5</ele>
        <time>2022-05-08T08:22:40Z</time>
      </trkpt>
      <trkpt lat="44.99464" lon="0.54576">
        <ele>147.7</ele>
        <time>2022-05-08T08:22:46Z</time>
      </trkpt>
      <trkpt lat="44.99443" lon="0.54567">
        <ele>145.5</ele>
        <time>2022-05-08T08:22:50Z</time>
      </trkpt>
      <trkpt lat="44.99407" lon="0.54554">
        <ele>140.6</ele>
        <time>2022-05-08T08:22:55Z</time>
      </trkpt>
      <trkpt lat="44.99371" lon="0.54538">
        <ele>137.8</ele>
        <time>2022-05-08T08:23:00Z</time>
      </trkpt>
      <trkpt lat="44.99365" lon="0.54533">
        <ele>136.8</ele>
        <time>2022-05-08T08:23:01Z</time>
      </trkpt>
      <trkpt lat="44.99349" lon="0.54523">
        <ele>135.9</ele>
        <time>2022-05-08T08:23:03Z</time>
      </trkpt>
      <trkpt lat="44.99339" lon="0.5452">
        <ele>134.9</ele>
        <time>2022-05-08T08:23:04Z</time>
      </trkpt>
      <trkpt lat="44.9933" lon="0.54514">
        <ele>134</ele>
        <time>2022-05-08T08:23:05Z</time>
      </trkpt>
      <trkpt lat="44.99311" lon="0.54502">
        <ele>132.2</ele>
        <time>2022-05-08T08:23:07Z</time>
      </trkpt>
      <trkpt lat="44.993" lon="0.54499">
        <ele>130.7</ele>
        <time>2022-05-08T08:23:08Z</time>
      </trkpt>
      <trkpt lat="44.99259" lon="0.54491">
        <ele>124.2</ele>
        <time>2022-05-08T08:23:12Z</time>
      </trkpt>
      <trkpt lat="44.99249" lon="0.54487">
        <ele>124.3</ele>
        <time>2022-05-08T08:23:13Z</time>
      </trkpt>
      <trkpt lat="44.99229" lon="0.54477">
        <ele>120.7</ele>
        <time>2022-05-08T08:23:15Z</time>
      </trkpt>
      <trkpt lat="44.99213" lon="0.54472">
        <ele>119.4</ele>
        <time>2022-05-08T08:23:17Z</time>
      </trkpt>
      <trkpt lat="44.99205" lon="0.5447">
        <ele>118.5</ele>
        <time>2022-05-08T08:23:18Z</time>
      </trkpt>
      <trkpt lat="44.9919" lon="0.54464">
        <ele>117.8</ele>
        <time>2022-05-08T08:23:20Z</time>
      </trkpt>
      <trkpt lat="44.99184" lon="0.54459">
        <ele>116.9</ele>
        <time>2022-05-08T08:23:22Z</time>
      </trkpt>
      <trkpt lat="44.99172" lon="0.54443">
        <ele>115.3</ele>
        <time>2022-05-08T08:23:24Z</time>
      </trkpt>
      <trkpt lat="44.99156" lon="0.54435">
        <ele>113.6</ele>
        <time>2022-05-08T08:23:26Z</time>
      </trkpt>
      <trkpt lat="44.99116" lon="0.5441">
        <ele>109</ele>
        <time>2022-05-08T08:23:31Z</time>
      </trkpt>
      <trkpt lat="44.99076" lon="0.54411">
        <ele>107.8</ele>
        <time>2022-05-08T08:23:35Z</time>
      </trkpt>
      <trkpt lat="44.99015" lon="0.54394">
        <ele>107</ele>
        <time>2022-05-08T08:23:42Z</time>
      </trkpt>
      <trkpt lat="44.98973" lon="0.54385">
        <ele>107.6</ele>
        <time>2022-05-08T08:23:48Z</time>
      </trkpt>
      <trkpt lat="44.98941" lon="0.54386">
        <ele>107.8</ele>
        <time>2022-05-08T08:23:53Z</time>
      </trkpt>
      <trkpt lat="44.98913" lon="0.54394">
        <ele>108.4</ele>
        <time>2022-05-08T08:23:58Z</time>
      </trkpt>
      <trkpt lat="44.98904" lon="0.54397">
        <ele>108.6</ele>
        <time>2022-05-08T08:24:00Z</time>
      </trkpt>
      <trkpt lat="44.98904" lon="0.54405">
        <ele>108.5</ele>
        <time>2022-05-08T08:24:01Z</time>
      </trkpt>
      <trkpt lat="44.98904" lon="0.54412">
        <ele>108.3</ele>
        <time>2022-05-08T08:24:02Z</time>
      </trkpt>
      <trkpt lat="44.989" lon="0.54433">
        <ele>108.1</ele>
        <time>2022-05-08T08:24:05Z</time>
      </trkpt>
      <trkpt lat="44.98899" lon="0.54439">
        <ele>108.1</ele>
        <time>2022-05-08T08:24:06Z</time>
      </trkpt>
      <trkpt lat="44.98897" lon="0.54451">
        <ele>108.2</ele>
        <time>2022-05-08T08:24:08Z</time>
      </trkpt>
      <trkpt lat="44.98896" lon="0.54458">
        <ele>108.2</ele>
        <time>2022-05-08T08:24:09Z</time>
      </trkpt>
      <trkpt lat="44.98886" lon="0.54495">
        <ele>108.3</ele>
        <time>2022-05-08T08:24:15Z</time>
      </trkpt>
      <trkpt lat="44.98883" lon="0.54501">
        <ele>108.3</ele>
        <time>2022-05-08T08:24:16Z</time>
      </trkpt>
      <trkpt lat="44.98877" lon="0.54526">
        <ele>108.1</ele>
        <time>2022-05-08T08:24:20Z</time>
      </trkpt>
      <trkpt lat="44.98875" lon="0.54533">
        <ele>108.1</ele>
        <time>2022-05-08T08:24:21Z</time>
      </trkpt>
      <trkpt lat="44.98865" lon="0.54573">
        <ele>108.1</ele>
        <time>2022-05-08T08:24:27Z</time>
      </trkpt>
      <trkpt lat="44.98862" lon="0.54587">
        <ele>108.1</ele>
        <time>2022-05-08T08:24:29Z</time>
      </trkpt>
      <trkpt lat="44.98861" lon="0.546">
        <ele>108.2</ele>
        <time>2022-05-08T08:24:31Z</time>
      </trkpt>
      <trkpt lat="44.98861" lon="0.54607">
        <ele>108.2</ele>
        <time>2022-05-08T08:24:32Z</time>
      </trkpt>
      <trkpt lat="44.98866" lon="0.54631">
        <ele>108.4</ele>
        <time>2022-05-08T08:24:36Z</time>
      </trkpt>
      <trkpt lat="44.98867" lon="0.54642">
        <ele>108.5</ele>
        <time>2022-05-08T08:24:38Z</time>
      </trkpt>
      <trkpt lat="44.9887" lon="0.54653">
        <ele>108.5</ele>
        <time>2022-05-08T08:24:40Z</time>
      </trkpt>
      <trkpt lat="44.98872" lon="0.54666">
        <ele>108.5</ele>
        <time>2022-05-08T08:24:42Z</time>
      </trkpt>
      <trkpt lat="44.98872" lon="0.54672">
        <ele>108.6</ele>
        <time>2022-05-08T08:24:43Z</time>
      </trkpt>
      <trkpt lat="44.98873" lon="0.54685">
        <ele>108.6</ele>
        <time>2022-05-08T08:24:45Z</time>
      </trkpt>
      <trkpt lat="44.98877" lon="0.54704">
        <ele>108.7</ele>
        <time>2022-05-08T08:24:48Z</time>
      </trkpt>
      <trkpt lat="44.98884" lon="0.54733">
        <ele>108.8</ele>
        <time>2022-05-08T08:24:53Z</time>
      </trkpt>
      <trkpt lat="44.98887" lon="0.54745">
        <ele>108.8</ele>
        <time>2022-05-08T08:24:55Z</time>
      </trkpt>
      <trkpt lat="44.98889" lon="0.54756">
        <ele>108.9</ele>
        <time>2022-05-08T08:24:57Z</time>
      </trkpt>
      <trkpt lat="44.98896" lon="0.54784">
        <ele>109</ele>
        <time>2022-05-08T08:25:02Z</time>
      </trkpt>
      <trkpt lat="44.98899" lon="0.54798">
        <ele>109.2</ele>
        <time>2022-05-08T08:25:05Z</time>
      </trkpt>
      <trkpt lat="44.98898" lon="0.54801">
        <ele>109.2</ele>
        <time>2022-05-08T08:25:06Z</time>
      </trkpt>
      <trkpt lat="44.98895" lon="0.54812">
        <ele>109</ele>
        <time>2022-05-08T08:25:10Z</time>
      </trkpt>
      <trkpt lat="44.98882" lon="0.54819">
        <ele>108.7</ele>
        <time>2022-05-08T08:25:14Z</time>
      </trkpt>
      <trkpt lat="44.98873" lon="0.5482">
        <ele>108.7</ele>
        <time>2022-05-08T08:25:18Z</time>
      </trkpt>
      <trkpt lat="44.98869" lon="0.5482">
        <ele>108.6</ele>
        <time>2022-05-08T08:25:20Z</time>
      </trkpt>
      <trkpt lat="44.98863" lon="0.54821">
        <ele>108.6</ele>
        <time>2022-05-08T08:25:22Z</time>
      </trkpt>
      <trkpt lat="44.98856" lon="0.54822">
        <ele>108.6</ele>
        <time>2022-05-08T08:25:24Z</time>
      </trkpt>
      <trkpt lat="44.98854" lon="0.54822">
        <ele>108.7</ele>
        <time>2022-05-08T08:25:25Z</time>
      </trkpt>
      <trkpt lat="44.98841" lon="0.54822">
        <ele>108.8</ele>
        <time>2022-05-08T08:25:29Z</time>
      </trkpt>
      <trkpt lat="44.98833" lon="0.54821">
        <ele>109</ele>
        <time>2022-05-08T08:25:31Z</time>
      </trkpt>
      <trkpt lat="44.98829" lon="0.54821">
        <ele>109</ele>
        <time>2022-05-08T08:25:32Z</time>
      </trkpt>
      <trkpt lat="44.98813" lon="0.5482">
        <ele>109.2</ele>
        <time>2022-05-08T08:25:36Z</time>
      </trkpt>
      <trkpt lat="44.98797" lon="0.54819">
        <ele>109.2</ele>
        <time>2022-05-08T08:25:39Z</time>
      </trkpt>
      <trkpt lat="44.98788" lon="0.5482">
        <ele>109.2</ele>
        <time>2022-05-08T08:25:41Z</time>
      </trkpt>
      <trkpt lat="44.98755" lon="0.54847">
        <ele>110.1</ele>
        <time>2022-05-08T08:25:49Z</time>
      </trkpt>
      <trkpt lat="44.98744" lon="0.54858">
        <ele>110.5</ele>
        <time>2022-05-08T08:25:53Z</time>
      </trkpt>
      <trkpt lat="44.98734" lon="0.54865">
        <ele>111</ele>
        <time>2022-05-08T08:25:57Z</time>
      </trkpt>
      <trkpt lat="44.98732" lon="0.54876">
        <ele>111.3</ele>
        <time>2022-05-08T08:25:58Z</time>
      </trkpt>
      <trkpt lat="44.98735" lon="0.54888">
        <ele>111.4</ele>
        <time>2022-05-08T08:26:01Z</time>
      </trkpt>
      <trkpt lat="44.98738" lon="0.54899">
        <ele>111.4</ele>
        <time>2022-05-08T08:26:04Z</time>
      </trkpt>
      <trkpt lat="44.9874" lon="0.54906">
        <ele>111.4</ele>
        <time>2022-05-08T08:26:05Z</time>
      </trkpt>
      <trkpt lat="44.98737" lon="0.54908">
        <ele>111.6</ele>
        <time>2022-05-08T08:26:06Z</time>
      </trkpt>
      <trkpt lat="44.98728" lon="0.54912">
        <ele>112.1</ele>
        <time>2022-05-08T08:26:09Z</time>
      </trkpt>
      <trkpt lat="44.98715" lon="0.54915">
        <ele>112.7</ele>
        <time>2022-05-08T08:26:13Z</time>
      </trkpt>
      <trkpt lat="44.98694" lon="0.54921">
        <ele>113.8</ele>
        <time>2022-05-08T08:26:21Z</time>
      </trkpt>
      <trkpt lat="44.98677" lon="0.54926">
        <ele>114.8</ele>
        <time>2022-05-08T08:26:28Z</time>
      </trkpt>
      <trkpt lat="44.9866" lon="0.54932">
        <ele>115.7</ele>
        <time>2022-05-08T08:26:36Z</time>
      </trkpt>
      <trkpt lat="44.98639" lon="0.5494">
        <ele>116.4</ele>
        <time>2022-05-08T08:26:44Z</time>
      </trkpt>
      <trkpt lat="44.98616" lon="0.54942">
        <ele>116.7</ele>
        <time>2022-05-08T08:26:52Z</time>
      </trkpt>
      <trkpt lat="44.98592" lon="0.5494">
        <ele>116.8</ele>
        <time>2022-05-08T08:26:59Z</time>
      </trkpt>
      <trkpt lat="44.98564" lon="0.54933">
        <ele>117</ele>
        <time>2022-05-08T08:27:07Z</time>
      </trkpt>
      <trkpt lat="44.98535" lon="0.5492">
        <ele>117.2</ele>
        <time>2022-05-08T08:27:16Z</time>
      </trkpt>
      <trkpt lat="44.98512" lon="0.54908">
        <ele>117.1</ele>
        <time>2022-05-08T08:27:22Z</time>
      </trkpt>
      <trkpt lat="44.98478" lon="0.54886">
        <ele>117.1</ele>
        <time>2022-05-08T08:27:30Z</time>
      </trkpt>
      <trkpt lat="44.98457" lon="0.54871">
        <ele>117.3</ele>
        <time>2022-05-08T08:27:35Z</time>
      </trkpt>
      <trkpt lat="44.98453" lon="0.54869">
        <ele>117.4</ele>
        <time>2022-05-08T08:27:36Z</time>
      </trkpt>
      <trkpt lat="44.9842" lon="0.54853">
        <ele>118.3</ele>
        <time>2022-05-08T08:27:44Z</time>
      </trkpt>
      <trkpt lat="44.98407" lon="0.54849">
        <ele>118.8</ele>
        <time>2022-05-08T08:27:48Z</time>
      </trkpt>
      <trkpt lat="44.98386" lon="0.54847">
        <ele>119.7</ele>
        <time>2022-05-08T08:27:54Z</time>
      </trkpt>
      <trkpt lat="44.98362" lon="0.54854">
        <ele>120.8</ele>
        <time>2022-05-08T08:28:02Z</time>
      </trkpt>
      <trkpt lat="44.98344" lon="0.54861">
        <ele>121.5</ele>
        <time>2022-05-08T08:28:09Z</time>
      </trkpt>
      <trkpt lat="44.98327" lon="0.54867">
        <ele>122.2</ele>
        <time>2022-05-08T08:28:15Z</time>
      </trkpt>
      <trkpt lat="44.98307" lon="0.54874">
        <ele>122.4</ele>
        <time>2022-05-08T08:28:22Z</time>
      </trkpt>
      <trkpt lat="44.98299" lon="0.54876">
        <ele>122.4</ele>
        <time>2022-05-08T08:28:25Z</time>
      </trkpt>
      <trkpt lat="44.98279" lon="0.5488">
        <ele>122.4</ele>
        <time>2022-05-08T08:28:31Z</time>
      </trkpt>
      <trkpt lat="44.98253" lon="0.5488">
        <ele>122.8</ele>
        <time>2022-05-08T08:28:38Z</time>
      </trkpt>
      <trkpt lat="44.98227" lon="0.5488">
        <ele>123.5</ele>
        <time>2022-05-08T08:28:45Z</time>
      </trkpt>
      <trkpt lat="44.98201" lon="0.54882">
        <ele>124.5</ele>
        <time>2022-05-08T08:28:53Z</time>
      </trkpt>
      <trkpt lat="44.98175" lon="0.54894">
        <ele>124.5</ele>
        <time>2022-05-08T08:29:01Z</time>
      </trkpt>
      <trkpt lat="44.98166" lon="0.54895">
        <ele>124.4</ele>
        <time>2022-05-08T08:29:03Z</time>
      </trkpt>
      <trkpt lat="44.98155" lon="0.54897">
        <ele>124.2</ele>
        <time>2022-05-08T08:29:06Z</time>
      </trkpt>
      <trkpt lat="44.98135" lon="0.54897">
        <ele>124.1</ele>
        <time>2022-05-08T08:29:11Z</time>
      </trkpt>
      <trkpt lat="44.98122" lon="0.54897">
        <ele>124</ele>
        <time>2022-05-08T08:29:14Z</time>
      </trkpt>
      <trkpt lat="44.98082" lon="0.54892">
        <ele>124.2</ele>
        <time>2022-05-08T08:29:22Z</time>
      </trkpt>
      <trkpt lat="44.98069" lon="0.54889">
        <ele>124.3</ele>
        <time>2022-05-08T08:29:25Z</time>
      </trkpt>
      <trkpt lat="44.98056" lon="0.54884">
        <ele>124.5</ele>
        <time>2022-05-08T08:29:28Z</time>
      </trkpt>
      <trkpt lat="44.98044" lon="0.54874">
        <ele>124.6</ele>
        <time>2022-05-08T08:29:32Z</time>
      </trkpt>
      <trkpt lat="44.98027" lon="0.54857">
        <ele>123.8</ele>
        <time>2022-05-08T08:29:38Z</time>
      </trkpt>
      <trkpt lat="44.98024" lon="0.54843">
        <ele>123.3</ele>
        <time>2022-05-08T08:29:40Z</time>
      </trkpt>
      <trkpt lat="44.98026" lon="0.54836">
        <ele>123.2</ele>
        <time>2022-05-08T08:29:41Z</time>
      </trkpt>
      <trkpt lat="44.98031" lon="0.54808">
        <ele>123</ele>
        <time>2022-05-08T08:29:45Z</time>
      </trkpt>
      <trkpt lat="44.98034" lon="0.54797">
        <ele>123</ele>
        <time>2022-05-08T08:29:47Z</time>
      </trkpt>
      <trkpt lat="44.98039" lon="0.54762">
        <ele>123.2</ele>
        <time>2022-05-08T08:29:53Z</time>
      </trkpt>
      <trkpt lat="44.98039" lon="0.5474">
        <ele>123.5</ele>
        <time>2022-05-08T08:29:56Z</time>
      </trkpt>
      <trkpt lat="44.98036" lon="0.5474">
        <ele>123.7</ele>
        <time>2022-05-08T08:29:57Z</time>
      </trkpt>
      <trkpt lat="44.98032" lon="0.54739">
        <ele>123.8</ele>
        <time>2022-05-08T08:29:58Z</time>
      </trkpt>
      <trkpt lat="44.98018" lon="0.54737">
        <ele>124.5</ele>
        <time>2022-05-08T08:30:01Z</time>
      </trkpt>
      <trkpt lat="44.97975" lon="0.5473">
        <ele>129.7</ele>
        <time>2022-05-08T08:30:09Z</time>
      </trkpt>
      <trkpt lat="44.97965" lon="0.54725">
        <ele>131.3</ele>
        <time>2022-05-08T08:30:11Z</time>
      </trkpt>
      <trkpt lat="44.97962" lon="0.54719">
        <ele>132</ele>
        <time>2022-05-08T08:30:12Z</time>
      </trkpt>
      <trkpt lat="44.97962" lon="0.54713">
        <ele>132.6</ele>
        <time>2022-05-08T08:30:13Z</time>
      </trkpt>
      <trkpt lat="44.97962" lon="0.54704">
        <ele>133.4</ele>
        <time>2022-05-08T08:30:15Z</time>
      </trkpt>
      <trkpt lat="44.97964" lon="0.54684">
        <ele>135.4</ele>
        <time>2022-05-08T08:30:22Z</time>
      </trkpt>
      <trkpt lat="44.97958" lon="0.5467">
        <ele>136.1</ele>
        <time>2022-05-08T08:30:27Z</time>
      </trkpt>
      <trkpt lat="44.97942" lon="0.54657">
        <ele>135.9</ele>
        <time>2022-05-08T08:30:34Z</time>
      </trkpt>
      <trkpt lat="44.97926" lon="0.54649">
        <ele>135.4</ele>
        <time>2022-05-08T08:30:39Z</time>
      </trkpt>
      <trkpt lat="44.97907" lon="0.54643">
        <ele>134.5</ele>
        <time>2022-05-08T08:30:45Z</time>
      </trkpt>
      <trkpt lat="44.97884" lon="0.5464">
        <ele>133.3</ele>
        <time>2022-05-08T08:30:51Z</time>
      </trkpt>
      <trkpt lat="44.9786" lon="0.54637">
        <ele>131.8</ele>
        <time>2022-05-08T08:30:56Z</time>
      </trkpt>
      <trkpt lat="44.97855" lon="0.54636">
        <ele>131.6</ele>
        <time>2022-05-08T08:30:57Z</time>
      </trkpt>
      <trkpt lat="44.97817" lon="0.54625">
        <ele>130.3</ele>
        <time>2022-05-08T08:31:04Z</time>
      </trkpt>
      <trkpt lat="44.97807" lon="0.54625">
        <ele>130.1</ele>
        <time>2022-05-08T08:31:06Z</time>
      </trkpt>
      <trkpt lat="44.97799" lon="0.54625">
        <ele>129.9</ele>
        <time>2022-05-08T08:31:08Z</time>
      </trkpt>
      <trkpt lat="44.97789" lon="0.54625">
        <ele>129.7</ele>
        <time>2022-05-08T08:31:10Z</time>
      </trkpt>
      <trkpt lat="44.97773" lon="0.5463">
        <ele>129.3</ele>
        <time>2022-05-08T08:31:13Z</time>
      </trkpt>
      <trkpt lat="44.97743" lon="0.54649">
        <ele>128.6</ele>
        <time>2022-05-08T08:31:19Z</time>
      </trkpt>
      <trkpt lat="44.97734" lon="0.54656">
        <ele>128.4</ele>
        <time>2022-05-08T08:31:21Z</time>
      </trkpt>
      <trkpt lat="44.97725" lon="0.54663">
        <ele>128.2</ele>
        <time>2022-05-08T08:31:23Z</time>
      </trkpt>
      <trkpt lat="44.97717" lon="0.54669">
        <ele>127.9</ele>
        <time>2022-05-08T08:31:25Z</time>
      </trkpt>
      <trkpt lat="44.97711" lon="0.54674">
        <ele>127.6</ele>
        <time>2022-05-08T08:31:26Z</time>
      </trkpt>
      <trkpt lat="44.97691" lon="0.54722">
        <ele>128.1</ele>
        <time>2022-05-08T08:31:33Z</time>
      </trkpt>
      <trkpt lat="44.97681" lon="0.54748">
        <ele>129.9</ele>
        <time>2022-05-08T08:31:38Z</time>
      </trkpt>
      <trkpt lat="44.97675" lon="0.54765">
        <ele>131.7</ele>
        <time>2022-05-08T08:31:43Z</time>
      </trkpt>
      <trkpt lat="44.97672" lon="0.54768">
        <ele>132.2</ele>
        <time>2022-05-08T08:31:44Z</time>
      </trkpt>
      <trkpt lat="44.97661" lon="0.54775">
        <ele>133.9</ele>
        <time>2022-05-08T08:31:50Z</time>
      </trkpt>
      <trkpt lat="44.97648" lon="0.5478">
        <ele>135.5</ele>
        <time>2022-05-08T08:31:57Z</time>
      </trkpt>
      <trkpt lat="44.97639" lon="0.54776">
        <ele>136.5</ele>
        <time>2022-05-08T08:32:03Z</time>
      </trkpt>
      <trkpt lat="44.97631" lon="0.54771">
        <ele>137.4</ele>
        <time>2022-05-08T08:32:09Z</time>
      </trkpt>
      <trkpt lat="44.97621" lon="0.54766">
        <ele>138.7</ele>
        <time>2022-05-08T08:32:16Z</time>
      </trkpt>
      <trkpt lat="44.97611" lon="0.54761">
        <ele>139.9</ele>
        <time>2022-05-08T08:32:22Z</time>
      </trkpt>
      <trkpt lat="44.97602" lon="0.54756">
        <ele>140.8</ele>
        <time>2022-05-08T08:32:28Z</time>
      </trkpt>
      <trkpt lat="44.97591" lon="0.54748">
        <ele>142</ele>
        <time>2022-05-08T08:32:36Z</time>
      </trkpt>
      <trkpt lat="44.9759" lon="0.54747">
        <ele>142.2</ele>
        <time>2022-05-08T08:32:37Z</time>
      </trkpt>
      <trkpt lat="44.97585" lon="0.54743">
        <ele>142.8</ele>
        <time>2022-05-08T08:32:41Z</time>
      </trkpt>
      <trkpt lat="44.97576" lon="0.54736">
        <ele>143.8</ele>
        <time>2022-05-08T08:32:47Z</time>
      </trkpt>
      <trkpt lat="44.97563" lon="0.54726">
        <ele>145</ele>
        <time>2022-05-08T08:32:56Z</time>
      </trkpt>
      <trkpt lat="44.97552" lon="0.54719">
        <ele>146.1</ele>
        <time>2022-05-08T08:33:04Z</time>
      </trkpt>
      <trkpt lat="44.9754" lon="0.54715">
        <ele>147.3</ele>
        <time>2022-05-08T08:33:12Z</time>
      </trkpt>
      <trkpt lat="44.97529" lon="0.54711">
        <ele>148.5</ele>
        <time>2022-05-08T08:33:19Z</time>
      </trkpt>
      <trkpt lat="44.97513" lon="0.54708">
        <ele>150</ele>
        <time>2022-05-08T08:33:29Z</time>
      </trkpt>
      <trkpt lat="44.97501" lon="0.54711">
        <ele>150.9</ele>
        <time>2022-05-08T08:33:37Z</time>
      </trkpt>
      <trkpt lat="44.97486" lon="0.54715">
        <ele>152.1</ele>
        <time>2022-05-08T08:33:45Z</time>
      </trkpt>
      <trkpt lat="44.97469" lon="0.54713">
        <ele>153.1</ele>
        <time>2022-05-08T08:33:53Z</time>
      </trkpt>
      <trkpt lat="44.97451" lon="0.54706">
        <ele>153.6</ele>
        <time>2022-05-08T08:34:02Z</time>
      </trkpt>
      <trkpt lat="44.97431" lon="0.54699">
        <ele>154.2</ele>
        <time>2022-05-08T08:34:11Z</time>
      </trkpt>
      <trkpt lat="44.97413" lon="0.54692">
        <ele>154.5</ele>
        <time>2022-05-08T08:34:19Z</time>
      </trkpt>
      <trkpt lat="44.97397" lon="0.54685">
        <ele>154.9</ele>
        <time>2022-05-08T08:34:26Z</time>
      </trkpt>
      <trkpt lat="44.97384" lon="0.5468">
        <ele>155.3</ele>
        <time>2022-05-08T08:34:32Z</time>
      </trkpt>
      <trkpt lat="44.97371" lon="0.54674">
        <ele>155.7</ele>
        <time>2022-05-08T08:34:38Z</time>
      </trkpt>
      <trkpt lat="44.97351" lon="0.54666">
        <ele>156.4</ele>
        <time>2022-05-08T08:34:46Z</time>
      </trkpt>
      <trkpt lat="44.97333" lon="0.54659">
        <ele>157.1</ele>
        <time>2022-05-08T08:34:53Z</time>
      </trkpt>
      <trkpt lat="44.97313" lon="0.54652">
        <ele>157.8</ele>
        <time>2022-05-08T08:35:00Z</time>
      </trkpt>
      <trkpt lat="44.97296" lon="0.54646">
        <ele>158.4</ele>
        <time>2022-05-08T08:35:07Z</time>
      </trkpt>
      <trkpt lat="44.9728" lon="0.54641">
        <ele>158.9</ele>
        <time>2022-05-08T08:35:13Z</time>
      </trkpt>
      <trkpt lat="44.97262" lon="0.54636">
        <ele>159.6</ele>
        <time>2022-05-08T08:35:19Z</time>
      </trkpt>
      <trkpt lat="44.97237" lon="0.54628">
        <ele>160.5</ele>
        <time>2022-05-08T08:35:26Z</time>
      </trkpt>
      <trkpt lat="44.97206" lon="0.54619">
        <ele>161.8</ele>
        <time>2022-05-08T08:35:35Z</time>
      </trkpt>
      <trkpt lat="44.97189" lon="0.54612">
        <ele>162.7</ele>
        <time>2022-05-08T08:35:41Z</time>
      </trkpt>
      <trkpt lat="44.97172" lon="0.54604">
        <ele>163.7</ele>
        <time>2022-05-08T08:35:47Z</time>
      </trkpt>
      <trkpt lat="44.9717" lon="0.5457">
        <ele>165</ele>
        <time>2022-05-08T08:35:51Z</time>
      </trkpt>
      <trkpt lat="44.97165" lon="0.54585">
        <ele>165.5</ele>
        <time>2022-05-08T08:35:56Z</time>
      </trkpt>
      <trkpt lat="44.97159" lon="0.54598">
        <ele>166.1</ele>
        <time>2022-05-08T08:36:00Z</time>
      </trkpt>
      <trkpt lat="44.97156" lon="0.54597">
        <ele>166.2</ele>
        <time>2022-05-08T08:36:01Z</time>
      </trkpt>
      <trkpt lat="44.97146" lon="0.54593">
        <ele>166.8</ele>
        <time>2022-05-08T08:36:06Z</time>
      </trkpt>
      <trkpt lat="44.97134" lon="0.54588">
        <ele>167.5</ele>
        <time>2022-05-08T08:36:11Z</time>
      </trkpt>
      <trkpt lat="44.97121" lon="0.54582">
        <ele>168.3</ele>
        <time>2022-05-08T08:36:17Z</time>
      </trkpt>
      <trkpt lat="44.97107" lon="0.54576">
        <ele>169.5</ele>
        <time>2022-05-08T08:36:24Z</time>
      </trkpt>
      <trkpt lat="44.97094" lon="0.54571">
        <ele>171</ele>
        <time>2022-05-08T08:36:31Z</time>
      </trkpt>
      <trkpt lat="44.97092" lon="0.5457">
        <ele>171.2</ele>
        <time>2022-05-08T08:36:32Z</time>
      </trkpt>
      <trkpt lat="44.97081" lon="0.54565">
        <ele>172.5</ele>
        <time>2022-05-08T08:36:37Z</time>
      </trkpt>
      <trkpt lat="44.97065" lon="0.54558">
        <ele>174.1</ele>
        <time>2022-05-08T08:36:44Z</time>
      </trkpt>
      <trkpt lat="44.9705" lon="0.54552">
        <ele>175.4</ele>
        <time>2022-05-08T08:36:51Z</time>
      </trkpt>
      <trkpt lat="44.97032" lon="0.54542">
        <ele>177</ele>
        <time>2022-05-08T08:37:00Z</time>
      </trkpt>
      <trkpt lat="44.97018" lon="0.54533">
        <ele>178.1</ele>
        <time>2022-05-08T08:37:07Z</time>
      </trkpt>
      <trkpt lat="44.97001" lon="0.54522">
        <ele>179.2</ele>
        <time>2022-05-08T08:37:14Z</time>
      </trkpt>
      <trkpt lat="44.96986" lon="0.54512">
        <ele>180.1</ele>
        <time>2022-05-08T08:37:20Z</time>
      </trkpt>
      <trkpt lat="44.96963" lon="0.54499">
        <ele>181.1</ele>
        <time>2022-05-08T08:37:28Z</time>
      </trkpt>
      <trkpt lat="44.96949" lon="0.5449">
        <ele>181.7</ele>
        <time>2022-05-08T08:37:33Z</time>
      </trkpt>
      <trkpt lat="44.9693" lon="0.54478">
        <ele>182.5</ele>
        <time>2022-05-08T08:37:39Z</time>
      </trkpt>
      <trkpt lat="44.96909" lon="0.54464">
        <ele>183.4</ele>
        <time>2022-05-08T08:37:46Z</time>
      </trkpt>
      <trkpt lat="44.96898" lon="0.54457">
        <ele>183.7</ele>
        <time>2022-05-08T08:37:50Z</time>
      </trkpt>
      <trkpt lat="44.96891" lon="0.54453">
        <ele>183.9</ele>
        <time>2022-05-08T08:37:52Z</time>
      </trkpt>
      <trkpt lat="44.96886" lon="0.5445">
        <ele>184</ele>
        <time>2022-05-08T08:37:54Z</time>
      </trkpt>
      <trkpt lat="44.96873" lon="0.54442">
        <ele>184.4</ele>
        <time>2022-05-08T08:37:58Z</time>
      </trkpt>
      <trkpt lat="44.96853" lon="0.5443">
        <ele>185</ele>
        <time>2022-05-08T08:38:04Z</time>
      </trkpt>
      <trkpt lat="44.96837" lon="0.54421">
        <ele>185.4</ele>
        <time>2022-05-08T08:38:09Z</time>
      </trkpt>
      <trkpt lat="44.96814" lon="0.54409">
        <ele>185.7</ele>
        <time>2022-05-08T08:38:16Z</time>
      </trkpt>
      <trkpt lat="44.96803" lon="0.54393">
        <ele>185.7</ele>
        <time>2022-05-08T08:38:21Z</time>
      </trkpt>
      <trkpt lat="44.96803" lon="0.54368">
        <ele>186</ele>
        <time>2022-05-08T08:38:27Z</time>
      </trkpt>
      <trkpt lat="44.96801" lon="0.54334">
        <ele>186.4</ele>
        <time>2022-05-08T08:38:34Z</time>
      </trkpt>
      <trkpt lat="44.96791" lon="0.54304">
        <ele>186.8</ele>
        <time>2022-05-08T08:38:42Z</time>
      </trkpt>
      <trkpt lat="44.96786" lon="0.54292">
        <ele>187</ele>
        <time>2022-05-08T08:38:48Z</time>
      </trkpt>
      <trkpt lat="44.96786" lon="0.54292">
        <ele>187</ele>
        <time>2022-05-08T08:38:50Z</time>
      </trkpt>
      <trkpt lat="44.96782" lon="0.5428">
        <ele>187.2</ele>
        <time>2022-05-08T08:42:08Z</time>
      </trkpt>
      <trkpt lat="44.96781" lon="0.54279">
        <ele>187.2</ele>
        <time>2022-05-08T08:42:09Z</time>
      </trkpt>
      <trkpt lat="44.96778" lon="0.54271">
        <ele>187.4</ele>
        <time>2022-05-08T08:42:13Z</time>
      </trkpt>
      <trkpt lat="44.96776" lon="0.54267">
        <ele>187.4</ele>
        <time>2022-05-08T08:42:15Z</time>
      </trkpt>
      <trkpt lat="44.96767" lon="0.54243">
        <ele>187.7</ele>
        <time>2022-05-08T08:42:22Z</time>
      </trkpt>
      <trkpt lat="44.96756" lon="0.5421">
        <ele>188.1</ele>
        <time>2022-05-08T08:42:30Z</time>
      </trkpt>
      <trkpt lat="44.96742" lon="0.54167">
        <ele>188.7</ele>
        <time>2022-05-08T08:42:39Z</time>
      </trkpt>
      <trkpt lat="44.96731" lon="0.5413">
        <ele>188.8</ele>
        <time>2022-05-08T08:42:47Z</time>
      </trkpt>
      <trkpt lat="44.96724" lon="0.54096">
        <ele>188.1</ele>
        <time>2022-05-08T08:42:53Z</time>
      </trkpt>
      <trkpt lat="44.96716" lon="0.54055">
        <ele>186.9</ele>
        <time>2022-05-08T08:42:58Z</time>
      </trkpt>
      <trkpt lat="44.96704" lon="0.53999">
        <ele>185.8</ele>
        <time>2022-05-08T08:43:04Z</time>
      </trkpt>
      <trkpt lat="44.967" lon="0.53982">
        <ele>185.6</ele>
        <time>2022-05-08T08:43:06Z</time>
      </trkpt>
      <trkpt lat="44.96698" lon="0.53968">
        <ele>185.5</ele>
        <time>2022-05-08T08:43:08Z</time>
      </trkpt>
      <trkpt lat="44.96699" lon="0.53958">
        <ele>185.5</ele>
        <time>2022-05-08T08:43:09Z</time>
      </trkpt>
      <trkpt lat="44.967" lon="0.53941">
        <ele>185.4</ele>
        <time>2022-05-08T08:43:11Z</time>
      </trkpt>
      <trkpt lat="44.96702" lon="0.53924">
        <ele>185.4</ele>
        <time>2022-05-08T08:43:13Z</time>
      </trkpt>
      <trkpt lat="44.96709" lon="0.53864">
        <ele>185.6</ele>
        <time>2022-05-08T08:43:20Z</time>
      </trkpt>
      <trkpt lat="44.96714" lon="0.53821">
        <ele>185.8</ele>
        <time>2022-05-08T08:43:25Z</time>
      </trkpt>
      <trkpt lat="44.96715" lon="0.53813">
        <ele>185.8</ele>
        <time>2022-05-08T08:43:26Z</time>
      </trkpt>
      <trkpt lat="44.96717" lon="0.53805">
        <ele>185.9</ele>
        <time>2022-05-08T08:43:27Z</time>
      </trkpt>
      <trkpt lat="44.96719" lon="0.53788">
        <ele>185.9</ele>
        <time>2022-05-08T08:43:29Z</time>
      </trkpt>
      <trkpt lat="44.96723" lon="0.53729">
        <ele>186.3</ele>
        <time>2022-05-08T08:43:36Z</time>
      </trkpt>
      <trkpt lat="44.96724" lon="0.53704">
        <ele>186.8</ele>
        <time>2022-05-08T08:43:39Z</time>
      </trkpt>
      <trkpt lat="44.96726" lon="0.53688">
        <ele>187.1</ele>
        <time>2022-05-08T08:43:41Z</time>
      </trkpt>
      <trkpt lat="44.96726" lon="0.5368">
        <ele>187.2</ele>
        <time>2022-05-08T08:43:42Z</time>
      </trkpt>
      <trkpt lat="44.96726" lon="0.53624">
        <ele>188</ele>
        <time>2022-05-08T08:43:49Z</time>
      </trkpt>
      <trkpt lat="44.96726" lon="0.53592">
        <ele>188.6</ele>
        <time>2022-05-08T08:43:54Z</time>
      </trkpt>
      <trkpt lat="44.96723" lon="0.53556">
        <ele>187.2</ele>
        <time>2022-05-08T08:43:58Z</time>
      </trkpt>
      <trkpt lat="44.96713" lon="0.53491">
        <ele>185.6</ele>
        <time>2022-05-08T08:44:04Z</time>
      </trkpt>
      <trkpt lat="44.967" lon="0.53442">
        <ele>185.6</ele>
        <time>2022-05-08T08:44:09Z</time>
      </trkpt>
      <trkpt lat="44.96693" lon="0.53424">
        <ele>185.9</ele>
        <time>2022-05-08T08:44:11Z</time>
      </trkpt>
      <trkpt lat="44.96687" lon="0.53408">
        <ele>186.4</ele>
        <time>2022-05-08T08:44:13Z</time>
      </trkpt>
      <trkpt lat="44.96684" lon="0.53399">
        <ele>186.6</ele>
        <time>2022-05-08T08:44:14Z</time>
      </trkpt>
      <trkpt lat="44.96672" lon="0.53371">
        <ele>187.5</ele>
        <time>2022-05-08T08:44:18Z</time>
      </trkpt>
      <trkpt lat="44.96664" lon="0.53355">
        <ele>188</ele>
        <time>2022-05-08T08:44:21Z</time>
      </trkpt>
      <trkpt lat="44.96659" lon="0.53346">
        <ele>188.2</ele>
        <time>2022-05-08T08:44:23Z</time>
      </trkpt>
      <trkpt lat="44.9665" lon="0.53328">
        <ele>188.7</ele>
        <time>2022-05-08T08:44:27Z</time>
      </trkpt>
      <trkpt lat="44.96636" lon="0.53304">
        <ele>188.9</ele>
        <time>2022-05-08T08:44:33Z</time>
      </trkpt>
      <trkpt lat="44.96631" lon="0.53286">
        <ele>188.9</ele>
        <time>2022-05-08T08:44:39Z</time>
      </trkpt>
      <trkpt lat="44.96628" lon="0.53275">
        <ele>188.8</ele>
        <time>2022-05-08T08:44:44Z</time>
      </trkpt>
      <trkpt lat="44.96628" lon="0.53275">
        <ele>188.8</ele>
        <time>2022-05-08T08:44:46Z</time>
      </trkpt>
      <trkpt lat="44.96625" lon="0.53261">
        <ele>188.7</ele>
        <time>2022-05-08T08:48:01Z</time>
      </trkpt>
      <trkpt lat="44.96624" lon="0.53259">
        <ele>188.7</ele>
        <time>2022-05-08T08:48:02Z</time>
      </trkpt>
      <trkpt lat="44.96618" lon="0.53239">
        <ele>188.1</ele>
        <time>2022-05-08T08:48:07Z</time>
      </trkpt>
      <trkpt lat="44.96614" lon="0.53223">
        <ele>187.3</ele>
        <time>2022-05-08T08:48:10Z</time>
      </trkpt>
      <trkpt lat="44.96613" lon="0.53217">
        <ele>186.9</ele>
        <time>2022-05-08T08:48:11Z</time>
      </trkpt>
      <trkpt lat="44.9661" lon="0.53195">
        <ele>185.5</ele>
        <time>2022-05-08T08:48:14Z</time>
      </trkpt>
      <trkpt lat="44.96609" lon="0.53186">
        <ele>184.8</ele>
        <time>2022-05-08T08:48:15Z</time>
      </trkpt>
      <trkpt lat="44.96603" lon="0.53139">
        <ele>181.8</ele>
        <time>2022-05-08T08:48:19Z</time>
      </trkpt>
      <trkpt lat="44.96599" lon="0.53078">
        <ele>178.8</ele>
        <time>2022-05-08T08:48:24Z</time>
      </trkpt>
      <trkpt lat="44.96597" lon="0.53055">
        <ele>177.4</ele>
        <time>2022-05-08T08:48:27Z</time>
      </trkpt>
      <trkpt lat="44.96595" lon="0.53047">
        <ele>177.2</ele>
        <time>2022-05-08T08:48:28Z</time>
      </trkpt>
      <trkpt lat="44.96591" lon="0.53043">
        <ele>177.3</ele>
        <time>2022-05-08T08:48:29Z</time>
      </trkpt>
      <trkpt lat="44.96582" lon="0.53033">
        <ele>177.7</ele>
        <time>2022-05-08T08:48:31Z</time>
      </trkpt>
      <trkpt lat="44.96579" lon="0.53028">
        <ele>177.8</ele>
        <time>2022-05-08T08:48:32Z</time>
      </trkpt>
      <trkpt lat="44.96575" lon="0.53024">
        <ele>177.9</ele>
        <time>2022-05-08T08:48:33Z</time>
      </trkpt>
      <trkpt lat="44.96566" lon="0.53014">
        <ele>178.2</ele>
        <time>2022-05-08T08:48:35Z</time>
      </trkpt>
      <trkpt lat="44.96562" lon="0.5301">
        <ele>178.3</ele>
        <time>2022-05-08T08:48:36Z</time>
      </trkpt>
      <trkpt lat="44.96549" lon="0.52995">
        <ele>178.7</ele>
        <time>2022-05-08T08:48:39Z</time>
      </trkpt>
      <trkpt lat="44.9654" lon="0.52985">
        <ele>179</ele>
        <time>2022-05-08T08:48:41Z</time>
      </trkpt>
      <trkpt lat="44.96537" lon="0.52979">
        <ele>179.1</ele>
        <time>2022-05-08T08:48:42Z</time>
      </trkpt>
      <trkpt lat="44.96529" lon="0.52967">
        <ele>179.4</ele>
        <time>2022-05-08T08:48:44Z</time>
      </trkpt>
      <trkpt lat="44.96526" lon="0.52962">
        <ele>179.5</ele>
        <time>2022-05-08T08:48:45Z</time>
      </trkpt>
      <trkpt lat="44.96519" lon="0.5295">
        <ele>179.8</ele>
        <time>2022-05-08T08:48:47Z</time>
      </trkpt>
      <trkpt lat="44.96512" lon="0.5294">
        <ele>180</ele>
        <time>2022-05-08T08:48:49Z</time>
      </trkpt>
      <trkpt lat="44.96506" lon="0.52932">
        <ele>180.2</ele>
        <time>2022-05-08T08:48:51Z</time>
      </trkpt>
      <trkpt lat="44.96502" lon="0.52928">
        <ele>180.3</ele>
        <time>2022-05-08T08:48:52Z</time>
      </trkpt>
      <trkpt lat="44.96491" lon="0.52915">
        <ele>180.1</ele>
        <time>2022-05-08T08:48:55Z</time>
      </trkpt>
      <trkpt lat="44.96486" lon="0.52909">
        <ele>179.8</ele>
        <time>2022-05-08T08:48:56Z</time>
      </trkpt>
      <trkpt lat="44.96467" lon="0.52885">
        <ele>178.1</ele>
        <time>2022-05-08T08:49:00Z</time>
      </trkpt>
      <trkpt lat="44.96448" lon="0.52869">
        <ele>176.8</ele>
        <time>2022-05-08T08:49:03Z</time>
      </trkpt>
      <trkpt lat="44.96441" lon="0.52865">
        <ele>176.5</ele>
        <time>2022-05-08T08:49:04Z</time>
      </trkpt>
      <trkpt lat="44.96421" lon="0.52866">
        <ele>175.7</ele>
        <time>2022-05-08T08:49:07Z</time>
      </trkpt>
      <trkpt lat="44.96414" lon="0.52867">
        <ele>175.3</ele>
        <time>2022-05-08T08:49:08Z</time>
      </trkpt>
      <trkpt lat="44.96382" lon="0.52872">
        <ele>173.8</ele>
        <time>2022-05-08T08:49:12Z</time>
      </trkpt>
      <trkpt lat="44.96339" lon="0.52879">
        <ele>171.8</ele>
        <time>2022-05-08T08:49:17Z</time>
      </trkpt>
      <trkpt lat="44.96291" lon="0.52883">
        <ele>170.1</ele>
        <time>2022-05-08T08:49:23Z</time>
      </trkpt>
      <trkpt lat="44.96267" lon="0.52884">
        <ele>168.5</ele>
        <time>2022-05-08T08:49:26Z</time>
      </trkpt>
      <trkpt lat="44.9626" lon="0.52884">
        <ele>168</ele>
        <time>2022-05-08T08:49:27Z</time>
      </trkpt>
      <trkpt lat="44.96252" lon="0.52884">
        <ele>167.5</ele>
        <time>2022-05-08T08:49:28Z</time>
      </trkpt>
      <trkpt lat="44.96236" lon="0.52882">
        <ele>166.6</ele>
        <time>2022-05-08T08:49:30Z</time>
      </trkpt>
      <trkpt lat="44.96204" lon="0.52872">
        <ele>165.3</ele>
        <time>2022-05-08T08:49:34Z</time>
      </trkpt>
      <trkpt lat="44.96181" lon="0.52859">
        <ele>164.2</ele>
        <time>2022-05-08T08:49:37Z</time>
      </trkpt>
      <trkpt lat="44.96173" lon="0.52855">
        <ele>163.6</ele>
        <time>2022-05-08T08:49:38Z</time>
      </trkpt>
      <trkpt lat="44.96159" lon="0.52839">
        <ele>162.5</ele>
        <time>2022-05-08T08:49:40Z</time>
      </trkpt>
      <trkpt lat="44.96152" lon="0.52836">
        <ele>162.1</ele>
        <time>2022-05-08T08:49:41Z</time>
      </trkpt>
      <trkpt lat="44.9614" lon="0.52832">
        <ele>161</ele>
        <time>2022-05-08T08:49:43Z</time>
      </trkpt>
      <trkpt lat="44.96133" lon="0.52832">
        <ele>160.3</ele>
        <time>2022-05-08T08:49:44Z</time>
      </trkpt>
      <trkpt lat="44.96113" lon="0.52827">
        <ele>158.5</ele>
        <time>2022-05-08T08:49:47Z</time>
      </trkpt>
      <trkpt lat="44.96107" lon="0.52826">
        <ele>157.9</ele>
        <time>2022-05-08T08:49:48Z</time>
      </trkpt>
      <trkpt lat="44.96073" lon="0.52817">
        <ele>155.3</ele>
        <time>2022-05-08T08:49:53Z</time>
      </trkpt>
      <trkpt lat="44.96039" lon="0.52809">
        <ele>152.8</ele>
        <time>2022-05-08T08:49:58Z</time>
      </trkpt>
      <trkpt lat="44.9601" lon="0.52807">
        <ele>150.9</ele>
        <time>2022-05-08T08:50:02Z</time>
      </trkpt>
      <trkpt lat="44.96004" lon="0.52805">
        <ele>150.2</ele>
        <time>2022-05-08T08:50:03Z</time>
      </trkpt>
      <trkpt lat="44.95997" lon="0.52802">
        <ele>149.4</ele>
        <time>2022-05-08T08:50:04Z</time>
      </trkpt>
      <trkpt lat="44.95985" lon="0.52793">
        <ele>149</ele>
        <time>2022-05-08T08:50:06Z</time>
      </trkpt>
      <trkpt lat="44.95979" lon="0.52791">
        <ele>148.9</ele>
        <time>2022-05-08T08:50:07Z</time>
      </trkpt>
      <trkpt lat="44.95965" lon="0.52791">
        <ele>148.5</ele>
        <time>2022-05-08T08:50:09Z</time>
      </trkpt>
      <trkpt lat="44.95938" lon="0.52796">
        <ele>147.7</ele>
        <time>2022-05-08T08:50:12Z</time>
      </trkpt>
      <trkpt lat="44.95896" lon="0.52808">
        <ele>146.7</ele>
        <time>2022-05-08T08:50:16Z</time>
      </trkpt>
      <trkpt lat="44.95855" lon="0.52823">
        <ele>145.9</ele>
        <time>2022-05-08T08:50:20Z</time>
      </trkpt>
      <trkpt lat="44.95807" lon="0.52842">
        <ele>145.2</ele>
        <time>2022-05-08T08:50:25Z</time>
      </trkpt>
      <trkpt lat="44.95751" lon="0.52862">
        <ele>143</ele>
        <time>2022-05-08T08:50:31Z</time>
      </trkpt>
      <trkpt lat="44.95742" lon="0.52866">
        <ele>142.7</ele>
        <time>2022-05-08T08:50:32Z</time>
      </trkpt>
      <trkpt lat="44.95689" lon="0.52888">
        <ele>141.1</ele>
        <time>2022-05-08T08:50:38Z</time>
      </trkpt>
      <trkpt lat="44.95681" lon="0.52892">
        <ele>140.8</ele>
        <time>2022-05-08T08:50:39Z</time>
      </trkpt>
      <trkpt lat="44.95637" lon="0.52907">
        <ele>138.8</ele>
        <time>2022-05-08T08:50:44Z</time>
      </trkpt>
      <trkpt lat="44.95602" lon="0.52924">
        <ele>136.1</ele>
        <time>2022-05-08T08:50:48Z</time>
      </trkpt>
      <trkpt lat="44.95593" lon="0.52929">
        <ele>135.2</ele>
        <time>2022-05-08T08:50:49Z</time>
      </trkpt>
      <trkpt lat="44.95572" lon="0.52931">
        <ele>133.4</ele>
        <time>2022-05-08T08:50:51Z</time>
      </trkpt>
      <trkpt lat="44.95561" lon="0.52931">
        <ele>132.6</ele>
        <time>2022-05-08T08:50:52Z</time>
      </trkpt>
      <trkpt lat="44.95527" lon="0.52929">
        <ele>130.8</ele>
        <time>2022-05-08T08:50:55Z</time>
      </trkpt>
      <trkpt lat="44.95473" lon="0.52925">
        <ele>128.4</ele>
        <time>2022-05-08T08:51:00Z</time>
      </trkpt>
      <trkpt lat="44.95464" lon="0.52923">
        <ele>127.9</ele>
        <time>2022-05-08T08:51:01Z</time>
      </trkpt>
      <trkpt lat="44.95409" lon="0.52916">
        <ele>125.2</ele>
        <time>2022-05-08T08:51:07Z</time>
      </trkpt>
      <trkpt lat="44.95347" lon="0.52904">
        <ele>121.2</ele>
        <time>2022-05-08T08:51:14Z</time>
      </trkpt>
      <trkpt lat="44.95331" lon="0.52899">
        <ele>119.7</ele>
        <time>2022-05-08T08:51:16Z</time>
      </trkpt>
      <trkpt lat="44.9532" lon="0.52887">
        <ele>118.7</ele>
        <time>2022-05-08T08:51:18Z</time>
      </trkpt>
      <trkpt lat="44.95309" lon="0.52852">
        <ele>117.6</ele>
        <time>2022-05-08T08:51:21Z</time>
      </trkpt>
      <trkpt lat="44.95299" lon="0.52814">
        <ele>117.4</ele>
        <time>2022-05-08T08:51:24Z</time>
      </trkpt>
      <trkpt lat="44.95293" lon="0.52805">
        <ele>117.5</ele>
        <time>2022-05-08T08:51:25Z</time>
      </trkpt>
      <trkpt lat="44.95286" lon="0.52797">
        <ele>117.7</ele>
        <time>2022-05-08T08:51:26Z</time>
      </trkpt>
      <trkpt lat="44.95271" lon="0.52785">
        <ele>118.5</ele>
        <time>2022-05-08T08:51:28Z</time>
      </trkpt>
      <trkpt lat="44.95247" lon="0.52768">
        <ele>121.2</ele>
        <time>2022-05-08T08:51:32Z</time>
      </trkpt>
      <trkpt lat="44.95235" lon="0.5276">
        <ele>123.2</ele>
        <time>2022-05-08T08:51:36Z</time>
      </trkpt>
      <trkpt lat="44.95224" lon="0.52751">
        <ele>125</ele>
        <time>2022-05-08T08:51:43Z</time>
      </trkpt>
      <trkpt lat="44.95215" lon="0.5274">
        <ele>126.6</ele>
        <time>2022-05-08T08:51:50Z</time>
      </trkpt>
      <trkpt lat="44.9521" lon="0.52725">
        <ele>128.3</ele>
        <time>2022-05-08T08:51:57Z</time>
      </trkpt>
      <trkpt lat="44.95209" lon="0.52712">
        <ele>128.9</ele>
        <time>2022-05-08T08:52:02Z</time>
      </trkpt>
      <trkpt lat="44.95209" lon="0.52694">
        <ele>129.6</ele>
        <time>2022-05-08T08:52:09Z</time>
      </trkpt>
      <trkpt lat="44.95208" lon="0.52667">
        <ele>130.6</ele>
        <time>2022-05-08T08:52:18Z</time>
      </trkpt>
      <trkpt lat="44.95207" lon="0.52642">
        <ele>131.3</ele>
        <time>2022-05-08T08:52:25Z</time>
      </trkpt>
      <trkpt lat="44.95206" lon="0.52615">
        <ele>132.2</ele>
        <time>2022-05-08T08:52:32Z</time>
      </trkpt>
      <trkpt lat="44.95208" lon="0.52592">
        <ele>133.5</ele>
        <time>2022-05-08T08:52:38Z</time>
      </trkpt>
      <trkpt lat="44.95209" lon="0.52571">
        <ele>134.7</ele>
        <time>2022-05-08T08:52:45Z</time>
      </trkpt>
      <trkpt lat="44.95208" lon="0.52554">
        <ele>136.1</ele>
        <time>2022-05-08T08:52:51Z</time>
      </trkpt>
      <trkpt lat="44.95209" lon="0.52547">
        <ele>135.7</ele>
        <time>2022-05-08T08:52:52Z</time>
      </trkpt>
      <trkpt lat="44.95221" lon="0.52546">
        <ele>135</ele>
        <time>2022-05-08T08:52:57Z</time>
      </trkpt>
      <trkpt lat="44.95228" lon="0.52546">
        <ele>134.6</ele>
        <time>2022-05-08T08:52:59Z</time>
      </trkpt>
      <trkpt lat="44.95236" lon="0.52544">
        <ele>134.2</ele>
        <time>2022-05-08T08:53:01Z</time>
      </trkpt>
      <trkpt lat="44.95243" lon="0.52536">
        <ele>133.8</ele>
        <time>2022-05-08T08:53:03Z</time>
      </trkpt>
      <trkpt lat="44.95246" lon="0.5253">
        <ele>133.6</ele>
        <time>2022-05-08T08:53:04Z</time>
      </trkpt>
      <trkpt lat="44.95249" lon="0.52524">
        <ele>133.5</ele>
        <time>2022-05-08T08:53:05Z</time>
      </trkpt>
      <trkpt lat="44.95256" lon="0.52506">
        <ele>133.3</ele>
        <time>2022-05-08T08:53:08Z</time>
      </trkpt>
      <trkpt lat="44.95266" lon="0.52473">
        <ele>133.2</ele>
        <time>2022-05-08T08:53:13Z</time>
      </trkpt>
      <trkpt lat="44.95268" lon="0.52466">
        <ele>133.1</ele>
        <time>2022-05-08T08:53:14Z</time>
      </trkpt>
      <trkpt lat="44.95275" lon="0.52445">
        <ele>132.6</ele>
        <time>2022-05-08T08:53:17Z</time>
      </trkpt>
      <trkpt lat="44.95278" lon="0.52438">
        <ele>132.3</ele>
        <time>2022-05-08T08:53:18Z</time>
      </trkpt>
      <trkpt lat="44.95303" lon="0.52403">
        <ele>129.8</ele>
        <time>2022-05-08T08:53:23Z</time>
      </trkpt>
      <trkpt lat="44.95341" lon="0.52357">
        <ele>127.4</ele>
        <time>2022-05-08T08:53:29Z</time>
      </trkpt>
      <trkpt lat="44.95382" lon="0.52317">
        <ele>126.5</ele>
        <time>2022-05-08T08:53:35Z</time>
      </trkpt>
      <trkpt lat="44.95416" lon="0.52286">
        <ele>126.4</ele>
        <time>2022-05-08T08:53:40Z</time>
      </trkpt>
      <trkpt lat="44.95422" lon="0.5228">
        <ele>126.6</ele>
        <time>2022-05-08T08:53:41Z</time>
      </trkpt>
      <trkpt lat="44.95426" lon="0.52272">
        <ele>126.7</ele>
        <time>2022-05-08T08:53:42Z</time>
      </trkpt>
      <trkpt lat="44.95429" lon="0.52255">
        <ele>126.8</ele>
        <time>2022-05-08T08:53:44Z</time>
      </trkpt>
      <trkpt lat="44.95444" lon="0.52228">
        <ele>127.2</ele>
        <time>2022-05-08T08:53:48Z</time>
      </trkpt>
      <trkpt lat="44.95464" lon="0.52201">
        <ele>127.6</ele>
        <time>2022-05-08T08:53:53Z</time>
      </trkpt>
      <trkpt lat="44.95468" lon="0.52196">
        <ele>127.7</ele>
        <time>2022-05-08T08:53:54Z</time>
      </trkpt>
      <trkpt lat="44.95489" lon="0.5217">
        <ele>128.3</ele>
        <time>2022-05-08T08:53:59Z</time>
      </trkpt>
      <trkpt lat="44.95493" lon="0.52166">
        <ele>128.6</ele>
        <time>2022-05-08T08:54:00Z</time>
      </trkpt>
      <trkpt lat="44.95496" lon="0.52161">
        <ele>128.8</ele>
        <time>2022-05-08T08:54:01Z</time>
      </trkpt>
      <trkpt lat="44.95503" lon="0.52153">
        <ele>129.2</ele>
        <time>2022-05-08T08:54:03Z</time>
      </trkpt>
      <trkpt lat="44.95507" lon="0.52149">
        <ele>129.4</ele>
        <time>2022-05-08T08:54:04Z</time>
      </trkpt>
      <trkpt lat="44.95524" lon="0.52139">
        <ele>129.4</ele>
        <time>2022-05-08T08:54:08Z</time>
      </trkpt>
      <trkpt lat="44.95549" lon="0.5213">
        <ele>128.1</ele>
        <time>2022-05-08T08:54:12Z</time>
      </trkpt>
      <trkpt lat="44.95556" lon="0.52129">
        <ele>127.6</ele>
        <time>2022-05-08T08:54:13Z</time>
      </trkpt>
      <trkpt lat="44.95571" lon="0.52128">
        <ele>126.8</ele>
        <time>2022-05-08T08:54:15Z</time>
      </trkpt>
      <trkpt lat="44.95593" lon="0.52133">
        <ele>126</ele>
        <time>2022-05-08T08:54:18Z</time>
      </trkpt>
      <trkpt lat="44.95626" lon="0.52147">
        <ele>126.8</ele>
        <time>2022-05-08T08:54:23Z</time>
      </trkpt>
      <trkpt lat="44.95631" lon="0.52148">
        <ele>127.2</ele>
        <time>2022-05-08T08:54:24Z</time>
      </trkpt>
      <trkpt lat="44.95639" lon="0.5215">
        <ele>128.2</ele>
        <time>2022-05-08T08:54:26Z</time>
      </trkpt>
      <trkpt lat="44.95651" lon="0.52147">
        <ele>130</ele>
        <time>2022-05-08T08:54:30Z</time>
      </trkpt>
      <trkpt lat="44.95669" lon="0.52135">
        <ele>133</ele>
        <time>2022-05-08T08:54:40Z</time>
      </trkpt>
      <trkpt lat="44.95682" lon="0.52128">
        <ele>135</ele>
        <time>2022-05-08T08:54:48Z</time>
      </trkpt>
      <trkpt lat="44.95695" lon="0.52127">
        <ele>136.7</ele>
        <time>2022-05-08T08:54:55Z</time>
      </trkpt>
      <trkpt lat="44.95709" lon="0.52126">
        <ele>137.9</ele>
        <time>2022-05-08T08:55:02Z</time>
      </trkpt>
      <trkpt lat="44.95724" lon="0.52125">
        <ele>139.1</ele>
        <time>2022-05-08T08:55:08Z</time>
      </trkpt>
      <trkpt lat="44.95737" lon="0.52121">
        <ele>139.9</ele>
        <time>2022-05-08T08:55:14Z</time>
      </trkpt>
      <trkpt lat="44.9575" lon="0.52118">
        <ele>140.6</ele>
        <time>2022-05-08T08:55:20Z</time>
      </trkpt>
      <trkpt lat="44.95764" lon="0.52114">
        <ele>141.2</ele>
        <time>2022-05-08T08:55:26Z</time>
      </trkpt>
      <trkpt lat="44.95779" lon="0.5211">
        <ele>142.2</ele>
        <time>2022-05-08T08:55:33Z</time>
      </trkpt>
      <trkpt lat="44.95794" lon="0.52106">
        <ele>143.2</ele>
        <time>2022-05-08T08:55:39Z</time>
      </trkpt>
      <trkpt lat="44.95806" lon="0.52104">
        <ele>143.8</ele>
        <time>2022-05-08T08:55:44Z</time>
      </trkpt>
      <trkpt lat="44.95825" lon="0.52102">
        <ele>144.4</ele>
        <time>2022-05-08T08:55:51Z</time>
      </trkpt>
      <trkpt lat="44.95843" lon="0.52099">
        <ele>144.6</ele>
        <time>2022-05-08T08:55:57Z</time>
      </trkpt>
      <trkpt lat="44.95857" lon="0.52095">
        <ele>144.6</ele>
        <time>2022-05-08T08:56:01Z</time>
      </trkpt>
      <trkpt lat="44.95879" lon="0.52087">
        <ele>144.5</ele>
        <time>2022-05-08T08:56:07Z</time>
      </trkpt>
      <trkpt lat="44.95895" lon="0.52083">
        <ele>144.3</ele>
        <time>2022-05-08T08:56:11Z</time>
      </trkpt>
      <trkpt lat="44.95904" lon="0.52081">
        <ele>144.2</ele>
        <time>2022-05-08T08:56:13Z</time>
      </trkpt>
      <trkpt lat="44.95912" lon="0.5208">
        <ele>144.2</ele>
        <time>2022-05-08T08:56:15Z</time>
      </trkpt>
      <trkpt lat="44.95929" lon="0.52077">
        <ele>144</ele>
        <time>2022-05-08T08:56:18Z</time>
      </trkpt>
      <trkpt lat="44.95942" lon="0.52075">
        <ele>144.1</ele>
        <time>2022-05-08T08:56:21Z</time>
      </trkpt>
      <trkpt lat="44.95946" lon="0.52075">
        <ele>144.1</ele>
        <time>2022-05-08T08:56:22Z</time>
      </trkpt>
      <trkpt lat="44.95966" lon="0.52071">
        <ele>144.7</ele>
        <time>2022-05-08T08:56:27Z</time>
      </trkpt>
      <trkpt lat="44.95987" lon="0.52068">
        <ele>145.4</ele>
        <time>2022-05-08T08:56:32Z</time>
      </trkpt>
      <trkpt lat="44.96007" lon="0.52064">
        <ele>146.2</ele>
        <time>2022-05-08T08:56:37Z</time>
      </trkpt>
      <trkpt lat="44.96028" lon="0.52061">
        <ele>147.6</ele>
        <time>2022-05-08T08:56:42Z</time>
      </trkpt>
      <trkpt lat="44.96055" lon="0.52061">
        <ele>149.6</ele>
        <time>2022-05-08T08:56:49Z</time>
      </trkpt>
      <trkpt lat="44.96081" lon="0.52061">
        <ele>151.2</ele>
        <time>2022-05-08T08:56:56Z</time>
      </trkpt>
      <trkpt lat="44.96106" lon="0.52065">
        <ele>152.4</ele>
        <time>2022-05-08T08:57:03Z</time>
      </trkpt>
      <trkpt lat="44.96126" lon="0.5207">
        <ele>153.4</ele>
        <time>2022-05-08T08:57:09Z</time>
      </trkpt>
      <trkpt lat="44.96145" lon="0.52075">
        <ele>154.4</ele>
        <time>2022-05-08T08:57:15Z</time>
      </trkpt>
      <trkpt lat="44.96161" lon="0.5208">
        <ele>155.3</ele>
        <time>2022-05-08T08:57:20Z</time>
      </trkpt>
      <trkpt lat="44.96178" lon="0.52086">
        <ele>156.3</ele>
        <time>2022-05-08T08:57:25Z</time>
      </trkpt>
      <trkpt lat="44.96195" lon="0.52099">
        <ele>157.3</ele>
        <time>2022-05-08T08:57:31Z</time>
      </trkpt>
      <trkpt lat="44.96207" lon="0.52111">
        <ele>158.6</ele>
        <time>2022-05-08T08:57:36Z</time>
      </trkpt>
      <trkpt lat="44.96217" lon="0.52118">
        <ele>159.6</ele>
        <time>2022-05-08T08:57:40Z</time>
      </trkpt>
      <trkpt lat="44.96219" lon="0.5212">
        <ele>159.8</ele>
        <time>2022-05-08T08:57:41Z</time>
      </trkpt>
      <trkpt lat="44.96231" lon="0.52129">
        <ele>160.6</ele>
        <time>2022-05-08T08:57:46Z</time>
      </trkpt>
      <trkpt lat="44.96245" lon="0.52138">
        <ele>161.3</ele>
        <time>2022-05-08T08:57:52Z</time>
      </trkpt>
      <trkpt lat="44.9626" lon="0.52145">
        <ele>162</ele>
        <time>2022-05-08T08:57:58Z</time>
      </trkpt>
      <trkpt lat="44.96278" lon="0.52154">
        <ele>163.3</ele>
        <time>2022-05-08T08:58:05Z</time>
      </trkpt>
      <trkpt lat="44.9629" lon="0.52161">
        <ele>164</ele>
        <time>2022-05-08T08:58:10Z</time>
      </trkpt>
      <trkpt lat="44.96306" lon="0.52166">
        <ele>164.6</ele>
        <time>2022-05-08T08:58:16Z</time>
      </trkpt>
      <trkpt lat="44.96326" lon="0.52171">
        <ele>165.7</ele>
        <time>2022-05-08T08:58:23Z</time>
      </trkpt>
      <trkpt lat="44.96346" lon="0.52172">
        <ele>166.9</ele>
        <time>2022-05-08T08:58:30Z</time>
      </trkpt>
      <trkpt lat="44.9636" lon="0.52173">
        <ele>167.3</ele>
        <time>2022-05-08T08:58:35Z</time>
      </trkpt>
      <trkpt lat="44.96379" lon="0.52173">
        <ele>167.9</ele>
        <time>2022-05-08T08:58:42Z</time>
      </trkpt>
      <trkpt lat="44.96401" lon="0.52174">
        <ele>168.7</ele>
        <time>2022-05-08T08:58:50Z</time>
      </trkpt>
      <trkpt lat="44.96417" lon="0.52173">
        <ele>169.5</ele>
        <time>2022-05-08T08:58:56Z</time>
      </trkpt>
      <trkpt lat="44.96438" lon="0.52166">
        <ele>170.4</ele>
        <time>2022-05-08T08:59:04Z</time>
      </trkpt>
      <trkpt lat="44.9646" lon="0.52151">
        <ele>171.6</ele>
        <time>2022-05-08T08:59:13Z</time>
      </trkpt>
      <trkpt lat="44.96474" lon="0.52138">
        <ele>172.7</ele>
        <time>2022-05-08T08:59:20Z</time>
      </trkpt>
      <trkpt lat="44.96486" lon="0.52129">
        <ele>173.6</ele>
        <time>2022-05-08T08:59:26Z</time>
      </trkpt>
      <trkpt lat="44.96487" lon="0.52128">
        <ele>173.7</ele>
        <time>2022-05-08T08:59:27Z</time>
      </trkpt>
      <trkpt lat="44.96502" lon="0.52119">
        <ele>174.7</ele>
        <time>2022-05-08T08:59:34Z</time>
      </trkpt>
      <trkpt lat="44.96519" lon="0.52108">
        <ele>175.5</ele>
        <time>2022-05-08T08:59:41Z</time>
      </trkpt>
      <trkpt lat="44.96534" lon="0.52099">
        <ele>176.1</ele>
        <time>2022-05-08T08:59:47Z</time>
      </trkpt>
      <trkpt lat="44.96539" lon="0.52097">
        <ele>176.3</ele>
        <time>2022-05-08T08:59:49Z</time>
      </trkpt>
      <trkpt lat="44.96544" lon="0.52095">
        <ele>176.5</ele>
        <time>2022-05-08T08:59:51Z</time>
      </trkpt>
      <trkpt lat="44.96556" lon="0.52089">
        <ele>176.8</ele>
        <time>2022-05-08T08:59:55Z</time>
      </trkpt>
      <trkpt lat="44.96581" lon="0.52077">
        <ele>177.3</ele>
        <time>2022-05-08T09:00:03Z</time>
      </trkpt>
      <trkpt lat="44.96601" lon="0.52069">
        <ele>177.6</ele>
        <time>2022-05-08T09:00:09Z</time>
      </trkpt>
      <trkpt lat="44.96619" lon="0.52065">
        <ele>178</ele>
        <time>2022-05-08T09:00:15Z</time>
      </trkpt>
      <trkpt lat="44.96639" lon="0.5206">
        <ele>178.6</ele>
        <time>2022-05-08T09:00:22Z</time>
      </trkpt>
      <trkpt lat="44.9666" lon="0.52055">
        <ele>179.3</ele>
        <time>2022-05-08T09:00:29Z</time>
      </trkpt>
      <trkpt lat="44.96679" lon="0.5205">
        <ele>180.2</ele>
        <time>2022-05-08T09:00:36Z</time>
      </trkpt>
      <trkpt lat="44.96683" lon="0.52049">
        <ele>180.4</ele>
        <time>2022-05-08T09:00:38Z</time>
      </trkpt>
      <trkpt lat="44.96688" lon="0.52054">
        <ele>180.7</ele>
        <time>2022-05-08T09:00:40Z</time>
      </trkpt>
      <trkpt lat="44.9669" lon="0.52065">
        <ele>180.7</ele>
        <time>2022-05-08T09:00:43Z</time>
      </trkpt>
      <trkpt lat="44.96693" lon="0.52082">
        <ele>180.8</ele>
        <time>2022-05-08T09:00:49Z</time>
      </trkpt>
      <trkpt lat="44.96694" lon="0.52093">
        <ele>180.8</ele>
        <time>2022-05-08T09:00:53Z</time>
      </trkpt>
      <trkpt lat="44.96695" lon="0.52096">
        <ele>180.8</ele>
        <time>2022-05-08T09:00:54Z</time>
      </trkpt>
      <trkpt lat="44.96696" lon="0.52109">
        <ele>180.9</ele>
        <time>2022-05-08T09:00:58Z</time>
      </trkpt>
      <trkpt lat="44.96696" lon="0.52112">
        <ele>180.9</ele>
        <time>2022-05-08T09:00:59Z</time>
      </trkpt>
      <trkpt lat="44.96694" lon="0.52121">
        <ele>180.9</ele>
        <time>2022-05-08T09:01:02Z</time>
      </trkpt>
      <trkpt lat="44.96689" lon="0.52139">
        <ele>181.1</ele>
        <time>2022-05-08T09:01:07Z</time>
      </trkpt>
      <trkpt lat="44.96688" lon="0.52146">
        <ele>181.2</ele>
        <time>2022-05-08T09:01:09Z</time>
      </trkpt>
      <trkpt lat="44.96687" lon="0.5215">
        <ele>181.2</ele>
        <time>2022-05-08T09:01:10Z</time>
      </trkpt>
      <trkpt lat="44.96684" lon="0.52162">
        <ele>181.4</ele>
        <time>2022-05-08T09:01:14Z</time>
      </trkpt>
      <trkpt lat="44.96683" lon="0.52166">
        <ele>181.4</ele>
        <time>2022-05-08T09:01:15Z</time>
      </trkpt>
      <trkpt lat="44.96688" lon="0.52182">
        <ele>181.4</ele>
        <time>2022-05-08T09:01:18Z</time>
      </trkpt>
      <trkpt lat="44.96689" lon="0.52183">
        <ele>181.4</ele>
        <time>2022-05-08T09:01:19Z</time>
      </trkpt>
      <trkpt lat="44.96701" lon="0.52188">
        <ele>181.4</ele>
        <time>2022-05-08T09:01:25Z</time>
      </trkpt>
      <trkpt lat="44.96713" lon="0.52193">
        <ele>181.4</ele>
        <time>2022-05-08T09:01:30Z</time>
      </trkpt>
      <trkpt lat="44.96728" lon="0.52199">
        <ele>181.4</ele>
        <time>2022-05-08T09:01:35Z</time>
      </trkpt>
      <trkpt lat="44.96748" lon="0.5221">
        <ele>181.2</ele>
        <time>2022-05-08T09:01:41Z</time>
      </trkpt>
      <trkpt lat="44.96755" lon="0.52214">
        <ele>181</ele>
        <time>2022-05-08T09:01:46Z</time>
      </trkpt>
      <trkpt lat="44.96762" lon="0.52218">
        <ele>180.8</ele>
        <time>2022-05-08T09:02:18Z</time>
      </trkpt>
      <trkpt lat="44.96766" lon="0.5222">
        <ele>180.6</ele>
        <time>2022-05-08T09:02:20Z</time>
      </trkpt>
      <trkpt lat="44.96776" lon="0.52226">
        <ele>180.3</ele>
        <time>2022-05-08T09:02:23Z</time>
      </trkpt>
      <trkpt lat="44.9678" lon="0.52228">
        <ele>180.1</ele>
        <time>2022-05-08T09:02:24Z</time>
      </trkpt>
      <trkpt lat="44.96784" lon="0.5223">
        <ele>180</ele>
        <time>2022-05-08T09:02:25Z</time>
      </trkpt>
      <trkpt lat="44.96796" lon="0.52237">
        <ele>179.7</ele>
        <time>2022-05-08T09:02:28Z</time>
      </trkpt>
      <trkpt lat="44.96809" lon="0.52244">
        <ele>179.2</ele>
        <time>2022-05-08T09:02:31Z</time>
      </trkpt>
      <trkpt lat="44.96818" lon="0.5225">
        <ele>178.8</ele>
        <time>2022-05-08T09:02:33Z</time>
      </trkpt>
      <trkpt lat="44.96823" lon="0.52253">
        <ele>178.5</ele>
        <time>2022-05-08T09:02:34Z</time>
      </trkpt>
      <trkpt lat="44.96834" lon="0.52262">
        <ele>177.8</ele>
        <time>2022-05-08T09:02:36Z</time>
      </trkpt>
      <trkpt lat="44.9684" lon="0.52275">
        <ele>177.1</ele>
        <time>2022-05-08T09:02:38Z</time>
      </trkpt>
      <trkpt lat="44.96841" lon="0.5228">
        <ele>176.8</ele>
        <time>2022-05-08T09:02:39Z</time>
      </trkpt>
      <trkpt lat="44.9684" lon="0.52288">
        <ele>176.5</ele>
        <time>2022-05-08T09:02:40Z</time>
      </trkpt>
      <trkpt lat="44.96837" lon="0.52298">
        <ele>176.2</ele>
        <time>2022-05-08T09:02:43Z</time>
      </trkpt>
      <trkpt lat="44.96835" lon="0.52307">
        <ele>176</ele>
        <time>2022-05-08T09:02:47Z</time>
      </trkpt>
      <trkpt lat="44.96835" lon="0.52307">
        <ele>176</ele>
        <time>2022-05-08T09:02:48Z</time>
      </trkpt>
      <trkpt lat="44.96835" lon="0.52307">
        <ele>176</ele>
        <time>2022-05-08T09:02:49Z</time>
      </trkpt>
      <trkpt lat="44.96836" lon="0.52323">
        <ele>175.7</ele>
        <time>2022-05-08T09:03:00Z</time>
      </trkpt>
      <trkpt lat="44.96836" lon="0.52323">
        <ele>175.7</ele>
        <time>2022-05-08T09:03:01Z</time>
      </trkpt>
      <trkpt lat="44.96848" lon="0.52347">
        <ele>175.1</ele>
        <time>2022-05-08T09:03:05Z</time>
      </trkpt>
      <trkpt lat="44.96876" lon="0.52383">
        <ele>173.9</ele>
        <time>2022-05-08T09:03:13Z</time>
      </trkpt>
      <trkpt lat="44.96879" lon="0.52386">
        <ele>173.7</ele>
        <time>2022-05-08T09:03:14Z</time>
      </trkpt>
      <trkpt lat="44.96886" lon="0.52393">
        <ele>173.3</ele>
        <time>2022-05-08T09:03:16Z</time>
      </trkpt>
      <trkpt lat="44.96889" lon="0.52395">
        <ele>173.1</ele>
        <time>2022-05-08T09:03:17Z</time>
      </trkpt>
      <trkpt lat="44.96911" lon="0.52412">
        <ele>172</ele>
        <time>2022-05-08T09:03:23Z</time>
      </trkpt>
      <trkpt lat="44.9692" lon="0.52418">
        <ele>171.7</ele>
        <time>2022-05-08T09:03:25Z</time>
      </trkpt>
      <trkpt lat="44.96933" lon="0.52429">
        <ele>171.3</ele>
        <time>2022-05-08T09:03:28Z</time>
      </trkpt>
      <trkpt lat="44.96959" lon="0.5246">
        <ele>170</ele>
        <time>2022-05-08T09:03:34Z</time>
      </trkpt>
      <trkpt lat="44.96967" lon="0.52472">
        <ele>169.5</ele>
        <time>2022-05-08T09:03:36Z</time>
      </trkpt>
      <trkpt lat="44.96981" lon="0.52491">
        <ele>168.7</ele>
        <time>2022-05-08T09:03:39Z</time>
      </trkpt>
      <trkpt lat="44.96986" lon="0.52496">
        <ele>168.4</ele>
        <time>2022-05-08T09:03:40Z</time>
      </trkpt>
      <trkpt lat="44.96986" lon="0.52496">
        <ele>168.4</ele>
        <time>2022-05-08T09:03:41Z</time>
      </trkpt>
      <trkpt lat="44.97005" lon="0.52506">
        <ele>168</ele>
        <time>2022-05-08T09:03:44Z</time>
      </trkpt>
      <trkpt lat="44.97011" lon="0.52509">
        <ele>167.7</ele>
        <time>2022-05-08T09:03:45Z</time>
      </trkpt>
      <trkpt lat="44.97021" lon="0.52519">
        <ele>167</ele>
        <time>2022-05-08T09:03:48Z</time>
      </trkpt>
      <trkpt lat="44.97028" lon="0.52521">
        <ele>166.4</ele>
        <time>2022-05-08T09:03:50Z</time>
      </trkpt>
      <trkpt lat="44.97031" lon="0.52514">
        <ele>166.3</ele>
        <time>2022-05-08T09:03:52Z</time>
      </trkpt>
      <trkpt lat="44.97035" lon="0.52504">
        <ele>166</ele>
        <time>2022-05-08T09:03:54Z</time>
      </trkpt>
      <trkpt lat="44.9704" lon="0.52492">
        <ele>165.7</ele>
        <time>2022-05-08T09:03:56Z</time>
      </trkpt>
      <trkpt lat="44.97049" lon="0.52465">
        <ele>164.5</ele>
        <time>2022-05-08T09:04:00Z</time>
      </trkpt>
      <trkpt lat="44.97056" lon="0.52454">
        <ele>163.8</ele>
        <time>2022-05-08T09:04:02Z</time>
      </trkpt>
      <trkpt lat="44.97061" lon="0.52453">
        <ele>163.4</ele>
        <time>2022-05-08T09:04:03Z</time>
      </trkpt>
      <trkpt lat="44.97071" lon="0.52462">
        <ele>163.1</ele>
        <time>2022-05-08T09:04:05Z</time>
      </trkpt>
      <trkpt lat="44.97097" lon="0.52492">
        <ele>162.9</ele>
        <time>2022-05-08T09:04:10Z</time>
      </trkpt>
      <trkpt lat="44.9712" lon="0.52514">
        <ele>161.7</ele>
        <time>2022-05-08T09:04:14Z</time>
      </trkpt>
      <trkpt lat="44.97125" lon="0.52519">
        <ele>161.4</ele>
        <time>2022-05-08T09:04:15Z</time>
      </trkpt>
      <trkpt lat="44.97157" lon="0.52537">
        <ele>159.6</ele>
        <time>2022-05-08T09:04:21Z</time>
      </trkpt>
      <trkpt lat="44.97186" lon="0.52553">
        <ele>157.8</ele>
        <time>2022-05-08T09:04:26Z</time>
      </trkpt>
      <trkpt lat="44.97226" lon="0.52578">
        <ele>154.8</ele>
        <time>2022-05-08T09:04:32Z</time>
      </trkpt>
      <trkpt lat="44.97257" lon="0.52591">
        <ele>152.1</ele>
        <time>2022-05-08T09:04:36Z</time>
      </trkpt>
      <trkpt lat="44.97265" lon="0.52592">
        <ele>151.3</ele>
        <time>2022-05-08T09:04:37Z</time>
      </trkpt>
      <trkpt lat="44.97283" lon="0.52595">
        <ele>149.7</ele>
        <time>2022-05-08T09:04:39Z</time>
      </trkpt>
      <trkpt lat="44.973" lon="0.52595">
        <ele>147.6</ele>
        <time>2022-05-08T09:04:41Z</time>
      </trkpt>
      <trkpt lat="44.97351" lon="0.52563">
        <ele>143.1</ele>
        <time>2022-05-08T09:04:47Z</time>
      </trkpt>
      <trkpt lat="44.9736" lon="0.52558">
        <ele>142.5</ele>
        <time>2022-05-08T09:04:48Z</time>
      </trkpt>
      <trkpt lat="44.97385" lon="0.52542">
        <ele>140.7</ele>
        <time>2022-05-08T09:04:51Z</time>
      </trkpt>
      <trkpt lat="44.97392" lon="0.52538">
        <ele>140.4</ele>
        <time>2022-05-08T09:04:52Z</time>
      </trkpt>
      <trkpt lat="44.97408" lon="0.52522">
        <ele>139.5</ele>
        <time>2022-05-08T09:04:55Z</time>
      </trkpt>
      <trkpt lat="44.97436" lon="0.52494">
        <ele>138.3</ele>
        <time>2022-05-08T09:05:00Z</time>
      </trkpt>
      <trkpt lat="44.97451" lon="0.52477">
        <ele>137.8</ele>
        <time>2022-05-08T09:05:03Z</time>
      </trkpt>
      <trkpt lat="44.97455" lon="0.52472">
        <ele>137.7</ele>
        <time>2022-05-08T09:05:04Z</time>
      </trkpt>
      <trkpt lat="44.97466" lon="0.52457">
        <ele>137.4</ele>
        <time>2022-05-08T09:05:07Z</time>
      </trkpt>
      <trkpt lat="44.97475" lon="0.52446">
        <ele>137.2</ele>
        <time>2022-05-08T09:05:09Z</time>
      </trkpt>
      <trkpt lat="44.9748" lon="0.52441">
        <ele>137.1</ele>
        <time>2022-05-08T09:05:10Z</time>
      </trkpt>
      <trkpt lat="44.97489" lon="0.52418">
        <ele>136.9</ele>
        <time>2022-05-08T09:05:13Z</time>
      </trkpt>
      <trkpt lat="44.97495" lon="0.52405">
        <ele>137</ele>
        <time>2022-05-08T09:05:15Z</time>
      </trkpt>
      <trkpt lat="44.97502" lon="0.52394">
        <ele>137</ele>
        <time>2022-05-08T09:05:17Z</time>
      </trkpt>
      <trkpt lat="44.97513" lon="0.52378">
        <ele>137</ele>
        <time>2022-05-08T09:05:20Z</time>
      </trkpt>
      <trkpt lat="44.97517" lon="0.52377">
        <ele>137.1</ele>
        <time>2022-05-08T09:05:21Z</time>
      </trkpt>
      <trkpt lat="44.97521" lon="0.52375">
        <ele>137</ele>
        <time>2022-05-08T09:05:22Z</time>
      </trkpt>
      <trkpt lat="44.97532" lon="0.52372">
        <ele>136.9</ele>
        <time>2022-05-08T09:05:25Z</time>
      </trkpt>
      <trkpt lat="44.97548" lon="0.52372">
        <ele>136.6</ele>
        <time>2022-05-08T09:05:29Z</time>
      </trkpt>
      <trkpt lat="44.97553" lon="0.52372">
        <ele>136.6</ele>
        <time>2022-05-08T09:05:30Z</time>
      </trkpt>
      <trkpt lat="44.97567" lon="0.52381">
        <ele>136.2</ele>
        <time>2022-05-08T09:05:33Z</time>
      </trkpt>
      <trkpt lat="44.97585" lon="0.52389">
        <ele>135.6</ele>
        <time>2022-05-08T09:05:36Z</time>
      </trkpt>
      <trkpt lat="44.97621" lon="0.52384">
        <ele>134.4</ele>
        <time>2022-05-08T09:05:42Z</time>
      </trkpt>
      <trkpt lat="44.97662" lon="0.5237">
        <ele>133.7</ele>
        <time>2022-05-08T09:05:49Z</time>
      </trkpt>
      <trkpt lat="44.97674" lon="0.52365">
        <ele>133.6</ele>
        <time>2022-05-08T09:05:51Z</time>
      </trkpt>
      <trkpt lat="44.97685" lon="0.52362">
        <ele>133.3</ele>
        <time>2022-05-08T09:05:53Z</time>
      </trkpt>
      <trkpt lat="44.97693" lon="0.5236">
        <ele>132.9</ele>
        <time>2022-05-08T09:05:55Z</time>
      </trkpt>
      <trkpt lat="44.97697" lon="0.5236">
        <ele>132.6</ele>
        <time>2022-05-08T09:05:56Z</time>
      </trkpt>
      <trkpt lat="44.97701" lon="0.52359">
        <ele>132.2</ele>
        <time>2022-05-08T09:05:57Z</time>
      </trkpt>
      <trkpt lat="44.97711" lon="0.52357">
        <ele>131.4</ele>
        <time>2022-05-08T09:05:59Z</time>
      </trkpt>
      <trkpt lat="44.97722" lon="0.52352">
        <ele>130.4</ele>
        <time>2022-05-08T09:06:01Z</time>
      </trkpt>
      <trkpt lat="44.97734" lon="0.52354">
        <ele>129.8</ele>
        <time>2022-05-08T09:06:03Z</time>
      </trkpt>
      <trkpt lat="44.97743" lon="0.52356">
        <ele>129.6</ele>
        <time>2022-05-08T09:06:05Z</time>
      </trkpt>
      <trkpt lat="44.97754" lon="0.52359">
        <ele>129.4</ele>
        <time>2022-05-08T09:06:07Z</time>
      </trkpt>
      <trkpt lat="44.97765" lon="0.52364">
        <ele>129.4</ele>
        <time>2022-05-08T09:06:09Z</time>
      </trkpt>
      <trkpt lat="44.97776" lon="0.52369">
        <ele>129.5</ele>
        <time>2022-05-08T09:06:11Z</time>
      </trkpt>
      <trkpt lat="44.9778" lon="0.52373">
        <ele>129.6</ele>
        <time>2022-05-08T09:06:12Z</time>
      </trkpt>
      <trkpt lat="44.97785" lon="0.52376">
        <ele>129.7</ele>
        <time>2022-05-08T09:06:13Z</time>
      </trkpt>
      <trkpt lat="44.97808" lon="0.52385">
        <ele>130.2</ele>
        <time>2022-05-08T09:06:18Z</time>
      </trkpt>
      <trkpt lat="44.97813" lon="0.52385">
        <ele>130.3</ele>
        <time>2022-05-08T09:06:19Z</time>
      </trkpt>
      <trkpt lat="44.97831" lon="0.52387">
        <ele>130.4</ele>
        <time>2022-05-08T09:06:23Z</time>
      </trkpt>
      <trkpt lat="44.97854" lon="0.52384">
        <ele>129.9</ele>
        <time>2022-05-08T09:06:27Z</time>
      </trkpt>
      <trkpt lat="44.97889" lon="0.52378">
        <ele>128.2</ele>
        <time>2022-05-08T09:06:32Z</time>
      </trkpt>
      <trkpt lat="44.97924" lon="0.52362">
        <ele>125.9</ele>
        <time>2022-05-08T09:06:37Z</time>
      </trkpt>
      <trkpt lat="44.97931" lon="0.52358">
        <ele>125.6</ele>
        <time>2022-05-08T09:06:38Z</time>
      </trkpt>
      <trkpt lat="44.97943" lon="0.5235">
        <ele>125</ele>
        <time>2022-05-08T09:06:40Z</time>
      </trkpt>
      <trkpt lat="44.97955" lon="0.52343">
        <ele>124.4</ele>
        <time>2022-05-08T09:06:42Z</time>
      </trkpt>
      <trkpt lat="44.9796" lon="0.5234">
        <ele>124.1</ele>
        <time>2022-05-08T09:06:43Z</time>
      </trkpt>
      <trkpt lat="44.97964" lon="0.52337">
        <ele>123.2</ele>
        <time>2022-05-08T09:06:45Z</time>
      </trkpt>
      <trkpt lat="44.97966" lon="0.52337">
        <ele>123.2</ele>
        <time>2022-05-08T09:06:46Z</time>
      </trkpt>
      <trkpt lat="44.97968" lon="0.52339">
        <ele>123.3</ele>
        <time>2022-05-08T09:06:50Z</time>
      </trkpt>
      <trkpt lat="44.97969" lon="0.52343">
        <ele>123.5</ele>
        <time>2022-05-08T09:06:51Z</time>
      </trkpt>
      <trkpt lat="44.97971" lon="0.52361">
        <ele>124</ele>
        <time>2022-05-08T09:06:54Z</time>
      </trkpt>
      <trkpt lat="44.97973" lon="0.52381">
        <ele>124.7</ele>
        <time>2022-05-08T09:06:57Z</time>
      </trkpt>
      <trkpt lat="44.97975" lon="0.52403">
        <ele>125.8</ele>
        <time>2022-05-08T09:07:00Z</time>
      </trkpt>
      <trkpt lat="44.97976" lon="0.52409">
        <ele>126.1</ele>
        <time>2022-05-08T09:07:01Z</time>
      </trkpt>
      <trkpt lat="44.97986" lon="0.52438">
        <ele>127.6</ele>
        <time>2022-05-08T09:07:06Z</time>
      </trkpt>
      <trkpt lat="44.97993" lon="0.52448">
        <ele>128.4</ele>
        <time>2022-05-08T09:07:08Z</time>
      </trkpt>
      <trkpt lat="44.98002" lon="0.52461">
        <ele>129.6</ele>
        <time>2022-05-08T09:07:11Z</time>
      </trkpt>
      <trkpt lat="44.98018" lon="0.52479">
        <ele>131.7</ele>
        <time>2022-05-08T09:07:17Z</time>
      </trkpt>
      <trkpt lat="44.98032" lon="0.52496">
        <ele>132.8</ele>
        <time>2022-05-08T09:07:24Z</time>
      </trkpt>
      <trkpt lat="44.98045" lon="0.52511">
        <ele>134.7</ele>
        <time>2022-05-08T09:07:31Z</time>
      </trkpt>
      <trkpt lat="44.98046" lon="0.52514">
        <ele>135</ele>
        <time>2022-05-08T09:07:32Z</time>
      </trkpt>
      <trkpt lat="44.98053" lon="0.52522">
        <ele>136.1</ele>
        <time>2022-05-08T09:07:35Z</time>
      </trkpt>
      <trkpt lat="44.98058" lon="0.52527">
        <ele>136.8</ele>
        <time>2022-05-08T09:07:37Z</time>
      </trkpt>
      <trkpt lat="44.98061" lon="0.52531">
        <ele>137.2</ele>
        <time>2022-05-08T09:07:39Z</time>
      </trkpt>
      <trkpt lat="44.98061" lon="0.52533">
        <ele>137.4</ele>
        <time>2022-05-08T09:07:40Z</time>
      </trkpt>
      <trkpt lat="44.98059" lon="0.52547">
        <ele>138.4</ele>
        <time>2022-05-08T09:07:44Z</time>
      </trkpt>
      <trkpt lat="44.9805" lon="0.52556">
        <ele>139.6</ele>
        <time>2022-05-08T09:07:51Z</time>
      </trkpt>
      <trkpt lat="44.98041" lon="0.52565">
        <ele>140.8</ele>
        <time>2022-05-08T09:07:58Z</time>
      </trkpt>
      <trkpt lat="44.98033" lon="0.52573">
        <ele>141.9</ele>
        <time>2022-05-08T09:08:04Z</time>
      </trkpt>
      <trkpt lat="44.98025" lon="0.52581">
        <ele>142.8</ele>
        <time>2022-05-08T09:08:10Z</time>
      </trkpt>
      <trkpt lat="44.98013" lon="0.52592">
        <ele>143.8</ele>
        <time>2022-05-08T09:08:18Z</time>
      </trkpt>
      <trkpt lat="44.98008" lon="0.52597">
        <ele>144.2</ele>
        <time>2022-05-08T09:08:22Z</time>
      </trkpt>
      <trkpt lat="44.98007" lon="0.52598">
        <ele>144.3</ele>
        <time>2022-05-08T09:08:23Z</time>
      </trkpt>
      <trkpt lat="44.98005" lon="0.52599">
        <ele>144.4</ele>
        <time>2022-05-08T09:08:24Z</time>
      </trkpt>
      <trkpt lat="44.98004" lon="0.526">
        <ele>144.5</ele>
        <time>2022-05-08T09:08:26Z</time>
      </trkpt>
      <trkpt lat="44.98002" lon="0.52602">
        <ele>144.7</ele>
        <time>2022-05-08T09:08:27Z</time>
      </trkpt>
      <trkpt lat="44.97998" lon="0.52606">
        <ele>145</ele>
        <time>2022-05-08T09:08:31Z</time>
      </trkpt>
      <trkpt lat="44.97994" lon="0.52607">
        <ele>145.4</ele>
        <time>2022-05-08T09:08:34Z</time>
      </trkpt>
      <trkpt lat="44.97992" lon="0.52607">
        <ele>145.5</ele>
        <time>2022-05-08T09:08:35Z</time>
      </trkpt>
      <trkpt lat="44.97986" lon="0.52609">
        <ele>146.2</ele>
        <time>2022-05-08T09:08:40Z</time>
      </trkpt>
      <trkpt lat="44.97979" lon="0.52611">
        <ele>147.1</ele>
        <time>2022-05-08T09:08:44Z</time>
      </trkpt>
      <trkpt lat="44.9797" lon="0.52614">
        <ele>148.4</ele>
        <time>2022-05-08T09:08:50Z</time>
      </trkpt>
      <trkpt lat="44.9797" lon="0.52614">
        <ele>148.4</ele>
        <time>2022-05-08T09:08:54Z</time>
      </trkpt>
      <trkpt lat="44.9797" lon="0.52614">
        <ele>148.4</ele>
        <time>2022-05-08T09:08:55Z</time>
      </trkpt>
      <trkpt lat="44.97967" lon="0.52623">
        <ele>149.4</ele>
        <time>2022-05-08T09:08:58Z</time>
      </trkpt>
      <trkpt lat="44.97967" lon="0.52625">
        <ele>149.5</ele>
        <time>2022-05-08T09:08:59Z</time>
      </trkpt>
      <trkpt lat="44.97965" lon="0.52629">
        <ele>149.9</ele>
        <time>2022-05-08T09:09:01Z</time>
      </trkpt>
      <trkpt lat="44.97965" lon="0.5263">
        <ele>150.1</ele>
        <time>2022-05-08T09:09:02Z</time>
      </trkpt>
      <trkpt lat="44.97964" lon="0.52634">
        <ele>150.4</ele>
        <time>2022-05-08T09:09:06Z</time>
      </trkpt>
      <trkpt lat="44.97966" lon="0.52642">
        <ele>151.1</ele>
        <time>2022-05-08T09:09:08Z</time>
      </trkpt>
      <trkpt lat="44.97968" lon="0.52648">
        <ele>151.7</ele>
        <time>2022-05-08T09:09:11Z</time>
      </trkpt>
      <trkpt lat="44.97969" lon="0.5265">
        <ele>151.8</ele>
        <time>2022-05-08T09:09:12Z</time>
      </trkpt>
      <trkpt lat="44.97969" lon="0.52652">
        <ele>152</ele>
        <time>2022-05-08T09:09:14Z</time>
      </trkpt>
      <trkpt lat="44.9797" lon="0.52654">
        <ele>152.1</ele>
        <time>2022-05-08T09:09:16Z</time>
      </trkpt>
      <trkpt lat="44.97971" lon="0.52657">
        <ele>152.3</ele>
        <time>2022-05-08T09:09:18Z</time>
      </trkpt>
      <trkpt lat="44.97972" lon="0.52661">
        <ele>152.6</ele>
        <time>2022-05-08T09:09:21Z</time>
      </trkpt>
      <trkpt lat="44.97975" lon="0.52668">
        <ele>153</ele>
        <time>2022-05-08T09:09:23Z</time>
      </trkpt>
      <trkpt lat="44.97976" lon="0.52674">
        <ele>153.3</ele>
        <time>2022-05-08T09:09:25Z</time>
      </trkpt>
      <trkpt lat="44.97979" lon="0.52686">
        <ele>154</ele>
        <time>2022-05-08T09:09:29Z</time>
      </trkpt>
      <trkpt lat="44.97983" lon="0.52696">
        <ele>154.6</ele>
        <time>2022-05-08T09:09:33Z</time>
      </trkpt>
      <trkpt lat="44.97983" lon="0.52702">
        <ele>154.9</ele>
        <time>2022-05-08T09:09:35Z</time>
      </trkpt>
      <trkpt lat="44.97984" lon="0.5271">
        <ele>155.3</ele>
        <time>2022-05-08T09:09:38Z</time>
      </trkpt>
      <trkpt lat="44.97984" lon="0.52715">
        <ele>155.5</ele>
        <time>2022-05-08T09:09:40Z</time>
      </trkpt>
      <trkpt lat="44.97985" lon="0.52717">
        <ele>155.6</ele>
        <time>2022-05-08T09:09:41Z</time>
      </trkpt>
      <trkpt lat="44.97985" lon="0.52722">
        <ele>155.8</ele>
        <time>2022-05-08T09:09:43Z</time>
      </trkpt>
      <trkpt lat="44.97985" lon="0.52732">
        <ele>156.2</ele>
        <time>2022-05-08T09:09:47Z</time>
      </trkpt>
      <trkpt lat="44.97985" lon="0.52749">
        <ele>156.6</ele>
        <time>2022-05-08T09:09:52Z</time>
      </trkpt>
      <trkpt lat="44.97984" lon="0.52765">
        <ele>157.1</ele>
        <time>2022-05-08T09:09:57Z</time>
      </trkpt>
      <trkpt lat="44.97978" lon="0.52791">
        <ele>157.3</ele>
        <time>2022-05-08T09:10:04Z</time>
      </trkpt>
      <trkpt lat="44.9797" lon="0.5281">
        <ele>157</ele>
        <time>2022-05-08T09:10:08Z</time>
      </trkpt>
      <trkpt lat="44.9796" lon="0.5283">
        <ele>156.3</ele>
        <time>2022-05-08T09:10:12Z</time>
      </trkpt>
      <trkpt lat="44.97958" lon="0.52835">
        <ele>156.1</ele>
        <time>2022-05-08T09:10:13Z</time>
      </trkpt>
      <trkpt lat="44.97955" lon="0.52842">
        <ele>155.7</ele>
        <time>2022-05-08T09:10:15Z</time>
      </trkpt>
      <trkpt lat="44.97954" lon="0.52847">
        <ele>155.3</ele>
        <time>2022-05-08T09:10:16Z</time>
      </trkpt>
      <trkpt lat="44.97953" lon="0.52861">
        <ele>154.1</ele>
        <time>2022-05-08T09:10:18Z</time>
      </trkpt>
      <trkpt lat="44.97959" lon="0.52878">
        <ele>152.4</ele>
        <time>2022-05-08T09:10:20Z</time>
      </trkpt>
      <trkpt lat="44.97964" lon="0.52884">
        <ele>151.7</ele>
        <time>2022-05-08T09:10:21Z</time>
      </trkpt>
      <trkpt lat="44.9797" lon="0.5289">
        <ele>151.1</ele>
        <time>2022-05-08T09:10:22Z</time>
      </trkpt>
      <trkpt lat="44.9798" lon="0.52906">
        <ele>150.2</ele>
        <time>2022-05-08T09:10:24Z</time>
      </trkpt>
      <trkpt lat="44.97989" lon="0.52923">
        <ele>150.3</ele>
        <time>2022-05-08T09:10:26Z</time>
      </trkpt>
      <trkpt lat="44.97992" lon="0.52943">
        <ele>150</ele>
        <time>2022-05-08T09:10:28Z</time>
      </trkpt>
      <trkpt lat="44.98" lon="0.5299">
        <ele>149.7</ele>
        <time>2022-05-08T09:10:34Z</time>
      </trkpt>
      <trkpt lat="44.98003" lon="0.53009">
        <ele>149.7</ele>
        <time>2022-05-08T09:10:38Z</time>
      </trkpt>
      <trkpt lat="44.98007" lon="0.53033">
        <ele>149.9</ele>
        <time>2022-05-08T09:10:43Z</time>
      </trkpt>
      <trkpt lat="44.98012" lon="0.53062">
        <ele>149.8</ele>
        <time>2022-05-08T09:10:49Z</time>
      </trkpt>
      <trkpt lat="44.98016" lon="0.53085">
        <ele>149.6</ele>
        <time>2022-05-08T09:10:54Z</time>
      </trkpt>
      <trkpt lat="44.98017" lon="0.5309">
        <ele>149.6</ele>
        <time>2022-05-08T09:10:55Z</time>
      </trkpt>
      <trkpt lat="44.98019" lon="0.531">
        <ele>149.5</ele>
        <time>2022-05-08T09:10:57Z</time>
      </trkpt>
      <trkpt lat="44.98027" lon="0.53123">
        <ele>149.4</ele>
        <time>2022-05-08T09:11:02Z</time>
      </trkpt>
      <trkpt lat="44.98035" lon="0.53142">
        <ele>149.4</ele>
        <time>2022-05-08T09:11:07Z</time>
      </trkpt>
      <trkpt lat="44.9804" lon="0.53155">
        <ele>149.4</ele>
        <time>2022-05-08T09:11:10Z</time>
      </trkpt>
      <trkpt lat="44.98042" lon="0.53159">
        <ele>149.4</ele>
        <time>2022-05-08T09:11:11Z</time>
      </trkpt>
      <trkpt lat="44.9805" lon="0.53178">
        <ele>149.6</ele>
        <time>2022-05-08T09:11:15Z</time>
      </trkpt>
      <trkpt lat="44.98051" lon="0.53182">
        <ele>149.7</ele>
        <time>2022-05-08T09:11:16Z</time>
      </trkpt>
      <trkpt lat="44.98053" lon="0.5319">
        <ele>149.8</ele>
        <time>2022-05-08T09:11:18Z</time>
      </trkpt>
      <trkpt lat="44.98057" lon="0.53203">
        <ele>150</ele>
        <time>2022-05-08T09:11:22Z</time>
      </trkpt>
      <trkpt lat="44.9806" lon="0.53219">
        <ele>150.4</ele>
        <time>2022-05-08T09:11:27Z</time>
      </trkpt>
      <trkpt lat="44.9806" lon="0.53222">
        <ele>150.5</ele>
        <time>2022-05-08T09:11:28Z</time>
      </trkpt>
      <trkpt lat="44.98059" lon="0.53233">
        <ele>150.9</ele>
        <time>2022-05-08T09:11:31Z</time>
      </trkpt>
      <trkpt lat="44.98053" lon="0.53255">
        <ele>151.6</ele>
        <time>2022-05-08T09:11:37Z</time>
      </trkpt>
      <trkpt lat="44.98045" lon="0.53272">
        <ele>152.3</ele>
        <time>2022-05-08T09:11:42Z</time>
      </trkpt>
      <trkpt lat="44.98035" lon="0.53287">
        <ele>153.2</ele>
        <time>2022-05-08T09:11:47Z</time>
      </trkpt>
      <trkpt lat="44.98032" lon="0.53293">
        <ele>153.4</ele>
        <time>2022-05-08T09:11:49Z</time>
      </trkpt>
      <trkpt lat="44.98031" lon="0.53296">
        <ele>153.4</ele>
        <time>2022-05-08T09:11:50Z</time>
      </trkpt>
      <trkpt lat="44.98028" lon="0.53303">
        <ele>153.3</ele>
        <time>2022-05-08T09:11:52Z</time>
      </trkpt>
      <trkpt lat="44.98027" lon="0.53321">
        <ele>153.4</ele>
        <time>2022-05-08T09:11:54Z</time>
      </trkpt>
      <trkpt lat="44.98031" lon="0.53335">
        <ele>153.9</ele>
        <time>2022-05-08T09:11:56Z</time>
      </trkpt>
      <trkpt lat="44.98032" lon="0.53339">
        <ele>154.1</ele>
        <time>2022-05-08T09:11:57Z</time>
      </trkpt>
      <trkpt lat="44.98033" lon="0.53345">
        <ele>154.4</ele>
        <time>2022-05-08T09:11:59Z</time>
      </trkpt>
      <trkpt lat="44.98034" lon="0.53354">
        <ele>155.2</ele>
        <time>2022-05-08T09:12:02Z</time>
      </trkpt>
      <trkpt lat="44.98035" lon="0.53364">
        <ele>156.1</ele>
        <time>2022-05-08T09:12:06Z</time>
      </trkpt>
      <trkpt lat="44.98036" lon="0.53369">
        <ele>156.6</ele>
        <time>2022-05-08T09:12:08Z</time>
      </trkpt>
      <trkpt lat="44.98036" lon="0.53375">
        <ele>157.1</ele>
        <time>2022-05-08T09:12:10Z</time>
      </trkpt>
      <trkpt lat="44.98036" lon="0.5338">
        <ele>157.6</ele>
        <time>2022-05-08T09:12:12Z</time>
      </trkpt>
      <trkpt lat="44.98036" lon="0.53393">
        <ele>158.9</ele>
        <time>2022-05-08T09:12:17Z</time>
      </trkpt>
      <trkpt lat="44.98035" lon="0.53395">
        <ele>159</ele>
        <time>2022-05-08T09:12:18Z</time>
      </trkpt>
      <trkpt lat="44.98035" lon="0.53403">
        <ele>159.8</ele>
        <time>2022-05-08T09:12:21Z</time>
      </trkpt>
      <trkpt lat="44.98035" lon="0.53408">
        <ele>160.2</ele>
        <time>2022-05-08T09:12:23Z</time>
      </trkpt>
      <trkpt lat="44.98034" lon="0.53414">
        <ele>160.8</ele>
        <time>2022-05-08T09:12:26Z</time>
      </trkpt>
      <trkpt lat="44.98034" lon="0.53418">
        <ele>161.2</ele>
        <time>2022-05-08T09:12:28Z</time>
      </trkpt>
      <trkpt lat="44.98034" lon="0.53422">
        <ele>161.6</ele>
        <time>2022-05-08T09:12:30Z</time>
      </trkpt>
      <trkpt lat="44.98033" lon="0.53427">
        <ele>162.1</ele>
        <time>2022-05-08T09:12:32Z</time>
      </trkpt>
      <trkpt lat="44.98033" lon="0.53429">
        <ele>162.2</ele>
        <time>2022-05-08T09:12:33Z</time>
      </trkpt>
      <trkpt lat="44.98033" lon="0.53437">
        <ele>162.9</ele>
        <time>2022-05-08T09:12:37Z</time>
      </trkpt>
      <trkpt lat="44.98032" lon="0.53442">
        <ele>163.3</ele>
        <time>2022-05-08T09:12:41Z</time>
      </trkpt>
      <trkpt lat="44.98027" lon="0.53451">
        <ele>164.1</ele>
        <time>2022-05-08T09:12:44Z</time>
      </trkpt>
      <trkpt lat="44.98021" lon="0.53465">
        <ele>165.1</ele>
        <time>2022-05-08T09:12:50Z</time>
      </trkpt>
      <trkpt lat="44.98019" lon="0.53469">
        <ele>165.4</ele>
        <time>2022-05-08T09:12:54Z</time>
      </trkpt>
      <trkpt lat="44.98016" lon="0.53478">
        <ele>165.9</ele>
        <time>2022-05-08T09:12:58Z</time>
      </trkpt>
      <trkpt lat="44.98015" lon="0.53484">
        <ele>166.4</ele>
        <time>2022-05-08T09:13:01Z</time>
      </trkpt>
      <trkpt lat="44.98013" lon="0.53494">
        <ele>167.3</ele>
        <time>2022-05-08T09:13:06Z</time>
      </trkpt>
      <trkpt lat="44.9801" lon="0.53506">
        <ele>168.6</ele>
        <time>2022-05-08T09:13:11Z</time>
      </trkpt>
      <trkpt lat="44.9801" lon="0.53506">
        <ele>168.6</ele>
        <time>2022-05-08T09:13:12Z</time>
      </trkpt>
      <trkpt lat="44.98009" lon="0.53514">
        <ele>169.4</ele>
        <time>2022-05-08T09:13:15Z</time>
      </trkpt>
      <trkpt lat="44.98009" lon="0.53514">
        <ele>169.4</ele>
        <time>2022-05-08T09:13:16Z</time>
      </trkpt>
      <trkpt lat="44.9801" lon="0.53555">
        <ele>173</ele>
        <time>2022-05-08T09:13:32Z</time>
      </trkpt>
      <trkpt lat="44.9801" lon="0.5356">
        <ele>173.4</ele>
        <time>2022-05-08T09:13:34Z</time>
      </trkpt>
      <trkpt lat="44.9801" lon="0.53562">
        <ele>173.5</ele>
        <time>2022-05-08T09:13:35Z</time>
      </trkpt>
      <trkpt lat="44.9801" lon="0.53567">
        <ele>173.8</ele>
        <time>2022-05-08T09:13:37Z</time>
      </trkpt>
      <trkpt lat="44.98011" lon="0.53584">
        <ele>174.9</ele>
        <time>2022-05-08T09:13:38Z</time>
      </trkpt>
      <trkpt lat="44.98011" lon="0.53584">
        <ele>174.9</ele>
        <time>2022-05-08T09:13:40Z</time>
      </trkpt>
      <trkpt lat="44.98012" lon="0.53584">
        <ele>175</ele>
        <time>2022-05-08T09:13:42Z</time>
      </trkpt>
      <trkpt lat="44.98012" lon="0.53591">
        <ele>175.5</ele>
        <time>2022-05-08T09:13:44Z</time>
      </trkpt>
      <trkpt lat="44.98011" lon="0.53584">
        <ele>175.9</ele>
        <time>2022-05-08T09:13:45Z</time>
      </trkpt>
      <trkpt lat="44.98007" lon="0.536">
        <ele>176.9</ele>
        <time>2022-05-08T09:13:48Z</time>
      </trkpt>
      <trkpt lat="44.98006" lon="0.53606">
        <ele>177.2</ele>
        <time>2022-05-08T09:13:50Z</time>
      </trkpt>
      <trkpt lat="44.98005" lon="0.53611">
        <ele>177.5</ele>
        <time>2022-05-08T09:13:52Z</time>
      </trkpt>
      <trkpt lat="44.98002" lon="0.53622">
        <ele>178</ele>
        <time>2022-05-08T09:13:56Z</time>
      </trkpt>
      <trkpt lat="44.97999" lon="0.53636">
        <ele>178.4</ele>
        <time>2022-05-08T09:14:01Z</time>
      </trkpt>
      <trkpt lat="44.97999" lon="0.53638">
        <ele>178.4</ele>
        <time>2022-05-08T09:14:02Z</time>
      </trkpt>
      <trkpt lat="44.97997" lon="0.53647">
        <ele>178.5</ele>
        <time>2022-05-08T09:14:05Z</time>
      </trkpt>
      <trkpt lat="44.97995" lon="0.53653">
        <ele>178.5</ele>
        <time>2022-05-08T09:14:07Z</time>
      </trkpt>
      <trkpt lat="44.97994" lon="0.53656">
        <ele>178.5</ele>
        <time>2022-05-08T09:14:08Z</time>
      </trkpt>
      <trkpt lat="44.97993" lon="0.53659">
        <ele>178.4</ele>
        <time>2022-05-08T09:14:10Z</time>
      </trkpt>
      <trkpt lat="44.97991" lon="0.53665">
        <ele>178.2</ele>
        <time>2022-05-08T09:14:14Z</time>
      </trkpt>
      <trkpt lat="44.9799" lon="0.53667">
        <ele>178.1</ele>
        <time>2022-05-08T09:14:15Z</time>
      </trkpt>
      <trkpt lat="44.97986" lon="0.53679">
        <ele>177.7</ele>
        <time>2022-05-08T09:14:17Z</time>
      </trkpt>
      <trkpt lat="44.97985" lon="0.53681">
        <ele>177.6</ele>
        <time>2022-05-08T09:14:18Z</time>
      </trkpt>
      <trkpt lat="44.97977" lon="0.53713">
        <ele>174</ele>
        <time>2022-05-08T09:14:20Z</time>
      </trkpt>
      <trkpt lat="44.9798" lon="0.53717">
        <ele>173.3</ele>
        <time>2022-05-08T09:14:21Z</time>
      </trkpt>
      <trkpt lat="44.97995" lon="0.53722">
        <ele>171</ele>
        <time>2022-05-08T09:14:24Z</time>
      </trkpt>
      <trkpt lat="44.98005" lon="0.53726">
        <ele>169.6</ele>
        <time>2022-05-08T09:14:26Z</time>
      </trkpt>
      <trkpt lat="44.98029" lon="0.53734">
        <ele>166.6</ele>
        <time>2022-05-08T09:14:30Z</time>
      </trkpt>
      <trkpt lat="44.98062" lon="0.53748">
        <ele>165.5</ele>
        <time>2022-05-08T09:14:35Z</time>
      </trkpt>
      <trkpt lat="44.98089" lon="0.53767">
        <ele>165.3</ele>
        <time>2022-05-08T09:14:40Z</time>
      </trkpt>
      <trkpt lat="44.981" lon="0.53776">
        <ele>165.1</ele>
        <time>2022-05-08T09:14:42Z</time>
      </trkpt>
      <trkpt lat="44.9811" lon="0.53785">
        <ele>164.8</ele>
        <time>2022-05-08T09:14:44Z</time>
      </trkpt>
      <trkpt lat="44.98139" lon="0.53808">
        <ele>163.9</ele>
        <time>2022-05-08T09:14:49Z</time>
      </trkpt>
      <trkpt lat="44.98157" lon="0.53817">
        <ele>163.6</ele>
        <time>2022-05-08T09:14:52Z</time>
      </trkpt>
      <trkpt lat="44.98163" lon="0.53818">
        <ele>163.5</ele>
        <time>2022-05-08T09:14:53Z</time>
      </trkpt>
      <trkpt lat="44.98189" lon="0.53826">
        <ele>163.5</ele>
        <time>2022-05-08T09:14:57Z</time>
      </trkpt>
      <trkpt lat="44.98227" lon="0.53839">
        <ele>163.7</ele>
        <time>2022-05-08T09:15:03Z</time>
      </trkpt>
      <trkpt lat="44.98269" lon="0.53856">
        <ele>162.8</ele>
        <time>2022-05-08T09:15:10Z</time>
      </trkpt>
      <trkpt lat="44.98292" lon="0.53867">
        <ele>162.3</ele>
        <time>2022-05-08T09:15:14Z</time>
      </trkpt>
      <trkpt lat="44.98297" lon="0.5387">
        <ele>162.2</ele>
        <time>2022-05-08T09:15:15Z</time>
      </trkpt>
      <trkpt lat="44.98302" lon="0.53874">
        <ele>162</ele>
        <time>2022-05-08T09:15:16Z</time>
      </trkpt>
      <trkpt lat="44.98314" lon="0.5389">
        <ele>161.6</ele>
        <time>2022-05-08T09:15:19Z</time>
      </trkpt>
      <trkpt lat="44.98317" lon="0.53895">
        <ele>161.4</ele>
        <time>2022-05-08T09:15:20Z</time>
      </trkpt>
      <trkpt lat="44.98327" lon="0.53911">
        <ele>160.9</ele>
        <time>2022-05-08T09:15:23Z</time>
      </trkpt>
      <trkpt lat="44.9833" lon="0.53917">
        <ele>160.7</ele>
        <time>2022-05-08T09:15:24Z</time>
      </trkpt>
      <trkpt lat="44.98341" lon="0.53933">
        <ele>160</ele>
        <time>2022-05-08T09:15:27Z</time>
      </trkpt>
      <trkpt lat="44.98344" lon="0.53938">
        <ele>159.8</ele>
        <time>2022-05-08T09:15:28Z</time>
      </trkpt>
      <trkpt lat="44.98352" lon="0.5396">
        <ele>159.5</ele>
        <time>2022-05-08T09:15:33Z</time>
      </trkpt>
      <trkpt lat="44.98357" lon="0.53989">
        <ele>159.2</ele>
        <time>2022-05-08T09:15:39Z</time>
      </trkpt>
      <trkpt lat="44.98359" lon="0.54">
        <ele>159</ele>
        <time>2022-05-08T09:15:41Z</time>
      </trkpt>
      <trkpt lat="44.98362" lon="0.54012">
        <ele>158.7</ele>
        <time>2022-05-08T09:15:43Z</time>
      </trkpt>
      <trkpt lat="44.98374" lon="0.54053">
        <ele>156.6</ele>
        <time>2022-05-08T09:15:49Z</time>
      </trkpt>
      <trkpt lat="44.9839" lon="0.54096">
        <ele>154.1</ele>
        <time>2022-05-08T09:15:54Z</time>
      </trkpt>
      <trkpt lat="44.98401" lon="0.54123">
        <ele>153.4</ele>
        <time>2022-05-08T09:15:57Z</time>
      </trkpt>
      <trkpt lat="44.98412" lon="0.5414">
        <ele>152.7</ele>
        <time>2022-05-08T09:15:59Z</time>
      </trkpt>
      <trkpt lat="44.98446" lon="0.54179">
        <ele>150.6</ele>
        <time>2022-05-08T09:16:05Z</time>
      </trkpt>
      <trkpt lat="44.98484" lon="0.54206">
        <ele>149.2</ele>
        <time>2022-05-08T09:16:12Z</time>
      </trkpt>
      <trkpt lat="44.98507" lon="0.54233">
        <ele>148.7</ele>
        <time>2022-05-08T09:16:17Z</time>
      </trkpt>
      <trkpt lat="44.98533" lon="0.54272">
        <ele>147.3</ele>
        <time>2022-05-08T09:16:23Z</time>
      </trkpt>
      <trkpt lat="44.98563" lon="0.54328">
        <ele>147.8</ele>
        <time>2022-05-08T09:16:31Z</time>
      </trkpt>
      <trkpt lat="44.98572" lon="0.54346">
        <ele>148.3</ele>
        <time>2022-05-08T09:16:34Z</time>
      </trkpt>
      <trkpt lat="44.98576" lon="0.54356">
        <ele>148.8</ele>
        <time>2022-05-08T09:16:36Z</time>
      </trkpt>
      <trkpt lat="44.98584" lon="0.54348">
        <ele>149.3</ele>
        <time>2022-05-08T09:16:39Z</time>
      </trkpt>
      <trkpt lat="44.98597" lon="0.54329">
        <ele>149.5</ele>
        <time>2022-05-08T09:16:44Z</time>
      </trkpt>
      <trkpt lat="44.98611" lon="0.5431">
        <ele>149.1</ele>
        <time>2022-05-08T09:16:50Z</time>
      </trkpt>
      <trkpt lat="44.98625" lon="0.54305">
        <ele>148.3</ele>
        <time>2022-05-08T09:16:54Z</time>
      </trkpt>
      <trkpt lat="44.9863" lon="0.54292">
        <ele>147.3</ele>
        <time>2022-05-08T09:16:58Z</time>
      </trkpt>
      <trkpt lat="44.98632" lon="0.54281">
        <ele>146.6</ele>
        <time>2022-05-08T09:17:00Z</time>
      </trkpt>
      <trkpt lat="44.98634" lon="0.5427">
        <ele>145.8</ele>
        <time>2022-05-08T09:17:02Z</time>
      </trkpt>
      <trkpt lat="44.98635" lon="0.54261">
        <ele>145.3</ele>
        <time>2022-05-08T09:17:04Z</time>
      </trkpt>
      <trkpt lat="44.98636" lon="0.54254">
        <ele>144.8</ele>
        <time>2022-05-08T09:17:05Z</time>
      </trkpt>
      <trkpt lat="44.98639" lon="0.54235">
        <ele>143.6</ele>
        <time>2022-05-08T09:17:07Z</time>
      </trkpt>
      <trkpt lat="44.98641" lon="0.54225">
        <ele>142.9</ele>
        <time>2022-05-08T09:17:08Z</time>
      </trkpt>
      <trkpt lat="44.98647" lon="0.54214">
        <ele>142</ele>
        <time>2022-05-08T09:17:09Z</time>
      </trkpt>
      <trkpt lat="44.98659" lon="0.54199">
        <ele>140.5</ele>
        <time>2022-05-08T09:17:11Z</time>
      </trkpt>
      <trkpt lat="44.98688" lon="0.54163">
        <ele>137</ele>
        <time>2022-05-08T09:17:15Z</time>
      </trkpt>
      <trkpt lat="44.98729" lon="0.54113">
        <ele>132.2</ele>
        <time>2022-05-08T09:17:20Z</time>
      </trkpt>
      <trkpt lat="44.9877" lon="0.54062">
        <ele>127.2</ele>
        <time>2022-05-08T09:17:25Z</time>
      </trkpt>
      <trkpt lat="44.98777" lon="0.54053">
        <ele>126.3</ele>
        <time>2022-05-08T09:17:26Z</time>
      </trkpt>
      <trkpt lat="44.98791" lon="0.54036">
        <ele>124.7</ele>
        <time>2022-05-08T09:17:28Z</time>
      </trkpt>
      <trkpt lat="44.98806" lon="0.54031">
        <ele>123.3</ele>
        <time>2022-05-08T09:17:30Z</time>
      </trkpt>
      <trkpt lat="44.98812" lon="0.5403">
        <ele>122.7</ele>
        <time>2022-05-08T09:17:31Z</time>
      </trkpt>
      <trkpt lat="44.98835" lon="0.5405">
        <ele>120.3</ele>
        <time>2022-05-08T09:17:35Z</time>
      </trkpt>
      <trkpt lat="44.98861" lon="0.54061">
        <ele>117.8</ele>
        <time>2022-05-08T09:17:41Z</time>
      </trkpt>
      <trkpt lat="44.98896" lon="0.54077">
        <ele>114.5</ele>
        <time>2022-05-08T09:17:48Z</time>
      </trkpt>
      <trkpt lat="44.98905" lon="0.54082">
        <ele>113.6</ele>
        <time>2022-05-08T09:17:50Z</time>
      </trkpt>
      <trkpt lat="44.98915" lon="0.54089">
        <ele>112.7</ele>
        <time>2022-05-08T09:17:52Z</time>
      </trkpt>
      <trkpt lat="44.98929" lon="0.541">
        <ele>111.1</ele>
        <time>2022-05-08T09:17:55Z</time>
      </trkpt>
      <trkpt lat="44.9894" lon="0.54107">
        <ele>110.1</ele>
        <time>2022-05-08T09:17:57Z</time>
      </trkpt>
      <trkpt lat="44.9895" lon="0.54114">
        <ele>109.1</ele>
        <time>2022-05-08T09:18:00Z</time>
      </trkpt>
      <trkpt lat="44.98952" lon="0.54115">
        <ele>108.9</ele>
        <time>2022-05-08T09:18:01Z</time>
      </trkpt>
      <trkpt lat="44.98959" lon="0.541">
        <ele>108.4</ele>
        <time>2022-05-08T09:18:05Z</time>
      </trkpt>
      <trkpt lat="44.98959" lon="0.54073">
        <ele>108.3</ele>
        <time>2022-05-08T09:18:11Z</time>
      </trkpt>
      <trkpt lat="44.98963" lon="0.54051">
        <ele>108.1</ele>
        <time>2022-05-08T09:18:16Z</time>
      </trkpt>
      <trkpt lat="44.98974" lon="0.54022">
        <ele>107.8</ele>
        <time>2022-05-08T09:18:22Z</time>
      </trkpt>
      <trkpt lat="44.98979" lon="0.54012">
        <ele>107.8</ele>
        <time>2022-05-08T09:18:24Z</time>
      </trkpt>
      <trkpt lat="44.98981" lon="0.54007">
        <ele>107.8</ele>
        <time>2022-05-08T09:18:25Z</time>
      </trkpt>
      <trkpt lat="44.98982" lon="0.54002">
        <ele>107.8</ele>
        <time>2022-05-08T09:18:26Z</time>
      </trkpt>
      <trkpt lat="44.98988" lon="0.53979">
        <ele>107.9</ele>
        <time>2022-05-08T09:18:30Z</time>
      </trkpt>
      <trkpt lat="44.98998" lon="0.53944">
        <ele>108.3</ele>
        <time>2022-05-08T09:18:36Z</time>
      </trkpt>
      <trkpt lat="44.99001" lon="0.53933">
        <ele>108.6</ele>
        <time>2022-05-08T09:18:38Z</time>
      </trkpt>
      <trkpt lat="44.99005" lon="0.53916">
        <ele>109.1</ele>
        <time>2022-05-08T09:18:41Z</time>
      </trkpt>
      <trkpt lat="44.9901" lon="0.53894">
        <ele>110.1</ele>
        <time>2022-05-08T09:18:46Z</time>
      </trkpt>
      <trkpt lat="44.99011" lon="0.53891">
        <ele>110.3</ele>
        <time>2022-05-08T09:18:47Z</time>
      </trkpt>
      <trkpt lat="44.99013" lon="0.53882">
        <ele>110.7</ele>
        <time>2022-05-08T09:18:50Z</time>
      </trkpt>
      <trkpt lat="44.99013" lon="0.53879">
        <ele>110.8</ele>
        <time>2022-05-08T09:18:51Z</time>
      </trkpt>
      <trkpt lat="44.99016" lon="0.53864">
        <ele>111.3</ele>
        <time>2022-05-08T09:18:55Z</time>
      </trkpt>
      <trkpt lat="44.99022" lon="0.53836">
        <ele>111.3</ele>
        <time>2022-05-08T09:19:02Z</time>
      </trkpt>
      <trkpt lat="44.99027" lon="0.53811">
        <ele>110.6</ele>
        <time>2022-05-08T09:19:08Z</time>
      </trkpt>
      <trkpt lat="44.99031" lon="0.53784">
        <ele>109.8</ele>
        <time>2022-05-08T09:19:13Z</time>
      </trkpt>
      <trkpt lat="44.99036" lon="0.53747">
        <ele>108.4</ele>
        <time>2022-05-08T09:19:18Z</time>
      </trkpt>
      <trkpt lat="44.9904" lon="0.53733">
        <ele>108.1</ele>
        <time>2022-05-08T09:19:20Z</time>
      </trkpt>
      <trkpt lat="44.99047" lon="0.53713">
        <ele>108</ele>
        <time>2022-05-08T09:19:23Z</time>
      </trkpt>
      <trkpt lat="44.99056" lon="0.53686">
        <ele>108.2</ele>
        <time>2022-05-08T09:19:28Z</time>
      </trkpt>
      <trkpt lat="44.99068" lon="0.53647">
        <ele>108.5</ele>
        <time>2022-05-08T09:19:36Z</time>
      </trkpt>
      <trkpt lat="44.99076" lon="0.53606">
        <ele>108.7</ele>
        <time>2022-05-08T09:19:44Z</time>
      </trkpt>
      <trkpt lat="44.99079" lon="0.53578">
        <ele>108.5</ele>
        <time>2022-05-08T09:19:49Z</time>
      </trkpt>
      <trkpt lat="44.99082" lon="0.5356">
        <ele>108.2</ele>
        <time>2022-05-08T09:19:52Z</time>
      </trkpt>
      <trkpt lat="44.99085" lon="0.53549">
        <ele>107.9</ele>
        <time>2022-05-08T09:19:54Z</time>
      </trkpt>
      <trkpt lat="44.99096" lon="0.5351">
        <ele>106.8</ele>
        <time>2022-05-08T09:20:00Z</time>
      </trkpt>
      <trkpt lat="44.99098" lon="0.53503">
        <ele>106.7</ele>
        <time>2022-05-08T09:20:01Z</time>
      </trkpt>
      <trkpt lat="44.991" lon="0.53497">
        <ele>106.5</ele>
        <time>2022-05-08T09:20:02Z</time>
      </trkpt>
      <trkpt lat="44.99106" lon="0.53476">
        <ele>106.3</ele>
        <time>2022-05-08T09:20:05Z</time>
      </trkpt>
      <trkpt lat="44.9912" lon="0.5343">
        <ele>106</ele>
        <time>2022-05-08T09:20:12Z</time>
      </trkpt>
      <trkpt lat="44.99132" lon="0.53392">
        <ele>106.6</ele>
        <time>2022-05-08T09:20:18Z</time>
      </trkpt>
      <trkpt lat="44.99133" lon="0.53385">
        <ele>106.8</ele>
        <time>2022-05-08T09:20:19Z</time>
      </trkpt>
      <trkpt lat="44.99136" lon="0.53364">
        <ele>107.5</ele>
        <time>2022-05-08T09:20:23Z</time>
      </trkpt>
      <trkpt lat="44.99138" lon="0.53342">
        <ele>107.8</ele>
        <time>2022-05-08T09:20:28Z</time>
      </trkpt>
      <trkpt lat="44.99145" lon="0.53309">
        <ele>107.9</ele>
        <time>2022-05-08T09:20:34Z</time>
      </trkpt>
      <trkpt lat="44.9915" lon="0.53278">
        <ele>108.1</ele>
        <time>2022-05-08T09:20:40Z</time>
      </trkpt>
      <trkpt lat="44.99156" lon="0.53249">
        <ele>108.3</ele>
        <time>2022-05-08T09:20:46Z</time>
      </trkpt>
      <trkpt lat="44.99165" lon="0.53208">
        <ele>108.1</ele>
        <time>2022-05-08T09:20:54Z</time>
      </trkpt>
      <trkpt lat="44.99172" lon="0.53173">
        <ele>108.2</ele>
        <time>2022-05-08T09:21:01Z</time>
      </trkpt>
      <trkpt lat="44.99177" lon="0.53131">
        <ele>108.8</ele>
        <time>2022-05-08T09:21:09Z</time>
      </trkpt>
      <trkpt lat="44.99181" lon="0.53098">
        <ele>109.1</ele>
        <time>2022-05-08T09:21:15Z</time>
      </trkpt>
      <trkpt lat="44.99183" lon="0.5307">
        <ele>109.1</ele>
        <time>2022-05-08T09:21:20Z</time>
      </trkpt>
      <trkpt lat="44.99183" lon="0.53059">
        <ele>109</ele>
        <time>2022-05-08T09:21:21Z</time>
      </trkpt>
      <trkpt lat="44.9919" lon="0.53023">
        <ele>108.6</ele>
        <time>2022-05-08T09:21:28Z</time>
      </trkpt>
      <trkpt lat="44.99191" lon="0.53017">
        <ele>108.5</ele>
        <time>2022-05-08T09:21:29Z</time>
      </trkpt>
      <trkpt lat="44.99195" lon="0.53005">
        <ele>108.4</ele>
        <time>2022-05-08T09:21:31Z</time>
      </trkpt>
      <trkpt lat="44.99198" lon="0.52992">
        <ele>108.1</ele>
        <time>2022-05-08T09:21:33Z</time>
      </trkpt>
      <trkpt lat="44.99202" lon="0.52979">
        <ele>107.8</ele>
        <time>2022-05-08T09:21:35Z</time>
      </trkpt>
      <trkpt lat="44.99204" lon="0.52966">
        <ele>107.4</ele>
        <time>2022-05-08T09:21:37Z</time>
      </trkpt>
      <trkpt lat="44.99205" lon="0.52952">
        <ele>107</ele>
        <time>2022-05-08T09:21:39Z</time>
      </trkpt>
      <trkpt lat="44.99207" lon="0.52924">
        <ele>105.6</ele>
        <time>2022-05-08T09:21:42Z</time>
      </trkpt>
      <trkpt lat="44.9921" lon="0.52914">
        <ele>104.9</ele>
        <time>2022-05-08T09:21:43Z</time>
      </trkpt>
      <trkpt lat="44.99216" lon="0.52877">
        <ele>102.6</ele>
        <time>2022-05-08T09:21:46Z</time>
      </trkpt>
      <trkpt lat="44.99218" lon="0.52863">
        <ele>101.9</ele>
        <time>2022-05-08T09:21:47Z</time>
      </trkpt>
      <trkpt lat="44.99223" lon="0.52821">
        <ele>100.5</ele>
        <time>2022-05-08T09:21:50Z</time>
      </trkpt>
      <trkpt lat="44.99226" lon="0.52807">
        <ele>100.4</ele>
        <time>2022-05-08T09:21:51Z</time>
      </trkpt>
      <trkpt lat="44.99231" lon="0.52795">
        <ele>100.3</ele>
        <time>2022-05-08T09:21:52Z</time>
      </trkpt>
      <trkpt lat="44.99247" lon="0.52763">
        <ele>100.6</ele>
        <time>2022-05-08T09:21:55Z</time>
      </trkpt>
      <trkpt lat="44.99252" lon="0.52753">
        <ele>100.9</ele>
        <time>2022-05-08T09:21:56Z</time>
      </trkpt>
      <trkpt lat="44.99259" lon="0.52735">
        <ele>101.6</ele>
        <time>2022-05-08T09:21:58Z</time>
      </trkpt>
      <trkpt lat="44.99263" lon="0.52723">
        <ele>102.1</ele>
        <time>2022-05-08T09:22:00Z</time>
      </trkpt>
      <trkpt lat="44.99265" lon="0.5272">
        <ele>102.2</ele>
        <time>2022-05-08T09:22:01Z</time>
      </trkpt>
      <trkpt lat="44.99287" lon="0.52721">
        <ele>102.1</ele>
        <time>2022-05-08T09:22:08Z</time>
      </trkpt>
      <trkpt lat="44.99305" lon="0.52725">
        <ele>101.9</ele>
        <time>2022-05-08T09:22:13Z</time>
      </trkpt>
      <trkpt lat="44.99329" lon="0.5273">
        <ele>101.4</ele>
        <time>2022-05-08T09:22:20Z</time>
      </trkpt>
      <trkpt lat="44.99346" lon="0.52735">
        <ele>101</ele>
        <time>2022-05-08T09:22:25Z</time>
      </trkpt>
      <trkpt lat="44.9937" lon="0.5274">
        <ele>100.6</ele>
        <time>2022-05-08T09:22:31Z</time>
      </trkpt>
      <trkpt lat="44.99388" lon="0.52745">
        <ele>100.2</ele>
        <time>2022-05-08T09:22:36Z</time>
      </trkpt>
      <trkpt lat="44.99403" lon="0.52748">
        <ele>99.9</ele>
        <time>2022-05-08T09:22:40Z</time>
      </trkpt>
      <trkpt lat="44.99406" lon="0.52742">
        <ele>99.9</ele>
        <time>2022-05-08T09:22:42Z</time>
      </trkpt>
      <trkpt lat="44.99406" lon="0.52736">
        <ele>99.8</ele>
        <time>2022-05-08T09:22:43Z</time>
      </trkpt>
      <trkpt lat="44.99407" lon="0.52712">
        <ele>98.9</ele>
        <time>2022-05-08T09:22:48Z</time>
      </trkpt>
      <trkpt lat="44.99416" lon="0.52682">
        <ele>99</ele>
        <time>2022-05-08T09:22:54Z</time>
      </trkpt>
      <trkpt lat="44.99427" lon="0.52646">
        <ele>98.9</ele>
        <time>2022-05-08T09:23:01Z</time>
      </trkpt>
      <trkpt lat="44.99439" lon="0.52612">
        <ele>99.8</ele>
        <time>2022-05-08T09:23:08Z</time>
      </trkpt>
      <trkpt lat="44.99451" lon="0.52576">
        <ele>99.6</ele>
        <time>2022-05-08T09:23:15Z</time>
      </trkpt>
      <trkpt lat="44.99462" lon="0.5254">
        <ele>98.3</ele>
        <time>2022-05-08T09:23:22Z</time>
      </trkpt>
      <trkpt lat="44.99475" lon="0.52499">
        <ele>97.6</ele>
        <time>2022-05-08T09:23:30Z</time>
      </trkpt>
      <trkpt lat="44.99489" lon="0.52459">
        <ele>98.5</ele>
        <time>2022-05-08T09:23:38Z</time>
      </trkpt>
      <trkpt lat="44.995" lon="0.52424">
        <ele>98.7</ele>
        <time>2022-05-08T09:23:45Z</time>
      </trkpt>
      <trkpt lat="44.99513" lon="0.52386">
        <ele>99.7</ele>
        <time>2022-05-08T09:23:53Z</time>
      </trkpt>
      <trkpt lat="44.99525" lon="0.52352">
        <ele>98.7</ele>
        <time>2022-05-08T09:24:00Z</time>
      </trkpt>
      <trkpt lat="44.99538" lon="0.52342">
        <ele>97.3</ele>
        <time>2022-05-08T09:24:04Z</time>
      </trkpt>
      <trkpt lat="44.99554" lon="0.52346">
        <ele>96.4</ele>
        <time>2022-05-08T09:24:08Z</time>
      </trkpt>
      <trkpt lat="44.99576" lon="0.52349">
        <ele>96.7</ele>
        <time>2022-05-08T09:24:14Z</time>
      </trkpt>
      <trkpt lat="44.99586" lon="0.5235">
        <ele>97.1</ele>
        <time>2022-05-08T09:24:17Z</time>
      </trkpt>
      <trkpt lat="44.99588" lon="0.52354">
        <ele>97.1</ele>
        <time>2022-05-08T09:24:18Z</time>
      </trkpt>
      <trkpt lat="44.99597" lon="0.52364">
        <ele>96.9</ele>
        <time>2022-05-08T09:24:21Z</time>
      </trkpt>
      <trkpt lat="44.996" lon="0.52366">
        <ele>96.9</ele>
        <time>2022-05-08T09:24:22Z</time>
      </trkpt>
      <trkpt lat="44.99617" lon="0.52378">
        <ele>97.7</ele>
        <time>2022-05-08T09:24:27Z</time>
      </trkpt>
      <trkpt lat="44.99627" lon="0.52385">
        <ele>98.4</ele>
        <time>2022-05-08T09:24:30Z</time>
      </trkpt>
      <trkpt lat="44.99634" lon="0.5239">
        <ele>98.4</ele>
        <time>2022-05-08T09:24:32Z</time>
      </trkpt>
      <trkpt lat="44.99639" lon="0.52398">
        <ele>98.6</ele>
        <time>2022-05-08T09:24:34Z</time>
      </trkpt>
      <trkpt lat="44.9964" lon="0.52403">
        <ele>98.6</ele>
        <time>2022-05-08T09:24:35Z</time>
      </trkpt>
      <trkpt lat="44.99637" lon="0.52424">
        <ele>97</ele>
        <time>2022-05-08T09:24:39Z</time>
      </trkpt>
      <trkpt lat="44.9963" lon="0.52448">
        <ele>97.7</ele>
        <time>2022-05-08T09:24:45Z</time>
      </trkpt>
      <trkpt lat="44.99617" lon="0.52491">
        <ele>99.1</ele>
        <time>2022-05-08T09:24:54Z</time>
      </trkpt>
      <trkpt lat="44.99604" lon="0.52537">
        <ele>100.5</ele>
        <time>2022-05-08T09:25:04Z</time>
      </trkpt>
      <trkpt lat="44.9959" lon="0.52584">
        <ele>101.9</ele>
        <time>2022-05-08T09:25:14Z</time>
      </trkpt>
      <trkpt lat="44.9958" lon="0.52626">
        <ele>103.2</ele>
        <time>2022-05-08T09:25:23Z</time>
      </trkpt>
      <trkpt lat="44.99581" lon="0.52631">
        <ele>103.3</ele>
        <time>2022-05-08T09:25:24Z</time>
      </trkpt>
      <trkpt lat="44.99582" lon="0.52636">
        <ele>103.4</ele>
        <time>2022-05-08T09:25:26Z</time>
      </trkpt>
      <trkpt lat="44.99596" lon="0.52644">
        <ele>104.1</ele>
        <time>2022-05-08T09:25:32Z</time>
      </trkpt>
      <trkpt lat="44.99613" lon="0.52654">
        <ele>104.8</ele>
        <time>2022-05-08T09:25:39Z</time>
      </trkpt>
      <trkpt lat="44.99628" lon="0.52663">
        <ele>105.4</ele>
        <time>2022-05-08T09:25:46Z</time>
      </trkpt>
      <trkpt lat="44.99631" lon="0.52664">
        <ele>105.5</ele>
        <time>2022-05-08T09:25:48Z</time>
      </trkpt>
      <trkpt lat="44.99632" lon="0.5267">
        <ele>105.6</ele>
        <time>2022-05-08T09:25:50Z</time>
      </trkpt>
      <trkpt lat="44.99626" lon="0.52691">
        <ele>105.8</ele>
        <time>2022-05-08T09:25:58Z</time>
      </trkpt>
      <trkpt lat="44.99623" lon="0.52705">
        <ele>105.9</ele>
        <time>2022-05-08T09:26:03Z</time>
      </trkpt>
      <trkpt lat="44.99623" lon="0.52705">
        <ele>105.9</ele>
        <time>2022-05-08T09:26:04Z</time>
      </trkpt>
      <trkpt lat="44.9962" lon="0.52713">
        <ele>106</ele>
        <time>2022-05-08T09:27:23Z</time>
      </trkpt>
      <trkpt lat="44.99619" lon="0.52718">
        <ele>106.1</ele>
        <time>2022-05-08T09:27:25Z</time>
      </trkpt>
      <trkpt lat="44.99613" lon="0.52742">
        <ele>106.3</ele>
        <time>2022-05-08T09:27:33Z</time>
      </trkpt>
      <trkpt lat="44.99609" lon="0.52754">
        <ele>106.4</ele>
        <time>2022-05-08T09:27:37Z</time>
      </trkpt>
      <trkpt lat="44.99608" lon="0.52757">
        <ele>106.4</ele>
        <time>2022-05-08T09:27:38Z</time>
      </trkpt>
      <trkpt lat="44.99614" lon="0.52762">
        <ele>106.8</ele>
        <time>2022-05-08T09:27:40Z</time>
      </trkpt>
      <trkpt lat="44.99615" lon="0.52761">
        <ele>106.9</ele>
        <time>2022-05-08T09:27:41Z</time>
      </trkpt>
      <trkpt lat="44.99635" lon="0.5275">
        <ele>108.3</ele>
        <time>2022-05-08T09:27:48Z</time>
      </trkpt>
      <trkpt lat="44.99651" lon="0.52742">
        <ele>109.7</ele>
        <time>2022-05-08T09:27:54Z</time>
      </trkpt>
      <trkpt lat="44.99671" lon="0.52737">
        <ele>111.4</ele>
        <time>2022-05-08T09:28:01Z</time>
      </trkpt>
      <trkpt lat="44.99677" lon="0.52736">
        <ele>111.9</ele>
        <time>2022-05-08T09:28:03Z</time>
      </trkpt>
      <trkpt lat="44.99683" lon="0.52733">
        <ele>112.4</ele>
        <time>2022-05-08T09:28:05Z</time>
      </trkpt>
      <trkpt lat="44.99695" lon="0.52727">
        <ele>113.8</ele>
        <time>2022-05-08T09:28:10Z</time>
      </trkpt>
      <trkpt lat="44.99709" lon="0.52715">
        <ele>115.5</ele>
        <time>2022-05-08T09:28:18Z</time>
      </trkpt>
      <trkpt lat="44.99716" lon="0.52711">
        <ele>116.2</ele>
        <time>2022-05-08T09:28:22Z</time>
      </trkpt>
      <trkpt lat="44.9972" lon="0.52709">
        <ele>116.4</ele>
        <time>2022-05-08T09:28:24Z</time>
      </trkpt>
      <trkpt lat="44.9973" lon="0.52703">
        <ele>117.1</ele>
        <time>2022-05-08T09:28:29Z</time>
      </trkpt>
      <trkpt lat="44.99749" lon="0.52692">
        <ele>118.2</ele>
        <time>2022-05-08T09:28:38Z</time>
      </trkpt>
      <trkpt lat="44.9976" lon="0.52685">
        <ele>118.6</ele>
        <time>2022-05-08T09:28:43Z</time>
      </trkpt>
      <trkpt lat="44.99777" lon="0.52678">
        <ele>118.7</ele>
        <time>2022-05-08T09:28:50Z</time>
      </trkpt>
      <trkpt lat="44.99797" lon="0.52678">
        <ele>118</ele>
        <time>2022-05-08T09:28:58Z</time>
      </trkpt>
      <trkpt lat="44.99818" lon="0.52681">
        <ele>116.8</ele>
        <time>2022-05-08T09:29:04Z</time>
      </trkpt>
      <trkpt lat="44.99843" lon="0.52692">
        <ele>114.9</ele>
        <time>2022-05-08T09:29:11Z</time>
      </trkpt>
      <trkpt lat="44.99851" lon="0.52696">
        <ele>114.3</ele>
        <time>2022-05-08T09:29:13Z</time>
      </trkpt>
      <trkpt lat="44.99859" lon="0.527">
        <ele>113.5</ele>
        <time>2022-05-08T09:29:15Z</time>
      </trkpt>
      <trkpt lat="44.99895" lon="0.52727">
        <ele>110.4</ele>
        <time>2022-05-08T09:29:23Z</time>
      </trkpt>
      <trkpt lat="44.999" lon="0.5273">
        <ele>110.1</ele>
        <time>2022-05-08T09:29:24Z</time>
      </trkpt>
      <trkpt lat="44.9991" lon="0.52737">
        <ele>109.6</ele>
        <time>2022-05-08T09:29:26Z</time>
      </trkpt>
      <trkpt lat="44.99916" lon="0.52739">
        <ele>109.4</ele>
        <time>2022-05-08T09:29:27Z</time>
      </trkpt>
      <trkpt lat="44.99921" lon="0.5274">
        <ele>109.3</ele>
        <time>2022-05-08T09:29:28Z</time>
      </trkpt>
      <trkpt lat="44.99941" lon="0.52741">
        <ele>108.9</ele>
        <time>2022-05-08T09:29:32Z</time>
      </trkpt>
      <trkpt lat="44.9996" lon="0.52738">
        <ele>108.9</ele>
        <time>2022-05-08T09:29:37Z</time>
      </trkpt>
      <trkpt lat="44.99976" lon="0.52733">
        <ele>109.2</ele>
        <time>2022-05-08T09:29:42Z</time>
      </trkpt>
      <trkpt lat="44.99985" lon="0.52729">
        <ele>109.8</ele>
        <time>2022-05-08T09:29:46Z</time>
      </trkpt>
      <trkpt lat="44.99987" lon="0.52728">
        <ele>109.9</ele>
        <time>2022-05-08T09:29:47Z</time>
      </trkpt>
      <trkpt lat="44.99992" lon="0.52727">
        <ele>110.2</ele>
        <time>2022-05-08T09:29:50Z</time>
      </trkpt>
      <trkpt lat="44.99999" lon="0.52726">
        <ele>110.7</ele>
        <time>2022-05-08T09:29:53Z</time>
      </trkpt>
      <trkpt lat="45" lon="0.52726">
        <ele>110.8</ele>
        <time>2022-05-08T09:33:56Z</time>
      </trkpt>
      <trkpt lat="44.99996" lon="0.52726">
        <ele>111</ele>
        <time>2022-05-08T09:33:58Z</time>
      </trkpt>
      <trkpt lat="44.99996" lon="0.52726">
        <ele>111</ele>
        <time>2022-05-08T09:34:00Z</time>
      </trkpt>
      <trkpt lat="44.99996" lon="0.52726">
        <ele>111</ele>
        <time>2022-05-08T09:34:02Z</time>
      </trkpt>
      <trkpt lat="45.00002" lon="0.52726">
        <ele>111.5</ele>
        <time>2022-05-08T09:34:06Z</time>
      </trkpt>
      <trkpt lat="45.00011" lon="0.52728">
        <ele>112.2</ele>
        <time>2022-05-08T09:34:11Z</time>
      </trkpt>
      <trkpt lat="45.0002" lon="0.5273">
        <ele>112.9</ele>
        <time>2022-05-08T09:34:15Z</time>
      </trkpt>
      <trkpt lat="45.00023" lon="0.5273">
        <ele>113</ele>
        <time>2022-05-08T09:34:17Z</time>
      </trkpt>
      <trkpt lat="45.00029" lon="0.52728">
        <ele>113.5</ele>
        <time>2022-05-08T09:34:20Z</time>
      </trkpt>
      <trkpt lat="45.0004" lon="0.52724">
        <ele>114.2</ele>
        <time>2022-05-08T09:34:24Z</time>
      </trkpt>
      <trkpt lat="45.0005" lon="0.52721">
        <ele>114.9</ele>
        <time>2022-05-08T09:34:29Z</time>
      </trkpt>
      <trkpt lat="45.00063" lon="0.52716">
        <ele>115.6</ele>
        <time>2022-05-08T09:34:34Z</time>
      </trkpt>
      <trkpt lat="45.00073" lon="0.52712">
        <ele>116.1</ele>
        <time>2022-05-08T09:34:39Z</time>
      </trkpt>
      <trkpt lat="45.00075" lon="0.52712">
        <ele>116.2</ele>
        <time>2022-05-08T09:34:40Z</time>
      </trkpt>
      <trkpt lat="45.00082" lon="0.52709">
        <ele>116.5</ele>
        <time>2022-05-08T09:34:43Z</time>
      </trkpt>
      <trkpt lat="45.00089" lon="0.52707">
        <ele>116.8</ele>
        <time>2022-05-08T09:34:46Z</time>
      </trkpt>
      <trkpt lat="45.00101" lon="0.52702">
        <ele>117.4</ele>
        <time>2022-05-08T09:34:52Z</time>
      </trkpt>
      <trkpt lat="45.00103" lon="0.52702">
        <ele>117.5</ele>
        <time>2022-05-08T09:34:53Z</time>
      </trkpt>
      <trkpt lat="45.00111" lon="0.52699">
        <ele>117.9</ele>
        <time>2022-05-08T09:34:56Z</time>
      </trkpt>
      <trkpt lat="45.00123" lon="0.52697">
        <ele>118.1</ele>
        <time>2022-05-08T09:35:01Z</time>
      </trkpt>
      <trkpt lat="45.0013" lon="0.52695">
        <ele>118.2</ele>
        <time>2022-05-08T09:35:04Z</time>
      </trkpt>
      <trkpt lat="45.00139" lon="0.52693">
        <ele>118.3</ele>
        <time>2022-05-08T09:35:08Z</time>
      </trkpt>
      <trkpt lat="45.0015" lon="0.52691">
        <ele>118.5</ele>
        <time>2022-05-08T09:35:13Z</time>
      </trkpt>
      <trkpt lat="45.00157" lon="0.52689">
        <ele>118.6</ele>
        <time>2022-05-08T09:35:16Z</time>
      </trkpt>
      <trkpt lat="45.00164" lon="0.52687">
        <ele>118.8</ele>
        <time>2022-05-08T09:35:19Z</time>
      </trkpt>
      <trkpt lat="45.00181" lon="0.52684">
        <ele>119.1</ele>
        <time>2022-05-08T09:35:25Z</time>
      </trkpt>
      <trkpt lat="45.00196" lon="0.5268">
        <ele>119.5</ele>
        <time>2022-05-08T09:35:30Z</time>
      </trkpt>
      <trkpt lat="45.00211" lon="0.52675">
        <ele>120.2</ele>
        <time>2022-05-08T09:35:36Z</time>
      </trkpt>
      <trkpt lat="45.00225" lon="0.52671">
        <ele>120.7</ele>
        <time>2022-05-08T09:35:41Z</time>
      </trkpt>
      <trkpt lat="45.00241" lon="0.52666">
        <ele>121.3</ele>
        <time>2022-05-08T09:35:47Z</time>
      </trkpt>
      <trkpt lat="45.00259" lon="0.52661">
        <ele>121.8</ele>
        <time>2022-05-08T09:35:53Z</time>
      </trkpt>
      <trkpt lat="45.00265" lon="0.52659">
        <ele>122.2</ele>
        <time>2022-05-08T09:35:57Z</time>
      </trkpt>
      <trkpt lat="45.00281" lon="0.52654">
        <ele>123</ele>
        <time>2022-05-08T09:36:02Z</time>
      </trkpt>
      <trkpt lat="45.00294" lon="0.5265">
        <ele>123.8</ele>
        <time>2022-05-08T09:36:07Z</time>
      </trkpt>
      <trkpt lat="45.00308" lon="0.52648">
        <ele>124.8</ele>
        <time>2022-05-08T09:36:12Z</time>
      </trkpt>
      <trkpt lat="45.0031" lon="0.52648">
        <ele>125</ele>
        <time>2022-05-08T09:36:13Z</time>
      </trkpt>
      <trkpt lat="45.00316" lon="0.52648">
        <ele>125.4</ele>
        <time>2022-05-08T09:36:16Z</time>
      </trkpt>
      <trkpt lat="45.00329" lon="0.52647">
        <ele>126.7</ele>
        <time>2022-05-08T09:36:21Z</time>
      </trkpt>
      <trkpt lat="45.00341" lon="0.52647">
        <ele>127.9</ele>
        <time>2022-05-08T09:36:25Z</time>
      </trkpt>
      <trkpt lat="45.00346" lon="0.52647">
        <ele>128.3</ele>
        <time>2022-05-08T09:36:27Z</time>
      </trkpt>
      <trkpt lat="45.00353" lon="0.52648">
        <ele>128.9</ele>
        <time>2022-05-08T09:36:30Z</time>
      </trkpt>
      <trkpt lat="45.00359" lon="0.52649">
        <ele>129.3</ele>
        <time>2022-05-08T09:36:33Z</time>
      </trkpt>
      <trkpt lat="45.00372" lon="0.52653">
        <ele>129.8</ele>
        <time>2022-05-08T09:36:38Z</time>
      </trkpt>
      <trkpt lat="45.00379" lon="0.52658">
        <ele>130</ele>
        <time>2022-05-08T09:36:41Z</time>
      </trkpt>
      <trkpt lat="45.00393" lon="0.52671">
        <ele>129.8</ele>
        <time>2022-05-08T09:36:46Z</time>
      </trkpt>
      <trkpt lat="45.00415" lon="0.52692">
        <ele>129.3</ele>
        <time>2022-05-08T09:36:52Z</time>
      </trkpt>
      <trkpt lat="45.00429" lon="0.52706">
        <ele>129.1</ele>
        <time>2022-05-08T09:36:56Z</time>
      </trkpt>
      <trkpt lat="45.00439" lon="0.52719">
        <ele>128.7</ele>
        <time>2022-05-08T09:36:59Z</time>
      </trkpt>
      <trkpt lat="45.00446" lon="0.52727">
        <ele>128.4</ele>
        <time>2022-05-08T09:37:01Z</time>
      </trkpt>
      <trkpt lat="45.0046" lon="0.52742">
        <ele>128.2</ele>
        <time>2022-05-08T09:37:05Z</time>
      </trkpt>
      <trkpt lat="45.00472" lon="0.52767">
        <ele>128.2</ele>
        <time>2022-05-08T09:37:11Z</time>
      </trkpt>
      <trkpt lat="45.00492" lon="0.52799">
        <ele>128.6</ele>
        <time>2022-05-08T09:37:19Z</time>
      </trkpt>
      <trkpt lat="45.00497" lon="0.52808">
        <ele>128.6</ele>
        <time>2022-05-08T09:37:21Z</time>
      </trkpt>
      <trkpt lat="45.00505" lon="0.52821">
        <ele>128.8</ele>
        <time>2022-05-08T09:37:24Z</time>
      </trkpt>
      <trkpt lat="45.00524" lon="0.52855">
        <ele>129.4</ele>
        <time>2022-05-08T09:37:31Z</time>
      </trkpt>
      <trkpt lat="45.00541" lon="0.52884">
        <ele>130.3</ele>
        <time>2022-05-08T09:37:37Z</time>
      </trkpt>
      <trkpt lat="45.00544" lon="0.52886">
        <ele>130.4</ele>
        <time>2022-05-08T09:37:38Z</time>
      </trkpt>
      <trkpt lat="45.00561" lon="0.52897">
        <ele>131.1</ele>
        <time>2022-05-08T09:37:42Z</time>
      </trkpt>
      <trkpt lat="45.00584" lon="0.52913">
        <ele>132</ele>
        <time>2022-05-08T09:37:48Z</time>
      </trkpt>
      <trkpt lat="45.00594" lon="0.5292">
        <ele>132.5</ele>
        <time>2022-05-08T09:37:51Z</time>
      </trkpt>
      <trkpt lat="45.00603" lon="0.52924">
        <ele>132.8</ele>
        <time>2022-05-08T09:37:54Z</time>
      </trkpt>
      <trkpt lat="45.00605" lon="0.52925">
        <ele>132.9</ele>
        <time>2022-05-08T09:37:55Z</time>
      </trkpt>
      <trkpt lat="45.00619" lon="0.52932">
        <ele>133.1</ele>
        <time>2022-05-08T09:37:59Z</time>
      </trkpt>
      <trkpt lat="45.00623" lon="0.52935">
        <ele>133.1</ele>
        <time>2022-05-08T09:38:00Z</time>
      </trkpt>
      <trkpt lat="45.00628" lon="0.52937">
        <ele>133.1</ele>
        <time>2022-05-08T09:38:01Z</time>
      </trkpt>
      <trkpt lat="45.0065" lon="0.52905">
        <ele>132.9</ele>
        <time>2022-05-08T09:38:03Z</time>
      </trkpt>
      <trkpt lat="45.00654" lon="0.52922">
        <ele>133</ele>
        <time>2022-05-08T09:38:06Z</time>
      </trkpt>
      <trkpt lat="45.00654" lon="0.52928">
        <ele>133</ele>
        <time>2022-05-08T09:38:07Z</time>
      </trkpt>
      <trkpt lat="45.00657" lon="0.52961">
        <ele>133.3</ele>
        <time>2022-05-08T09:38:13Z</time>
      </trkpt>
      <trkpt lat="45.0066" lon="0.52965">
        <ele>133.3</ele>
        <time>2022-05-08T09:38:14Z</time>
      </trkpt>
      <trkpt lat="45.00665" lon="0.5297">
        <ele>133.3</ele>
        <time>2022-05-08T09:38:16Z</time>
      </trkpt>
      <trkpt lat="45.00685" lon="0.52983">
        <ele>130.9</ele>
        <time>2022-05-08T09:38:19Z</time>
      </trkpt>
      <trkpt lat="45.00705" lon="0.53">
        <ele>128.5</ele>
        <time>2022-05-08T09:38:22Z</time>
      </trkpt>
      <trkpt lat="45.00712" lon="0.53005">
        <ele>127.8</ele>
        <time>2022-05-08T09:38:23Z</time>
      </trkpt>
      <trkpt lat="45.00718" lon="0.53009">
        <ele>127.4</ele>
        <time>2022-05-08T09:38:24Z</time>
      </trkpt>
      <trkpt lat="45.00732" lon="0.53018">
        <ele>126.7</ele>
        <time>2022-05-08T09:38:26Z</time>
      </trkpt>
      <trkpt lat="45.00754" lon="0.53033">
        <ele>126.1</ele>
        <time>2022-05-08T09:38:29Z</time>
      </trkpt>
      <trkpt lat="45.00762" lon="0.53038">
        <ele>126</ele>
        <time>2022-05-08T09:38:30Z</time>
      </trkpt>
      <trkpt lat="45.00783" lon="0.53051">
        <ele>125.8</ele>
        <time>2022-05-08T09:38:33Z</time>
      </trkpt>
      <trkpt lat="45.00797" lon="0.5306">
        <ele>125.7</ele>
        <time>2022-05-08T09:38:35Z</time>
      </trkpt>
      <trkpt lat="45.00829" lon="0.53082">
        <ele>125.3</ele>
        <time>2022-05-08T09:38:40Z</time>
      </trkpt>
      <trkpt lat="45.00849" lon="0.53095">
        <ele>123.9</ele>
        <time>2022-05-08T09:38:43Z</time>
      </trkpt>
      <trkpt lat="45.00856" lon="0.53099">
        <ele>123.1</ele>
        <time>2022-05-08T09:38:44Z</time>
      </trkpt>
      <trkpt lat="45.00864" lon="0.53105">
        <ele>122.2</ele>
        <time>2022-05-08T09:38:45Z</time>
      </trkpt>
      <trkpt lat="45.00885" lon="0.53125">
        <ele>120.2</ele>
        <time>2022-05-08T09:38:48Z</time>
      </trkpt>
      <trkpt lat="45.00925" lon="0.53163">
        <ele>117.6</ele>
        <time>2022-05-08T09:38:53Z</time>
      </trkpt>
      <trkpt lat="45.00977" lon="0.53202">
        <ele>116.5</ele>
        <time>2022-05-08T09:39:00Z</time>
      </trkpt>
      <trkpt lat="45.01028" lon="0.53237">
        <ele>114.8</ele>
        <time>2022-05-08T09:39:07Z</time>
      </trkpt>
      <trkpt lat="45.01082" lon="0.53277">
        <ele>114.4</ele>
        <time>2022-05-08T09:39:15Z</time>
      </trkpt>
      <trkpt lat="45.01117" lon="0.53309">
        <ele>114.6</ele>
        <time>2022-05-08T09:39:21Z</time>
      </trkpt>
      <trkpt lat="45.01141" lon="0.53336">
        <ele>114.4</ele>
        <time>2022-05-08T09:39:26Z</time>
      </trkpt>
      <trkpt lat="45.01145" lon="0.53341">
        <ele>114.4</ele>
        <time>2022-05-08T09:39:27Z</time>
      </trkpt>
      <trkpt lat="45.01183" lon="0.53387">
        <ele>114.2</ele>
        <time>2022-05-08T09:39:35Z</time>
      </trkpt>
      <trkpt lat="45.01219" lon="0.53429">
        <ele>113.7</ele>
        <time>2022-05-08T09:39:42Z</time>
      </trkpt>
      <trkpt lat="45.01255" lon="0.5347">
        <ele>113.3</ele>
        <time>2022-05-08T09:39:49Z</time>
      </trkpt>
      <trkpt lat="45.01291" lon="0.5351">
        <ele>113.1</ele>
        <time>2022-05-08T09:39:56Z</time>
      </trkpt>
      <trkpt lat="45.01318" lon="0.53529">
        <ele>113.6</ele>
        <time>2022-05-08T09:40:01Z</time>
      </trkpt>
      <trkpt lat="45.01339" lon="0.53537">
        <ele>114</ele>
        <time>2022-05-08T09:40:05Z</time>
      </trkpt>
      <trkpt lat="45.01378" lon="0.5355">
        <ele>114.8</ele>
        <time>2022-05-08T09:40:11Z</time>
      </trkpt>
      <trkpt lat="45.01409" lon="0.53563">
        <ele>115.7</ele>
        <time>2022-05-08T09:40:16Z</time>
      </trkpt>
      <trkpt lat="45.01451" lon="0.5358">
        <ele>116.5</ele>
        <time>2022-05-08T09:40:23Z</time>
      </trkpt>
      <trkpt lat="45.01476" lon="0.53591">
        <ele>117.2</ele>
        <time>2022-05-08T09:40:27Z</time>
      </trkpt>
      <trkpt lat="45.01521" lon="0.5361">
        <ele>118.5</ele>
        <time>2022-05-08T09:40:35Z</time>
      </trkpt>
      <trkpt lat="45.0155" lon="0.53622">
        <ele>119.4</ele>
        <time>2022-05-08T09:40:41Z</time>
      </trkpt>
      <trkpt lat="45.01562" lon="0.53627">
        <ele>119.7</ele>
        <time>2022-05-08T09:40:44Z</time>
      </trkpt>
      <trkpt lat="45.01567" lon="0.53629">
        <ele>119.8</ele>
        <time>2022-05-08T09:40:45Z</time>
      </trkpt>
      <trkpt lat="45.01597" lon="0.53643">
        <ele>119.7</ele>
        <time>2022-05-08T09:40:51Z</time>
      </trkpt>
      <trkpt lat="45.01615" lon="0.53655">
        <ele>120</ele>
        <time>2022-05-08T09:40:55Z</time>
      </trkpt>
      <trkpt lat="45.0162" lon="0.53658">
        <ele>120.2</ele>
        <time>2022-05-08T09:40:56Z</time>
      </trkpt>
      <trkpt lat="45.01633" lon="0.53667">
        <ele>120.4</ele>
        <time>2022-05-08T09:40:59Z</time>
      </trkpt>
      <trkpt lat="45.01636" lon="0.53669">
        <ele>120.5</ele>
        <time>2022-05-08T09:41:00Z</time>
      </trkpt>
      <trkpt lat="45.01651" lon="0.53678">
        <ele>121.1</ele>
        <time>2022-05-08T09:41:04Z</time>
      </trkpt>
      <trkpt lat="45.01661" lon="0.53688">
        <ele>121.5</ele>
        <time>2022-05-08T09:41:06Z</time>
      </trkpt>
      <trkpt lat="45.01676" lon="0.53703">
        <ele>122</ele>
        <time>2022-05-08T09:41:10Z</time>
      </trkpt>
      <trkpt lat="45.01688" lon="0.53716">
        <ele>122.3</ele>
        <time>2022-05-08T09:41:13Z</time>
      </trkpt>
      <trkpt lat="45.01713" lon="0.53742">
        <ele>122.1</ele>
        <time>2022-05-08T09:41:19Z</time>
      </trkpt>
      <trkpt lat="45.01746" lon="0.53776">
        <ele>121.8</ele>
        <time>2022-05-08T09:41:26Z</time>
      </trkpt>
      <trkpt lat="45.01786" lon="0.53817">
        <ele>121.3</ele>
        <time>2022-05-08T09:41:34Z</time>
      </trkpt>
      <trkpt lat="45.01815" lon="0.53847">
        <ele>121</ele>
        <time>2022-05-08T09:41:40Z</time>
      </trkpt>
      <trkpt lat="45.01829" lon="0.53861">
        <ele>121</ele>
        <time>2022-05-08T09:41:43Z</time>
      </trkpt>
      <trkpt lat="45.01833" lon="0.53865">
        <ele>121</ele>
        <time>2022-05-08T09:41:44Z</time>
      </trkpt>
      <trkpt lat="45.01837" lon="0.53869">
        <ele>120.9</ele>
        <time>2022-05-08T09:41:45Z</time>
      </trkpt>
      <trkpt lat="45.01849" lon="0.53863">
        <ele>120.2</ele>
        <time>2022-05-08T09:41:47Z</time>
      </trkpt>
      <trkpt lat="45.01886" lon="0.53846">
        <ele>118.7</ele>
        <time>2022-05-08T09:41:53Z</time>
      </trkpt>
      <trkpt lat="45.01933" lon="0.53827">
        <ele>118.5</ele>
        <time>2022-05-08T09:42:01Z</time>
      </trkpt>
      <trkpt lat="45.01951" lon="0.53821">
        <ele>118.9</ele>
        <time>2022-05-08T09:42:04Z</time>
      </trkpt>
      <trkpt lat="45.0198" lon="0.53812">
        <ele>120.8</ele>
        <time>2022-05-08T09:42:11Z</time>
      </trkpt>
      <trkpt lat="45.02002" lon="0.53802">
        <ele>123.8</ele>
        <time>2022-05-08T09:42:18Z</time>
      </trkpt>
      <trkpt lat="45.02019" lon="0.53792">
        <ele>125.4</ele>
        <time>2022-05-08T09:42:24Z</time>
      </trkpt>
      <trkpt lat="45.02027" lon="0.53787">
        <ele>126</ele>
        <time>2022-05-08T09:42:28Z</time>
      </trkpt>
      <trkpt lat="45.02032" lon="0.53782">
        <ele>126.5</ele>
        <time>2022-05-08T09:42:32Z</time>
      </trkpt>
      <trkpt lat="45.02027" lon="0.53765">
        <ele>126.5</ele>
        <time>2022-05-08T09:42:37Z</time>
      </trkpt>
      <trkpt lat="45.02023" lon="0.53741">
        <ele>126.6</ele>
        <time>2022-05-08T09:42:44Z</time>
      </trkpt>
      <trkpt lat="45.02021" lon="0.53734">
        <ele>126.6</ele>
        <time>2022-05-08T09:42:46Z</time>
      </trkpt>
      <trkpt lat="45.02024" lon="0.53723">
        <ele>127.2</ele>
        <time>2022-05-08T09:42:48Z</time>
      </trkpt>
      <trkpt lat="45.02034" lon="0.53728">
        <ele>127.9</ele>
        <time>2022-05-08T09:42:52Z</time>
      </trkpt>
      <trkpt lat="45.02041" lon="0.53735">
        <ele>128.4</ele>
        <time>2022-05-08T09:42:55Z</time>
      </trkpt>
      <trkpt lat="45.02043" lon="0.53737">
        <ele>128.6</ele>
        <time>2022-05-08T09:42:56Z</time>
      </trkpt>
      <trkpt lat="45.02053" lon="0.53753">
        <ele>129.4</ele>
        <time>2022-05-08T09:43:01Z</time>
      </trkpt>
      <trkpt lat="45.02065" lon="0.53777">
        <ele>129.7</ele>
        <time>2022-05-08T09:43:07Z</time>
      </trkpt>
      <trkpt lat="45.02069" lon="0.53784">
        <ele>129.7</ele>
        <time>2022-05-08T09:43:09Z</time>
      </trkpt>
      <trkpt lat="45.02071" lon="0.53788">
        <ele>129.8</ele>
        <time>2022-05-08T09:43:10Z</time>
      </trkpt>
      <trkpt lat="45.02078" lon="0.53802">
        <ele>129.9</ele>
        <time>2022-05-08T09:43:14Z</time>
      </trkpt>
      <trkpt lat="45.02082" lon="0.53808">
        <ele>129.9</ele>
        <time>2022-05-08T09:43:16Z</time>
      </trkpt>
      <trkpt lat="45.02084" lon="0.53811">
        <ele>130</ele>
        <time>2022-05-08T09:43:18Z</time>
      </trkpt>
      <trkpt lat="45.02092" lon="0.53799">
        <ele>130.1</ele>
        <time>2022-05-08T09:43:20Z</time>
      </trkpt>
      <trkpt lat="45.02092" lon="0.53798">
        <ele>130.1</ele>
        <time>2022-05-08T09:43:22Z</time>
      </trkpt>
      <trkpt lat="45.02092" lon="0.53798">
        <ele>130.1</ele>
        <time>2022-05-08T09:43:23Z</time>
      </trkpt>
    </trkseg>
  </trk>
</gpx>